<?xml version="1.0" encoding="UTF-8" standalone="no" ?>
<gpx xmlns="http://www.topografix.com/GPX/1/1" xmlns:xsi="http://www.w3.org/2001/XMLSchema-instance" xsi:schemaLocation="http://www.topografix.com/GPX/1/1 http://www.topografix.com/GPX/1/1/gpx.xsd" version="1.1" creator="VisuGPX - https://www.visugpx.com">
  <metadata>
    <name>130928ROBPourraquesArgentisCamps</name>
    <desc><![CDATA[27 km et 460 m de dénivelé]]></desc>
  </metadata>
  <trk>
    <name><![CDATA[130928ROBPourraquesArgentisCamps]]></name>
    <trkseg>
      <trkpt lat="43.404" lon="6.06522">
        <ele>235.19999694824</ele>
        <time>2013-09-28T12:09:09Z</time>
      </trkpt>
      <trkpt lat="43.404" lon="6.06522">
        <ele>235.19999694824</ele>
        <time>2013-09-28T12:09:10Z</time>
      </trkpt>
      <trkpt lat="43.404" lon="6.06522">
        <ele>235.19999694824</ele>
        <time>2013-09-28T12:09:12Z</time>
      </trkpt>
      <trkpt lat="43.40401" lon="6.06524">
        <ele>235.19999694824</ele>
        <time>2013-09-28T12:09:13Z</time>
      </trkpt>
      <trkpt lat="43.40403" lon="6.06521">
        <ele>235.19999694824</ele>
        <time>2013-09-28T12:09:14Z</time>
      </trkpt>
      <trkpt lat="43.40405" lon="6.06514">
        <ele>235.19999694824</ele>
        <time>2013-09-28T12:09:17Z</time>
      </trkpt>
      <trkpt lat="43.40405" lon="6.06508">
        <ele>235.19999694824</ele>
        <time>2013-09-28T12:09:19Z</time>
      </trkpt>
      <trkpt lat="43.40403" lon="6.06487">
        <ele>235.19999694824</ele>
        <time>2013-09-28T12:09:24Z</time>
      </trkpt>
      <trkpt lat="43.40392" lon="6.06485">
        <ele>235.19999694824</ele>
        <time>2013-09-28T12:09:28Z</time>
      </trkpt>
      <trkpt lat="43.40376" lon="6.06496">
        <ele>235.19999694824</ele>
        <time>2013-09-28T12:09:34Z</time>
      </trkpt>
      <trkpt lat="43.40323" lon="6.06531">
        <ele>235.19999694824</ele>
        <time>2013-09-28T12:09:53Z</time>
      </trkpt>
      <trkpt lat="43.40305" lon="6.06545">
        <ele>235.19999694824</ele>
        <time>2013-09-28T12:09:59Z</time>
      </trkpt>
      <trkpt lat="43.40281" lon="6.06548">
        <ele>235.19999694824</ele>
        <time>2013-09-28T12:10:07Z</time>
      </trkpt>
      <trkpt lat="43.40266" lon="6.06555">
        <ele>235.19999694824</ele>
        <time>2013-09-28T12:10:12Z</time>
      </trkpt>
      <trkpt lat="43.4026" lon="6.06558">
        <ele>235.19999694824</ele>
        <time>2013-09-28T12:10:14Z</time>
      </trkpt>
      <trkpt lat="43.40245" lon="6.06567">
        <ele>235.19999694824</ele>
        <time>2013-09-28T12:10:18Z</time>
      </trkpt>
      <trkpt lat="43.40245" lon="6.06567">
        <ele>235.19999694824</ele>
        <time>2013-09-28T12:10:20Z</time>
      </trkpt>
      <trkpt lat="43.40238" lon="6.06573">
        <ele>235.19999694824</ele>
        <time>2013-09-28T12:10:23Z</time>
      </trkpt>
      <trkpt lat="43.40234" lon="6.06586">
        <ele>235.19999694824</ele>
        <time>2013-09-28T12:10:27Z</time>
      </trkpt>
      <trkpt lat="43.40229" lon="6.06601">
        <ele>235.19999694824</ele>
        <time>2013-09-28T12:10:32Z</time>
      </trkpt>
      <trkpt lat="43.40215" lon="6.0662">
        <ele>235.19999694824</ele>
        <time>2013-09-28T12:10:39Z</time>
      </trkpt>
      <trkpt lat="43.40203" lon="6.06643">
        <ele>235.19999694824</ele>
        <time>2013-09-28T12:10:47Z</time>
      </trkpt>
      <trkpt lat="43.40196" lon="6.06665">
        <ele>235.19999694824</ele>
        <time>2013-09-28T12:10:54Z</time>
      </trkpt>
      <trkpt lat="43.40186" lon="6.06689">
        <ele>235.19999694824</ele>
        <time>2013-09-28T12:11:02Z</time>
      </trkpt>
      <trkpt lat="43.40178" lon="6.06708">
        <ele>235.19999694824</ele>
        <time>2013-09-28T12:11:08Z</time>
      </trkpt>
      <trkpt lat="43.40167" lon="6.06734">
        <ele>235.60000610352</ele>
        <time>2013-09-28T12:11:17Z</time>
      </trkpt>
      <trkpt lat="43.40157" lon="6.06757">
        <ele>237.39999389648</ele>
        <time>2013-09-28T12:11:25Z</time>
      </trkpt>
      <trkpt lat="43.40142" lon="6.06796">
        <ele>237.39999389648</ele>
        <time>2013-09-28T12:11:38Z</time>
      </trkpt>
      <trkpt lat="43.40139" lon="6.06805">
        <ele>238.60000610352</ele>
        <time>2013-09-28T12:11:41Z</time>
      </trkpt>
      <trkpt lat="43.40131" lon="6.0683">
        <ele>239.39999389648</ele>
        <time>2013-09-28T12:11:49Z</time>
      </trkpt>
      <trkpt lat="43.40123" lon="6.06851">
        <ele>239.80000305176</ele>
        <time>2013-09-28T12:11:57Z</time>
      </trkpt>
      <trkpt lat="43.40121" lon="6.06856">
        <ele>240.60000610352</ele>
        <time>2013-09-28T12:11:59Z</time>
      </trkpt>
      <trkpt lat="43.40121" lon="6.06859">
        <ele>241.60000610352</ele>
        <time>2013-09-28T12:12:00Z</time>
      </trkpt>
      <trkpt lat="43.40115" lon="6.06869">
        <ele>241.60000610352</ele>
        <time>2013-09-28T12:12:05Z</time>
      </trkpt>
      <trkpt lat="43.40114" lon="6.06873">
        <ele>241.60000610352</ele>
        <time>2013-09-28T12:12:07Z</time>
      </trkpt>
      <trkpt lat="43.40113" lon="6.06874">
        <ele>241.60000610352</ele>
        <time>2013-09-28T12:12:08Z</time>
      </trkpt>
      <trkpt lat="43.40112" lon="6.06875">
        <ele>241.60000610352</ele>
        <time>2013-09-28T12:12:09Z</time>
      </trkpt>
      <trkpt lat="43.40112" lon="6.06877">
        <ele>241.60000610352</ele>
        <time>2013-09-28T12:12:11Z</time>
      </trkpt>
      <trkpt lat="43.40113" lon="6.06878">
        <ele>241.60000610352</ele>
        <time>2013-09-28T12:12:16Z</time>
      </trkpt>
      <trkpt lat="43.4011" lon="6.06891">
        <ele>241.60000610352</ele>
        <time>2013-09-28T12:12:21Z</time>
      </trkpt>
      <trkpt lat="43.40109" lon="6.06899">
        <ele>241.60000610352</ele>
        <time>2013-09-28T12:12:23Z</time>
      </trkpt>
      <trkpt lat="43.40111" lon="6.06926">
        <ele>241.60000610352</ele>
        <time>2013-09-28T12:12:29Z</time>
      </trkpt>
      <trkpt lat="43.40116" lon="6.06957">
        <ele>241.60000610352</ele>
        <time>2013-09-28T12:12:36Z</time>
      </trkpt>
      <trkpt lat="43.40119" lon="6.06971">
        <ele>241.60000610352</ele>
        <time>2013-09-28T12:12:39Z</time>
      </trkpt>
      <trkpt lat="43.4012" lon="6.06986">
        <ele>241.60000610352</ele>
        <time>2013-09-28T12:12:42Z</time>
      </trkpt>
      <trkpt lat="43.4012" lon="6.07036">
        <ele>241.60000610352</ele>
        <time>2013-09-28T12:12:54Z</time>
      </trkpt>
      <trkpt lat="43.4012" lon="6.07045">
        <ele>241.60000610352</ele>
        <time>2013-09-28T12:12:56Z</time>
      </trkpt>
      <trkpt lat="43.4012" lon="6.07057">
        <ele>241.60000610352</ele>
        <time>2013-09-28T12:12:59Z</time>
      </trkpt>
      <trkpt lat="43.4012" lon="6.07073">
        <ele>241.60000610352</ele>
        <time>2013-09-28T12:13:03Z</time>
      </trkpt>
      <trkpt lat="43.40123" lon="6.07103">
        <ele>241.60000610352</ele>
        <time>2013-09-28T12:13:10Z</time>
      </trkpt>
      <trkpt lat="43.40129" lon="6.07138">
        <ele>241.60000610352</ele>
        <time>2013-09-28T12:13:18Z</time>
      </trkpt>
      <trkpt lat="43.40139" lon="6.0719">
        <ele>241.60000610352</ele>
        <time>2013-09-28T12:13:30Z</time>
      </trkpt>
      <trkpt lat="43.40143" lon="6.07213">
        <ele>241.60000610352</ele>
        <time>2013-09-28T12:13:35Z</time>
      </trkpt>
      <trkpt lat="43.40146" lon="6.07241">
        <ele>241.60000610352</ele>
        <time>2013-09-28T12:13:41Z</time>
      </trkpt>
      <trkpt lat="43.40147" lon="6.0725">
        <ele>241.60000610352</ele>
        <time>2013-09-28T12:13:43Z</time>
      </trkpt>
      <trkpt lat="43.40148" lon="6.07277">
        <ele>241.60000610352</ele>
        <time>2013-09-28T12:13:49Z</time>
      </trkpt>
      <trkpt lat="43.40145" lon="6.07324">
        <ele>241.60000610352</ele>
        <time>2013-09-28T12:14:01Z</time>
      </trkpt>
      <trkpt lat="43.40144" lon="6.07339">
        <ele>241.60000610352</ele>
        <time>2013-09-28T12:14:05Z</time>
      </trkpt>
      <trkpt lat="43.40139" lon="6.07367">
        <ele>241.60000610352</ele>
        <time>2013-09-28T12:14:13Z</time>
      </trkpt>
      <trkpt lat="43.40139" lon="6.07371">
        <ele>241.60000610352</ele>
        <time>2013-09-28T12:14:14Z</time>
      </trkpt>
      <trkpt lat="43.40138" lon="6.07388">
        <ele>241.60000610352</ele>
        <time>2013-09-28T12:14:19Z</time>
      </trkpt>
      <trkpt lat="43.40144" lon="6.07419">
        <ele>241.60000610352</ele>
        <time>2013-09-28T12:14:28Z</time>
      </trkpt>
      <trkpt lat="43.40148" lon="6.07445">
        <ele>241.60000610352</ele>
        <time>2013-09-28T12:14:36Z</time>
      </trkpt>
      <trkpt lat="43.40147" lon="6.07469">
        <ele>241.60000610352</ele>
        <time>2013-09-28T12:14:43Z</time>
      </trkpt>
      <trkpt lat="43.40146" lon="6.07478">
        <ele>241.60000610352</ele>
        <time>2013-09-28T12:14:46Z</time>
      </trkpt>
      <trkpt lat="43.40144" lon="6.07492">
        <ele>242.80000305176</ele>
        <time>2013-09-28T12:14:51Z</time>
      </trkpt>
      <trkpt lat="43.40142" lon="6.07496">
        <ele>243.60000610352</ele>
        <time>2013-09-28T12:14:53Z</time>
      </trkpt>
      <trkpt lat="43.40138" lon="6.07507">
        <ele>243.60000610352</ele>
        <time>2013-09-28T12:14:58Z</time>
      </trkpt>
      <trkpt lat="43.40135" lon="6.07516">
        <ele>244.39999389648</ele>
        <time>2013-09-28T12:15:02Z</time>
      </trkpt>
      <trkpt lat="43.40134" lon="6.07521">
        <ele>245.19999694824</ele>
        <time>2013-09-28T12:15:04Z</time>
      </trkpt>
      <trkpt lat="43.40125" lon="6.07537">
        <ele>245.80000305176</ele>
        <time>2013-09-28T12:15:11Z</time>
      </trkpt>
      <trkpt lat="43.40116" lon="6.07555">
        <ele>245.80000305176</ele>
        <time>2013-09-28T12:15:18Z</time>
      </trkpt>
      <trkpt lat="43.40113" lon="6.07559">
        <ele>245.80000305176</ele>
        <time>2013-09-28T12:15:20Z</time>
      </trkpt>
      <trkpt lat="43.40102" lon="6.07577">
        <ele>245.80000305176</ele>
        <time>2013-09-28T12:15:27Z</time>
      </trkpt>
      <trkpt lat="43.40098" lon="6.07586">
        <ele>245.80000305176</ele>
        <time>2013-09-28T12:15:30Z</time>
      </trkpt>
      <trkpt lat="43.40096" lon="6.07588">
        <ele>245.80000305176</ele>
        <time>2013-09-28T12:15:31Z</time>
      </trkpt>
      <trkpt lat="43.40096" lon="6.07588">
        <ele>245.80000305176</ele>
        <time>2013-09-28T12:15:32Z</time>
      </trkpt>
      <trkpt lat="43.40096" lon="6.07588">
        <ele>245.80000305176</ele>
        <time>2013-09-28T12:15:44Z</time>
      </trkpt>
      <trkpt lat="43.40096" lon="6.07588">
        <ele>245.80000305176</ele>
        <time>2013-09-28T12:16:03Z</time>
      </trkpt>
      <trkpt lat="43.40096" lon="6.07589">
        <ele>245.80000305176</ele>
        <time>2013-09-28T12:16:07Z</time>
      </trkpt>
      <trkpt lat="43.40096" lon="6.07589">
        <ele>245.80000305176</ele>
        <time>2013-09-28T12:16:26Z</time>
      </trkpt>
      <trkpt lat="43.40096" lon="6.07589">
        <ele>245.80000305176</ele>
        <time>2013-09-28T12:16:55Z</time>
      </trkpt>
      <trkpt lat="43.40096" lon="6.07589">
        <ele>245.80000305176</ele>
        <time>2013-09-28T12:17:04Z</time>
      </trkpt>
      <trkpt lat="43.40095" lon="6.07591">
        <ele>245.80000305176</ele>
        <time>2013-09-28T12:17:13Z</time>
      </trkpt>
      <trkpt lat="43.40094" lon="6.07594">
        <ele>245.80000305176</ele>
        <time>2013-09-28T12:17:15Z</time>
      </trkpt>
      <trkpt lat="43.40092" lon="6.07598">
        <ele>245.80000305176</ele>
        <time>2013-09-28T12:17:17Z</time>
      </trkpt>
      <trkpt lat="43.40091" lon="6.076">
        <ele>245.80000305176</ele>
        <time>2013-09-28T12:17:18Z</time>
      </trkpt>
      <trkpt lat="43.40091" lon="6.07608">
        <ele>245.80000305176</ele>
        <time>2013-09-28T12:17:21Z</time>
      </trkpt>
      <trkpt lat="43.40091" lon="6.07616">
        <ele>246.19999694824</ele>
        <time>2013-09-28T12:17:24Z</time>
      </trkpt>
      <trkpt lat="43.40091" lon="6.07619">
        <ele>246.60000610352</ele>
        <time>2013-09-28T12:17:25Z</time>
      </trkpt>
      <trkpt lat="43.4009" lon="6.07625">
        <ele>247.39999389648</ele>
        <time>2013-09-28T12:17:27Z</time>
      </trkpt>
      <trkpt lat="43.40089" lon="6.07641">
        <ele>247.80000305176</ele>
        <time>2013-09-28T12:17:33Z</time>
      </trkpt>
      <trkpt lat="43.40088" lon="6.07647">
        <ele>247.80000305176</ele>
        <time>2013-09-28T12:17:35Z</time>
      </trkpt>
      <trkpt lat="43.40084" lon="6.0766">
        <ele>248.19999694824</ele>
        <time>2013-09-28T12:17:40Z</time>
      </trkpt>
      <trkpt lat="43.40082" lon="6.07669">
        <ele>249.60000610352</ele>
        <time>2013-09-28T12:17:43Z</time>
      </trkpt>
      <trkpt lat="43.40081" lon="6.07673">
        <ele>250</ele>
        <time>2013-09-28T12:17:44Z</time>
      </trkpt>
      <trkpt lat="43.40076" lon="6.07682">
        <ele>250</ele>
        <time>2013-09-28T12:17:47Z</time>
      </trkpt>
      <trkpt lat="43.40074" lon="6.07687">
        <ele>250.80000305176</ele>
        <time>2013-09-28T12:17:49Z</time>
      </trkpt>
      <trkpt lat="43.40067" lon="6.07699">
        <ele>252</ele>
        <time>2013-09-28T12:17:54Z</time>
      </trkpt>
      <trkpt lat="43.4006" lon="6.07707">
        <ele>252</ele>
        <time>2013-09-28T12:17:58Z</time>
      </trkpt>
      <trkpt lat="43.40041" lon="6.07732">
        <ele>252</ele>
        <time>2013-09-28T12:18:09Z</time>
      </trkpt>
      <trkpt lat="43.40029" lon="6.07758">
        <ele>252.39999389648</ele>
        <time>2013-09-28T12:18:18Z</time>
      </trkpt>
      <trkpt lat="43.40028" lon="6.07764">
        <ele>253.19999694824</ele>
        <time>2013-09-28T12:18:20Z</time>
      </trkpt>
      <trkpt lat="43.40023" lon="6.07781">
        <ele>254</ele>
        <time>2013-09-28T12:18:25Z</time>
      </trkpt>
      <trkpt lat="43.40021" lon="6.07791">
        <ele>254</ele>
        <time>2013-09-28T12:18:28Z</time>
      </trkpt>
      <trkpt lat="43.40016" lon="6.07805">
        <ele>254</ele>
        <time>2013-09-28T12:18:33Z</time>
      </trkpt>
      <trkpt lat="43.40012" lon="6.07819">
        <ele>254</ele>
        <time>2013-09-28T12:18:38Z</time>
      </trkpt>
      <trkpt lat="43.40011" lon="6.07824">
        <ele>254</ele>
        <time>2013-09-28T12:18:40Z</time>
      </trkpt>
      <trkpt lat="43.40001" lon="6.07861">
        <ele>254</ele>
        <time>2013-09-28T12:18:53Z</time>
      </trkpt>
      <trkpt lat="43.39997" lon="6.07877">
        <ele>254</ele>
        <time>2013-09-28T12:18:59Z</time>
      </trkpt>
      <trkpt lat="43.39992" lon="6.07898">
        <ele>254</ele>
        <time>2013-09-28T12:19:07Z</time>
      </trkpt>
      <trkpt lat="43.39987" lon="6.07913">
        <ele>255.39999389648</ele>
        <time>2013-09-28T12:19:13Z</time>
      </trkpt>
      <trkpt lat="43.39983" lon="6.07935">
        <ele>256.20001220703</ele>
        <time>2013-09-28T12:19:22Z</time>
      </trkpt>
      <trkpt lat="43.39979" lon="6.07952">
        <ele>258.20001220703</ele>
        <time>2013-09-28T12:19:29Z</time>
      </trkpt>
      <trkpt lat="43.39974" lon="6.07971">
        <ele>258.20001220703</ele>
        <time>2013-09-28T12:19:36Z</time>
      </trkpt>
      <trkpt lat="43.3997" lon="6.07975">
        <ele>258.20001220703</ele>
        <time>2013-09-28T12:19:39Z</time>
      </trkpt>
      <trkpt lat="43.39963" lon="6.07978">
        <ele>258.20001220703</ele>
        <time>2013-09-28T12:19:43Z</time>
      </trkpt>
      <trkpt lat="43.39949" lon="6.07983">
        <ele>260.39999389648</ele>
        <time>2013-09-28T12:19:49Z</time>
      </trkpt>
      <trkpt lat="43.3994" lon="6.07987">
        <ele>260.39999389648</ele>
        <time>2013-09-28T12:19:53Z</time>
      </trkpt>
      <trkpt lat="43.39934" lon="6.0799">
        <ele>260.39999389648</ele>
        <time>2013-09-28T12:19:56Z</time>
      </trkpt>
      <trkpt lat="43.39926" lon="6.07995">
        <ele>260.39999389648</ele>
        <time>2013-09-28T12:20:00Z</time>
      </trkpt>
      <trkpt lat="43.39915" lon="6.08008">
        <ele>260.39999389648</ele>
        <time>2013-09-28T12:20:06Z</time>
      </trkpt>
      <trkpt lat="43.39903" lon="6.08025">
        <ele>260.39999389648</ele>
        <time>2013-09-28T12:20:12Z</time>
      </trkpt>
      <trkpt lat="43.39896" lon="6.08028">
        <ele>260.39999389648</ele>
        <time>2013-09-28T12:20:15Z</time>
      </trkpt>
      <trkpt lat="43.39883" lon="6.08029">
        <ele>260.39999389648</ele>
        <time>2013-09-28T12:20:20Z</time>
      </trkpt>
      <trkpt lat="43.39859" lon="6.08017">
        <ele>260.39999389648</ele>
        <time>2013-09-28T12:20:28Z</time>
      </trkpt>
      <trkpt lat="43.39853" lon="6.08012">
        <ele>260.39999389648</ele>
        <time>2013-09-28T12:20:31Z</time>
      </trkpt>
      <trkpt lat="43.39839" lon="6.08003">
        <ele>260.39999389648</ele>
        <time>2013-09-28T12:20:36Z</time>
      </trkpt>
      <trkpt lat="43.39828" lon="6.07997">
        <ele>260.39999389648</ele>
        <time>2013-09-28T12:20:41Z</time>
      </trkpt>
      <trkpt lat="43.39809" lon="6.07988">
        <ele>260.39999389648</ele>
        <time>2013-09-28T12:20:49Z</time>
      </trkpt>
      <trkpt lat="43.39798" lon="6.07983">
        <ele>260.39999389648</ele>
        <time>2013-09-28T12:20:54Z</time>
      </trkpt>
      <trkpt lat="43.39783" lon="6.07977">
        <ele>260.39999389648</ele>
        <time>2013-09-28T12:21:00Z</time>
      </trkpt>
      <trkpt lat="43.39776" lon="6.07973">
        <ele>260.39999389648</ele>
        <time>2013-09-28T12:21:04Z</time>
      </trkpt>
      <trkpt lat="43.39772" lon="6.07971">
        <ele>260.39999389648</ele>
        <time>2013-09-28T12:21:06Z</time>
      </trkpt>
      <trkpt lat="43.39769" lon="6.0797">
        <ele>260.39999389648</ele>
        <time>2013-09-28T12:21:08Z</time>
      </trkpt>
      <trkpt lat="43.39755" lon="6.07964">
        <ele>260.39999389648</ele>
        <time>2013-09-28T12:21:15Z</time>
      </trkpt>
      <trkpt lat="43.39747" lon="6.07958">
        <ele>262</ele>
        <time>2013-09-28T12:21:19Z</time>
      </trkpt>
      <trkpt lat="43.39743" lon="6.07955">
        <ele>262.39999389648</ele>
        <time>2013-09-28T12:21:21Z</time>
      </trkpt>
      <trkpt lat="43.39728" lon="6.07941">
        <ele>262.39999389648</ele>
        <time>2013-09-28T12:21:29Z</time>
      </trkpt>
      <trkpt lat="43.39714" lon="6.07923">
        <ele>264.39999389648</ele>
        <time>2013-09-28T12:21:39Z</time>
      </trkpt>
      <trkpt lat="43.3971" lon="6.07919">
        <ele>264.39999389648</ele>
        <time>2013-09-28T12:21:42Z</time>
      </trkpt>
      <trkpt lat="43.39704" lon="6.07911">
        <ele>265</ele>
        <time>2013-09-28T12:21:47Z</time>
      </trkpt>
      <trkpt lat="43.39688" lon="6.07895">
        <ele>267.79998779297</ele>
        <time>2013-09-28T12:21:58Z</time>
      </trkpt>
      <trkpt lat="43.39685" lon="6.07894">
        <ele>268.60000610352</ele>
        <time>2013-09-28T12:22:00Z</time>
      </trkpt>
      <trkpt lat="43.39682" lon="6.07892">
        <ele>268.60000610352</ele>
        <time>2013-09-28T12:22:02Z</time>
      </trkpt>
      <trkpt lat="43.3966" lon="6.07887">
        <ele>268.60000610352</ele>
        <time>2013-09-28T12:22:14Z</time>
      </trkpt>
      <trkpt lat="43.39656" lon="6.07887">
        <ele>268.60000610352</ele>
        <time>2013-09-28T12:22:16Z</time>
      </trkpt>
      <trkpt lat="43.39649" lon="6.07888">
        <ele>270.60000610352</ele>
        <time>2013-09-28T12:22:20Z</time>
      </trkpt>
      <trkpt lat="43.39645" lon="6.07889">
        <ele>270.60000610352</ele>
        <time>2013-09-28T12:22:22Z</time>
      </trkpt>
      <trkpt lat="43.39637" lon="6.07892">
        <ele>270.60000610352</ele>
        <time>2013-09-28T12:22:27Z</time>
      </trkpt>
      <trkpt lat="43.39619" lon="6.07899">
        <ele>270.60000610352</ele>
        <time>2013-09-28T12:22:37Z</time>
      </trkpt>
      <trkpt lat="43.39602" lon="6.07904">
        <ele>272</ele>
        <time>2013-09-28T12:22:47Z</time>
      </trkpt>
      <trkpt lat="43.39601" lon="6.07904">
        <ele>272.39999389648</ele>
        <time>2013-09-28T12:22:48Z</time>
      </trkpt>
      <trkpt lat="43.39598" lon="6.07903">
        <ele>272.79998779297</ele>
        <time>2013-09-28T12:22:51Z</time>
      </trkpt>
      <trkpt lat="43.39592" lon="6.07904">
        <ele>273.20001220703</ele>
        <time>2013-09-28T12:22:55Z</time>
      </trkpt>
      <trkpt lat="43.39587" lon="6.07905">
        <ele>274.39999389648</ele>
        <time>2013-09-28T12:22:58Z</time>
      </trkpt>
      <trkpt lat="43.39586" lon="6.07906">
        <ele>274.79998779297</ele>
        <time>2013-09-28T12:22:59Z</time>
      </trkpt>
      <trkpt lat="43.3958" lon="6.07913">
        <ele>274.79998779297</ele>
        <time>2013-09-28T12:23:03Z</time>
      </trkpt>
      <trkpt lat="43.39579" lon="6.07918">
        <ele>274.79998779297</ele>
        <time>2013-09-28T12:23:05Z</time>
      </trkpt>
      <trkpt lat="43.39577" lon="6.07927">
        <ele>274.79998779297</ele>
        <time>2013-09-28T12:23:10Z</time>
      </trkpt>
      <trkpt lat="43.39576" lon="6.0793">
        <ele>274.79998779297</ele>
        <time>2013-09-28T12:23:12Z</time>
      </trkpt>
      <trkpt lat="43.39575" lon="6.07931">
        <ele>275.39999389648</ele>
        <time>2013-09-28T12:23:13Z</time>
      </trkpt>
      <trkpt lat="43.39573" lon="6.07931">
        <ele>275.79998779297</ele>
        <time>2013-09-28T12:23:14Z</time>
      </trkpt>
      <trkpt lat="43.39562" lon="6.07935">
        <ele>277</ele>
        <time>2013-09-28T12:23:21Z</time>
      </trkpt>
      <trkpt lat="43.39555" lon="6.07937">
        <ele>278.20001220703</ele>
        <time>2013-09-28T12:23:25Z</time>
      </trkpt>
      <trkpt lat="43.3954" lon="6.07943">
        <ele>279.60000610352</ele>
        <time>2013-09-28T12:23:36Z</time>
      </trkpt>
      <trkpt lat="43.39534" lon="6.07946">
        <ele>281.20001220703</ele>
        <time>2013-09-28T12:23:40Z</time>
      </trkpt>
      <trkpt lat="43.39512" lon="6.07954">
        <ele>283.20001220703</ele>
        <time>2013-09-28T12:23:55Z</time>
      </trkpt>
      <trkpt lat="43.39503" lon="6.07959">
        <ele>283.20001220703</ele>
        <time>2013-09-28T12:24:02Z</time>
      </trkpt>
      <trkpt lat="43.39497" lon="6.07962">
        <ele>283.20001220703</ele>
        <time>2013-09-28T12:24:06Z</time>
      </trkpt>
      <trkpt lat="43.39488" lon="6.07966">
        <ele>285.39999389648</ele>
        <time>2013-09-28T12:24:12Z</time>
      </trkpt>
      <trkpt lat="43.39483" lon="6.07968">
        <ele>285.39999389648</ele>
        <time>2013-09-28T12:24:15Z</time>
      </trkpt>
      <trkpt lat="43.39476" lon="6.0797">
        <ele>285.39999389648</ele>
        <time>2013-09-28T12:24:19Z</time>
      </trkpt>
      <trkpt lat="43.39462" lon="6.07975">
        <ele>285.39999389648</ele>
        <time>2013-09-28T12:24:28Z</time>
      </trkpt>
      <trkpt lat="43.3945" lon="6.07979">
        <ele>285.39999389648</ele>
        <time>2013-09-28T12:24:36Z</time>
      </trkpt>
      <trkpt lat="43.39436" lon="6.07986">
        <ele>287.39999389648</ele>
        <time>2013-09-28T12:24:45Z</time>
      </trkpt>
      <trkpt lat="43.39432" lon="6.07987">
        <ele>287.39999389648</ele>
        <time>2013-09-28T12:24:48Z</time>
      </trkpt>
      <trkpt lat="43.3942" lon="6.07992">
        <ele>287.39999389648</ele>
        <time>2013-09-28T12:24:56Z</time>
      </trkpt>
      <trkpt lat="43.39407" lon="6.07998">
        <ele>287.39999389648</ele>
        <time>2013-09-28T12:25:04Z</time>
      </trkpt>
      <trkpt lat="43.39402" lon="6.08">
        <ele>287.79998779297</ele>
        <time>2013-09-28T12:25:09Z</time>
      </trkpt>
      <trkpt lat="43.3939" lon="6.08008">
        <ele>289.60000610352</ele>
        <time>2013-09-28T12:25:18Z</time>
      </trkpt>
      <trkpt lat="43.39385" lon="6.08015">
        <ele>290</ele>
        <time>2013-09-28T12:25:23Z</time>
      </trkpt>
      <trkpt lat="43.39381" lon="6.08021">
        <ele>291.60000610352</ele>
        <time>2013-09-28T12:25:27Z</time>
      </trkpt>
      <trkpt lat="43.39364" lon="6.08051">
        <ele>292.79998779297</ele>
        <time>2013-09-28T12:25:45Z</time>
      </trkpt>
      <trkpt lat="43.39359" lon="6.08059">
        <ele>293.60000610352</ele>
        <time>2013-09-28T12:25:50Z</time>
      </trkpt>
      <trkpt lat="43.39353" lon="6.08069">
        <ele>293.60000610352</ele>
        <time>2013-09-28T12:25:56Z</time>
      </trkpt>
      <trkpt lat="43.3935" lon="6.08075">
        <ele>293.60000610352</ele>
        <time>2013-09-28T12:25:59Z</time>
      </trkpt>
      <trkpt lat="43.39346" lon="6.08084">
        <ele>294.79998779297</ele>
        <time>2013-09-28T12:26:03Z</time>
      </trkpt>
      <trkpt lat="43.3933" lon="6.08103">
        <ele>296</ele>
        <time>2013-09-28T12:26:16Z</time>
      </trkpt>
      <trkpt lat="43.39325" lon="6.0811">
        <ele>297.79998779297</ele>
        <time>2013-09-28T12:26:20Z</time>
      </trkpt>
      <trkpt lat="43.39321" lon="6.0812">
        <ele>297.79998779297</ele>
        <time>2013-09-28T12:26:25Z</time>
      </trkpt>
      <trkpt lat="43.39311" lon="6.08147">
        <ele>299.79998779297</ele>
        <time>2013-09-28T12:26:37Z</time>
      </trkpt>
      <trkpt lat="43.39306" lon="6.0816">
        <ele>299.79998779297</ele>
        <time>2013-09-28T12:26:43Z</time>
      </trkpt>
      <trkpt lat="43.39302" lon="6.08173">
        <ele>301.60000610352</ele>
        <time>2013-09-28T12:26:48Z</time>
      </trkpt>
      <trkpt lat="43.39301" lon="6.08178">
        <ele>302</ele>
        <time>2013-09-28T12:26:50Z</time>
      </trkpt>
      <trkpt lat="43.39296" lon="6.08191">
        <ele>302</ele>
        <time>2013-09-28T12:26:56Z</time>
      </trkpt>
      <trkpt lat="43.39292" lon="6.08198">
        <ele>302.79998779297</ele>
        <time>2013-09-28T12:27:00Z</time>
      </trkpt>
      <trkpt lat="43.39291" lon="6.082">
        <ele>303.20001220703</ele>
        <time>2013-09-28T12:27:01Z</time>
      </trkpt>
      <trkpt lat="43.39288" lon="6.08215">
        <ele>304</ele>
        <time>2013-09-28T12:27:08Z</time>
      </trkpt>
      <trkpt lat="43.39287" lon="6.08225">
        <ele>304</ele>
        <time>2013-09-28T12:27:13Z</time>
      </trkpt>
      <trkpt lat="43.39284" lon="6.08239">
        <ele>304.79998779297</ele>
        <time>2013-09-28T12:27:20Z</time>
      </trkpt>
      <trkpt lat="43.39283" lon="6.08243">
        <ele>305.60000610352</ele>
        <time>2013-09-28T12:27:22Z</time>
      </trkpt>
      <trkpt lat="43.3928" lon="6.0825">
        <ele>306</ele>
        <time>2013-09-28T12:27:26Z</time>
      </trkpt>
      <trkpt lat="43.39277" lon="6.08255">
        <ele>306</ele>
        <time>2013-09-28T12:27:29Z</time>
      </trkpt>
      <trkpt lat="43.39277" lon="6.08259">
        <ele>306</ele>
        <time>2013-09-28T12:27:31Z</time>
      </trkpt>
      <trkpt lat="43.39271" lon="6.08266">
        <ele>306.39999389648</ele>
        <time>2013-09-28T12:27:36Z</time>
      </trkpt>
      <trkpt lat="43.3927" lon="6.08268">
        <ele>307.79998779297</ele>
        <time>2013-09-28T12:27:38Z</time>
      </trkpt>
      <trkpt lat="43.39269" lon="6.08269">
        <ele>308.20001220703</ele>
        <time>2013-09-28T12:27:39Z</time>
      </trkpt>
      <trkpt lat="43.39269" lon="6.08269">
        <ele>308.20001220703</ele>
        <time>2013-09-28T12:27:42Z</time>
      </trkpt>
      <trkpt lat="43.39267" lon="6.08274">
        <ele>308.20001220703</ele>
        <time>2013-09-28T12:27:48Z</time>
      </trkpt>
      <trkpt lat="43.39261" lon="6.0829">
        <ele>308.20001220703</ele>
        <time>2013-09-28T12:27:57Z</time>
      </trkpt>
      <trkpt lat="43.3926" lon="6.08293">
        <ele>308.60000610352</ele>
        <time>2013-09-28T12:27:59Z</time>
      </trkpt>
      <trkpt lat="43.39259" lon="6.08295">
        <ele>309</ele>
        <time>2013-09-28T12:28:00Z</time>
      </trkpt>
      <trkpt lat="43.39258" lon="6.08299">
        <ele>310.39999389648</ele>
        <time>2013-09-28T12:28:02Z</time>
      </trkpt>
      <trkpt lat="43.39257" lon="6.08307">
        <ele>310.39999389648</ele>
        <time>2013-09-28T12:28:05Z</time>
      </trkpt>
      <trkpt lat="43.39256" lon="6.08314">
        <ele>310.39999389648</ele>
        <time>2013-09-28T12:28:09Z</time>
      </trkpt>
      <trkpt lat="43.39255" lon="6.08322">
        <ele>310.79998779297</ele>
        <time>2013-09-28T12:28:12Z</time>
      </trkpt>
      <trkpt lat="43.39248" lon="6.08345">
        <ele>312.39999389648</ele>
        <time>2013-09-28T12:28:24Z</time>
      </trkpt>
      <trkpt lat="43.39246" lon="6.08351">
        <ele>313.60000610352</ele>
        <time>2013-09-28T12:28:27Z</time>
      </trkpt>
      <trkpt lat="43.3924" lon="6.08371">
        <ele>314.39999389648</ele>
        <time>2013-09-28T12:28:38Z</time>
      </trkpt>
      <trkpt lat="43.39234" lon="6.08381">
        <ele>316.20001220703</ele>
        <time>2013-09-28T12:28:44Z</time>
      </trkpt>
      <trkpt lat="43.39231" lon="6.08396">
        <ele>316.60000610352</ele>
        <time>2013-09-28T12:28:53Z</time>
      </trkpt>
      <trkpt lat="43.39229" lon="6.08402">
        <ele>317.39999389648</ele>
        <time>2013-09-28T12:28:57Z</time>
      </trkpt>
      <trkpt lat="43.39228" lon="6.08407">
        <ele>318.79998779297</ele>
        <time>2013-09-28T12:29:00Z</time>
      </trkpt>
      <trkpt lat="43.39223" lon="6.08428">
        <ele>319.60000610352</ele>
        <time>2013-09-28T12:29:12Z</time>
      </trkpt>
      <trkpt lat="43.39219" lon="6.08442">
        <ele>320.79998779297</ele>
        <time>2013-09-28T12:29:21Z</time>
      </trkpt>
      <trkpt lat="43.39218" lon="6.08449">
        <ele>321.20001220703</ele>
        <time>2013-09-28T12:29:25Z</time>
      </trkpt>
      <trkpt lat="43.39216" lon="6.0846">
        <ele>322.79998779297</ele>
        <time>2013-09-28T12:29:31Z</time>
      </trkpt>
      <trkpt lat="43.39214" lon="6.08474">
        <ele>324.60000610352</ele>
        <time>2013-09-28T12:29:41Z</time>
      </trkpt>
      <trkpt lat="43.39211" lon="6.08487">
        <ele>325</ele>
        <time>2013-09-28T12:29:49Z</time>
      </trkpt>
      <trkpt lat="43.39211" lon="6.0849">
        <ele>325</ele>
        <time>2013-09-28T12:29:54Z</time>
      </trkpt>
      <trkpt lat="43.39211" lon="6.0849">
        <ele>325</ele>
        <time>2013-09-28T12:30:11Z</time>
      </trkpt>
      <trkpt lat="43.39211" lon="6.0849">
        <ele>325</ele>
        <time>2013-09-28T12:30:38Z</time>
      </trkpt>
      <trkpt lat="43.39211" lon="6.0849">
        <ele>325</ele>
        <time>2013-09-28T12:30:41Z</time>
      </trkpt>
      <trkpt lat="43.39211" lon="6.0849">
        <ele>325</ele>
        <time>2013-09-28T12:30:57Z</time>
      </trkpt>
      <trkpt lat="43.3921" lon="6.08491">
        <ele>325</ele>
        <time>2013-09-28T12:31:04Z</time>
      </trkpt>
      <trkpt lat="43.3921" lon="6.08491">
        <ele>325</ele>
        <time>2013-09-28T12:31:14Z</time>
      </trkpt>
      <trkpt lat="43.3921" lon="6.08491">
        <ele>325</ele>
        <time>2013-09-28T12:31:17Z</time>
      </trkpt>
      <trkpt lat="43.39209" lon="6.08493">
        <ele>325</ele>
        <time>2013-09-28T12:31:20Z</time>
      </trkpt>
      <trkpt lat="43.39209" lon="6.08493">
        <ele>325</ele>
        <time>2013-09-28T12:31:44Z</time>
      </trkpt>
      <trkpt lat="43.39209" lon="6.08493">
        <ele>325</ele>
        <time>2013-09-28T12:32:12Z</time>
      </trkpt>
      <trkpt lat="43.39209" lon="6.08493">
        <ele>325</ele>
        <time>2013-09-28T12:32:37Z</time>
      </trkpt>
      <trkpt lat="43.39209" lon="6.08493">
        <ele>325</ele>
        <time>2013-09-28T12:32:40Z</time>
      </trkpt>
      <trkpt lat="43.39209" lon="6.08494">
        <ele>325</ele>
        <time>2013-09-28T12:32:47Z</time>
      </trkpt>
      <trkpt lat="43.39209" lon="6.08494">
        <ele>325</ele>
        <time>2013-09-28T12:33:00Z</time>
      </trkpt>
      <trkpt lat="43.39209" lon="6.08494">
        <ele>325</ele>
        <time>2013-09-28T12:33:07Z</time>
      </trkpt>
      <trkpt lat="43.39208" lon="6.08496">
        <ele>325</ele>
        <time>2013-09-28T12:33:14Z</time>
      </trkpt>
      <trkpt lat="43.39202" lon="6.08503">
        <ele>325</ele>
        <time>2013-09-28T12:33:20Z</time>
      </trkpt>
      <trkpt lat="43.39199" lon="6.08508">
        <ele>325</ele>
        <time>2013-09-28T12:33:23Z</time>
      </trkpt>
      <trkpt lat="43.39193" lon="6.08513">
        <ele>325</ele>
        <time>2013-09-28T12:33:26Z</time>
      </trkpt>
      <trkpt lat="43.39186" lon="6.0853">
        <ele>325</ele>
        <time>2013-09-28T12:33:32Z</time>
      </trkpt>
      <trkpt lat="43.3918" lon="6.08548">
        <ele>325</ele>
        <time>2013-09-28T12:33:37Z</time>
      </trkpt>
      <trkpt lat="43.39172" lon="6.08575">
        <ele>325</ele>
        <time>2013-09-28T12:33:43Z</time>
      </trkpt>
      <trkpt lat="43.39167" lon="6.08604">
        <ele>325</ele>
        <time>2013-09-28T12:33:49Z</time>
      </trkpt>
      <trkpt lat="43.39162" lon="6.08626">
        <ele>325</ele>
        <time>2013-09-28T12:33:54Z</time>
      </trkpt>
      <trkpt lat="43.39157" lon="6.0865">
        <ele>325</ele>
        <time>2013-09-28T12:34:00Z</time>
      </trkpt>
      <trkpt lat="43.39151" lon="6.08668">
        <ele>325</ele>
        <time>2013-09-28T12:34:05Z</time>
      </trkpt>
      <trkpt lat="43.39149" lon="6.08691">
        <ele>325</ele>
        <time>2013-09-28T12:34:10Z</time>
      </trkpt>
      <trkpt lat="43.39146" lon="6.08711">
        <ele>325</ele>
        <time>2013-09-28T12:34:15Z</time>
      </trkpt>
      <trkpt lat="43.39141" lon="6.08728">
        <ele>325</ele>
        <time>2013-09-28T12:34:20Z</time>
      </trkpt>
      <trkpt lat="43.39137" lon="6.08745">
        <ele>325</ele>
        <time>2013-09-28T12:34:25Z</time>
      </trkpt>
      <trkpt lat="43.39129" lon="6.08787">
        <ele>325</ele>
        <time>2013-09-28T12:34:37Z</time>
      </trkpt>
      <trkpt lat="43.39124" lon="6.08805">
        <ele>325</ele>
        <time>2013-09-28T12:34:43Z</time>
      </trkpt>
      <trkpt lat="43.39121" lon="6.08825">
        <ele>325</ele>
        <time>2013-09-28T12:34:48Z</time>
      </trkpt>
      <trkpt lat="43.39117" lon="6.08841">
        <ele>325</ele>
        <time>2013-09-28T12:34:53Z</time>
      </trkpt>
      <trkpt lat="43.39114" lon="6.08859">
        <ele>325</ele>
        <time>2013-09-28T12:34:58Z</time>
      </trkpt>
      <trkpt lat="43.39109" lon="6.08885">
        <ele>325</ele>
        <time>2013-09-28T12:35:05Z</time>
      </trkpt>
      <trkpt lat="43.39106" lon="6.08901">
        <ele>325</ele>
        <time>2013-09-28T12:35:09Z</time>
      </trkpt>
      <trkpt lat="43.39102" lon="6.08926">
        <ele>325</ele>
        <time>2013-09-28T12:35:15Z</time>
      </trkpt>
      <trkpt lat="43.39096" lon="6.08946">
        <ele>325</ele>
        <time>2013-09-28T12:35:21Z</time>
      </trkpt>
      <trkpt lat="43.3909" lon="6.08961">
        <ele>326.60000610352</ele>
        <time>2013-09-28T12:35:26Z</time>
      </trkpt>
      <trkpt lat="43.39083" lon="6.08982">
        <ele>327</ele>
        <time>2013-09-28T12:35:32Z</time>
      </trkpt>
      <trkpt lat="43.39074" lon="6.09001">
        <ele>327</ele>
        <time>2013-09-28T12:35:38Z</time>
      </trkpt>
      <trkpt lat="43.39066" lon="6.09019">
        <ele>327</ele>
        <time>2013-09-28T12:35:43Z</time>
      </trkpt>
      <trkpt lat="43.39051" lon="6.09051">
        <ele>327</ele>
        <time>2013-09-28T12:35:54Z</time>
      </trkpt>
      <trkpt lat="43.39045" lon="6.09065">
        <ele>327.39999389648</ele>
        <time>2013-09-28T12:35:58Z</time>
      </trkpt>
      <trkpt lat="43.39042" lon="6.09074">
        <ele>328.60000610352</ele>
        <time>2013-09-28T12:36:01Z</time>
      </trkpt>
      <trkpt lat="43.39035" lon="6.09092">
        <ele>329</ele>
        <time>2013-09-28T12:36:06Z</time>
      </trkpt>
      <trkpt lat="43.39023" lon="6.09138">
        <ele>329</ele>
        <time>2013-09-28T12:36:19Z</time>
      </trkpt>
      <trkpt lat="43.39017" lon="6.0916">
        <ele>329</ele>
        <time>2013-09-28T12:36:25Z</time>
      </trkpt>
      <trkpt lat="43.39012" lon="6.09183">
        <ele>329</ele>
        <time>2013-09-28T12:36:32Z</time>
      </trkpt>
      <trkpt lat="43.39006" lon="6.09211">
        <ele>331.20001220703</ele>
        <time>2013-09-28T12:36:39Z</time>
      </trkpt>
      <trkpt lat="43.39001" lon="6.09235">
        <ele>331.20001220703</ele>
        <time>2013-09-28T12:36:45Z</time>
      </trkpt>
      <trkpt lat="43.38996" lon="6.09254">
        <ele>331.20001220703</ele>
        <time>2013-09-28T12:36:50Z</time>
      </trkpt>
      <trkpt lat="43.38994" lon="6.09262">
        <ele>331.20001220703</ele>
        <time>2013-09-28T12:36:52Z</time>
      </trkpt>
      <trkpt lat="43.38989" lon="6.09277">
        <ele>331.20001220703</ele>
        <time>2013-09-28T12:36:57Z</time>
      </trkpt>
      <trkpt lat="43.38982" lon="6.09291">
        <ele>331.20001220703</ele>
        <time>2013-09-28T12:37:03Z</time>
      </trkpt>
      <trkpt lat="43.38979" lon="6.09295">
        <ele>331.60000610352</ele>
        <time>2013-09-28T12:37:05Z</time>
      </trkpt>
      <trkpt lat="43.38974" lon="6.09301">
        <ele>333.20001220703</ele>
        <time>2013-09-28T12:37:08Z</time>
      </trkpt>
      <trkpt lat="43.3897" lon="6.09312">
        <ele>333.20001220703</ele>
        <time>2013-09-28T12:37:12Z</time>
      </trkpt>
      <trkpt lat="43.38958" lon="6.09334">
        <ele>333.20001220703</ele>
        <time>2013-09-28T12:37:22Z</time>
      </trkpt>
      <trkpt lat="43.38952" lon="6.0934">
        <ele>333.60000610352</ele>
        <time>2013-09-28T12:37:26Z</time>
      </trkpt>
      <trkpt lat="43.38944" lon="6.09345">
        <ele>335.39999389648</ele>
        <time>2013-09-28T12:37:31Z</time>
      </trkpt>
      <trkpt lat="43.3894" lon="6.09348">
        <ele>335.39999389648</ele>
        <time>2013-09-28T12:37:33Z</time>
      </trkpt>
      <trkpt lat="43.38932" lon="6.0936">
        <ele>335.39999389648</ele>
        <time>2013-09-28T12:37:37Z</time>
      </trkpt>
      <trkpt lat="43.3893" lon="6.09362">
        <ele>335.39999389648</ele>
        <time>2013-09-28T12:37:38Z</time>
      </trkpt>
      <trkpt lat="43.38923" lon="6.09367">
        <ele>335.39999389648</ele>
        <time>2013-09-28T12:37:41Z</time>
      </trkpt>
      <trkpt lat="43.38919" lon="6.0937">
        <ele>335.39999389648</ele>
        <time>2013-09-28T12:37:43Z</time>
      </trkpt>
      <trkpt lat="43.38914" lon="6.09377">
        <ele>335.39999389648</ele>
        <time>2013-09-28T12:37:47Z</time>
      </trkpt>
      <trkpt lat="43.38908" lon="6.09384">
        <ele>335.79998779297</ele>
        <time>2013-09-28T12:37:50Z</time>
      </trkpt>
      <trkpt lat="43.38905" lon="6.09389">
        <ele>337.20001220703</ele>
        <time>2013-09-28T12:37:53Z</time>
      </trkpt>
      <trkpt lat="43.389" lon="6.09393">
        <ele>337.60000610352</ele>
        <time>2013-09-28T12:37:56Z</time>
      </trkpt>
      <trkpt lat="43.38895" lon="6.09397">
        <ele>337.60000610352</ele>
        <time>2013-09-28T12:37:59Z</time>
      </trkpt>
      <trkpt lat="43.38894" lon="6.09399">
        <ele>337.60000610352</ele>
        <time>2013-09-28T12:38:02Z</time>
      </trkpt>
      <trkpt lat="43.38891" lon="6.0941">
        <ele>339.20001220703</ele>
        <time>2013-09-28T12:38:06Z</time>
      </trkpt>
      <trkpt lat="43.3889" lon="6.09411">
        <ele>339.60000610352</ele>
        <time>2013-09-28T12:38:07Z</time>
      </trkpt>
      <trkpt lat="43.38888" lon="6.09412">
        <ele>339.60000610352</ele>
        <time>2013-09-28T12:38:11Z</time>
      </trkpt>
      <trkpt lat="43.38887" lon="6.09413">
        <ele>339.60000610352</ele>
        <time>2013-09-28T12:38:16Z</time>
      </trkpt>
      <trkpt lat="43.38886" lon="6.09413">
        <ele>339.60000610352</ele>
        <time>2013-09-28T12:38:24Z</time>
      </trkpt>
      <trkpt lat="43.38885" lon="6.09415">
        <ele>339.60000610352</ele>
        <time>2013-09-28T12:38:28Z</time>
      </trkpt>
      <trkpt lat="43.38884" lon="6.09416">
        <ele>339.60000610352</ele>
        <time>2013-09-28T12:38:33Z</time>
      </trkpt>
      <trkpt lat="43.38884" lon="6.09416">
        <ele>339.60000610352</ele>
        <time>2013-09-28T12:38:36Z</time>
      </trkpt>
      <trkpt lat="43.38883" lon="6.09417">
        <ele>339.60000610352</ele>
        <time>2013-09-28T12:38:41Z</time>
      </trkpt>
      <trkpt lat="43.38882" lon="6.09418">
        <ele>340</ele>
        <time>2013-09-28T12:38:43Z</time>
      </trkpt>
      <trkpt lat="43.38882" lon="6.09418">
        <ele>341.20001220703</ele>
        <time>2013-09-28T12:38:45Z</time>
      </trkpt>
      <trkpt lat="43.38882" lon="6.09418">
        <ele>341.60000610352</ele>
        <time>2013-09-28T12:38:48Z</time>
      </trkpt>
      <trkpt lat="43.3888" lon="6.0942">
        <ele>341.60000610352</ele>
        <time>2013-09-28T12:38:53Z</time>
      </trkpt>
      <trkpt lat="43.38879" lon="6.0942">
        <ele>341.60000610352</ele>
        <time>2013-09-28T12:38:54Z</time>
      </trkpt>
      <trkpt lat="43.38876" lon="6.09421">
        <ele>341.60000610352</ele>
        <time>2013-09-28T12:39:00Z</time>
      </trkpt>
      <trkpt lat="43.38873" lon="6.09426">
        <ele>341.60000610352</ele>
        <time>2013-09-28T12:39:03Z</time>
      </trkpt>
      <trkpt lat="43.38873" lon="6.09429">
        <ele>341.60000610352</ele>
        <time>2013-09-28T12:39:04Z</time>
      </trkpt>
      <trkpt lat="43.38874" lon="6.09434">
        <ele>341.60000610352</ele>
        <time>2013-09-28T12:39:06Z</time>
      </trkpt>
      <trkpt lat="43.38874" lon="6.09441">
        <ele>341.60000610352</ele>
        <time>2013-09-28T12:39:09Z</time>
      </trkpt>
      <trkpt lat="43.38874" lon="6.09443">
        <ele>341.60000610352</ele>
        <time>2013-09-28T12:39:10Z</time>
      </trkpt>
      <trkpt lat="43.38873" lon="6.0945">
        <ele>341.60000610352</ele>
        <time>2013-09-28T12:39:13Z</time>
      </trkpt>
      <trkpt lat="43.38873" lon="6.09454">
        <ele>341.60000610352</ele>
        <time>2013-09-28T12:39:15Z</time>
      </trkpt>
      <trkpt lat="43.38871" lon="6.09468">
        <ele>341.60000610352</ele>
        <time>2013-09-28T12:39:19Z</time>
      </trkpt>
      <trkpt lat="43.38873" lon="6.09485">
        <ele>339.60000610352</ele>
        <time>2013-09-28T12:39:24Z</time>
      </trkpt>
      <trkpt lat="43.38875" lon="6.09507">
        <ele>339.60000610352</ele>
        <time>2013-09-28T12:39:32Z</time>
      </trkpt>
      <trkpt lat="43.38875" lon="6.09524">
        <ele>339.60000610352</ele>
        <time>2013-09-28T12:39:37Z</time>
      </trkpt>
      <trkpt lat="43.38876" lon="6.09555">
        <ele>339.60000610352</ele>
        <time>2013-09-28T12:39:45Z</time>
      </trkpt>
      <trkpt lat="43.3888" lon="6.09589">
        <ele>339.60000610352</ele>
        <time>2013-09-28T12:39:51Z</time>
      </trkpt>
      <trkpt lat="43.38882" lon="6.09603">
        <ele>339.60000610352</ele>
        <time>2013-09-28T12:39:53Z</time>
      </trkpt>
      <trkpt lat="43.38884" lon="6.0961">
        <ele>339</ele>
        <time>2013-09-28T12:39:54Z</time>
      </trkpt>
      <trkpt lat="43.3889" lon="6.09621">
        <ele>338.20001220703</ele>
        <time>2013-09-28T12:39:56Z</time>
      </trkpt>
      <trkpt lat="43.38896" lon="6.09629">
        <ele>337.39999389648</ele>
        <time>2013-09-28T12:39:58Z</time>
      </trkpt>
      <trkpt lat="43.38898" lon="6.09639">
        <ele>337.39999389648</ele>
        <time>2013-09-28T12:40:00Z</time>
      </trkpt>
      <trkpt lat="43.38899" lon="6.09673">
        <ele>337.39999389648</ele>
        <time>2013-09-28T12:40:05Z</time>
      </trkpt>
      <trkpt lat="43.389" lon="6.09689">
        <ele>337</ele>
        <time>2013-09-28T12:40:07Z</time>
      </trkpt>
      <trkpt lat="43.389" lon="6.09697">
        <ele>336.60000610352</ele>
        <time>2013-09-28T12:40:08Z</time>
      </trkpt>
      <trkpt lat="43.38901" lon="6.09705">
        <ele>336.20001220703</ele>
        <time>2013-09-28T12:40:09Z</time>
      </trkpt>
      <trkpt lat="43.38903" lon="6.09722">
        <ele>335.39999389648</ele>
        <time>2013-09-28T12:40:11Z</time>
      </trkpt>
      <trkpt lat="43.38905" lon="6.09746">
        <ele>334.79998779297</ele>
        <time>2013-09-28T12:40:14Z</time>
      </trkpt>
      <trkpt lat="43.38901" lon="6.09779">
        <ele>333</ele>
        <time>2013-09-28T12:40:18Z</time>
      </trkpt>
      <trkpt lat="43.38898" lon="6.09795">
        <ele>332.60000610352</ele>
        <time>2013-09-28T12:40:20Z</time>
      </trkpt>
      <trkpt lat="43.38896" lon="6.09804">
        <ele>332</ele>
        <time>2013-09-28T12:40:21Z</time>
      </trkpt>
      <trkpt lat="43.38893" lon="6.09819">
        <ele>331</ele>
        <time>2013-09-28T12:40:23Z</time>
      </trkpt>
      <trkpt lat="43.38889" lon="6.09841">
        <ele>328.60000610352</ele>
        <time>2013-09-28T12:40:26Z</time>
      </trkpt>
      <trkpt lat="43.3888" lon="6.09892">
        <ele>324.20001220703</ele>
        <time>2013-09-28T12:40:31Z</time>
      </trkpt>
      <trkpt lat="43.38879" lon="6.09902">
        <ele>323.20001220703</ele>
        <time>2013-09-28T12:40:32Z</time>
      </trkpt>
      <trkpt lat="43.38877" lon="6.09913">
        <ele>322.39999389648</ele>
        <time>2013-09-28T12:40:33Z</time>
      </trkpt>
      <trkpt lat="43.38874" lon="6.09923">
        <ele>321.39999389648</ele>
        <time>2013-09-28T12:40:34Z</time>
      </trkpt>
      <trkpt lat="43.38869" lon="6.09944">
        <ele>319.60000610352</ele>
        <time>2013-09-28T12:40:36Z</time>
      </trkpt>
      <trkpt lat="43.38868" lon="6.09954">
        <ele>318.79998779297</ele>
        <time>2013-09-28T12:40:37Z</time>
      </trkpt>
      <trkpt lat="43.38866" lon="6.09964">
        <ele>318</ele>
        <time>2013-09-28T12:40:38Z</time>
      </trkpt>
      <trkpt lat="43.38865" lon="6.09974">
        <ele>317.20001220703</ele>
        <time>2013-09-28T12:40:39Z</time>
      </trkpt>
      <trkpt lat="43.38864" lon="6.09983">
        <ele>316.60000610352</ele>
        <time>2013-09-28T12:40:40Z</time>
      </trkpt>
      <trkpt lat="43.38864" lon="6.09992">
        <ele>315.79998779297</ele>
        <time>2013-09-28T12:40:41Z</time>
      </trkpt>
      <trkpt lat="43.38863" lon="6.10002">
        <ele>315.20001220703</ele>
        <time>2013-09-28T12:40:42Z</time>
      </trkpt>
      <trkpt lat="43.38861" lon="6.10011">
        <ele>314.60000610352</ele>
        <time>2013-09-28T12:40:43Z</time>
      </trkpt>
      <trkpt lat="43.38859" lon="6.10021">
        <ele>313.79998779297</ele>
        <time>2013-09-28T12:40:44Z</time>
      </trkpt>
      <trkpt lat="43.38854" lon="6.1004">
        <ele>313.39999389648</ele>
        <time>2013-09-28T12:40:46Z</time>
      </trkpt>
      <trkpt lat="43.38852" lon="6.10049">
        <ele>313</ele>
        <time>2013-09-28T12:40:47Z</time>
      </trkpt>
      <trkpt lat="43.3885" lon="6.10056">
        <ele>312.39999389648</ele>
        <time>2013-09-28T12:40:48Z</time>
      </trkpt>
      <trkpt lat="43.38847" lon="6.10062">
        <ele>311</ele>
        <time>2013-09-28T12:40:49Z</time>
      </trkpt>
      <trkpt lat="43.38846" lon="6.10065">
        <ele>310.39999389648</ele>
        <time>2013-09-28T12:40:50Z</time>
      </trkpt>
      <trkpt lat="43.38845" lon="6.10067">
        <ele>309.79998779297</ele>
        <time>2013-09-28T12:40:51Z</time>
      </trkpt>
      <trkpt lat="43.38845" lon="6.10066">
        <ele>309</ele>
        <time>2013-09-28T12:40:52Z</time>
      </trkpt>
      <trkpt lat="43.38845" lon="6.10066">
        <ele>309</ele>
        <time>2013-09-28T12:40:54Z</time>
      </trkpt>
      <trkpt lat="43.38845" lon="6.10066">
        <ele>309</ele>
        <time>2013-09-28T12:41:06Z</time>
      </trkpt>
      <trkpt lat="43.38847" lon="6.10067">
        <ele>309</ele>
        <time>2013-09-28T12:41:11Z</time>
      </trkpt>
      <trkpt lat="43.38848" lon="6.10064">
        <ele>309</ele>
        <time>2013-09-28T12:41:14Z</time>
      </trkpt>
      <trkpt lat="43.38849" lon="6.10061">
        <ele>309</ele>
        <time>2013-09-28T12:41:16Z</time>
      </trkpt>
      <trkpt lat="43.38852" lon="6.10052">
        <ele>309</ele>
        <time>2013-09-28T12:41:19Z</time>
      </trkpt>
      <trkpt lat="43.38852" lon="6.10048">
        <ele>309</ele>
        <time>2013-09-28T12:41:20Z</time>
      </trkpt>
      <trkpt lat="43.38853" lon="6.10045">
        <ele>309</ele>
        <time>2013-09-28T12:41:21Z</time>
      </trkpt>
      <trkpt lat="43.38857" lon="6.10031">
        <ele>309</ele>
        <time>2013-09-28T12:41:25Z</time>
      </trkpt>
      <trkpt lat="43.38858" lon="6.10021">
        <ele>309</ele>
        <time>2013-09-28T12:41:28Z</time>
      </trkpt>
      <trkpt lat="43.3886" lon="6.10012">
        <ele>309.39999389648</ele>
        <time>2013-09-28T12:41:31Z</time>
      </trkpt>
      <trkpt lat="43.38861" lon="6.1001">
        <ele>309.79998779297</ele>
        <time>2013-09-28T12:41:32Z</time>
      </trkpt>
      <trkpt lat="43.38862" lon="6.10007">
        <ele>310.20001220703</ele>
        <time>2013-09-28T12:41:33Z</time>
      </trkpt>
      <trkpt lat="43.38863" lon="6.10003">
        <ele>311</ele>
        <time>2013-09-28T12:41:35Z</time>
      </trkpt>
      <trkpt lat="43.38863" lon="6.10001">
        <ele>311</ele>
        <time>2013-09-28T12:41:36Z</time>
      </trkpt>
      <trkpt lat="43.38863" lon="6.10001">
        <ele>311</ele>
        <time>2013-09-28T12:41:41Z</time>
      </trkpt>
      <trkpt lat="43.38865" lon="6.09997">
        <ele>311</ele>
        <time>2013-09-28T12:41:46Z</time>
      </trkpt>
      <trkpt lat="43.38865" lon="6.09996">
        <ele>311</ele>
        <time>2013-09-28T12:41:52Z</time>
      </trkpt>
      <trkpt lat="43.38865" lon="6.09996">
        <ele>311</ele>
        <time>2013-09-28T12:42:14Z</time>
      </trkpt>
      <trkpt lat="43.38865" lon="6.09996">
        <ele>311</ele>
        <time>2013-09-28T12:42:28Z</time>
      </trkpt>
      <trkpt lat="43.38865" lon="6.09996">
        <ele>311</ele>
        <time>2013-09-28T12:42:32Z</time>
      </trkpt>
      <trkpt lat="43.38865" lon="6.09996">
        <ele>311</ele>
        <time>2013-09-28T12:42:55Z</time>
      </trkpt>
      <trkpt lat="43.38866" lon="6.09996">
        <ele>311</ele>
        <time>2013-09-28T12:43:57Z</time>
      </trkpt>
      <trkpt lat="43.38866" lon="6.09996">
        <ele>311</ele>
        <time>2013-09-28T12:44:23Z</time>
      </trkpt>
      <trkpt lat="43.38866" lon="6.09997">
        <ele>311</ele>
        <time>2013-09-28T12:46:52Z</time>
      </trkpt>
      <trkpt lat="43.38866" lon="6.09998">
        <ele>311</ele>
        <time>2013-09-28T12:47:22Z</time>
      </trkpt>
      <trkpt lat="43.38866" lon="6.09998">
        <ele>311</ele>
        <time>2013-09-28T12:47:35Z</time>
      </trkpt>
      <trkpt lat="43.38866" lon="6.09998">
        <ele>311</ele>
        <time>2013-09-28T12:47:51Z</time>
      </trkpt>
      <trkpt lat="43.38866" lon="6.09998">
        <ele>311</ele>
        <time>2013-09-28T12:48:29Z</time>
      </trkpt>
      <trkpt lat="43.38865" lon="6.09998">
        <ele>311</ele>
        <time>2013-09-28T12:49:53Z</time>
      </trkpt>
      <trkpt lat="43.38865" lon="6.09998">
        <ele>313.20001220703</ele>
        <time>2013-09-28T12:50:10Z</time>
      </trkpt>
      <trkpt lat="43.38865" lon="6.09998">
        <ele>313.20001220703</ele>
        <time>2013-09-28T12:50:58Z</time>
      </trkpt>
      <trkpt lat="43.38865" lon="6.09998">
        <ele>313.20001220703</ele>
        <time>2013-09-28T12:51:08Z</time>
      </trkpt>
      <trkpt lat="43.38865" lon="6.09998">
        <ele>313.20001220703</ele>
        <time>2013-09-28T12:51:11Z</time>
      </trkpt>
      <trkpt lat="43.38865" lon="6.09998">
        <ele>313.20001220703</ele>
        <time>2013-09-28T12:51:35Z</time>
      </trkpt>
      <trkpt lat="43.38865" lon="6.09998">
        <ele>313.20001220703</ele>
        <time>2013-09-28T12:51:50Z</time>
      </trkpt>
      <trkpt lat="43.38866" lon="6.09998">
        <ele>313.20001220703</ele>
        <time>2013-09-28T12:51:56Z</time>
      </trkpt>
      <trkpt lat="43.38866" lon="6.09998">
        <ele>313.20001220703</ele>
        <time>2013-09-28T12:52:17Z</time>
      </trkpt>
      <trkpt lat="43.38865" lon="6.09998">
        <ele>313.20001220703</ele>
        <time>2013-09-28T12:52:44Z</time>
      </trkpt>
      <trkpt lat="43.38865" lon="6.09998">
        <ele>313.20001220703</ele>
        <time>2013-09-28T12:53:00Z</time>
      </trkpt>
      <trkpt lat="43.38865" lon="6.09998">
        <ele>313.20001220703</ele>
        <time>2013-09-28T12:54:15Z</time>
      </trkpt>
      <trkpt lat="43.38865" lon="6.09998">
        <ele>315.39999389648</ele>
        <time>2013-09-28T12:54:45Z</time>
      </trkpt>
      <trkpt lat="43.38866" lon="6.09999">
        <ele>315.39999389648</ele>
        <time>2013-09-28T12:54:54Z</time>
      </trkpt>
      <trkpt lat="43.38866" lon="6.09999">
        <ele>315.39999389648</ele>
        <time>2013-09-28T12:55:13Z</time>
      </trkpt>
      <trkpt lat="43.38865" lon="6.10003">
        <ele>315.39999389648</ele>
        <time>2013-09-28T12:55:17Z</time>
      </trkpt>
      <trkpt lat="43.38864" lon="6.10005">
        <ele>315.39999389648</ele>
        <time>2013-09-28T12:55:18Z</time>
      </trkpt>
      <trkpt lat="43.38861" lon="6.10024">
        <ele>315.39999389648</ele>
        <time>2013-09-28T12:55:23Z</time>
      </trkpt>
      <trkpt lat="43.38857" lon="6.10043">
        <ele>315.39999389648</ele>
        <time>2013-09-28T12:55:26Z</time>
      </trkpt>
      <trkpt lat="43.38856" lon="6.10051">
        <ele>314.79998779297</ele>
        <time>2013-09-28T12:55:27Z</time>
      </trkpt>
      <trkpt lat="43.38853" lon="6.10058">
        <ele>314.39999389648</ele>
        <time>2013-09-28T12:55:28Z</time>
      </trkpt>
      <trkpt lat="43.38851" lon="6.10065">
        <ele>314</ele>
        <time>2013-09-28T12:55:29Z</time>
      </trkpt>
      <trkpt lat="43.38848" lon="6.10073">
        <ele>313.39999389648</ele>
        <time>2013-09-28T12:55:30Z</time>
      </trkpt>
      <trkpt lat="43.38846" lon="6.1008">
        <ele>313</ele>
        <time>2013-09-28T12:55:31Z</time>
      </trkpt>
      <trkpt lat="43.38844" lon="6.10088">
        <ele>312.60000610352</ele>
        <time>2013-09-28T12:55:32Z</time>
      </trkpt>
      <trkpt lat="43.38842" lon="6.10095">
        <ele>312.20001220703</ele>
        <time>2013-09-28T12:55:33Z</time>
      </trkpt>
      <trkpt lat="43.3884" lon="6.10103">
        <ele>311.60000610352</ele>
        <time>2013-09-28T12:55:34Z</time>
      </trkpt>
      <trkpt lat="43.38839" lon="6.10111">
        <ele>311.20001220703</ele>
        <time>2013-09-28T12:55:35Z</time>
      </trkpt>
      <trkpt lat="43.38836" lon="6.10119">
        <ele>310.79998779297</ele>
        <time>2013-09-28T12:55:36Z</time>
      </trkpt>
      <trkpt lat="43.38831" lon="6.10133">
        <ele>310.79998779297</ele>
        <time>2013-09-28T12:55:38Z</time>
      </trkpt>
      <trkpt lat="43.38826" lon="6.10149">
        <ele>310.20001220703</ele>
        <time>2013-09-28T12:55:42Z</time>
      </trkpt>
      <trkpt lat="43.38826" lon="6.10151">
        <ele>309.79998779297</ele>
        <time>2013-09-28T12:55:43Z</time>
      </trkpt>
      <trkpt lat="43.38826" lon="6.10152">
        <ele>309.39999389648</ele>
        <time>2013-09-28T12:55:44Z</time>
      </trkpt>
      <trkpt lat="43.38826" lon="6.10153">
        <ele>309</ele>
        <time>2013-09-28T12:55:45Z</time>
      </trkpt>
      <trkpt lat="43.38826" lon="6.10153">
        <ele>308.60000610352</ele>
        <time>2013-09-28T12:55:46Z</time>
      </trkpt>
      <trkpt lat="43.38826" lon="6.10155">
        <ele>308.60000610352</ele>
        <time>2013-09-28T12:55:56Z</time>
      </trkpt>
      <trkpt lat="43.38827" lon="6.10167">
        <ele>308.60000610352</ele>
        <time>2013-09-28T12:56:01Z</time>
      </trkpt>
      <trkpt lat="43.38826" lon="6.10187">
        <ele>308.60000610352</ele>
        <time>2013-09-28T12:56:06Z</time>
      </trkpt>
      <trkpt lat="43.38822" lon="6.10194">
        <ele>308.60000610352</ele>
        <time>2013-09-28T12:56:09Z</time>
      </trkpt>
      <trkpt lat="43.3882" lon="6.10199">
        <ele>308.60000610352</ele>
        <time>2013-09-28T12:56:11Z</time>
      </trkpt>
      <trkpt lat="43.38819" lon="6.10207">
        <ele>308.60000610352</ele>
        <time>2013-09-28T12:56:14Z</time>
      </trkpt>
      <trkpt lat="43.38819" lon="6.10213">
        <ele>309</ele>
        <time>2013-09-28T12:56:16Z</time>
      </trkpt>
      <trkpt lat="43.38819" lon="6.1022">
        <ele>309.79998779297</ele>
        <time>2013-09-28T12:56:18Z</time>
      </trkpt>
      <trkpt lat="43.38819" lon="6.10223">
        <ele>310.20001220703</ele>
        <time>2013-09-28T12:56:19Z</time>
      </trkpt>
      <trkpt lat="43.38821" lon="6.10229">
        <ele>310.60000610352</ele>
        <time>2013-09-28T12:56:21Z</time>
      </trkpt>
      <trkpt lat="43.38824" lon="6.10238">
        <ele>310.60000610352</ele>
        <time>2013-09-28T12:56:23Z</time>
      </trkpt>
      <trkpt lat="43.38828" lon="6.10265">
        <ele>310.20001220703</ele>
        <time>2013-09-28T12:56:28Z</time>
      </trkpt>
      <trkpt lat="43.38829" lon="6.10271">
        <ele>309.60000610352</ele>
        <time>2013-09-28T12:56:29Z</time>
      </trkpt>
      <trkpt lat="43.3883" lon="6.10278">
        <ele>309.20001220703</ele>
        <time>2013-09-28T12:56:30Z</time>
      </trkpt>
      <trkpt lat="43.38831" lon="6.10284">
        <ele>308.79998779297</ele>
        <time>2013-09-28T12:56:31Z</time>
      </trkpt>
      <trkpt lat="43.38831" lon="6.10291">
        <ele>308.39999389648</ele>
        <time>2013-09-28T12:56:32Z</time>
      </trkpt>
      <trkpt lat="43.38832" lon="6.10322">
        <ele>308.39999389648</ele>
        <time>2013-09-28T12:56:37Z</time>
      </trkpt>
      <trkpt lat="43.38832" lon="6.10333">
        <ele>308</ele>
        <time>2013-09-28T12:56:39Z</time>
      </trkpt>
      <trkpt lat="43.38832" lon="6.10338">
        <ele>307.60000610352</ele>
        <time>2013-09-28T12:56:40Z</time>
      </trkpt>
      <trkpt lat="43.38832" lon="6.10351">
        <ele>306.20001220703</ele>
        <time>2013-09-28T12:56:43Z</time>
      </trkpt>
      <trkpt lat="43.38832" lon="6.10364">
        <ele>306.20001220703</ele>
        <time>2013-09-28T12:56:47Z</time>
      </trkpt>
      <trkpt lat="43.38833" lon="6.10376">
        <ele>306.20001220703</ele>
        <time>2013-09-28T12:56:51Z</time>
      </trkpt>
      <trkpt lat="43.38832" lon="6.10407">
        <ele>306.20001220703</ele>
        <time>2013-09-28T12:56:57Z</time>
      </trkpt>
      <trkpt lat="43.38829" lon="6.1043">
        <ele>305</ele>
        <time>2013-09-28T12:57:01Z</time>
      </trkpt>
      <trkpt lat="43.38828" lon="6.10436">
        <ele>304.60000610352</ele>
        <time>2013-09-28T12:57:02Z</time>
      </trkpt>
      <trkpt lat="43.38828" lon="6.10442">
        <ele>304.20001220703</ele>
        <time>2013-09-28T12:57:03Z</time>
      </trkpt>
      <trkpt lat="43.38827" lon="6.10449">
        <ele>304.20001220703</ele>
        <time>2013-09-28T12:57:04Z</time>
      </trkpt>
      <trkpt lat="43.38827" lon="6.10456">
        <ele>304.20001220703</ele>
        <time>2013-09-28T12:57:05Z</time>
      </trkpt>
      <trkpt lat="43.38826" lon="6.10477">
        <ele>303.79998779297</ele>
        <time>2013-09-28T12:57:08Z</time>
      </trkpt>
      <trkpt lat="43.38825" lon="6.10484">
        <ele>303.20001220703</ele>
        <time>2013-09-28T12:57:09Z</time>
      </trkpt>
      <trkpt lat="43.38823" lon="6.10489">
        <ele>302.79998779297</ele>
        <time>2013-09-28T12:57:10Z</time>
      </trkpt>
      <trkpt lat="43.38821" lon="6.10501">
        <ele>302</ele>
        <time>2013-09-28T12:57:12Z</time>
      </trkpt>
      <trkpt lat="43.38818" lon="6.10513">
        <ele>302</ele>
        <time>2013-09-28T12:57:14Z</time>
      </trkpt>
      <trkpt lat="43.38814" lon="6.10524">
        <ele>300.60000610352</ele>
        <time>2013-09-28T12:57:16Z</time>
      </trkpt>
      <trkpt lat="43.38813" lon="6.10534">
        <ele>299.79998779297</ele>
        <time>2013-09-28T12:57:18Z</time>
      </trkpt>
      <trkpt lat="43.38813" lon="6.1054">
        <ele>299.79998779297</ele>
        <time>2013-09-28T12:57:19Z</time>
      </trkpt>
      <trkpt lat="43.3881" lon="6.10556">
        <ele>299.79998779297</ele>
        <time>2013-09-28T12:57:22Z</time>
      </trkpt>
      <trkpt lat="43.38807" lon="6.10564">
        <ele>299.79998779297</ele>
        <time>2013-09-28T12:57:25Z</time>
      </trkpt>
      <trkpt lat="43.38799" lon="6.1061">
        <ele>299</ele>
        <time>2013-09-28T12:57:33Z</time>
      </trkpt>
      <trkpt lat="43.38796" lon="6.10623">
        <ele>298</ele>
        <time>2013-09-28T12:57:35Z</time>
      </trkpt>
      <trkpt lat="43.38795" lon="6.1063">
        <ele>297.39999389648</ele>
        <time>2013-09-28T12:57:36Z</time>
      </trkpt>
      <trkpt lat="43.38793" lon="6.10644">
        <ele>297.39999389648</ele>
        <time>2013-09-28T12:57:39Z</time>
      </trkpt>
      <trkpt lat="43.38791" lon="6.10655">
        <ele>297</ele>
        <time>2013-09-28T12:57:41Z</time>
      </trkpt>
      <trkpt lat="43.38789" lon="6.1066">
        <ele>296.60000610352</ele>
        <time>2013-09-28T12:57:42Z</time>
      </trkpt>
      <trkpt lat="43.38787" lon="6.10668">
        <ele>295.60000610352</ele>
        <time>2013-09-28T12:57:44Z</time>
      </trkpt>
      <trkpt lat="43.38786" lon="6.10673">
        <ele>295.20001220703</ele>
        <time>2013-09-28T12:57:45Z</time>
      </trkpt>
      <trkpt lat="43.38779" lon="6.10707">
        <ele>295.20001220703</ele>
        <time>2013-09-28T12:57:52Z</time>
      </trkpt>
      <trkpt lat="43.38777" lon="6.10719">
        <ele>295.20001220703</ele>
        <time>2013-09-28T12:57:54Z</time>
      </trkpt>
      <trkpt lat="43.38773" lon="6.10736">
        <ele>295.20001220703</ele>
        <time>2013-09-28T12:57:57Z</time>
      </trkpt>
      <trkpt lat="43.38771" lon="6.10749">
        <ele>294.60000610352</ele>
        <time>2013-09-28T12:58:01Z</time>
      </trkpt>
      <trkpt lat="43.38771" lon="6.10749">
        <ele>292.79998779297</ele>
        <time>2013-09-28T12:58:05Z</time>
      </trkpt>
      <trkpt lat="43.38771" lon="6.10751">
        <ele>292.79998779297</ele>
        <time>2013-09-28T12:58:10Z</time>
      </trkpt>
      <trkpt lat="43.38775" lon="6.10751">
        <ele>292.79998779297</ele>
        <time>2013-09-28T12:58:13Z</time>
      </trkpt>
      <trkpt lat="43.38773" lon="6.10742">
        <ele>292.79998779297</ele>
        <time>2013-09-28T12:58:17Z</time>
      </trkpt>
      <trkpt lat="43.38773" lon="6.10733">
        <ele>292.79998779297</ele>
        <time>2013-09-28T12:58:21Z</time>
      </trkpt>
      <trkpt lat="43.38773" lon="6.10727">
        <ele>292.79998779297</ele>
        <time>2013-09-28T12:58:24Z</time>
      </trkpt>
      <trkpt lat="43.38775" lon="6.10723">
        <ele>292.79998779297</ele>
        <time>2013-09-28T12:58:28Z</time>
      </trkpt>
      <trkpt lat="43.38775" lon="6.10723">
        <ele>292.79998779297</ele>
        <time>2013-09-28T12:58:48Z</time>
      </trkpt>
      <trkpt lat="43.38775" lon="6.10723">
        <ele>292.79998779297</ele>
        <time>2013-09-28T12:58:57Z</time>
      </trkpt>
      <trkpt lat="43.38776" lon="6.10723">
        <ele>292.79998779297</ele>
        <time>2013-09-28T12:59:05Z</time>
      </trkpt>
      <trkpt lat="43.38779" lon="6.10727">
        <ele>292.79998779297</ele>
        <time>2013-09-28T12:59:08Z</time>
      </trkpt>
      <trkpt lat="43.38779" lon="6.1073">
        <ele>292.79998779297</ele>
        <time>2013-09-28T12:59:09Z</time>
      </trkpt>
      <trkpt lat="43.38776" lon="6.10737">
        <ele>292.79998779297</ele>
        <time>2013-09-28T12:59:12Z</time>
      </trkpt>
      <trkpt lat="43.38774" lon="6.10743">
        <ele>292.79998779297</ele>
        <time>2013-09-28T12:59:14Z</time>
      </trkpt>
      <trkpt lat="43.38769" lon="6.10752">
        <ele>292.79998779297</ele>
        <time>2013-09-28T12:59:19Z</time>
      </trkpt>
      <trkpt lat="43.38769" lon="6.10752">
        <ele>292.79998779297</ele>
        <time>2013-09-28T12:59:50Z</time>
      </trkpt>
      <trkpt lat="43.38769" lon="6.10752">
        <ele>292.79998779297</ele>
        <time>2013-09-28T13:00:22Z</time>
      </trkpt>
      <trkpt lat="43.38769" lon="6.10752">
        <ele>292.79998779297</ele>
        <time>2013-09-28T13:00:42Z</time>
      </trkpt>
      <trkpt lat="43.38769" lon="6.10752">
        <ele>292.79998779297</ele>
        <time>2013-09-28T13:00:47Z</time>
      </trkpt>
      <trkpt lat="43.3877" lon="6.10753">
        <ele>292.79998779297</ele>
        <time>2013-09-28T13:00:49Z</time>
      </trkpt>
      <trkpt lat="43.38772" lon="6.10755">
        <ele>292.79998779297</ele>
        <time>2013-09-28T13:00:51Z</time>
      </trkpt>
      <trkpt lat="43.38785" lon="6.10757">
        <ele>292.79998779297</ele>
        <time>2013-09-28T13:00:55Z</time>
      </trkpt>
      <trkpt lat="43.38808" lon="6.10757">
        <ele>292.39999389648</ele>
        <time>2013-09-28T13:01:00Z</time>
      </trkpt>
      <trkpt lat="43.38812" lon="6.10756">
        <ele>292</ele>
        <time>2013-09-28T13:01:01Z</time>
      </trkpt>
      <trkpt lat="43.38816" lon="6.10756">
        <ele>291.60000610352</ele>
        <time>2013-09-28T13:01:02Z</time>
      </trkpt>
      <trkpt lat="43.38821" lon="6.10755">
        <ele>291.20001220703</ele>
        <time>2013-09-28T13:01:03Z</time>
      </trkpt>
      <trkpt lat="43.38825" lon="6.10755">
        <ele>290.79998779297</ele>
        <time>2013-09-28T13:01:04Z</time>
      </trkpt>
      <trkpt lat="43.38841" lon="6.10755">
        <ele>290.79998779297</ele>
        <time>2013-09-28T13:01:08Z</time>
      </trkpt>
      <trkpt lat="43.38864" lon="6.10755">
        <ele>290.79998779297</ele>
        <time>2013-09-28T13:01:14Z</time>
      </trkpt>
      <trkpt lat="43.38871" lon="6.10755">
        <ele>290</ele>
        <time>2013-09-28T13:01:16Z</time>
      </trkpt>
      <trkpt lat="43.38878" lon="6.10757">
        <ele>289</ele>
        <time>2013-09-28T13:01:18Z</time>
      </trkpt>
      <trkpt lat="43.3891" lon="6.10768">
        <ele>288.60000610352</ele>
        <time>2013-09-28T13:01:27Z</time>
      </trkpt>
      <trkpt lat="43.38918" lon="6.10784">
        <ele>288.60000610352</ele>
        <time>2013-09-28T13:01:31Z</time>
      </trkpt>
      <trkpt lat="43.38925" lon="6.10809">
        <ele>288.60000610352</ele>
        <time>2013-09-28T13:01:37Z</time>
      </trkpt>
      <trkpt lat="43.3894" lon="6.10827">
        <ele>288.60000610352</ele>
        <time>2013-09-28T13:01:43Z</time>
      </trkpt>
      <trkpt lat="43.3896" lon="6.10836">
        <ele>287.79998779297</ele>
        <time>2013-09-28T13:01:50Z</time>
      </trkpt>
      <trkpt lat="43.3897" lon="6.10839">
        <ele>286.60000610352</ele>
        <time>2013-09-28T13:01:53Z</time>
      </trkpt>
      <trkpt lat="43.38984" lon="6.10845">
        <ele>286.60000610352</ele>
        <time>2013-09-28T13:01:58Z</time>
      </trkpt>
      <trkpt lat="43.39001" lon="6.10844">
        <ele>286.60000610352</ele>
        <time>2013-09-28T13:02:03Z</time>
      </trkpt>
      <trkpt lat="43.39023" lon="6.10835">
        <ele>286.60000610352</ele>
        <time>2013-09-28T13:02:09Z</time>
      </trkpt>
      <trkpt lat="43.39053" lon="6.10826">
        <ele>286.60000610352</ele>
        <time>2013-09-28T13:02:16Z</time>
      </trkpt>
      <trkpt lat="43.39076" lon="6.10814">
        <ele>286.60000610352</ele>
        <time>2013-09-28T13:02:22Z</time>
      </trkpt>
      <trkpt lat="43.3909" lon="6.10799">
        <ele>286.60000610352</ele>
        <time>2013-09-28T13:02:27Z</time>
      </trkpt>
      <trkpt lat="43.39116" lon="6.10775">
        <ele>286.60000610352</ele>
        <time>2013-09-28T13:02:34Z</time>
      </trkpt>
      <trkpt lat="43.39125" lon="6.10769">
        <ele>286.20001220703</ele>
        <time>2013-09-28T13:02:36Z</time>
      </trkpt>
      <trkpt lat="43.39139" lon="6.10761">
        <ele>284.60000610352</ele>
        <time>2013-09-28T13:02:39Z</time>
      </trkpt>
      <trkpt lat="43.39153" lon="6.1075">
        <ele>284.60000610352</ele>
        <time>2013-09-28T13:02:42Z</time>
      </trkpt>
      <trkpt lat="43.39161" lon="6.10741">
        <ele>284.60000610352</ele>
        <time>2013-09-28T13:02:44Z</time>
      </trkpt>
      <trkpt lat="43.39164" lon="6.10735">
        <ele>284.60000610352</ele>
        <time>2013-09-28T13:02:45Z</time>
      </trkpt>
      <trkpt lat="43.39167" lon="6.10728">
        <ele>284.20001220703</ele>
        <time>2013-09-28T13:02:46Z</time>
      </trkpt>
      <trkpt lat="43.39169" lon="6.1072">
        <ele>283.60000610352</ele>
        <time>2013-09-28T13:02:47Z</time>
      </trkpt>
      <trkpt lat="43.39172" lon="6.10713">
        <ele>283.20001220703</ele>
        <time>2013-09-28T13:02:48Z</time>
      </trkpt>
      <trkpt lat="43.39176" lon="6.10698">
        <ele>282.39999389648</ele>
        <time>2013-09-28T13:02:50Z</time>
      </trkpt>
      <trkpt lat="43.3918" lon="6.10683">
        <ele>282.39999389648</ele>
        <time>2013-09-28T13:02:52Z</time>
      </trkpt>
      <trkpt lat="43.39186" lon="6.1067">
        <ele>282.39999389648</ele>
        <time>2013-09-28T13:02:54Z</time>
      </trkpt>
      <trkpt lat="43.39196" lon="6.10655">
        <ele>282.39999389648</ele>
        <time>2013-09-28T13:02:57Z</time>
      </trkpt>
      <trkpt lat="43.39231" lon="6.10615">
        <ele>282.39999389648</ele>
        <time>2013-09-28T13:03:08Z</time>
      </trkpt>
      <trkpt lat="43.39244" lon="6.10602">
        <ele>282.39999389648</ele>
        <time>2013-09-28T13:03:13Z</time>
      </trkpt>
      <trkpt lat="43.39257" lon="6.10589">
        <ele>282.39999389648</ele>
        <time>2013-09-28T13:03:18Z</time>
      </trkpt>
      <trkpt lat="43.39267" lon="6.10567">
        <ele>282.39999389648</ele>
        <time>2013-09-28T13:03:23Z</time>
      </trkpt>
      <trkpt lat="43.39278" lon="6.10532">
        <ele>282.39999389648</ele>
        <time>2013-09-28T13:03:30Z</time>
      </trkpt>
      <trkpt lat="43.3929" lon="6.10506">
        <ele>282.39999389648</ele>
        <time>2013-09-28T13:03:35Z</time>
      </trkpt>
      <trkpt lat="43.39299" lon="6.10482">
        <ele>282</ele>
        <time>2013-09-28T13:03:39Z</time>
      </trkpt>
      <trkpt lat="43.39303" lon="6.10476">
        <ele>281.39999389648</ele>
        <time>2013-09-28T13:03:40Z</time>
      </trkpt>
      <trkpt lat="43.39306" lon="6.10471">
        <ele>281</ele>
        <time>2013-09-28T13:03:41Z</time>
      </trkpt>
      <trkpt lat="43.39313" lon="6.10458">
        <ele>280.20001220703</ele>
        <time>2013-09-28T13:03:43Z</time>
      </trkpt>
      <trkpt lat="43.3932" lon="6.10446">
        <ele>280.20001220703</ele>
        <time>2013-09-28T13:03:45Z</time>
      </trkpt>
      <trkpt lat="43.39328" lon="6.10434">
        <ele>279.39999389648</ele>
        <time>2013-09-28T13:03:47Z</time>
      </trkpt>
      <trkpt lat="43.39331" lon="6.10428">
        <ele>279</ele>
        <time>2013-09-28T13:03:48Z</time>
      </trkpt>
      <trkpt lat="43.39335" lon="6.10423">
        <ele>278.60000610352</ele>
        <time>2013-09-28T13:03:49Z</time>
      </trkpt>
      <trkpt lat="43.39339" lon="6.10419">
        <ele>278.20001220703</ele>
        <time>2013-09-28T13:03:50Z</time>
      </trkpt>
      <trkpt lat="43.39344" lon="6.10417">
        <ele>278.20001220703</ele>
        <time>2013-09-28T13:03:51Z</time>
      </trkpt>
      <trkpt lat="43.39357" lon="6.1042">
        <ele>278.20001220703</ele>
        <time>2013-09-28T13:03:54Z</time>
      </trkpt>
      <trkpt lat="43.39368" lon="6.10407">
        <ele>278.20001220703</ele>
        <time>2013-09-28T13:03:57Z</time>
      </trkpt>
      <trkpt lat="43.39369" lon="6.10391">
        <ele>277.79998779297</ele>
        <time>2013-09-28T13:04:00Z</time>
      </trkpt>
      <trkpt lat="43.3937" lon="6.10388">
        <ele>277.39999389648</ele>
        <time>2013-09-28T13:04:01Z</time>
      </trkpt>
      <trkpt lat="43.39371" lon="6.10386">
        <ele>277</ele>
        <time>2013-09-28T13:04:02Z</time>
      </trkpt>
      <trkpt lat="43.39374" lon="6.10386">
        <ele>276.20001220703</ele>
        <time>2013-09-28T13:04:04Z</time>
      </trkpt>
      <trkpt lat="43.39379" lon="6.10391">
        <ele>276.20001220703</ele>
        <time>2013-09-28T13:04:07Z</time>
      </trkpt>
      <trkpt lat="43.39382" lon="6.10393">
        <ele>276.20001220703</ele>
        <time>2013-09-28T13:04:09Z</time>
      </trkpt>
      <trkpt lat="43.39392" lon="6.104">
        <ele>276.20001220703</ele>
        <time>2013-09-28T13:04:14Z</time>
      </trkpt>
      <trkpt lat="43.39408" lon="6.10415">
        <ele>276.20001220703</ele>
        <time>2013-09-28T13:04:20Z</time>
      </trkpt>
      <trkpt lat="43.39413" lon="6.10418">
        <ele>276.20001220703</ele>
        <time>2013-09-28T13:04:22Z</time>
      </trkpt>
      <trkpt lat="43.39417" lon="6.10416">
        <ele>276.20001220703</ele>
        <time>2013-09-28T13:04:24Z</time>
      </trkpt>
      <trkpt lat="43.39426" lon="6.10405">
        <ele>276.20001220703</ele>
        <time>2013-09-28T13:04:29Z</time>
      </trkpt>
      <trkpt lat="43.3943" lon="6.104">
        <ele>276.20001220703</ele>
        <time>2013-09-28T13:04:31Z</time>
      </trkpt>
      <trkpt lat="43.39437" lon="6.10391">
        <ele>276.20001220703</ele>
        <time>2013-09-28T13:04:35Z</time>
      </trkpt>
      <trkpt lat="43.39449" lon="6.1038">
        <ele>276.20001220703</ele>
        <time>2013-09-28T13:04:40Z</time>
      </trkpt>
      <trkpt lat="43.39459" lon="6.10375">
        <ele>276.20001220703</ele>
        <time>2013-09-28T13:04:45Z</time>
      </trkpt>
      <trkpt lat="43.39462" lon="6.10375">
        <ele>276.20001220703</ele>
        <time>2013-09-28T13:04:46Z</time>
      </trkpt>
      <trkpt lat="43.39469" lon="6.10375">
        <ele>276.20001220703</ele>
        <time>2013-09-28T13:04:49Z</time>
      </trkpt>
      <trkpt lat="43.3948" lon="6.10381">
        <ele>276.20001220703</ele>
        <time>2013-09-28T13:04:55Z</time>
      </trkpt>
      <trkpt lat="43.39486" lon="6.10381">
        <ele>276.20001220703</ele>
        <time>2013-09-28T13:04:58Z</time>
      </trkpt>
      <trkpt lat="43.39499" lon="6.10382">
        <ele>276.20001220703</ele>
        <time>2013-09-28T13:05:05Z</time>
      </trkpt>
      <trkpt lat="43.39509" lon="6.10382">
        <ele>276.20001220703</ele>
        <time>2013-09-28T13:05:11Z</time>
      </trkpt>
      <trkpt lat="43.39519" lon="6.10383">
        <ele>276.60000610352</ele>
        <time>2013-09-28T13:05:17Z</time>
      </trkpt>
      <trkpt lat="43.3952" lon="6.10383">
        <ele>277</ele>
        <time>2013-09-28T13:05:18Z</time>
      </trkpt>
      <trkpt lat="43.39524" lon="6.10387">
        <ele>278.20001220703</ele>
        <time>2013-09-28T13:05:21Z</time>
      </trkpt>
      <trkpt lat="43.39528" lon="6.10388">
        <ele>278.20001220703</ele>
        <time>2013-09-28T13:05:23Z</time>
      </trkpt>
      <trkpt lat="43.39538" lon="6.10401">
        <ele>278.20001220703</ele>
        <time>2013-09-28T13:05:31Z</time>
      </trkpt>
      <trkpt lat="43.39537" lon="6.10416">
        <ele>278.20001220703</ele>
        <time>2013-09-28T13:05:37Z</time>
      </trkpt>
      <trkpt lat="43.39539" lon="6.10422">
        <ele>278.20001220703</ele>
        <time>2013-09-28T13:05:40Z</time>
      </trkpt>
      <trkpt lat="43.39544" lon="6.10435">
        <ele>279.39999389648</ele>
        <time>2013-09-28T13:05:46Z</time>
      </trkpt>
      <trkpt lat="43.39546" lon="6.1044">
        <ele>280.20001220703</ele>
        <time>2013-09-28T13:05:48Z</time>
      </trkpt>
      <trkpt lat="43.39548" lon="6.10458">
        <ele>280.20001220703</ele>
        <time>2013-09-28T13:05:57Z</time>
      </trkpt>
      <trkpt lat="43.39553" lon="6.1047">
        <ele>280.79998779297</ele>
        <time>2013-09-28T13:06:03Z</time>
      </trkpt>
      <trkpt lat="43.39553" lon="6.10482">
        <ele>282.39999389648</ele>
        <time>2013-09-28T13:06:09Z</time>
      </trkpt>
      <trkpt lat="43.39554" lon="6.10513">
        <ele>282.39999389648</ele>
        <time>2013-09-28T13:06:22Z</time>
      </trkpt>
      <trkpt lat="43.39556" lon="6.10539">
        <ele>284.39999389648</ele>
        <time>2013-09-28T13:06:34Z</time>
      </trkpt>
      <trkpt lat="43.39563" lon="6.10563">
        <ele>286.60000610352</ele>
        <time>2013-09-28T13:06:46Z</time>
      </trkpt>
      <trkpt lat="43.39565" lon="6.10575">
        <ele>286.60000610352</ele>
        <time>2013-09-28T13:06:52Z</time>
      </trkpt>
      <trkpt lat="43.39568" lon="6.10585">
        <ele>286.60000610352</ele>
        <time>2013-09-28T13:06:57Z</time>
      </trkpt>
      <trkpt lat="43.39568" lon="6.10587">
        <ele>287</ele>
        <time>2013-09-28T13:06:58Z</time>
      </trkpt>
      <trkpt lat="43.3957" lon="6.10592">
        <ele>287.79998779297</ele>
        <time>2013-09-28T13:07:00Z</time>
      </trkpt>
      <trkpt lat="43.39571" lon="6.10593">
        <ele>288.20001220703</ele>
        <time>2013-09-28T13:07:01Z</time>
      </trkpt>
      <trkpt lat="43.39571" lon="6.10594">
        <ele>288.60000610352</ele>
        <time>2013-09-28T13:07:02Z</time>
      </trkpt>
      <trkpt lat="43.39571" lon="6.10594">
        <ele>288.60000610352</ele>
        <time>2013-09-28T13:07:08Z</time>
      </trkpt>
      <trkpt lat="43.39571" lon="6.10594">
        <ele>288.60000610352</ele>
        <time>2013-09-28T13:07:20Z</time>
      </trkpt>
      <trkpt lat="43.39571" lon="6.10594">
        <ele>288.60000610352</ele>
        <time>2013-09-28T13:07:33Z</time>
      </trkpt>
      <trkpt lat="43.39573" lon="6.10599">
        <ele>288.60000610352</ele>
        <time>2013-09-28T13:07:38Z</time>
      </trkpt>
      <trkpt lat="43.39578" lon="6.10612">
        <ele>288.60000610352</ele>
        <time>2013-09-28T13:07:44Z</time>
      </trkpt>
      <trkpt lat="43.3958" lon="6.10622">
        <ele>288.60000610352</ele>
        <time>2013-09-28T13:07:48Z</time>
      </trkpt>
      <trkpt lat="43.39582" lon="6.10627">
        <ele>289</ele>
        <time>2013-09-28T13:07:50Z</time>
      </trkpt>
      <trkpt lat="43.39583" lon="6.1063">
        <ele>289.39999389648</ele>
        <time>2013-09-28T13:07:51Z</time>
      </trkpt>
      <trkpt lat="43.39584" lon="6.10632">
        <ele>289.79998779297</ele>
        <time>2013-09-28T13:07:52Z</time>
      </trkpt>
      <trkpt lat="43.39584" lon="6.10635">
        <ele>290.20001220703</ele>
        <time>2013-09-28T13:07:53Z</time>
      </trkpt>
      <trkpt lat="43.39585" lon="6.10644">
        <ele>290.79998779297</ele>
        <time>2013-09-28T13:07:57Z</time>
      </trkpt>
      <trkpt lat="43.39585" lon="6.10655">
        <ele>290.79998779297</ele>
        <time>2013-09-28T13:08:02Z</time>
      </trkpt>
      <trkpt lat="43.39586" lon="6.10663">
        <ele>290.79998779297</ele>
        <time>2013-09-28T13:08:06Z</time>
      </trkpt>
      <trkpt lat="43.39588" lon="6.10679">
        <ele>292.79998779297</ele>
        <time>2013-09-28T13:08:13Z</time>
      </trkpt>
      <trkpt lat="43.39588" lon="6.10694">
        <ele>292.79998779297</ele>
        <time>2013-09-28T13:08:19Z</time>
      </trkpt>
      <trkpt lat="43.39588" lon="6.10697">
        <ele>293.60000610352</ele>
        <time>2013-09-28T13:08:21Z</time>
      </trkpt>
      <trkpt lat="43.39589" lon="6.107">
        <ele>294</ele>
        <time>2013-09-28T13:08:22Z</time>
      </trkpt>
      <trkpt lat="43.39589" lon="6.10703">
        <ele>294.39999389648</ele>
        <time>2013-09-28T13:08:23Z</time>
      </trkpt>
      <trkpt lat="43.39591" lon="6.10718">
        <ele>294.79998779297</ele>
        <time>2013-09-28T13:08:31Z</time>
      </trkpt>
      <trkpt lat="43.39591" lon="6.10719">
        <ele>294.79998779297</ele>
        <time>2013-09-28T13:08:34Z</time>
      </trkpt>
      <trkpt lat="43.39591" lon="6.10721">
        <ele>294.79998779297</ele>
        <time>2013-09-28T13:08:37Z</time>
      </trkpt>
      <trkpt lat="43.39593" lon="6.10727">
        <ele>296.39999389648</ele>
        <time>2013-09-28T13:08:41Z</time>
      </trkpt>
      <trkpt lat="43.39593" lon="6.10728">
        <ele>296.79998779297</ele>
        <time>2013-09-28T13:08:42Z</time>
      </trkpt>
      <trkpt lat="43.39593" lon="6.10728">
        <ele>296.79998779297</ele>
        <time>2013-09-28T13:08:56Z</time>
      </trkpt>
      <trkpt lat="43.39594" lon="6.10728">
        <ele>296.79998779297</ele>
        <time>2013-09-28T13:09:03Z</time>
      </trkpt>
      <trkpt lat="43.39594" lon="6.10728">
        <ele>296.79998779297</ele>
        <time>2013-09-28T13:09:07Z</time>
      </trkpt>
      <trkpt lat="43.39595" lon="6.10736">
        <ele>296.79998779297</ele>
        <time>2013-09-28T13:09:12Z</time>
      </trkpt>
      <trkpt lat="43.39597" lon="6.10748">
        <ele>296.79998779297</ele>
        <time>2013-09-28T13:09:17Z</time>
      </trkpt>
      <trkpt lat="43.39598" lon="6.1075">
        <ele>296.79998779297</ele>
        <time>2013-09-28T13:09:18Z</time>
      </trkpt>
      <trkpt lat="43.39603" lon="6.10764">
        <ele>296.79998779297</ele>
        <time>2013-09-28T13:09:24Z</time>
      </trkpt>
      <trkpt lat="43.3961" lon="6.10787">
        <ele>299</ele>
        <time>2013-09-28T13:09:35Z</time>
      </trkpt>
      <trkpt lat="43.39611" lon="6.10802">
        <ele>299</ele>
        <time>2013-09-28T13:09:41Z</time>
      </trkpt>
      <trkpt lat="43.39612" lon="6.10804">
        <ele>299</ele>
        <time>2013-09-28T13:09:42Z</time>
      </trkpt>
      <trkpt lat="43.39616" lon="6.10812">
        <ele>299</ele>
        <time>2013-09-28T13:09:45Z</time>
      </trkpt>
      <trkpt lat="43.39621" lon="6.10825">
        <ele>299.39999389648</ele>
        <time>2013-09-28T13:09:50Z</time>
      </trkpt>
      <trkpt lat="43.39622" lon="6.10827">
        <ele>299.79998779297</ele>
        <time>2013-09-28T13:09:51Z</time>
      </trkpt>
      <trkpt lat="43.39626" lon="6.10836">
        <ele>301</ele>
        <time>2013-09-28T13:09:54Z</time>
      </trkpt>
      <trkpt lat="43.3963" lon="6.10845">
        <ele>301</ele>
        <time>2013-09-28T13:09:58Z</time>
      </trkpt>
      <trkpt lat="43.39635" lon="6.1086">
        <ele>301</ele>
        <time>2013-09-28T13:10:04Z</time>
      </trkpt>
      <trkpt lat="43.39638" lon="6.1087">
        <ele>301.39999389648</ele>
        <time>2013-09-28T13:10:08Z</time>
      </trkpt>
      <trkpt lat="43.39644" lon="6.10883">
        <ele>303.20001220703</ele>
        <time>2013-09-28T13:10:14Z</time>
      </trkpt>
      <trkpt lat="43.3965" lon="6.10899">
        <ele>303.20001220703</ele>
        <time>2013-09-28T13:10:21Z</time>
      </trkpt>
      <trkpt lat="43.39653" lon="6.10914">
        <ele>304.39999389648</ele>
        <time>2013-09-28T13:10:28Z</time>
      </trkpt>
      <trkpt lat="43.39654" lon="6.10921">
        <ele>305.20001220703</ele>
        <time>2013-09-28T13:10:32Z</time>
      </trkpt>
      <trkpt lat="43.39655" lon="6.10924">
        <ele>305.20001220703</ele>
        <time>2013-09-28T13:10:33Z</time>
      </trkpt>
      <trkpt lat="43.39656" lon="6.10937">
        <ele>305.20001220703</ele>
        <time>2013-09-28T13:10:39Z</time>
      </trkpt>
      <trkpt lat="43.39658" lon="6.10942">
        <ele>305.20001220703</ele>
        <time>2013-09-28T13:10:41Z</time>
      </trkpt>
      <trkpt lat="43.39658" lon="6.10947">
        <ele>306.39999389648</ele>
        <time>2013-09-28T13:10:44Z</time>
      </trkpt>
      <trkpt lat="43.39659" lon="6.10949">
        <ele>306.79998779297</ele>
        <time>2013-09-28T13:10:45Z</time>
      </trkpt>
      <trkpt lat="43.39661" lon="6.10951">
        <ele>307.20001220703</ele>
        <time>2013-09-28T13:10:46Z</time>
      </trkpt>
      <trkpt lat="43.39665" lon="6.10957">
        <ele>307.20001220703</ele>
        <time>2013-09-28T13:10:49Z</time>
      </trkpt>
      <trkpt lat="43.3967" lon="6.1097">
        <ele>307.20001220703</ele>
        <time>2013-09-28T13:10:54Z</time>
      </trkpt>
      <trkpt lat="43.39671" lon="6.10985">
        <ele>307.20001220703</ele>
        <time>2013-09-28T13:11:00Z</time>
      </trkpt>
      <trkpt lat="43.39673" lon="6.11">
        <ele>307.20001220703</ele>
        <time>2013-09-28T13:11:06Z</time>
      </trkpt>
      <trkpt lat="43.39678" lon="6.11013">
        <ele>307.60000610352</ele>
        <time>2013-09-28T13:11:11Z</time>
      </trkpt>
      <trkpt lat="43.39679" lon="6.11015">
        <ele>308</ele>
        <time>2013-09-28T13:11:12Z</time>
      </trkpt>
      <trkpt lat="43.39679" lon="6.11023">
        <ele>309.39999389648</ele>
        <time>2013-09-28T13:11:16Z</time>
      </trkpt>
      <trkpt lat="43.39681" lon="6.11037">
        <ele>309.39999389648</ele>
        <time>2013-09-28T13:11:21Z</time>
      </trkpt>
      <trkpt lat="43.39683" lon="6.11059">
        <ele>309.79998779297</ele>
        <time>2013-09-28T13:11:30Z</time>
      </trkpt>
      <trkpt lat="43.39685" lon="6.11072">
        <ele>311.60000610352</ele>
        <time>2013-09-28T13:11:34Z</time>
      </trkpt>
      <trkpt lat="43.39685" lon="6.11089">
        <ele>311.60000610352</ele>
        <time>2013-09-28T13:11:39Z</time>
      </trkpt>
      <trkpt lat="43.39684" lon="6.11108">
        <ele>311.60000610352</ele>
        <time>2013-09-28T13:11:46Z</time>
      </trkpt>
      <trkpt lat="43.39679" lon="6.1112">
        <ele>312.39999389648</ele>
        <time>2013-09-28T13:11:52Z</time>
      </trkpt>
      <trkpt lat="43.39676" lon="6.11125">
        <ele>313.60000610352</ele>
        <time>2013-09-28T13:11:55Z</time>
      </trkpt>
      <trkpt lat="43.39675" lon="6.11133">
        <ele>313.60000610352</ele>
        <time>2013-09-28T13:11:59Z</time>
      </trkpt>
      <trkpt lat="43.39672" lon="6.11145">
        <ele>313.60000610352</ele>
        <time>2013-09-28T13:12:04Z</time>
      </trkpt>
      <trkpt lat="43.39669" lon="6.11169">
        <ele>315.79998779297</ele>
        <time>2013-09-28T13:12:15Z</time>
      </trkpt>
      <trkpt lat="43.39666" lon="6.11184">
        <ele>315.79998779297</ele>
        <time>2013-09-28T13:12:21Z</time>
      </trkpt>
      <trkpt lat="43.39664" lon="6.1119">
        <ele>317</ele>
        <time>2013-09-28T13:12:24Z</time>
      </trkpt>
      <trkpt lat="43.39661" lon="6.11194">
        <ele>317.79998779297</ele>
        <time>2013-09-28T13:12:26Z</time>
      </trkpt>
      <trkpt lat="43.3966" lon="6.11195">
        <ele>317.79998779297</ele>
        <time>2013-09-28T13:12:27Z</time>
      </trkpt>
      <trkpt lat="43.39659" lon="6.11204">
        <ele>317.79998779297</ele>
        <time>2013-09-28T13:12:31Z</time>
      </trkpt>
      <trkpt lat="43.39658" lon="6.11208">
        <ele>317.79998779297</ele>
        <time>2013-09-28T13:12:33Z</time>
      </trkpt>
      <trkpt lat="43.39656" lon="6.11215">
        <ele>318.60000610352</ele>
        <time>2013-09-28T13:12:36Z</time>
      </trkpt>
      <trkpt lat="43.39656" lon="6.11217">
        <ele>319</ele>
        <time>2013-09-28T13:12:37Z</time>
      </trkpt>
      <trkpt lat="43.39655" lon="6.1122">
        <ele>319.79998779297</ele>
        <time>2013-09-28T13:12:39Z</time>
      </trkpt>
      <trkpt lat="43.39655" lon="6.11224">
        <ele>319.79998779297</ele>
        <time>2013-09-28T13:12:41Z</time>
      </trkpt>
      <trkpt lat="43.39655" lon="6.11226">
        <ele>319.79998779297</ele>
        <time>2013-09-28T13:12:46Z</time>
      </trkpt>
      <trkpt lat="43.39655" lon="6.11227">
        <ele>319.79998779297</ele>
        <time>2013-09-28T13:12:49Z</time>
      </trkpt>
      <trkpt lat="43.39655" lon="6.11235">
        <ele>319.79998779297</ele>
        <time>2013-09-28T13:12:52Z</time>
      </trkpt>
      <trkpt lat="43.39653" lon="6.11252">
        <ele>319.79998779297</ele>
        <time>2013-09-28T13:12:59Z</time>
      </trkpt>
      <trkpt lat="43.39652" lon="6.11265">
        <ele>319.79998779297</ele>
        <time>2013-09-28T13:13:05Z</time>
      </trkpt>
      <trkpt lat="43.39652" lon="6.11273">
        <ele>320.20001220703</ele>
        <time>2013-09-28T13:13:08Z</time>
      </trkpt>
      <trkpt lat="43.39651" lon="6.11275">
        <ele>320.60000610352</ele>
        <time>2013-09-28T13:13:09Z</time>
      </trkpt>
      <trkpt lat="43.39649" lon="6.11284">
        <ele>322</ele>
        <time>2013-09-28T13:13:13Z</time>
      </trkpt>
      <trkpt lat="43.39647" lon="6.11301">
        <ele>322</ele>
        <time>2013-09-28T13:13:20Z</time>
      </trkpt>
      <trkpt lat="43.39646" lon="6.1132">
        <ele>322</ele>
        <time>2013-09-28T13:13:27Z</time>
      </trkpt>
      <trkpt lat="43.39643" lon="6.1134">
        <ele>322</ele>
        <time>2013-09-28T13:13:34Z</time>
      </trkpt>
      <trkpt lat="43.39639" lon="6.11361">
        <ele>322</ele>
        <time>2013-09-28T13:13:40Z</time>
      </trkpt>
      <trkpt lat="43.39635" lon="6.11383">
        <ele>322</ele>
        <time>2013-09-28T13:13:44Z</time>
      </trkpt>
      <trkpt lat="43.39633" lon="6.11396">
        <ele>322</ele>
        <time>2013-09-28T13:13:46Z</time>
      </trkpt>
      <trkpt lat="43.39629" lon="6.11409">
        <ele>322</ele>
        <time>2013-09-28T13:13:48Z</time>
      </trkpt>
      <trkpt lat="43.39624" lon="6.1142">
        <ele>321</ele>
        <time>2013-09-28T13:13:50Z</time>
      </trkpt>
      <trkpt lat="43.39622" lon="6.11426">
        <ele>320.60000610352</ele>
        <time>2013-09-28T13:13:51Z</time>
      </trkpt>
      <trkpt lat="43.39621" lon="6.11433">
        <ele>320.20001220703</ele>
        <time>2013-09-28T13:13:52Z</time>
      </trkpt>
      <trkpt lat="43.39617" lon="6.11444">
        <ele>319.79998779297</ele>
        <time>2013-09-28T13:13:54Z</time>
      </trkpt>
      <trkpt lat="43.39605" lon="6.11478">
        <ele>319.39999389648</ele>
        <time>2013-09-28T13:14:01Z</time>
      </trkpt>
      <trkpt lat="43.39601" lon="6.11488">
        <ele>318</ele>
        <time>2013-09-28T13:14:03Z</time>
      </trkpt>
      <trkpt lat="43.39599" lon="6.11492">
        <ele>317.60000610352</ele>
        <time>2013-09-28T13:14:04Z</time>
      </trkpt>
      <trkpt lat="43.39586" lon="6.11512">
        <ele>317.60000610352</ele>
        <time>2013-09-28T13:14:09Z</time>
      </trkpt>
      <trkpt lat="43.39576" lon="6.11522">
        <ele>317.60000610352</ele>
        <time>2013-09-28T13:14:12Z</time>
      </trkpt>
      <trkpt lat="43.39569" lon="6.11524">
        <ele>317.60000610352</ele>
        <time>2013-09-28T13:14:14Z</time>
      </trkpt>
      <trkpt lat="43.39566" lon="6.11526">
        <ele>317.20001220703</ele>
        <time>2013-09-28T13:14:15Z</time>
      </trkpt>
      <trkpt lat="43.39567" lon="6.11531">
        <ele>316.39999389648</ele>
        <time>2013-09-28T13:14:17Z</time>
      </trkpt>
      <trkpt lat="43.39568" lon="6.11532">
        <ele>316</ele>
        <time>2013-09-28T13:14:18Z</time>
      </trkpt>
      <trkpt lat="43.39572" lon="6.11535">
        <ele>315.60000610352</ele>
        <time>2013-09-28T13:14:21Z</time>
      </trkpt>
      <trkpt lat="43.39582" lon="6.11541">
        <ele>315.60000610352</ele>
        <time>2013-09-28T13:14:27Z</time>
      </trkpt>
      <trkpt lat="43.39602" lon="6.11557">
        <ele>315.60000610352</ele>
        <time>2013-09-28T13:14:38Z</time>
      </trkpt>
      <trkpt lat="43.3961" lon="6.11565">
        <ele>315.60000610352</ele>
        <time>2013-09-28T13:14:42Z</time>
      </trkpt>
      <trkpt lat="43.3962" lon="6.11573">
        <ele>315.60000610352</ele>
        <time>2013-09-28T13:14:47Z</time>
      </trkpt>
      <trkpt lat="43.39621" lon="6.11574">
        <ele>315.60000610352</ele>
        <time>2013-09-28T13:14:48Z</time>
      </trkpt>
      <trkpt lat="43.39627" lon="6.1158">
        <ele>315.60000610352</ele>
        <time>2013-09-28T13:14:51Z</time>
      </trkpt>
      <trkpt lat="43.39634" lon="6.11587">
        <ele>316.39999389648</ele>
        <time>2013-09-28T13:14:54Z</time>
      </trkpt>
      <trkpt lat="43.39637" lon="6.11589">
        <ele>316.79998779297</ele>
        <time>2013-09-28T13:14:55Z</time>
      </trkpt>
      <trkpt lat="43.39642" lon="6.1159">
        <ele>317.60000610352</ele>
        <time>2013-09-28T13:14:57Z</time>
      </trkpt>
      <trkpt lat="43.39649" lon="6.11593">
        <ele>317.60000610352</ele>
        <time>2013-09-28T13:15:00Z</time>
      </trkpt>
      <trkpt lat="43.39651" lon="6.11594">
        <ele>317.60000610352</ele>
        <time>2013-09-28T13:15:01Z</time>
      </trkpt>
      <trkpt lat="43.39656" lon="6.11597">
        <ele>317.60000610352</ele>
        <time>2013-09-28T13:15:04Z</time>
      </trkpt>
      <trkpt lat="43.39658" lon="6.11598">
        <ele>317.60000610352</ele>
        <time>2013-09-28T13:15:05Z</time>
      </trkpt>
      <trkpt lat="43.39659" lon="6.11599">
        <ele>318</ele>
        <time>2013-09-28T13:15:06Z</time>
      </trkpt>
      <trkpt lat="43.39663" lon="6.11603">
        <ele>319.20001220703</ele>
        <time>2013-09-28T13:15:09Z</time>
      </trkpt>
      <trkpt lat="43.39664" lon="6.11604">
        <ele>319.60000610352</ele>
        <time>2013-09-28T13:15:10Z</time>
      </trkpt>
      <trkpt lat="43.39665" lon="6.11605">
        <ele>319.60000610352</ele>
        <time>2013-09-28T13:15:11Z</time>
      </trkpt>
      <trkpt lat="43.39672" lon="6.11612">
        <ele>319.60000610352</ele>
        <time>2013-09-28T13:15:16Z</time>
      </trkpt>
      <trkpt lat="43.39682" lon="6.11624">
        <ele>320.79998779297</ele>
        <time>2013-09-28T13:15:25Z</time>
      </trkpt>
      <trkpt lat="43.39684" lon="6.1163">
        <ele>321.60000610352</ele>
        <time>2013-09-28T13:15:28Z</time>
      </trkpt>
      <trkpt lat="43.39687" lon="6.11641">
        <ele>321.60000610352</ele>
        <time>2013-09-28T13:15:33Z</time>
      </trkpt>
      <trkpt lat="43.39692" lon="6.11656">
        <ele>321.60000610352</ele>
        <time>2013-09-28T13:15:39Z</time>
      </trkpt>
      <trkpt lat="43.39701" lon="6.11662">
        <ele>321.60000610352</ele>
        <time>2013-09-28T13:15:44Z</time>
      </trkpt>
      <trkpt lat="43.39707" lon="6.11667">
        <ele>321.60000610352</ele>
        <time>2013-09-28T13:15:47Z</time>
      </trkpt>
      <trkpt lat="43.39723" lon="6.11677">
        <ele>321.60000610352</ele>
        <time>2013-09-28T13:15:53Z</time>
      </trkpt>
      <trkpt lat="43.39732" lon="6.11683">
        <ele>321.60000610352</ele>
        <time>2013-09-28T13:15:56Z</time>
      </trkpt>
      <trkpt lat="43.39738" lon="6.11687">
        <ele>321.60000610352</ele>
        <time>2013-09-28T13:15:58Z</time>
      </trkpt>
      <trkpt lat="43.39742" lon="6.11687">
        <ele>321.60000610352</ele>
        <time>2013-09-28T13:15:59Z</time>
      </trkpt>
      <trkpt lat="43.39745" lon="6.11686">
        <ele>321.60000610352</ele>
        <time>2013-09-28T13:16:00Z</time>
      </trkpt>
      <trkpt lat="43.39755" lon="6.1168">
        <ele>321.60000610352</ele>
        <time>2013-09-28T13:16:03Z</time>
      </trkpt>
      <trkpt lat="43.3976" lon="6.11676">
        <ele>320.79998779297</ele>
        <time>2013-09-28T13:16:05Z</time>
      </trkpt>
      <trkpt lat="43.39769" lon="6.11663">
        <ele>319.60000610352</ele>
        <time>2013-09-28T13:16:10Z</time>
      </trkpt>
      <trkpt lat="43.39767" lon="6.11652">
        <ele>319.60000610352</ele>
        <time>2013-09-28T13:16:14Z</time>
      </trkpt>
      <trkpt lat="43.39767" lon="6.11628">
        <ele>319.60000610352</ele>
        <time>2013-09-28T13:16:21Z</time>
      </trkpt>
      <trkpt lat="43.39766" lon="6.11619">
        <ele>319.60000610352</ele>
        <time>2013-09-28T13:16:24Z</time>
      </trkpt>
      <trkpt lat="43.39764" lon="6.11601">
        <ele>321.20001220703</ele>
        <time>2013-09-28T13:16:30Z</time>
      </trkpt>
      <trkpt lat="43.39764" lon="6.11598">
        <ele>321.60000610352</ele>
        <time>2013-09-28T13:16:31Z</time>
      </trkpt>
      <trkpt lat="43.39767" lon="6.11579">
        <ele>321.60000610352</ele>
        <time>2013-09-28T13:16:38Z</time>
      </trkpt>
      <trkpt lat="43.39768" lon="6.11565">
        <ele>322</ele>
        <time>2013-09-28T13:16:43Z</time>
      </trkpt>
      <trkpt lat="43.39771" lon="6.11539">
        <ele>323.60000610352</ele>
        <time>2013-09-28T13:16:52Z</time>
      </trkpt>
      <trkpt lat="43.39773" lon="6.1152">
        <ele>323.60000610352</ele>
        <time>2013-09-28T13:16:58Z</time>
      </trkpt>
      <trkpt lat="43.39774" lon="6.11499">
        <ele>323.60000610352</ele>
        <time>2013-09-28T13:17:05Z</time>
      </trkpt>
      <trkpt lat="43.39775" lon="6.11476">
        <ele>323.60000610352</ele>
        <time>2013-09-28T13:17:13Z</time>
      </trkpt>
      <trkpt lat="43.39775" lon="6.11461">
        <ele>323.60000610352</ele>
        <time>2013-09-28T13:17:18Z</time>
      </trkpt>
      <trkpt lat="43.39777" lon="6.11448">
        <ele>323.60000610352</ele>
        <time>2013-09-28T13:17:23Z</time>
      </trkpt>
      <trkpt lat="43.39779" lon="6.11432">
        <ele>323.60000610352</ele>
        <time>2013-09-28T13:17:30Z</time>
      </trkpt>
      <trkpt lat="43.39781" lon="6.11416">
        <ele>323.60000610352</ele>
        <time>2013-09-28T13:17:36Z</time>
      </trkpt>
      <trkpt lat="43.39788" lon="6.11391">
        <ele>323.60000610352</ele>
        <time>2013-09-28T13:17:45Z</time>
      </trkpt>
      <trkpt lat="43.39793" lon="6.11378">
        <ele>323.60000610352</ele>
        <time>2013-09-28T13:17:49Z</time>
      </trkpt>
      <trkpt lat="43.39797" lon="6.11357">
        <ele>323.60000610352</ele>
        <time>2013-09-28T13:17:55Z</time>
      </trkpt>
      <trkpt lat="43.39795" lon="6.11334">
        <ele>323.60000610352</ele>
        <time>2013-09-28T13:18:01Z</time>
      </trkpt>
      <trkpt lat="43.398" lon="6.11318">
        <ele>323.60000610352</ele>
        <time>2013-09-28T13:18:06Z</time>
      </trkpt>
      <trkpt lat="43.39802" lon="6.11302">
        <ele>323.60000610352</ele>
        <time>2013-09-28T13:18:11Z</time>
      </trkpt>
      <trkpt lat="43.39798" lon="6.11283">
        <ele>323.60000610352</ele>
        <time>2013-09-28T13:18:17Z</time>
      </trkpt>
      <trkpt lat="43.39794" lon="6.11252">
        <ele>323.60000610352</ele>
        <time>2013-09-28T13:18:30Z</time>
      </trkpt>
      <trkpt lat="43.39793" lon="6.11241">
        <ele>323.60000610352</ele>
        <time>2013-09-28T13:18:35Z</time>
      </trkpt>
      <trkpt lat="43.3979" lon="6.11228">
        <ele>323.60000610352</ele>
        <time>2013-09-28T13:18:40Z</time>
      </trkpt>
      <trkpt lat="43.39787" lon="6.11207">
        <ele>323.60000610352</ele>
        <time>2013-09-28T13:18:48Z</time>
      </trkpt>
      <trkpt lat="43.39787" lon="6.1119">
        <ele>323.60000610352</ele>
        <time>2013-09-28T13:18:54Z</time>
      </trkpt>
      <trkpt lat="43.39788" lon="6.11174">
        <ele>323.60000610352</ele>
        <time>2013-09-28T13:19:00Z</time>
      </trkpt>
      <trkpt lat="43.39787" lon="6.11157">
        <ele>323.60000610352</ele>
        <time>2013-09-28T13:19:05Z</time>
      </trkpt>
      <trkpt lat="43.39787" lon="6.11136">
        <ele>323.60000610352</ele>
        <time>2013-09-28T13:19:12Z</time>
      </trkpt>
      <trkpt lat="43.39788" lon="6.1112">
        <ele>323.60000610352</ele>
        <time>2013-09-28T13:19:18Z</time>
      </trkpt>
      <trkpt lat="43.3979" lon="6.11101">
        <ele>324</ele>
        <time>2013-09-28T13:19:24Z</time>
      </trkpt>
      <trkpt lat="43.39791" lon="6.11091">
        <ele>325.79998779297</ele>
        <time>2013-09-28T13:19:27Z</time>
      </trkpt>
      <trkpt lat="43.39791" lon="6.11081">
        <ele>325.79998779297</ele>
        <time>2013-09-28T13:19:30Z</time>
      </trkpt>
      <trkpt lat="43.39787" lon="6.11065">
        <ele>325.79998779297</ele>
        <time>2013-09-28T13:19:35Z</time>
      </trkpt>
      <trkpt lat="43.39782" lon="6.11034">
        <ele>325.79998779297</ele>
        <time>2013-09-28T13:19:47Z</time>
      </trkpt>
      <trkpt lat="43.39773" lon="6.10999">
        <ele>327.39999389648</ele>
        <time>2013-09-28T13:20:00Z</time>
      </trkpt>
      <trkpt lat="43.3977" lon="6.10984">
        <ele>327.79998779297</ele>
        <time>2013-09-28T13:20:05Z</time>
      </trkpt>
      <trkpt lat="43.39767" lon="6.10968">
        <ele>327.79998779297</ele>
        <time>2013-09-28T13:20:11Z</time>
      </trkpt>
      <trkpt lat="43.39765" lon="6.10952">
        <ele>327.79998779297</ele>
        <time>2013-09-28T13:20:16Z</time>
      </trkpt>
      <trkpt lat="43.39764" lon="6.10932">
        <ele>327.79998779297</ele>
        <time>2013-09-28T13:20:22Z</time>
      </trkpt>
      <trkpt lat="43.39761" lon="6.10912">
        <ele>327.79998779297</ele>
        <time>2013-09-28T13:20:28Z</time>
      </trkpt>
      <trkpt lat="43.39758" lon="6.10893">
        <ele>327.79998779297</ele>
        <time>2013-09-28T13:20:34Z</time>
      </trkpt>
      <trkpt lat="43.39753" lon="6.10879">
        <ele>327.79998779297</ele>
        <time>2013-09-28T13:20:39Z</time>
      </trkpt>
      <trkpt lat="43.39751" lon="6.10874">
        <ele>327.79998779297</ele>
        <time>2013-09-28T13:20:41Z</time>
      </trkpt>
      <trkpt lat="43.39751" lon="6.10869">
        <ele>328.60000610352</ele>
        <time>2013-09-28T13:20:43Z</time>
      </trkpt>
      <trkpt lat="43.3975" lon="6.10855">
        <ele>329.79998779297</ele>
        <time>2013-09-28T13:20:48Z</time>
      </trkpt>
      <trkpt lat="43.3975" lon="6.10851">
        <ele>329.79998779297</ele>
        <time>2013-09-28T13:20:49Z</time>
      </trkpt>
      <trkpt lat="43.39748" lon="6.10847">
        <ele>329.79998779297</ele>
        <time>2013-09-28T13:20:50Z</time>
      </trkpt>
      <trkpt lat="43.39748" lon="6.10844">
        <ele>330.20001220703</ele>
        <time>2013-09-28T13:20:51Z</time>
      </trkpt>
      <trkpt lat="43.39746" lon="6.10842">
        <ele>330.60000610352</ele>
        <time>2013-09-28T13:20:52Z</time>
      </trkpt>
      <trkpt lat="43.39745" lon="6.10835">
        <ele>331.79998779297</ele>
        <time>2013-09-28T13:20:55Z</time>
      </trkpt>
      <trkpt lat="43.39743" lon="6.10816">
        <ele>331.79998779297</ele>
        <time>2013-09-28T13:21:00Z</time>
      </trkpt>
      <trkpt lat="43.39742" lon="6.10806">
        <ele>331.79998779297</ele>
        <time>2013-09-28T13:21:02Z</time>
      </trkpt>
      <trkpt lat="43.3974" lon="6.10792">
        <ele>331.79998779297</ele>
        <time>2013-09-28T13:21:05Z</time>
      </trkpt>
      <trkpt lat="43.3974" lon="6.10788">
        <ele>331.79998779297</ele>
        <time>2013-09-28T13:21:06Z</time>
      </trkpt>
      <trkpt lat="43.39739" lon="6.10776">
        <ele>331.79998779297</ele>
        <time>2013-09-28T13:21:09Z</time>
      </trkpt>
      <trkpt lat="43.39739" lon="6.10766">
        <ele>331.79998779297</ele>
        <time>2013-09-28T13:21:13Z</time>
      </trkpt>
      <trkpt lat="43.39739" lon="6.10758">
        <ele>331.79998779297</ele>
        <time>2013-09-28T13:21:16Z</time>
      </trkpt>
      <trkpt lat="43.39734" lon="6.10735">
        <ele>331.79998779297</ele>
        <time>2013-09-28T13:21:24Z</time>
      </trkpt>
      <trkpt lat="43.39729" lon="6.10719">
        <ele>331.79998779297</ele>
        <time>2013-09-28T13:21:28Z</time>
      </trkpt>
      <trkpt lat="43.39727" lon="6.10712">
        <ele>331.79998779297</ele>
        <time>2013-09-28T13:21:30Z</time>
      </trkpt>
      <trkpt lat="43.39723" lon="6.10694">
        <ele>331.79998779297</ele>
        <time>2013-09-28T13:21:36Z</time>
      </trkpt>
      <trkpt lat="43.39721" lon="6.1068">
        <ele>331.79998779297</ele>
        <time>2013-09-28T13:21:42Z</time>
      </trkpt>
      <trkpt lat="43.39721" lon="6.1066">
        <ele>331.79998779297</ele>
        <time>2013-09-28T13:21:47Z</time>
      </trkpt>
      <trkpt lat="43.39719" lon="6.10647">
        <ele>331.39999389648</ele>
        <time>2013-09-28T13:21:50Z</time>
      </trkpt>
      <trkpt lat="43.39718" lon="6.10641">
        <ele>331</ele>
        <time>2013-09-28T13:21:51Z</time>
      </trkpt>
      <trkpt lat="43.39717" lon="6.10635">
        <ele>330.60000610352</ele>
        <time>2013-09-28T13:21:52Z</time>
      </trkpt>
      <trkpt lat="43.39716" lon="6.10629">
        <ele>330.20001220703</ele>
        <time>2013-09-28T13:21:53Z</time>
      </trkpt>
      <trkpt lat="43.39714" lon="6.10624">
        <ele>329.39999389648</ele>
        <time>2013-09-28T13:21:54Z</time>
      </trkpt>
      <trkpt lat="43.39713" lon="6.10619">
        <ele>329</ele>
        <time>2013-09-28T13:21:55Z</time>
      </trkpt>
      <trkpt lat="43.39712" lon="6.10614">
        <ele>328.60000610352</ele>
        <time>2013-09-28T13:21:56Z</time>
      </trkpt>
      <trkpt lat="43.39711" lon="6.1061">
        <ele>328.20001220703</ele>
        <time>2013-09-28T13:21:57Z</time>
      </trkpt>
      <trkpt lat="43.39711" lon="6.10606">
        <ele>327.79998779297</ele>
        <time>2013-09-28T13:21:58Z</time>
      </trkpt>
      <trkpt lat="43.39708" lon="6.10593">
        <ele>327.79998779297</ele>
        <time>2013-09-28T13:22:02Z</time>
      </trkpt>
      <trkpt lat="43.39709" lon="6.10586">
        <ele>327.79998779297</ele>
        <time>2013-09-28T13:22:05Z</time>
      </trkpt>
      <trkpt lat="43.39709" lon="6.10583">
        <ele>327.79998779297</ele>
        <time>2013-09-28T13:22:07Z</time>
      </trkpt>
      <trkpt lat="43.3971" lon="6.10574">
        <ele>327.79998779297</ele>
        <time>2013-09-28T13:22:13Z</time>
      </trkpt>
      <trkpt lat="43.3971" lon="6.10574">
        <ele>327.79998779297</ele>
        <time>2013-09-28T13:22:25Z</time>
      </trkpt>
      <trkpt lat="43.3971" lon="6.10574">
        <ele>327.79998779297</ele>
        <time>2013-09-28T13:22:34Z</time>
      </trkpt>
      <trkpt lat="43.3971" lon="6.10574">
        <ele>327.79998779297</ele>
        <time>2013-09-28T13:22:35Z</time>
      </trkpt>
      <trkpt lat="43.39711" lon="6.10575">
        <ele>327.79998779297</ele>
        <time>2013-09-28T13:22:53Z</time>
      </trkpt>
      <trkpt lat="43.39711" lon="6.10575">
        <ele>327.79998779297</ele>
        <time>2013-09-28T13:23:00Z</time>
      </trkpt>
      <trkpt lat="43.39709" lon="6.10584">
        <ele>327.79998779297</ele>
        <time>2013-09-28T13:23:05Z</time>
      </trkpt>
      <trkpt lat="43.39708" lon="6.10591">
        <ele>327.79998779297</ele>
        <time>2013-09-28T13:23:09Z</time>
      </trkpt>
      <trkpt lat="43.39708" lon="6.10593">
        <ele>327.79998779297</ele>
        <time>2013-09-28T13:23:11Z</time>
      </trkpt>
      <trkpt lat="43.39708" lon="6.10593">
        <ele>327.79998779297</ele>
        <time>2013-09-28T13:23:19Z</time>
      </trkpt>
      <trkpt lat="43.39709" lon="6.10593">
        <ele>327.79998779297</ele>
        <time>2013-09-28T13:23:24Z</time>
      </trkpt>
      <trkpt lat="43.39709" lon="6.10593">
        <ele>327.79998779297</ele>
        <time>2013-09-28T13:23:30Z</time>
      </trkpt>
      <trkpt lat="43.39709" lon="6.10593">
        <ele>327.79998779297</ele>
        <time>2013-09-28T13:23:38Z</time>
      </trkpt>
      <trkpt lat="43.39709" lon="6.10592">
        <ele>327.79998779297</ele>
        <time>2013-09-28T13:23:43Z</time>
      </trkpt>
      <trkpt lat="43.39709" lon="6.10592">
        <ele>327.79998779297</ele>
        <time>2013-09-28T13:23:45Z</time>
      </trkpt>
      <trkpt lat="43.3971" lon="6.10584">
        <ele>327.79998779297</ele>
        <time>2013-09-28T13:23:48Z</time>
      </trkpt>
      <trkpt lat="43.39711" lon="6.1057">
        <ele>327.79998779297</ele>
        <time>2013-09-28T13:23:53Z</time>
      </trkpt>
      <trkpt lat="43.39706" lon="6.10558">
        <ele>327.79998779297</ele>
        <time>2013-09-28T13:23:57Z</time>
      </trkpt>
      <trkpt lat="43.39705" lon="6.10556">
        <ele>327.79998779297</ele>
        <time>2013-09-28T13:23:58Z</time>
      </trkpt>
      <trkpt lat="43.39703" lon="6.10554">
        <ele>327.79998779297</ele>
        <time>2013-09-28T13:23:59Z</time>
      </trkpt>
      <trkpt lat="43.397" lon="6.10545">
        <ele>327.79998779297</ele>
        <time>2013-09-28T13:24:04Z</time>
      </trkpt>
      <trkpt lat="43.397" lon="6.10538">
        <ele>328.20001220703</ele>
        <time>2013-09-28T13:24:07Z</time>
      </trkpt>
      <trkpt lat="43.39702" lon="6.1053">
        <ele>329.79998779297</ele>
        <time>2013-09-28T13:24:11Z</time>
      </trkpt>
      <trkpt lat="43.39701" lon="6.10529">
        <ele>329.79998779297</ele>
        <time>2013-09-28T13:24:12Z</time>
      </trkpt>
      <trkpt lat="43.39701" lon="6.10517">
        <ele>330.20001220703</ele>
        <time>2013-09-28T13:24:17Z</time>
      </trkpt>
      <trkpt lat="43.39701" lon="6.10505">
        <ele>332</ele>
        <time>2013-09-28T13:24:23Z</time>
      </trkpt>
      <trkpt lat="43.39698" lon="6.10492">
        <ele>332</ele>
        <time>2013-09-28T13:24:29Z</time>
      </trkpt>
      <trkpt lat="43.39697" lon="6.10484">
        <ele>332</ele>
        <time>2013-09-28T13:24:34Z</time>
      </trkpt>
      <trkpt lat="43.39698" lon="6.10473">
        <ele>332</ele>
        <time>2013-09-28T13:24:40Z</time>
      </trkpt>
      <trkpt lat="43.39705" lon="6.10454">
        <ele>332</ele>
        <time>2013-09-28T13:24:47Z</time>
      </trkpt>
      <trkpt lat="43.39707" lon="6.10437">
        <ele>332</ele>
        <time>2013-09-28T13:24:51Z</time>
      </trkpt>
      <trkpt lat="43.39708" lon="6.10432">
        <ele>331.39999389648</ele>
        <time>2013-09-28T13:24:52Z</time>
      </trkpt>
      <trkpt lat="43.39708" lon="6.10428">
        <ele>331</ele>
        <time>2013-09-28T13:24:53Z</time>
      </trkpt>
      <trkpt lat="43.39708" lon="6.10424">
        <ele>330.60000610352</ele>
        <time>2013-09-28T13:24:54Z</time>
      </trkpt>
      <trkpt lat="43.39708" lon="6.10421">
        <ele>330.20001220703</ele>
        <time>2013-09-28T13:24:55Z</time>
      </trkpt>
      <trkpt lat="43.39709" lon="6.10409">
        <ele>328.60000610352</ele>
        <time>2013-09-28T13:24:58Z</time>
      </trkpt>
      <trkpt lat="43.39708" lon="6.10405">
        <ele>328.20001220703</ele>
        <time>2013-09-28T13:24:59Z</time>
      </trkpt>
      <trkpt lat="43.39708" lon="6.10401">
        <ele>327.60000610352</ele>
        <time>2013-09-28T13:25:00Z</time>
      </trkpt>
      <trkpt lat="43.39708" lon="6.10399">
        <ele>327.20001220703</ele>
        <time>2013-09-28T13:25:01Z</time>
      </trkpt>
      <trkpt lat="43.39707" lon="6.10398">
        <ele>326.79998779297</ele>
        <time>2013-09-28T13:25:02Z</time>
      </trkpt>
      <trkpt lat="43.39707" lon="6.10398">
        <ele>325.39999389648</ele>
        <time>2013-09-28T13:25:14Z</time>
      </trkpt>
      <trkpt lat="43.39707" lon="6.10398">
        <ele>325.39999389648</ele>
        <time>2013-09-28T13:25:39Z</time>
      </trkpt>
      <trkpt lat="43.39707" lon="6.10398">
        <ele>325.39999389648</ele>
        <time>2013-09-28T13:25:42Z</time>
      </trkpt>
      <trkpt lat="43.39707" lon="6.10398">
        <ele>325.39999389648</ele>
        <time>2013-09-28T13:26:03Z</time>
      </trkpt>
      <trkpt lat="43.39707" lon="6.10397">
        <ele>325.39999389648</ele>
        <time>2013-09-28T13:26:27Z</time>
      </trkpt>
      <trkpt lat="43.39707" lon="6.10397">
        <ele>325.39999389648</ele>
        <time>2013-09-28T13:26:45Z</time>
      </trkpt>
      <trkpt lat="43.39707" lon="6.10397">
        <ele>325.39999389648</ele>
        <time>2013-09-28T13:27:02Z</time>
      </trkpt>
      <trkpt lat="43.39706" lon="6.10393">
        <ele>325.39999389648</ele>
        <time>2013-09-28T13:27:08Z</time>
      </trkpt>
      <trkpt lat="43.39702" lon="6.10388">
        <ele>325</ele>
        <time>2013-09-28T13:27:11Z</time>
      </trkpt>
      <trkpt lat="43.397" lon="6.10386">
        <ele>324.60000610352</ele>
        <time>2013-09-28T13:27:12Z</time>
      </trkpt>
      <trkpt lat="43.39696" lon="6.10383">
        <ele>323.79998779297</ele>
        <time>2013-09-28T13:27:14Z</time>
      </trkpt>
      <trkpt lat="43.39692" lon="6.10381">
        <ele>323</ele>
        <time>2013-09-28T13:27:16Z</time>
      </trkpt>
      <trkpt lat="43.3969" lon="6.1038">
        <ele>322.39999389648</ele>
        <time>2013-09-28T13:27:17Z</time>
      </trkpt>
      <trkpt lat="43.39688" lon="6.10379">
        <ele>322</ele>
        <time>2013-09-28T13:27:18Z</time>
      </trkpt>
      <trkpt lat="43.39688" lon="6.10376">
        <ele>321.60000610352</ele>
        <time>2013-09-28T13:27:19Z</time>
      </trkpt>
      <trkpt lat="43.39688" lon="6.10368">
        <ele>320.39999389648</ele>
        <time>2013-09-28T13:27:22Z</time>
      </trkpt>
      <trkpt lat="43.39691" lon="6.10363">
        <ele>319.39999389648</ele>
        <time>2013-09-28T13:27:24Z</time>
      </trkpt>
      <trkpt lat="43.39693" lon="6.10358">
        <ele>318.60000610352</ele>
        <time>2013-09-28T13:27:27Z</time>
      </trkpt>
      <trkpt lat="43.39693" lon="6.10356">
        <ele>318.20001220703</ele>
        <time>2013-09-28T13:27:28Z</time>
      </trkpt>
      <trkpt lat="43.39692" lon="6.10354">
        <ele>317.79998779297</ele>
        <time>2013-09-28T13:27:29Z</time>
      </trkpt>
      <trkpt lat="43.39691" lon="6.1035">
        <ele>317.20001220703</ele>
        <time>2013-09-28T13:27:30Z</time>
      </trkpt>
      <trkpt lat="43.39682" lon="6.10345">
        <ele>315.39999389648</ele>
        <time>2013-09-28T13:27:34Z</time>
      </trkpt>
      <trkpt lat="43.39677" lon="6.10344">
        <ele>314.39999389648</ele>
        <time>2013-09-28T13:27:36Z</time>
      </trkpt>
      <trkpt lat="43.39671" lon="6.10341">
        <ele>313.20001220703</ele>
        <time>2013-09-28T13:27:39Z</time>
      </trkpt>
      <trkpt lat="43.39663" lon="6.1033">
        <ele>310.20001220703</ele>
        <time>2013-09-28T13:27:45Z</time>
      </trkpt>
      <trkpt lat="43.39656" lon="6.1033">
        <ele>308.39999389648</ele>
        <time>2013-09-28T13:27:49Z</time>
      </trkpt>
      <trkpt lat="43.39651" lon="6.10331">
        <ele>307.39999389648</ele>
        <time>2013-09-28T13:27:51Z</time>
      </trkpt>
      <trkpt lat="43.3965" lon="6.10332">
        <ele>307</ele>
        <time>2013-09-28T13:27:52Z</time>
      </trkpt>
      <trkpt lat="43.39648" lon="6.10332">
        <ele>306.60000610352</ele>
        <time>2013-09-28T13:27:53Z</time>
      </trkpt>
      <trkpt lat="43.39646" lon="6.10332">
        <ele>306.20001220703</ele>
        <time>2013-09-28T13:27:54Z</time>
      </trkpt>
      <trkpt lat="43.39644" lon="6.10334">
        <ele>305.60000610352</ele>
        <time>2013-09-28T13:27:55Z</time>
      </trkpt>
      <trkpt lat="43.39642" lon="6.10335">
        <ele>305</ele>
        <time>2013-09-28T13:27:56Z</time>
      </trkpt>
      <trkpt lat="43.39641" lon="6.10337">
        <ele>304.39999389648</ele>
        <time>2013-09-28T13:27:57Z</time>
      </trkpt>
      <trkpt lat="43.3964" lon="6.10338">
        <ele>303.79998779297</ele>
        <time>2013-09-28T13:27:58Z</time>
      </trkpt>
      <trkpt lat="43.39639" lon="6.1034">
        <ele>303.39999389648</ele>
        <time>2013-09-28T13:27:59Z</time>
      </trkpt>
      <trkpt lat="43.39639" lon="6.1034">
        <ele>303.39999389648</ele>
        <time>2013-09-28T13:28:00Z</time>
      </trkpt>
      <trkpt lat="43.39639" lon="6.10341">
        <ele>302.79998779297</ele>
        <time>2013-09-28T13:28:01Z</time>
      </trkpt>
      <trkpt lat="43.39639" lon="6.10341">
        <ele>301</ele>
        <time>2013-09-28T13:28:15Z</time>
      </trkpt>
      <trkpt lat="43.39638" lon="6.1034">
        <ele>301</ele>
        <time>2013-09-28T13:28:18Z</time>
      </trkpt>
      <trkpt lat="43.39638" lon="6.1034">
        <ele>301</ele>
        <time>2013-09-28T13:28:26Z</time>
      </trkpt>
      <trkpt lat="43.39638" lon="6.1034">
        <ele>301</ele>
        <time>2013-09-28T13:28:31Z</time>
      </trkpt>
      <trkpt lat="43.39638" lon="6.1034">
        <ele>301</ele>
        <time>2013-09-28T13:28:38Z</time>
      </trkpt>
      <trkpt lat="43.39633" lon="6.10343">
        <ele>301</ele>
        <time>2013-09-28T13:28:47Z</time>
      </trkpt>
      <trkpt lat="43.39627" lon="6.10346">
        <ele>300.60000610352</ele>
        <time>2013-09-28T13:28:50Z</time>
      </trkpt>
      <trkpt lat="43.39626" lon="6.10347">
        <ele>300.20001220703</ele>
        <time>2013-09-28T13:28:51Z</time>
      </trkpt>
      <trkpt lat="43.39624" lon="6.10349">
        <ele>299.79998779297</ele>
        <time>2013-09-28T13:28:52Z</time>
      </trkpt>
      <trkpt lat="43.39622" lon="6.1035">
        <ele>299</ele>
        <time>2013-09-28T13:28:53Z</time>
      </trkpt>
      <trkpt lat="43.39614" lon="6.10353">
        <ele>299</ele>
        <time>2013-09-28T13:28:57Z</time>
      </trkpt>
      <trkpt lat="43.3961" lon="6.10354">
        <ele>298.20001220703</ele>
        <time>2013-09-28T13:28:59Z</time>
      </trkpt>
      <trkpt lat="43.39607" lon="6.10355">
        <ele>297.79998779297</ele>
        <time>2013-09-28T13:29:00Z</time>
      </trkpt>
      <trkpt lat="43.39603" lon="6.10357">
        <ele>296.79998779297</ele>
        <time>2013-09-28T13:29:02Z</time>
      </trkpt>
      <trkpt lat="43.39597" lon="6.1036">
        <ele>296</ele>
        <time>2013-09-28T13:29:05Z</time>
      </trkpt>
      <trkpt lat="43.39591" lon="6.10365">
        <ele>294.60000610352</ele>
        <time>2013-09-28T13:29:08Z</time>
      </trkpt>
      <trkpt lat="43.39588" lon="6.10369">
        <ele>293.79998779297</ele>
        <time>2013-09-28T13:29:11Z</time>
      </trkpt>
      <trkpt lat="43.39585" lon="6.10376">
        <ele>292.39999389648</ele>
        <time>2013-09-28T13:29:14Z</time>
      </trkpt>
      <trkpt lat="43.39581" lon="6.10388">
        <ele>292</ele>
        <time>2013-09-28T13:29:20Z</time>
      </trkpt>
      <trkpt lat="43.39579" lon="6.10387">
        <ele>291.60000610352</ele>
        <time>2013-09-28T13:29:21Z</time>
      </trkpt>
      <trkpt lat="43.39577" lon="6.10385">
        <ele>290.60000610352</ele>
        <time>2013-09-28T13:29:23Z</time>
      </trkpt>
      <trkpt lat="43.39574" lon="6.10384">
        <ele>289.60000610352</ele>
        <time>2013-09-28T13:29:25Z</time>
      </trkpt>
      <trkpt lat="43.39573" lon="6.10384">
        <ele>289</ele>
        <time>2013-09-28T13:29:26Z</time>
      </trkpt>
      <trkpt lat="43.39573" lon="6.10384">
        <ele>288.39999389648</ele>
        <time>2013-09-28T13:29:27Z</time>
      </trkpt>
      <trkpt lat="43.39572" lon="6.10384">
        <ele>288</ele>
        <time>2013-09-28T13:29:28Z</time>
      </trkpt>
      <trkpt lat="43.39572" lon="6.10385">
        <ele>287.39999389648</ele>
        <time>2013-09-28T13:29:29Z</time>
      </trkpt>
      <trkpt lat="43.39572" lon="6.10385">
        <ele>287</ele>
        <time>2013-09-28T13:29:30Z</time>
      </trkpt>
      <trkpt lat="43.39572" lon="6.10385">
        <ele>286.60000610352</ele>
        <time>2013-09-28T13:29:31Z</time>
      </trkpt>
      <trkpt lat="43.39572" lon="6.10385">
        <ele>285.79998779297</ele>
        <time>2013-09-28T13:29:43Z</time>
      </trkpt>
      <trkpt lat="43.39572" lon="6.10385">
        <ele>285.79998779297</ele>
        <time>2013-09-28T13:30:02Z</time>
      </trkpt>
      <trkpt lat="43.3957" lon="6.10386">
        <ele>285.79998779297</ele>
        <time>2013-09-28T13:30:08Z</time>
      </trkpt>
      <trkpt lat="43.39568" lon="6.10386">
        <ele>285.79998779297</ele>
        <time>2013-09-28T13:30:14Z</time>
      </trkpt>
      <trkpt lat="43.39566" lon="6.10386">
        <ele>285.39999389648</ele>
        <time>2013-09-28T13:30:19Z</time>
      </trkpt>
      <trkpt lat="43.39565" lon="6.10387">
        <ele>285</ele>
        <time>2013-09-28T13:30:20Z</time>
      </trkpt>
      <trkpt lat="43.39562" lon="6.10388">
        <ele>284.39999389648</ele>
        <time>2013-09-28T13:30:21Z</time>
      </trkpt>
      <trkpt lat="43.39557" lon="6.10393">
        <ele>283</ele>
        <time>2013-09-28T13:30:24Z</time>
      </trkpt>
      <trkpt lat="43.39555" lon="6.10395">
        <ele>282.60000610352</ele>
        <time>2013-09-28T13:30:25Z</time>
      </trkpt>
      <trkpt lat="43.39554" lon="6.10397">
        <ele>282</ele>
        <time>2013-09-28T13:30:26Z</time>
      </trkpt>
      <trkpt lat="43.39552" lon="6.10398">
        <ele>281.60000610352</ele>
        <time>2013-09-28T13:30:27Z</time>
      </trkpt>
      <trkpt lat="43.39547" lon="6.10399">
        <ele>281.60000610352</ele>
        <time>2013-09-28T13:30:29Z</time>
      </trkpt>
      <trkpt lat="43.39542" lon="6.104">
        <ele>280.39999389648</ele>
        <time>2013-09-28T13:30:31Z</time>
      </trkpt>
      <trkpt lat="43.3954" lon="6.10399">
        <ele>280</ele>
        <time>2013-09-28T13:30:32Z</time>
      </trkpt>
      <trkpt lat="43.39538" lon="6.10399">
        <ele>279.60000610352</ele>
        <time>2013-09-28T13:30:33Z</time>
      </trkpt>
      <trkpt lat="43.39537" lon="6.10397">
        <ele>279.60000610352</ele>
        <time>2013-09-28T13:30:37Z</time>
      </trkpt>
      <trkpt lat="43.39537" lon="6.10397">
        <ele>279.60000610352</ele>
        <time>2013-09-28T13:30:47Z</time>
      </trkpt>
      <trkpt lat="43.39536" lon="6.10395">
        <ele>279.60000610352</ele>
        <time>2013-09-28T13:30:52Z</time>
      </trkpt>
      <trkpt lat="43.39534" lon="6.10394">
        <ele>279.60000610352</ele>
        <time>2013-09-28T13:30:54Z</time>
      </trkpt>
      <trkpt lat="43.39534" lon="6.10394">
        <ele>279.60000610352</ele>
        <time>2013-09-28T13:31:02Z</time>
      </trkpt>
      <trkpt lat="43.39534" lon="6.10394">
        <ele>279.60000610352</ele>
        <time>2013-09-28T13:31:07Z</time>
      </trkpt>
      <trkpt lat="43.39534" lon="6.10394">
        <ele>279.60000610352</ele>
        <time>2013-09-28T13:31:14Z</time>
      </trkpt>
      <trkpt lat="43.39533" lon="6.10393">
        <ele>279.60000610352</ele>
        <time>2013-09-28T13:31:18Z</time>
      </trkpt>
      <trkpt lat="43.39532" lon="6.10392">
        <ele>279.60000610352</ele>
        <time>2013-09-28T13:31:19Z</time>
      </trkpt>
      <trkpt lat="43.39522" lon="6.10384">
        <ele>279.60000610352</ele>
        <time>2013-09-28T13:31:25Z</time>
      </trkpt>
      <trkpt lat="43.39509" lon="6.10382">
        <ele>279.60000610352</ele>
        <time>2013-09-28T13:31:31Z</time>
      </trkpt>
      <trkpt lat="43.39491" lon="6.10381">
        <ele>279.60000610352</ele>
        <time>2013-09-28T13:31:37Z</time>
      </trkpt>
      <trkpt lat="43.39483" lon="6.1038">
        <ele>278.20001220703</ele>
        <time>2013-09-28T13:31:40Z</time>
      </trkpt>
      <trkpt lat="43.39478" lon="6.1038">
        <ele>277.39999389648</ele>
        <time>2013-09-28T13:31:42Z</time>
      </trkpt>
      <trkpt lat="43.39475" lon="6.10379">
        <ele>277.39999389648</ele>
        <time>2013-09-28T13:31:43Z</time>
      </trkpt>
      <trkpt lat="43.39461" lon="6.10372">
        <ele>277</ele>
        <time>2013-09-28T13:31:48Z</time>
      </trkpt>
      <trkpt lat="43.39455" lon="6.10372">
        <ele>276.20001220703</ele>
        <time>2013-09-28T13:31:50Z</time>
      </trkpt>
      <trkpt lat="43.3945" lon="6.10375">
        <ele>275.39999389648</ele>
        <time>2013-09-28T13:31:52Z</time>
      </trkpt>
      <trkpt lat="43.39438" lon="6.10387">
        <ele>275.39999389648</ele>
        <time>2013-09-28T13:31:57Z</time>
      </trkpt>
      <trkpt lat="43.39426" lon="6.10402">
        <ele>275.39999389648</ele>
        <time>2013-09-28T13:32:03Z</time>
      </trkpt>
      <trkpt lat="43.39419" lon="6.10415">
        <ele>275.39999389648</ele>
        <time>2013-09-28T13:32:07Z</time>
      </trkpt>
      <trkpt lat="43.39419" lon="6.10419">
        <ele>275.39999389648</ele>
        <time>2013-09-28T13:32:08Z</time>
      </trkpt>
      <trkpt lat="43.39418" lon="6.10434">
        <ele>275.39999389648</ele>
        <time>2013-09-28T13:32:12Z</time>
      </trkpt>
      <trkpt lat="43.3941" lon="6.10451">
        <ele>275.39999389648</ele>
        <time>2013-09-28T13:32:18Z</time>
      </trkpt>
      <trkpt lat="43.39405" lon="6.10472">
        <ele>275.39999389648</ele>
        <time>2013-09-28T13:32:24Z</time>
      </trkpt>
      <trkpt lat="43.39393" lon="6.10511">
        <ele>275.39999389648</ele>
        <time>2013-09-28T13:32:36Z</time>
      </trkpt>
      <trkpt lat="43.39388" lon="6.10537">
        <ele>275.39999389648</ele>
        <time>2013-09-28T13:32:43Z</time>
      </trkpt>
      <trkpt lat="43.39384" lon="6.10554">
        <ele>275.39999389648</ele>
        <time>2013-09-28T13:32:48Z</time>
      </trkpt>
      <trkpt lat="43.39382" lon="6.10573">
        <ele>275.39999389648</ele>
        <time>2013-09-28T13:32:54Z</time>
      </trkpt>
      <trkpt lat="43.39378" lon="6.10611">
        <ele>275.79998779297</ele>
        <time>2013-09-28T13:33:05Z</time>
      </trkpt>
      <trkpt lat="43.39372" lon="6.10638">
        <ele>277.39999389648</ele>
        <time>2013-09-28T13:33:13Z</time>
      </trkpt>
      <trkpt lat="43.39367" lon="6.10665">
        <ele>277.39999389648</ele>
        <time>2013-09-28T13:33:21Z</time>
      </trkpt>
      <trkpt lat="43.3936" lon="6.10685">
        <ele>277.39999389648</ele>
        <time>2013-09-28T13:33:27Z</time>
      </trkpt>
      <trkpt lat="43.39348" lon="6.10709">
        <ele>277.39999389648</ele>
        <time>2013-09-28T13:33:35Z</time>
      </trkpt>
      <trkpt lat="43.39336" lon="6.10722">
        <ele>277.39999389648</ele>
        <time>2013-09-28T13:33:41Z</time>
      </trkpt>
      <trkpt lat="43.39319" lon="6.10725">
        <ele>277.39999389648</ele>
        <time>2013-09-28T13:33:47Z</time>
      </trkpt>
      <trkpt lat="43.39304" lon="6.10724">
        <ele>277.39999389648</ele>
        <time>2013-09-28T13:33:53Z</time>
      </trkpt>
      <trkpt lat="43.39289" lon="6.10721">
        <ele>277.39999389648</ele>
        <time>2013-09-28T13:33:59Z</time>
      </trkpt>
      <trkpt lat="43.39254" lon="6.107">
        <ele>277.39999389648</ele>
        <time>2013-09-28T13:34:14Z</time>
      </trkpt>
      <trkpt lat="43.39236" lon="6.1069">
        <ele>278.60000610352</ele>
        <time>2013-09-28T13:34:22Z</time>
      </trkpt>
      <trkpt lat="43.39231" lon="6.10686">
        <ele>279.39999389648</ele>
        <time>2013-09-28T13:34:24Z</time>
      </trkpt>
      <trkpt lat="43.39225" lon="6.1068">
        <ele>279.39999389648</ele>
        <time>2013-09-28T13:34:27Z</time>
      </trkpt>
      <trkpt lat="43.39212" lon="6.10678">
        <ele>279.39999389648</ele>
        <time>2013-09-28T13:34:32Z</time>
      </trkpt>
      <trkpt lat="43.39205" lon="6.10683">
        <ele>279.39999389648</ele>
        <time>2013-09-28T13:34:36Z</time>
      </trkpt>
      <trkpt lat="43.39202" lon="6.10689">
        <ele>279.39999389648</ele>
        <time>2013-09-28T13:34:39Z</time>
      </trkpt>
      <trkpt lat="43.39199" lon="6.107">
        <ele>279.79998779297</ele>
        <time>2013-09-28T13:34:43Z</time>
      </trkpt>
      <trkpt lat="43.39204" lon="6.1071">
        <ele>281.60000610352</ele>
        <time>2013-09-28T13:34:47Z</time>
      </trkpt>
      <trkpt lat="43.39209" lon="6.10723">
        <ele>281.60000610352</ele>
        <time>2013-09-28T13:34:52Z</time>
      </trkpt>
      <trkpt lat="43.39214" lon="6.10731">
        <ele>281.60000610352</ele>
        <time>2013-09-28T13:34:56Z</time>
      </trkpt>
      <trkpt lat="43.39217" lon="6.10738">
        <ele>282.79998779297</ele>
        <time>2013-09-28T13:34:59Z</time>
      </trkpt>
      <trkpt lat="43.39217" lon="6.10741">
        <ele>283.20001220703</ele>
        <time>2013-09-28T13:35:00Z</time>
      </trkpt>
      <trkpt lat="43.39217" lon="6.10761">
        <ele>283.60000610352</ele>
        <time>2013-09-28T13:35:06Z</time>
      </trkpt>
      <trkpt lat="43.3922" lon="6.10778">
        <ele>283.60000610352</ele>
        <time>2013-09-28T13:35:10Z</time>
      </trkpt>
      <trkpt lat="43.39219" lon="6.10796">
        <ele>283.60000610352</ele>
        <time>2013-09-28T13:35:14Z</time>
      </trkpt>
      <trkpt lat="43.39221" lon="6.10812">
        <ele>283.60000610352</ele>
        <time>2013-09-28T13:35:19Z</time>
      </trkpt>
      <trkpt lat="43.39223" lon="6.10826">
        <ele>283.60000610352</ele>
        <time>2013-09-28T13:35:25Z</time>
      </trkpt>
      <trkpt lat="43.39227" lon="6.10847">
        <ele>283.60000610352</ele>
        <time>2013-09-28T13:35:34Z</time>
      </trkpt>
      <trkpt lat="43.39227" lon="6.1085">
        <ele>283.60000610352</ele>
        <time>2013-09-28T13:35:36Z</time>
      </trkpt>
      <trkpt lat="43.39227" lon="6.1085">
        <ele>283.60000610352</ele>
        <time>2013-09-28T13:35:41Z</time>
      </trkpt>
      <trkpt lat="43.39227" lon="6.10861">
        <ele>283.60000610352</ele>
        <time>2013-09-28T13:35:46Z</time>
      </trkpt>
      <trkpt lat="43.39228" lon="6.10881">
        <ele>284.39999389648</ele>
        <time>2013-09-28T13:35:53Z</time>
      </trkpt>
      <trkpt lat="43.39227" lon="6.10884">
        <ele>285</ele>
        <time>2013-09-28T13:35:54Z</time>
      </trkpt>
      <trkpt lat="43.39226" lon="6.10886">
        <ele>285.39999389648</ele>
        <time>2013-09-28T13:35:55Z</time>
      </trkpt>
      <trkpt lat="43.39225" lon="6.10888">
        <ele>285.79998779297</ele>
        <time>2013-09-28T13:35:56Z</time>
      </trkpt>
      <trkpt lat="43.39221" lon="6.10894">
        <ele>285.79998779297</ele>
        <time>2013-09-28T13:35:58Z</time>
      </trkpt>
      <trkpt lat="43.39212" lon="6.10906">
        <ele>285.79998779297</ele>
        <time>2013-09-28T13:36:03Z</time>
      </trkpt>
      <trkpt lat="43.3921" lon="6.10909">
        <ele>285.79998779297</ele>
        <time>2013-09-28T13:36:05Z</time>
      </trkpt>
      <trkpt lat="43.39209" lon="6.10914">
        <ele>285.79998779297</ele>
        <time>2013-09-28T13:36:07Z</time>
      </trkpt>
      <trkpt lat="43.39202" lon="6.10921">
        <ele>285.79998779297</ele>
        <time>2013-09-28T13:36:11Z</time>
      </trkpt>
      <trkpt lat="43.392" lon="6.10921">
        <ele>285.79998779297</ele>
        <time>2013-09-28T13:36:12Z</time>
      </trkpt>
      <trkpt lat="43.39194" lon="6.10924">
        <ele>285.79998779297</ele>
        <time>2013-09-28T13:36:15Z</time>
      </trkpt>
      <trkpt lat="43.39184" lon="6.10935">
        <ele>285.79998779297</ele>
        <time>2013-09-28T13:36:22Z</time>
      </trkpt>
      <trkpt lat="43.39178" lon="6.10949">
        <ele>285.79998779297</ele>
        <time>2013-09-28T13:36:28Z</time>
      </trkpt>
      <trkpt lat="43.3917" lon="6.10961">
        <ele>285.79998779297</ele>
        <time>2013-09-28T13:36:33Z</time>
      </trkpt>
      <trkpt lat="43.39161" lon="6.10969">
        <ele>286.20001220703</ele>
        <time>2013-09-28T13:36:40Z</time>
      </trkpt>
      <trkpt lat="43.39157" lon="6.10973">
        <ele>287.79998779297</ele>
        <time>2013-09-28T13:36:43Z</time>
      </trkpt>
      <trkpt lat="43.39156" lon="6.10974">
        <ele>287.79998779297</ele>
        <time>2013-09-28T13:36:44Z</time>
      </trkpt>
      <trkpt lat="43.39155" lon="6.10976">
        <ele>287.79998779297</ele>
        <time>2013-09-28T13:36:45Z</time>
      </trkpt>
      <trkpt lat="43.3915" lon="6.10988">
        <ele>287.79998779297</ele>
        <time>2013-09-28T13:36:50Z</time>
      </trkpt>
      <trkpt lat="43.39149" lon="6.1099">
        <ele>287.79998779297</ele>
        <time>2013-09-28T13:36:51Z</time>
      </trkpt>
      <trkpt lat="43.39151" lon="6.11012">
        <ele>287.79998779297</ele>
        <time>2013-09-28T13:36:57Z</time>
      </trkpt>
      <trkpt lat="43.39151" lon="6.11029">
        <ele>287.79998779297</ele>
        <time>2013-09-28T13:37:01Z</time>
      </trkpt>
      <trkpt lat="43.39151" lon="6.11032">
        <ele>287.79998779297</ele>
        <time>2013-09-28T13:37:02Z</time>
      </trkpt>
      <trkpt lat="43.39145" lon="6.11047">
        <ele>287.79998779297</ele>
        <time>2013-09-28T13:37:08Z</time>
      </trkpt>
      <trkpt lat="43.39143" lon="6.11062">
        <ele>287.79998779297</ele>
        <time>2013-09-28T13:37:14Z</time>
      </trkpt>
      <trkpt lat="43.39145" lon="6.11081">
        <ele>287.79998779297</ele>
        <time>2013-09-28T13:37:20Z</time>
      </trkpt>
      <trkpt lat="43.39141" lon="6.11097">
        <ele>288.60000610352</ele>
        <time>2013-09-28T13:37:27Z</time>
      </trkpt>
      <trkpt lat="43.39141" lon="6.11119">
        <ele>290</ele>
        <time>2013-09-28T13:37:35Z</time>
      </trkpt>
      <trkpt lat="43.39141" lon="6.1114">
        <ele>290</ele>
        <time>2013-09-28T13:37:43Z</time>
      </trkpt>
      <trkpt lat="43.39138" lon="6.11156">
        <ele>290</ele>
        <time>2013-09-28T13:37:50Z</time>
      </trkpt>
      <trkpt lat="43.39132" lon="6.11166">
        <ele>290.39999389648</ele>
        <time>2013-09-28T13:37:56Z</time>
      </trkpt>
      <trkpt lat="43.39128" lon="6.1117">
        <ele>292</ele>
        <time>2013-09-28T13:37:59Z</time>
      </trkpt>
      <trkpt lat="43.39125" lon="6.1117">
        <ele>292</ele>
        <time>2013-09-28T13:38:01Z</time>
      </trkpt>
      <trkpt lat="43.39122" lon="6.11171">
        <ele>292</ele>
        <time>2013-09-28T13:38:03Z</time>
      </trkpt>
      <trkpt lat="43.39122" lon="6.11171">
        <ele>292.39999389648</ele>
        <time>2013-09-28T13:38:04Z</time>
      </trkpt>
      <trkpt lat="43.39122" lon="6.11172">
        <ele>293</ele>
        <time>2013-09-28T13:38:05Z</time>
      </trkpt>
      <trkpt lat="43.39122" lon="6.11172">
        <ele>293.79998779297</ele>
        <time>2013-09-28T13:38:07Z</time>
      </trkpt>
      <trkpt lat="43.3912" lon="6.11172">
        <ele>294.20001220703</ele>
        <time>2013-09-28T13:38:08Z</time>
      </trkpt>
      <trkpt lat="43.3912" lon="6.11172">
        <ele>294.20001220703</ele>
        <time>2013-09-28T13:38:11Z</time>
      </trkpt>
      <trkpt lat="43.3912" lon="6.11172">
        <ele>294.20001220703</ele>
        <time>2013-09-28T13:38:14Z</time>
      </trkpt>
      <trkpt lat="43.39119" lon="6.11171">
        <ele>294.20001220703</ele>
        <time>2013-09-28T13:38:19Z</time>
      </trkpt>
      <trkpt lat="43.39114" lon="6.11172">
        <ele>294.20001220703</ele>
        <time>2013-09-28T13:38:25Z</time>
      </trkpt>
      <trkpt lat="43.39114" lon="6.11172">
        <ele>294.20001220703</ele>
        <time>2013-09-28T13:38:26Z</time>
      </trkpt>
      <trkpt lat="43.39113" lon="6.11173">
        <ele>294.20001220703</ele>
        <time>2013-09-28T13:38:33Z</time>
      </trkpt>
      <trkpt lat="43.39112" lon="6.11175">
        <ele>294.60000610352</ele>
        <time>2013-09-28T13:38:35Z</time>
      </trkpt>
      <trkpt lat="43.39111" lon="6.11181">
        <ele>296.20001220703</ele>
        <time>2013-09-28T13:38:39Z</time>
      </trkpt>
      <trkpt lat="43.3911" lon="6.1119">
        <ele>296.20001220703</ele>
        <time>2013-09-28T13:38:45Z</time>
      </trkpt>
      <trkpt lat="43.39109" lon="6.112">
        <ele>296.20001220703</ele>
        <time>2013-09-28T13:38:52Z</time>
      </trkpt>
      <trkpt lat="43.39106" lon="6.11207">
        <ele>296.20001220703</ele>
        <time>2013-09-28T13:38:57Z</time>
      </trkpt>
      <trkpt lat="43.39106" lon="6.11216">
        <ele>296.20001220703</ele>
        <time>2013-09-28T13:39:02Z</time>
      </trkpt>
      <trkpt lat="43.39104" lon="6.11232">
        <ele>296.60000610352</ele>
        <time>2013-09-28T13:39:08Z</time>
      </trkpt>
      <trkpt lat="43.39101" lon="6.11244">
        <ele>298.20001220703</ele>
        <time>2013-09-28T13:39:14Z</time>
      </trkpt>
      <trkpt lat="43.39101" lon="6.11249">
        <ele>298.20001220703</ele>
        <time>2013-09-28T13:39:16Z</time>
      </trkpt>
      <trkpt lat="43.391" lon="6.11262">
        <ele>298.20001220703</ele>
        <time>2013-09-28T13:39:20Z</time>
      </trkpt>
      <trkpt lat="43.39097" lon="6.11271">
        <ele>298.20001220703</ele>
        <time>2013-09-28T13:39:23Z</time>
      </trkpt>
      <trkpt lat="43.39095" lon="6.11276">
        <ele>298.20001220703</ele>
        <time>2013-09-28T13:39:25Z</time>
      </trkpt>
      <trkpt lat="43.3909" lon="6.11289">
        <ele>298.20001220703</ele>
        <time>2013-09-28T13:39:31Z</time>
      </trkpt>
      <trkpt lat="43.39089" lon="6.11291">
        <ele>298.20001220703</ele>
        <time>2013-09-28T13:39:32Z</time>
      </trkpt>
      <trkpt lat="43.39086" lon="6.11296">
        <ele>298.20001220703</ele>
        <time>2013-09-28T13:39:35Z</time>
      </trkpt>
      <trkpt lat="43.39079" lon="6.11293">
        <ele>298.20001220703</ele>
        <time>2013-09-28T13:39:40Z</time>
      </trkpt>
      <trkpt lat="43.39076" lon="6.1129">
        <ele>298.20001220703</ele>
        <time>2013-09-28T13:39:43Z</time>
      </trkpt>
      <trkpt lat="43.3907" lon="6.11281">
        <ele>298.20001220703</ele>
        <time>2013-09-28T13:39:50Z</time>
      </trkpt>
      <trkpt lat="43.39069" lon="6.11279">
        <ele>298.20001220703</ele>
        <time>2013-09-28T13:39:52Z</time>
      </trkpt>
      <trkpt lat="43.39067" lon="6.11274">
        <ele>298.20001220703</ele>
        <time>2013-09-28T13:39:55Z</time>
      </trkpt>
      <trkpt lat="43.39064" lon="6.11268">
        <ele>300.39999389648</ele>
        <time>2013-09-28T13:40:00Z</time>
      </trkpt>
      <trkpt lat="43.39058" lon="6.11258">
        <ele>300.39999389648</ele>
        <time>2013-09-28T13:40:07Z</time>
      </trkpt>
      <trkpt lat="43.3905" lon="6.11246">
        <ele>300.39999389648</ele>
        <time>2013-09-28T13:40:15Z</time>
      </trkpt>
      <trkpt lat="43.39043" lon="6.11241">
        <ele>300.39999389648</ele>
        <time>2013-09-28T13:40:19Z</time>
      </trkpt>
      <trkpt lat="43.39039" lon="6.11235">
        <ele>300.39999389648</ele>
        <time>2013-09-28T13:40:22Z</time>
      </trkpt>
      <trkpt lat="43.39037" lon="6.11228">
        <ele>300.39999389648</ele>
        <time>2013-09-28T13:40:26Z</time>
      </trkpt>
      <trkpt lat="43.39035" lon="6.11225">
        <ele>300.39999389648</ele>
        <time>2013-09-28T13:40:31Z</time>
      </trkpt>
      <trkpt lat="43.39035" lon="6.11225">
        <ele>300.39999389648</ele>
        <time>2013-09-28T13:40:50Z</time>
      </trkpt>
      <trkpt lat="43.39035" lon="6.11225">
        <ele>300.39999389648</ele>
        <time>2013-09-28T13:41:25Z</time>
      </trkpt>
      <trkpt lat="43.39035" lon="6.11224">
        <ele>300.39999389648</ele>
        <time>2013-09-28T13:41:52Z</time>
      </trkpt>
      <trkpt lat="43.39035" lon="6.11224">
        <ele>300.39999389648</ele>
        <time>2013-09-28T13:42:06Z</time>
      </trkpt>
      <trkpt lat="43.39035" lon="6.11222">
        <ele>300.39999389648</ele>
        <time>2013-09-28T13:42:15Z</time>
      </trkpt>
      <trkpt lat="43.39034" lon="6.11219">
        <ele>300.39999389648</ele>
        <time>2013-09-28T13:42:16Z</time>
      </trkpt>
      <trkpt lat="43.39033" lon="6.11213">
        <ele>300.39999389648</ele>
        <time>2013-09-28T13:42:19Z</time>
      </trkpt>
      <trkpt lat="43.3903" lon="6.11209">
        <ele>300.39999389648</ele>
        <time>2013-09-28T13:42:21Z</time>
      </trkpt>
      <trkpt lat="43.39027" lon="6.11206">
        <ele>299.39999389648</ele>
        <time>2013-09-28T13:42:23Z</time>
      </trkpt>
      <trkpt lat="43.39022" lon="6.11201">
        <ele>298.60000610352</ele>
        <time>2013-09-28T13:42:25Z</time>
      </trkpt>
      <trkpt lat="43.39018" lon="6.11195">
        <ele>298.20001220703</ele>
        <time>2013-09-28T13:42:27Z</time>
      </trkpt>
      <trkpt lat="43.39007" lon="6.11188">
        <ele>297.79998779297</ele>
        <time>2013-09-28T13:42:31Z</time>
      </trkpt>
      <trkpt lat="43.39002" lon="6.11188">
        <ele>297</ele>
        <time>2013-09-28T13:42:33Z</time>
      </trkpt>
      <trkpt lat="43.38993" lon="6.11188">
        <ele>296.20001220703</ele>
        <time>2013-09-28T13:42:36Z</time>
      </trkpt>
      <trkpt lat="43.38985" lon="6.1119">
        <ele>295.79998779297</ele>
        <time>2013-09-28T13:42:39Z</time>
      </trkpt>
      <trkpt lat="43.38974" lon="6.1119">
        <ele>294</ele>
        <time>2013-09-28T13:42:43Z</time>
      </trkpt>
      <trkpt lat="43.38955" lon="6.11196">
        <ele>291.79998779297</ele>
        <time>2013-09-28T13:42:49Z</time>
      </trkpt>
      <trkpt lat="43.38947" lon="6.11195">
        <ele>291.39999389648</ele>
        <time>2013-09-28T13:42:51Z</time>
      </trkpt>
      <trkpt lat="43.38937" lon="6.11191">
        <ele>289.79998779297</ele>
        <time>2013-09-28T13:42:54Z</time>
      </trkpt>
      <trkpt lat="43.38927" lon="6.11188">
        <ele>289.79998779297</ele>
        <time>2013-09-28T13:42:57Z</time>
      </trkpt>
      <trkpt lat="43.38908" lon="6.11182">
        <ele>289.79998779297</ele>
        <time>2013-09-28T13:43:04Z</time>
      </trkpt>
      <trkpt lat="43.38887" lon="6.1118">
        <ele>289.79998779297</ele>
        <time>2013-09-28T13:43:12Z</time>
      </trkpt>
      <trkpt lat="43.38868" lon="6.11179">
        <ele>289.79998779297</ele>
        <time>2013-09-28T13:43:19Z</time>
      </trkpt>
      <trkpt lat="43.38856" lon="6.11175">
        <ele>289.79998779297</ele>
        <time>2013-09-28T13:43:24Z</time>
      </trkpt>
      <trkpt lat="43.38838" lon="6.11169">
        <ele>289.79998779297</ele>
        <time>2013-09-28T13:43:31Z</time>
      </trkpt>
      <trkpt lat="43.38828" lon="6.11163">
        <ele>289.79998779297</ele>
        <time>2013-09-28T13:43:35Z</time>
      </trkpt>
      <trkpt lat="43.38809" lon="6.1115">
        <ele>289.79998779297</ele>
        <time>2013-09-28T13:43:43Z</time>
      </trkpt>
      <trkpt lat="43.38796" lon="6.11141">
        <ele>291.79998779297</ele>
        <time>2013-09-28T13:43:48Z</time>
      </trkpt>
      <trkpt lat="43.38776" lon="6.11128">
        <ele>291.79998779297</ele>
        <time>2013-09-28T13:43:57Z</time>
      </trkpt>
      <trkpt lat="43.38762" lon="6.11123">
        <ele>291.79998779297</ele>
        <time>2013-09-28T13:44:03Z</time>
      </trkpt>
      <trkpt lat="43.38742" lon="6.11116">
        <ele>291.79998779297</ele>
        <time>2013-09-28T13:44:10Z</time>
      </trkpt>
      <trkpt lat="43.38722" lon="6.1111">
        <ele>291.79998779297</ele>
        <time>2013-09-28T13:44:17Z</time>
      </trkpt>
      <trkpt lat="43.38709" lon="6.11104">
        <ele>291.79998779297</ele>
        <time>2013-09-28T13:44:22Z</time>
      </trkpt>
      <trkpt lat="43.38708" lon="6.11088">
        <ele>291.79998779297</ele>
        <time>2013-09-28T13:44:27Z</time>
      </trkpt>
      <trkpt lat="43.38708" lon="6.11081">
        <ele>291.79998779297</ele>
        <time>2013-09-28T13:44:29Z</time>
      </trkpt>
      <trkpt lat="43.38704" lon="6.11068">
        <ele>291.79998779297</ele>
        <time>2013-09-28T13:44:33Z</time>
      </trkpt>
      <trkpt lat="43.38693" lon="6.11061">
        <ele>291.79998779297</ele>
        <time>2013-09-28T13:44:38Z</time>
      </trkpt>
      <trkpt lat="43.38673" lon="6.11041">
        <ele>294</ele>
        <time>2013-09-28T13:44:49Z</time>
      </trkpt>
      <trkpt lat="43.3866" lon="6.11031">
        <ele>294</ele>
        <time>2013-09-28T13:44:56Z</time>
      </trkpt>
      <trkpt lat="43.38648" lon="6.11019">
        <ele>294.79998779297</ele>
        <time>2013-09-28T13:45:04Z</time>
      </trkpt>
      <trkpt lat="43.38643" lon="6.11016">
        <ele>296.20001220703</ele>
        <time>2013-09-28T13:45:07Z</time>
      </trkpt>
      <trkpt lat="43.38636" lon="6.11012">
        <ele>296.20001220703</ele>
        <time>2013-09-28T13:45:10Z</time>
      </trkpt>
      <trkpt lat="43.3863" lon="6.11007">
        <ele>296.60000610352</ele>
        <time>2013-09-28T13:45:14Z</time>
      </trkpt>
      <trkpt lat="43.38627" lon="6.11003">
        <ele>297.79998779297</ele>
        <time>2013-09-28T13:45:17Z</time>
      </trkpt>
      <trkpt lat="43.38621" lon="6.10999">
        <ele>298.20001220703</ele>
        <time>2013-09-28T13:45:21Z</time>
      </trkpt>
      <trkpt lat="43.38613" lon="6.10993">
        <ele>298.20001220703</ele>
        <time>2013-09-28T13:45:25Z</time>
      </trkpt>
      <trkpt lat="43.38605" lon="6.10989">
        <ele>298.20001220703</ele>
        <time>2013-09-28T13:45:28Z</time>
      </trkpt>
      <trkpt lat="43.38601" lon="6.10989">
        <ele>298.20001220703</ele>
        <time>2013-09-28T13:45:30Z</time>
      </trkpt>
      <trkpt lat="43.38593" lon="6.1099">
        <ele>298.20001220703</ele>
        <time>2013-09-28T13:45:33Z</time>
      </trkpt>
      <trkpt lat="43.38586" lon="6.1099">
        <ele>298.20001220703</ele>
        <time>2013-09-28T13:45:35Z</time>
      </trkpt>
      <trkpt lat="43.3857" lon="6.1099">
        <ele>298.20001220703</ele>
        <time>2013-09-28T13:45:39Z</time>
      </trkpt>
      <trkpt lat="43.3856" lon="6.1099">
        <ele>298.20001220703</ele>
        <time>2013-09-28T13:45:41Z</time>
      </trkpt>
      <trkpt lat="43.38544" lon="6.10982">
        <ele>297.39999389648</ele>
        <time>2013-09-28T13:45:45Z</time>
      </trkpt>
      <trkpt lat="43.3854" lon="6.10979">
        <ele>297</ele>
        <time>2013-09-28T13:45:46Z</time>
      </trkpt>
      <trkpt lat="43.38535" lon="6.10977">
        <ele>296.60000610352</ele>
        <time>2013-09-28T13:45:47Z</time>
      </trkpt>
      <trkpt lat="43.38531" lon="6.10975">
        <ele>296.20001220703</ele>
        <time>2013-09-28T13:45:48Z</time>
      </trkpt>
      <trkpt lat="43.38514" lon="6.10969">
        <ele>296.20001220703</ele>
        <time>2013-09-28T13:45:51Z</time>
      </trkpt>
      <trkpt lat="43.385" lon="6.10966">
        <ele>295.20001220703</ele>
        <time>2013-09-28T13:45:53Z</time>
      </trkpt>
      <trkpt lat="43.38493" lon="6.10964">
        <ele>294.60000610352</ele>
        <time>2013-09-28T13:45:54Z</time>
      </trkpt>
      <trkpt lat="43.38487" lon="6.10962">
        <ele>294</ele>
        <time>2013-09-28T13:45:55Z</time>
      </trkpt>
      <trkpt lat="43.38482" lon="6.10961">
        <ele>293.20001220703</ele>
        <time>2013-09-28T13:45:56Z</time>
      </trkpt>
      <trkpt lat="43.38479" lon="6.10961">
        <ele>292.60000610352</ele>
        <time>2013-09-28T13:45:57Z</time>
      </trkpt>
      <trkpt lat="43.38476" lon="6.1096">
        <ele>292</ele>
        <time>2013-09-28T13:45:58Z</time>
      </trkpt>
      <trkpt lat="43.38474" lon="6.1096">
        <ele>291.20001220703</ele>
        <time>2013-09-28T13:45:59Z</time>
      </trkpt>
      <trkpt lat="43.3847" lon="6.10959">
        <ele>291.20001220703</ele>
        <time>2013-09-28T13:46:01Z</time>
      </trkpt>
      <trkpt lat="43.38459" lon="6.1096">
        <ele>291.20001220703</ele>
        <time>2013-09-28T13:46:05Z</time>
      </trkpt>
      <trkpt lat="43.38443" lon="6.10957">
        <ele>290.79998779297</ele>
        <time>2013-09-28T13:46:10Z</time>
      </trkpt>
      <trkpt lat="43.38436" lon="6.10955">
        <ele>290</ele>
        <time>2013-09-28T13:46:12Z</time>
      </trkpt>
      <trkpt lat="43.38427" lon="6.10953">
        <ele>289.20001220703</ele>
        <time>2013-09-28T13:46:14Z</time>
      </trkpt>
      <trkpt lat="43.3841" lon="6.10949">
        <ele>289.20001220703</ele>
        <time>2013-09-28T13:46:18Z</time>
      </trkpt>
      <trkpt lat="43.38378" lon="6.1094">
        <ele>289.20001220703</ele>
        <time>2013-09-28T13:46:25Z</time>
      </trkpt>
      <trkpt lat="43.38373" lon="6.1094">
        <ele>288.79998779297</ele>
        <time>2013-09-28T13:46:26Z</time>
      </trkpt>
      <trkpt lat="43.38369" lon="6.10939">
        <ele>288.39999389648</ele>
        <time>2013-09-28T13:46:27Z</time>
      </trkpt>
      <trkpt lat="43.3836" lon="6.10936">
        <ele>287.60000610352</ele>
        <time>2013-09-28T13:46:29Z</time>
      </trkpt>
      <trkpt lat="43.38322" lon="6.10926">
        <ele>287.20001220703</ele>
        <time>2013-09-28T13:46:38Z</time>
      </trkpt>
      <trkpt lat="43.3829" lon="6.10915">
        <ele>287.20001220703</ele>
        <time>2013-09-28T13:46:46Z</time>
      </trkpt>
      <trkpt lat="43.38277" lon="6.10911">
        <ele>287.20001220703</ele>
        <time>2013-09-28T13:46:49Z</time>
      </trkpt>
      <trkpt lat="43.38261" lon="6.10907">
        <ele>287.20001220703</ele>
        <time>2013-09-28T13:46:53Z</time>
      </trkpt>
      <trkpt lat="43.38233" lon="6.10899">
        <ele>287.20001220703</ele>
        <time>2013-09-28T13:47:00Z</time>
      </trkpt>
      <trkpt lat="43.3821" lon="6.10891">
        <ele>287.20001220703</ele>
        <time>2013-09-28T13:47:07Z</time>
      </trkpt>
      <trkpt lat="43.38195" lon="6.10889">
        <ele>287.20001220703</ele>
        <time>2013-09-28T13:47:12Z</time>
      </trkpt>
      <trkpt lat="43.38191" lon="6.10903">
        <ele>287.20001220703</ele>
        <time>2013-09-28T13:47:16Z</time>
      </trkpt>
      <trkpt lat="43.38188" lon="6.10921">
        <ele>287.20001220703</ele>
        <time>2013-09-28T13:47:21Z</time>
      </trkpt>
      <trkpt lat="43.38182" lon="6.1096">
        <ele>287.20001220703</ele>
        <time>2013-09-28T13:47:31Z</time>
      </trkpt>
      <trkpt lat="43.38178" lon="6.10975">
        <ele>287.20001220703</ele>
        <time>2013-09-28T13:47:35Z</time>
      </trkpt>
      <trkpt lat="43.38173" lon="6.11005">
        <ele>287.20001220703</ele>
        <time>2013-09-28T13:47:43Z</time>
      </trkpt>
      <trkpt lat="43.38162" lon="6.11059">
        <ele>289.39999389648</ele>
        <time>2013-09-28T13:47:57Z</time>
      </trkpt>
      <trkpt lat="43.38151" lon="6.11096">
        <ele>291</ele>
        <time>2013-09-28T13:48:07Z</time>
      </trkpt>
      <trkpt lat="43.38144" lon="6.11109">
        <ele>291.39999389648</ele>
        <time>2013-09-28T13:48:11Z</time>
      </trkpt>
      <trkpt lat="43.3813" lon="6.11128">
        <ele>291.79998779297</ele>
        <time>2013-09-28T13:48:18Z</time>
      </trkpt>
      <trkpt lat="43.38123" lon="6.11135">
        <ele>293.20001220703</ele>
        <time>2013-09-28T13:48:21Z</time>
      </trkpt>
      <trkpt lat="43.38114" lon="6.11144">
        <ele>293.60000610352</ele>
        <time>2013-09-28T13:48:25Z</time>
      </trkpt>
      <trkpt lat="43.38095" lon="6.11166">
        <ele>294.79998779297</ele>
        <time>2013-09-28T13:48:36Z</time>
      </trkpt>
      <trkpt lat="43.38091" lon="6.1117">
        <ele>295.60000610352</ele>
        <time>2013-09-28T13:48:38Z</time>
      </trkpt>
      <trkpt lat="43.38083" lon="6.11179">
        <ele>295.60000610352</ele>
        <time>2013-09-28T13:48:43Z</time>
      </trkpt>
      <trkpt lat="43.38077" lon="6.11185">
        <ele>295.60000610352</ele>
        <time>2013-09-28T13:48:46Z</time>
      </trkpt>
      <trkpt lat="43.38071" lon="6.11192">
        <ele>296.79998779297</ele>
        <time>2013-09-28T13:48:50Z</time>
      </trkpt>
      <trkpt lat="43.38068" lon="6.11196">
        <ele>297.79998779297</ele>
        <time>2013-09-28T13:48:52Z</time>
      </trkpt>
      <trkpt lat="43.38058" lon="6.11204">
        <ele>297.79998779297</ele>
        <time>2013-09-28T13:48:57Z</time>
      </trkpt>
      <trkpt lat="43.38052" lon="6.11212">
        <ele>297.79998779297</ele>
        <time>2013-09-28T13:49:00Z</time>
      </trkpt>
      <trkpt lat="43.38049" lon="6.11219">
        <ele>297.79998779297</ele>
        <time>2013-09-28T13:49:02Z</time>
      </trkpt>
      <trkpt lat="43.38045" lon="6.11226">
        <ele>297.79998779297</ele>
        <time>2013-09-28T13:49:04Z</time>
      </trkpt>
      <trkpt lat="43.38039" lon="6.11239">
        <ele>297.79998779297</ele>
        <time>2013-09-28T13:49:07Z</time>
      </trkpt>
      <trkpt lat="43.38028" lon="6.11263">
        <ele>297.79998779297</ele>
        <time>2013-09-28T13:49:13Z</time>
      </trkpt>
      <trkpt lat="43.38018" lon="6.1128">
        <ele>297.79998779297</ele>
        <time>2013-09-28T13:49:18Z</time>
      </trkpt>
      <trkpt lat="43.38006" lon="6.11309">
        <ele>297.79998779297</ele>
        <time>2013-09-28T13:49:26Z</time>
      </trkpt>
      <trkpt lat="43.37997" lon="6.11327">
        <ele>297.79998779297</ele>
        <time>2013-09-28T13:49:31Z</time>
      </trkpt>
      <trkpt lat="43.37988" lon="6.11344">
        <ele>297.79998779297</ele>
        <time>2013-09-28T13:49:36Z</time>
      </trkpt>
      <trkpt lat="43.37973" lon="6.11367">
        <ele>297.79998779297</ele>
        <time>2013-09-28T13:49:43Z</time>
      </trkpt>
      <trkpt lat="43.37959" lon="6.11383">
        <ele>297.79998779297</ele>
        <time>2013-09-28T13:49:49Z</time>
      </trkpt>
      <trkpt lat="43.3795" lon="6.11394">
        <ele>297.79998779297</ele>
        <time>2013-09-28T13:49:53Z</time>
      </trkpt>
      <trkpt lat="43.37938" lon="6.11411">
        <ele>297.79998779297</ele>
        <time>2013-09-28T13:50:00Z</time>
      </trkpt>
      <trkpt lat="43.37933" lon="6.11417">
        <ele>297.79998779297</ele>
        <time>2013-09-28T13:50:05Z</time>
      </trkpt>
      <trkpt lat="43.37933" lon="6.11417">
        <ele>297.79998779297</ele>
        <time>2013-09-28T13:50:06Z</time>
      </trkpt>
      <trkpt lat="43.37934" lon="6.11418">
        <ele>297.79998779297</ele>
        <time>2013-09-28T13:50:13Z</time>
      </trkpt>
      <trkpt lat="43.37934" lon="6.11418">
        <ele>297.79998779297</ele>
        <time>2013-09-28T13:50:25Z</time>
      </trkpt>
      <trkpt lat="43.37934" lon="6.11418">
        <ele>297.79998779297</ele>
        <time>2013-09-28T13:50:38Z</time>
      </trkpt>
      <trkpt lat="43.37933" lon="6.11419">
        <ele>297.79998779297</ele>
        <time>2013-09-28T13:50:45Z</time>
      </trkpt>
      <trkpt lat="43.37922" lon="6.11431">
        <ele>297.79998779297</ele>
        <time>2013-09-28T13:50:52Z</time>
      </trkpt>
      <trkpt lat="43.37905" lon="6.11451">
        <ele>297.79998779297</ele>
        <time>2013-09-28T13:50:59Z</time>
      </trkpt>
      <trkpt lat="43.37891" lon="6.11463">
        <ele>297.79998779297</ele>
        <time>2013-09-28T13:51:05Z</time>
      </trkpt>
      <trkpt lat="43.37876" lon="6.11471">
        <ele>297.79998779297</ele>
        <time>2013-09-28T13:51:11Z</time>
      </trkpt>
      <trkpt lat="43.37862" lon="6.11474">
        <ele>297.79998779297</ele>
        <time>2013-09-28T13:51:16Z</time>
      </trkpt>
      <trkpt lat="43.37849" lon="6.11487">
        <ele>297.79998779297</ele>
        <time>2013-09-28T13:51:22Z</time>
      </trkpt>
      <trkpt lat="43.37848" lon="6.1149">
        <ele>297.79998779297</ele>
        <time>2013-09-28T13:51:23Z</time>
      </trkpt>
      <trkpt lat="43.37844" lon="6.11499">
        <ele>298.60000610352</ele>
        <time>2013-09-28T13:51:27Z</time>
      </trkpt>
      <trkpt lat="43.3784" lon="6.11507">
        <ele>300</ele>
        <time>2013-09-28T13:51:30Z</time>
      </trkpt>
      <trkpt lat="43.37832" lon="6.11525">
        <ele>300</ele>
        <time>2013-09-28T13:51:36Z</time>
      </trkpt>
      <trkpt lat="43.37823" lon="6.11545">
        <ele>300</ele>
        <time>2013-09-28T13:51:43Z</time>
      </trkpt>
      <trkpt lat="43.37818" lon="6.11561">
        <ele>301.79998779297</ele>
        <time>2013-09-28T13:51:49Z</time>
      </trkpt>
      <trkpt lat="43.37798" lon="6.11589">
        <ele>302.20001220703</ele>
        <time>2013-09-28T13:52:03Z</time>
      </trkpt>
      <trkpt lat="43.3779" lon="6.11599">
        <ele>302.20001220703</ele>
        <time>2013-09-28T13:52:08Z</time>
      </trkpt>
      <trkpt lat="43.37774" lon="6.11624">
        <ele>304.20001220703</ele>
        <time>2013-09-28T13:52:20Z</time>
      </trkpt>
      <trkpt lat="43.3776" lon="6.11648">
        <ele>304.60000610352</ele>
        <time>2013-09-28T13:52:30Z</time>
      </trkpt>
      <trkpt lat="43.37756" lon="6.11652">
        <ele>305.39999389648</ele>
        <time>2013-09-28T13:52:32Z</time>
      </trkpt>
      <trkpt lat="43.37748" lon="6.11674">
        <ele>306.20001220703</ele>
        <time>2013-09-28T13:52:40Z</time>
      </trkpt>
      <trkpt lat="43.37729" lon="6.11712">
        <ele>308.20001220703</ele>
        <time>2013-09-28T13:52:55Z</time>
      </trkpt>
      <trkpt lat="43.37719" lon="6.11729">
        <ele>308.20001220703</ele>
        <time>2013-09-28T13:53:02Z</time>
      </trkpt>
      <trkpt lat="43.37713" lon="6.11739">
        <ele>308.20001220703</ele>
        <time>2013-09-28T13:53:07Z</time>
      </trkpt>
      <trkpt lat="43.37708" lon="6.11747">
        <ele>308.79998779297</ele>
        <time>2013-09-28T13:53:10Z</time>
      </trkpt>
      <trkpt lat="43.37705" lon="6.11753">
        <ele>310</ele>
        <time>2013-09-28T13:53:13Z</time>
      </trkpt>
      <trkpt lat="43.377" lon="6.11765">
        <ele>310.39999389648</ele>
        <time>2013-09-28T13:53:18Z</time>
      </trkpt>
      <trkpt lat="43.37693" lon="6.11779">
        <ele>310.39999389648</ele>
        <time>2013-09-28T13:53:24Z</time>
      </trkpt>
      <trkpt lat="43.3769" lon="6.11787">
        <ele>310.79998779297</ele>
        <time>2013-09-28T13:53:28Z</time>
      </trkpt>
      <trkpt lat="43.3769" lon="6.1179">
        <ele>311.20001220703</ele>
        <time>2013-09-28T13:53:29Z</time>
      </trkpt>
      <trkpt lat="43.37682" lon="6.11811">
        <ele>312.39999389648</ele>
        <time>2013-09-28T13:53:36Z</time>
      </trkpt>
      <trkpt lat="43.3768" lon="6.11818">
        <ele>313.39999389648</ele>
        <time>2013-09-28T13:53:38Z</time>
      </trkpt>
      <trkpt lat="43.37679" lon="6.11821">
        <ele>313.79998779297</ele>
        <time>2013-09-28T13:53:39Z</time>
      </trkpt>
      <trkpt lat="43.37679" lon="6.11823">
        <ele>314.20001220703</ele>
        <time>2013-09-28T13:53:40Z</time>
      </trkpt>
      <trkpt lat="43.37676" lon="6.11824">
        <ele>314.60000610352</ele>
        <time>2013-09-28T13:53:41Z</time>
      </trkpt>
      <trkpt lat="43.37668" lon="6.1184">
        <ele>315.39999389648</ele>
        <time>2013-09-28T13:53:47Z</time>
      </trkpt>
      <trkpt lat="43.37663" lon="6.11846">
        <ele>316.79998779297</ele>
        <time>2013-09-28T13:53:50Z</time>
      </trkpt>
      <trkpt lat="43.37654" lon="6.11856">
        <ele>316.79998779297</ele>
        <time>2013-09-28T13:53:56Z</time>
      </trkpt>
      <trkpt lat="43.3765" lon="6.11862">
        <ele>317.60000610352</ele>
        <time>2013-09-28T13:54:00Z</time>
      </trkpt>
      <trkpt lat="43.37648" lon="6.11865">
        <ele>318</ele>
        <time>2013-09-28T13:54:01Z</time>
      </trkpt>
      <trkpt lat="43.37646" lon="6.11869">
        <ele>318.79998779297</ele>
        <time>2013-09-28T13:54:03Z</time>
      </trkpt>
      <trkpt lat="43.3764" lon="6.11881">
        <ele>318.79998779297</ele>
        <time>2013-09-28T13:54:09Z</time>
      </trkpt>
      <trkpt lat="43.37634" lon="6.11888">
        <ele>319.20001220703</ele>
        <time>2013-09-28T13:54:13Z</time>
      </trkpt>
      <trkpt lat="43.37631" lon="6.11892">
        <ele>320</ele>
        <time>2013-09-28T13:54:15Z</time>
      </trkpt>
      <trkpt lat="43.37628" lon="6.11897">
        <ele>320.79998779297</ele>
        <time>2013-09-28T13:54:17Z</time>
      </trkpt>
      <trkpt lat="43.37623" lon="6.11906">
        <ele>321.39999389648</ele>
        <time>2013-09-28T13:54:21Z</time>
      </trkpt>
      <trkpt lat="43.37621" lon="6.11907">
        <ele>321.79998779297</ele>
        <time>2013-09-28T13:54:22Z</time>
      </trkpt>
      <trkpt lat="43.37619" lon="6.1191">
        <ele>323</ele>
        <time>2013-09-28T13:54:24Z</time>
      </trkpt>
      <trkpt lat="43.37618" lon="6.11912">
        <ele>323</ele>
        <time>2013-09-28T13:54:26Z</time>
      </trkpt>
      <trkpt lat="43.37618" lon="6.11913">
        <ele>323</ele>
        <time>2013-09-28T13:54:31Z</time>
      </trkpt>
      <trkpt lat="43.37618" lon="6.11913">
        <ele>323</ele>
        <time>2013-09-28T13:54:45Z</time>
      </trkpt>
      <trkpt lat="43.37618" lon="6.11913">
        <ele>323</ele>
        <time>2013-09-28T13:55:05Z</time>
      </trkpt>
      <trkpt lat="43.37618" lon="6.11913">
        <ele>323</ele>
        <time>2013-09-28T13:55:11Z</time>
      </trkpt>
      <trkpt lat="43.37618" lon="6.11913">
        <ele>323</ele>
        <time>2013-09-28T13:55:30Z</time>
      </trkpt>
      <trkpt lat="43.37618" lon="6.11913">
        <ele>323</ele>
        <time>2013-09-28T13:55:44Z</time>
      </trkpt>
      <trkpt lat="43.37618" lon="6.11914">
        <ele>323</ele>
        <time>2013-09-28T13:55:54Z</time>
      </trkpt>
      <trkpt lat="43.37619" lon="6.11915">
        <ele>323</ele>
        <time>2013-09-28T13:55:55Z</time>
      </trkpt>
      <trkpt lat="43.37619" lon="6.11917">
        <ele>323</ele>
        <time>2013-09-28T13:55:56Z</time>
      </trkpt>
      <trkpt lat="43.37621" lon="6.11925">
        <ele>323</ele>
        <time>2013-09-28T13:55:59Z</time>
      </trkpt>
      <trkpt lat="43.37621" lon="6.11929">
        <ele>323</ele>
        <time>2013-09-28T13:56:01Z</time>
      </trkpt>
      <trkpt lat="43.37622" lon="6.11934">
        <ele>323</ele>
        <time>2013-09-28T13:56:03Z</time>
      </trkpt>
      <trkpt lat="43.37626" lon="6.11945">
        <ele>323</ele>
        <time>2013-09-28T13:56:08Z</time>
      </trkpt>
      <trkpt lat="43.37627" lon="6.11951">
        <ele>323.60000610352</ele>
        <time>2013-09-28T13:56:11Z</time>
      </trkpt>
      <trkpt lat="43.37627" lon="6.11953">
        <ele>324</ele>
        <time>2013-09-28T13:56:12Z</time>
      </trkpt>
      <trkpt lat="43.37627" lon="6.11956">
        <ele>324.39999389648</ele>
        <time>2013-09-28T13:56:13Z</time>
      </trkpt>
      <trkpt lat="43.37626" lon="6.1197">
        <ele>325.20001220703</ele>
        <time>2013-09-28T13:56:20Z</time>
      </trkpt>
      <trkpt lat="43.37626" lon="6.11987">
        <ele>325.60000610352</ele>
        <time>2013-09-28T13:56:26Z</time>
      </trkpt>
      <trkpt lat="43.37624" lon="6.11994">
        <ele>327.39999389648</ele>
        <time>2013-09-28T13:56:29Z</time>
      </trkpt>
      <trkpt lat="43.3762" lon="6.12003">
        <ele>327.39999389648</ele>
        <time>2013-09-28T13:56:34Z</time>
      </trkpt>
      <trkpt lat="43.37619" lon="6.1202">
        <ele>328.20001220703</ele>
        <time>2013-09-28T13:56:42Z</time>
      </trkpt>
      <trkpt lat="43.37619" lon="6.12023">
        <ele>328.60000610352</ele>
        <time>2013-09-28T13:56:43Z</time>
      </trkpt>
      <trkpt lat="43.37616" lon="6.12034">
        <ele>329.39999389648</ele>
        <time>2013-09-28T13:56:48Z</time>
      </trkpt>
      <trkpt lat="43.37611" lon="6.12047">
        <ele>329.39999389648</ele>
        <time>2013-09-28T13:56:55Z</time>
      </trkpt>
      <trkpt lat="43.37608" lon="6.12053">
        <ele>330.60000610352</ele>
        <time>2013-09-28T13:56:59Z</time>
      </trkpt>
      <trkpt lat="43.37607" lon="6.12056">
        <ele>331</ele>
        <time>2013-09-28T13:57:00Z</time>
      </trkpt>
      <trkpt lat="43.376" lon="6.12072">
        <ele>331.39999389648</ele>
        <time>2013-09-28T13:57:07Z</time>
      </trkpt>
      <trkpt lat="43.37595" lon="6.12085">
        <ele>331.39999389648</ele>
        <time>2013-09-28T13:57:13Z</time>
      </trkpt>
      <trkpt lat="43.37588" lon="6.12101">
        <ele>331.39999389648</ele>
        <time>2013-09-28T13:57:21Z</time>
      </trkpt>
      <trkpt lat="43.37587" lon="6.12104">
        <ele>332.39999389648</ele>
        <time>2013-09-28T13:57:23Z</time>
      </trkpt>
      <trkpt lat="43.37585" lon="6.12106">
        <ele>332.79998779297</ele>
        <time>2013-09-28T13:57:24Z</time>
      </trkpt>
      <trkpt lat="43.37585" lon="6.12107">
        <ele>333.20001220703</ele>
        <time>2013-09-28T13:57:25Z</time>
      </trkpt>
      <trkpt lat="43.37584" lon="6.12109">
        <ele>333.60000610352</ele>
        <time>2013-09-28T13:57:26Z</time>
      </trkpt>
      <trkpt lat="43.37576" lon="6.1212">
        <ele>333.60000610352</ele>
        <time>2013-09-28T13:57:31Z</time>
      </trkpt>
      <trkpt lat="43.37572" lon="6.12125">
        <ele>334</ele>
        <time>2013-09-28T13:57:33Z</time>
      </trkpt>
      <trkpt lat="43.37569" lon="6.12128">
        <ele>335</ele>
        <time>2013-09-28T13:57:35Z</time>
      </trkpt>
      <trkpt lat="43.37568" lon="6.1213">
        <ele>335.39999389648</ele>
        <time>2013-09-28T13:57:36Z</time>
      </trkpt>
      <trkpt lat="43.37567" lon="6.12133">
        <ele>335.79998779297</ele>
        <time>2013-09-28T13:57:37Z</time>
      </trkpt>
      <trkpt lat="43.37559" lon="6.1215">
        <ele>335.79998779297</ele>
        <time>2013-09-28T13:57:45Z</time>
      </trkpt>
      <trkpt lat="43.37558" lon="6.12154">
        <ele>335.79998779297</ele>
        <time>2013-09-28T13:57:48Z</time>
      </trkpt>
      <trkpt lat="43.37556" lon="6.12155">
        <ele>335.79998779297</ele>
        <time>2013-09-28T13:57:49Z</time>
      </trkpt>
      <trkpt lat="43.37553" lon="6.12158">
        <ele>335.79998779297</ele>
        <time>2013-09-28T13:57:52Z</time>
      </trkpt>
      <trkpt lat="43.37552" lon="6.1216">
        <ele>335.79998779297</ele>
        <time>2013-09-28T13:57:53Z</time>
      </trkpt>
      <trkpt lat="43.37546" lon="6.1217">
        <ele>336.20001220703</ele>
        <time>2013-09-28T13:57:59Z</time>
      </trkpt>
      <trkpt lat="43.37537" lon="6.12177">
        <ele>337.79998779297</ele>
        <time>2013-09-28T13:58:04Z</time>
      </trkpt>
      <trkpt lat="43.37533" lon="6.12181">
        <ele>337.79998779297</ele>
        <time>2013-09-28T13:58:08Z</time>
      </trkpt>
      <trkpt lat="43.3753" lon="6.12185">
        <ele>337.79998779297</ele>
        <time>2013-09-28T13:58:10Z</time>
      </trkpt>
      <trkpt lat="43.37527" lon="6.12192">
        <ele>338.60000610352</ele>
        <time>2013-09-28T13:58:14Z</time>
      </trkpt>
      <trkpt lat="43.37519" lon="6.12206">
        <ele>339.79998779297</ele>
        <time>2013-09-28T13:58:23Z</time>
      </trkpt>
      <trkpt lat="43.37515" lon="6.12217">
        <ele>339.79998779297</ele>
        <time>2013-09-28T13:58:29Z</time>
      </trkpt>
      <trkpt lat="43.37514" lon="6.12221">
        <ele>341.20001220703</ele>
        <time>2013-09-28T13:58:32Z</time>
      </trkpt>
      <trkpt lat="43.37513" lon="6.12237">
        <ele>342</ele>
        <time>2013-09-28T13:58:39Z</time>
      </trkpt>
      <trkpt lat="43.37512" lon="6.12252">
        <ele>342</ele>
        <time>2013-09-28T13:58:46Z</time>
      </trkpt>
      <trkpt lat="43.37511" lon="6.12267">
        <ele>342</ele>
        <time>2013-09-28T13:58:51Z</time>
      </trkpt>
      <trkpt lat="43.37511" lon="6.1228">
        <ele>342</ele>
        <time>2013-09-28T13:58:56Z</time>
      </trkpt>
      <trkpt lat="43.37511" lon="6.12295">
        <ele>342.79998779297</ele>
        <time>2013-09-28T13:59:02Z</time>
      </trkpt>
      <trkpt lat="43.3751" lon="6.12309">
        <ele>344</ele>
        <time>2013-09-28T13:59:08Z</time>
      </trkpt>
      <trkpt lat="43.37508" lon="6.12316">
        <ele>344</ele>
        <time>2013-09-28T13:59:11Z</time>
      </trkpt>
      <trkpt lat="43.3751" lon="6.12325">
        <ele>344</ele>
        <time>2013-09-28T13:59:14Z</time>
      </trkpt>
      <trkpt lat="43.3751" lon="6.12329">
        <ele>344.60000610352</ele>
        <time>2013-09-28T13:59:16Z</time>
      </trkpt>
      <trkpt lat="43.37509" lon="6.12334">
        <ele>345.39999389648</ele>
        <time>2013-09-28T13:59:18Z</time>
      </trkpt>
      <trkpt lat="43.3751" lon="6.12334">
        <ele>346.20001220703</ele>
        <time>2013-09-28T13:59:19Z</time>
      </trkpt>
      <trkpt lat="43.37508" lon="6.12345">
        <ele>346.20001220703</ele>
        <time>2013-09-28T13:59:24Z</time>
      </trkpt>
      <trkpt lat="43.37505" lon="6.12357">
        <ele>347.39999389648</ele>
        <time>2013-09-28T13:59:30Z</time>
      </trkpt>
      <trkpt lat="43.37504" lon="6.12359">
        <ele>347.79998779297</ele>
        <time>2013-09-28T13:59:31Z</time>
      </trkpt>
      <trkpt lat="43.37504" lon="6.12361">
        <ele>348.20001220703</ele>
        <time>2013-09-28T13:59:32Z</time>
      </trkpt>
      <trkpt lat="43.37502" lon="6.12368">
        <ele>348.20001220703</ele>
        <time>2013-09-28T13:59:36Z</time>
      </trkpt>
      <trkpt lat="43.37503" lon="6.12374">
        <ele>348.20001220703</ele>
        <time>2013-09-28T13:59:40Z</time>
      </trkpt>
      <trkpt lat="43.37503" lon="6.12374">
        <ele>348.60000610352</ele>
        <time>2013-09-28T13:59:41Z</time>
      </trkpt>
      <trkpt lat="43.37503" lon="6.12375">
        <ele>349</ele>
        <time>2013-09-28T13:59:42Z</time>
      </trkpt>
      <trkpt lat="43.37503" lon="6.12376">
        <ele>349.60000610352</ele>
        <time>2013-09-28T13:59:43Z</time>
      </trkpt>
      <trkpt lat="43.37503" lon="6.12376">
        <ele>350.39999389648</ele>
        <time>2013-09-28T13:59:45Z</time>
      </trkpt>
      <trkpt lat="43.37504" lon="6.1238">
        <ele>350.39999389648</ele>
        <time>2013-09-28T13:59:49Z</time>
      </trkpt>
      <trkpt lat="43.37504" lon="6.1238">
        <ele>350.39999389648</ele>
        <time>2013-09-28T14:00:07Z</time>
      </trkpt>
      <trkpt lat="43.37504" lon="6.1238">
        <ele>350.39999389648</ele>
        <time>2013-09-28T14:00:23Z</time>
      </trkpt>
      <trkpt lat="43.37504" lon="6.1238">
        <ele>350.39999389648</ele>
        <time>2013-09-28T14:00:29Z</time>
      </trkpt>
      <trkpt lat="43.37504" lon="6.1238">
        <ele>350.39999389648</ele>
        <time>2013-09-28T14:00:30Z</time>
      </trkpt>
      <trkpt lat="43.3751" lon="6.12386">
        <ele>350.39999389648</ele>
        <time>2013-09-28T14:00:35Z</time>
      </trkpt>
      <trkpt lat="43.37512" lon="6.12389">
        <ele>350.39999389648</ele>
        <time>2013-09-28T14:00:36Z</time>
      </trkpt>
      <trkpt lat="43.37517" lon="6.12402">
        <ele>350.39999389648</ele>
        <time>2013-09-28T14:00:41Z</time>
      </trkpt>
      <trkpt lat="43.37519" lon="6.12409">
        <ele>350.39999389648</ele>
        <time>2013-09-28T14:00:43Z</time>
      </trkpt>
      <trkpt lat="43.37521" lon="6.12412">
        <ele>350.79998779297</ele>
        <time>2013-09-28T14:00:44Z</time>
      </trkpt>
      <trkpt lat="43.37524" lon="6.12417">
        <ele>351.60000610352</ele>
        <time>2013-09-28T14:00:46Z</time>
      </trkpt>
      <trkpt lat="43.37527" lon="6.12426">
        <ele>352.39999389648</ele>
        <time>2013-09-28T14:00:49Z</time>
      </trkpt>
      <trkpt lat="43.37529" lon="6.1243">
        <ele>353</ele>
        <time>2013-09-28T14:00:51Z</time>
      </trkpt>
      <trkpt lat="43.37531" lon="6.12433">
        <ele>353.79998779297</ele>
        <time>2013-09-28T14:00:53Z</time>
      </trkpt>
      <trkpt lat="43.37535" lon="6.12437">
        <ele>354.79998779297</ele>
        <time>2013-09-28T14:00:55Z</time>
      </trkpt>
      <trkpt lat="43.3754" lon="6.12445">
        <ele>354.79998779297</ele>
        <time>2013-09-28T14:01:02Z</time>
      </trkpt>
      <trkpt lat="43.37539" lon="6.12447">
        <ele>355.20001220703</ele>
        <time>2013-09-28T14:01:04Z</time>
      </trkpt>
      <trkpt lat="43.3754" lon="6.12451">
        <ele>356</ele>
        <time>2013-09-28T14:01:06Z</time>
      </trkpt>
      <trkpt lat="43.3754" lon="6.12455">
        <ele>356.79998779297</ele>
        <time>2013-09-28T14:01:08Z</time>
      </trkpt>
      <trkpt lat="43.37539" lon="6.12458">
        <ele>356.79998779297</ele>
        <time>2013-09-28T14:01:10Z</time>
      </trkpt>
      <trkpt lat="43.37537" lon="6.12463">
        <ele>356.79998779297</ele>
        <time>2013-09-28T14:01:14Z</time>
      </trkpt>
      <trkpt lat="43.37537" lon="6.12472">
        <ele>356.79998779297</ele>
        <time>2013-09-28T14:01:18Z</time>
      </trkpt>
      <trkpt lat="43.37538" lon="6.12481">
        <ele>356.79998779297</ele>
        <time>2013-09-28T14:01:22Z</time>
      </trkpt>
      <trkpt lat="43.37536" lon="6.12496">
        <ele>356.79998779297</ele>
        <time>2013-09-28T14:01:29Z</time>
      </trkpt>
      <trkpt lat="43.37537" lon="6.12498">
        <ele>356.79998779297</ele>
        <time>2013-09-28T14:01:30Z</time>
      </trkpt>
      <trkpt lat="43.37537" lon="6.12501">
        <ele>356.79998779297</ele>
        <time>2013-09-28T14:01:32Z</time>
      </trkpt>
      <trkpt lat="43.3754" lon="6.12505">
        <ele>356.79998779297</ele>
        <time>2013-09-28T14:01:35Z</time>
      </trkpt>
      <trkpt lat="43.37545" lon="6.12507">
        <ele>356.79998779297</ele>
        <time>2013-09-28T14:01:38Z</time>
      </trkpt>
      <trkpt lat="43.3755" lon="6.12508">
        <ele>356.79998779297</ele>
        <time>2013-09-28T14:01:40Z</time>
      </trkpt>
      <trkpt lat="43.37563" lon="6.12503">
        <ele>356.39999389648</ele>
        <time>2013-09-28T14:01:44Z</time>
      </trkpt>
      <trkpt lat="43.37566" lon="6.12502">
        <ele>355.79998779297</ele>
        <time>2013-09-28T14:01:45Z</time>
      </trkpt>
      <trkpt lat="43.3757" lon="6.12501">
        <ele>355.39999389648</ele>
        <time>2013-09-28T14:01:46Z</time>
      </trkpt>
      <trkpt lat="43.37574" lon="6.12499">
        <ele>355</ele>
        <time>2013-09-28T14:01:47Z</time>
      </trkpt>
      <trkpt lat="43.37577" lon="6.12496">
        <ele>353.79998779297</ele>
        <time>2013-09-28T14:01:48Z</time>
      </trkpt>
      <trkpt lat="43.37581" lon="6.12494">
        <ele>353.20001220703</ele>
        <time>2013-09-28T14:01:49Z</time>
      </trkpt>
      <trkpt lat="43.37585" lon="6.12492">
        <ele>352.60000610352</ele>
        <time>2013-09-28T14:01:50Z</time>
      </trkpt>
      <trkpt lat="43.37594" lon="6.12489">
        <ele>351.39999389648</ele>
        <time>2013-09-28T14:01:52Z</time>
      </trkpt>
      <trkpt lat="43.37606" lon="6.12493">
        <ele>349.60000610352</ele>
        <time>2013-09-28T14:01:55Z</time>
      </trkpt>
      <trkpt lat="43.3761" lon="6.12493">
        <ele>349.60000610352</ele>
        <time>2013-09-28T14:01:56Z</time>
      </trkpt>
      <trkpt lat="43.37617" lon="6.12491">
        <ele>349.60000610352</ele>
        <time>2013-09-28T14:01:58Z</time>
      </trkpt>
      <trkpt lat="43.37624" lon="6.12484">
        <ele>349</ele>
        <time>2013-09-28T14:02:01Z</time>
      </trkpt>
      <trkpt lat="43.37626" lon="6.12479">
        <ele>348.60000610352</ele>
        <time>2013-09-28T14:02:02Z</time>
      </trkpt>
      <trkpt lat="43.37627" lon="6.12474">
        <ele>348.20001220703</ele>
        <time>2013-09-28T14:02:03Z</time>
      </trkpt>
      <trkpt lat="43.37628" lon="6.12469">
        <ele>347.60000610352</ele>
        <time>2013-09-28T14:02:04Z</time>
      </trkpt>
      <trkpt lat="43.37629" lon="6.12465">
        <ele>347.20001220703</ele>
        <time>2013-09-28T14:02:05Z</time>
      </trkpt>
      <trkpt lat="43.37633" lon="6.12458">
        <ele>347.20001220703</ele>
        <time>2013-09-28T14:02:07Z</time>
      </trkpt>
      <trkpt lat="43.37636" lon="6.1245">
        <ele>347.20001220703</ele>
        <time>2013-09-28T14:02:10Z</time>
      </trkpt>
      <trkpt lat="43.37636" lon="6.12435">
        <ele>346.79998779297</ele>
        <time>2013-09-28T14:02:13Z</time>
      </trkpt>
      <trkpt lat="43.37636" lon="6.12429">
        <ele>346.20001220703</ele>
        <time>2013-09-28T14:02:14Z</time>
      </trkpt>
      <trkpt lat="43.37637" lon="6.12419">
        <ele>345.39999389648</ele>
        <time>2013-09-28T14:02:16Z</time>
      </trkpt>
      <trkpt lat="43.37638" lon="6.12414">
        <ele>345</ele>
        <time>2013-09-28T14:02:17Z</time>
      </trkpt>
      <trkpt lat="43.37637" lon="6.12409">
        <ele>345</ele>
        <time>2013-09-28T14:02:18Z</time>
      </trkpt>
      <trkpt lat="43.37632" lon="6.12395">
        <ele>344.39999389648</ele>
        <time>2013-09-28T14:02:20Z</time>
      </trkpt>
      <trkpt lat="43.3763" lon="6.12389">
        <ele>344</ele>
        <time>2013-09-28T14:02:21Z</time>
      </trkpt>
      <trkpt lat="43.37629" lon="6.12382">
        <ele>343.39999389648</ele>
        <time>2013-09-28T14:02:22Z</time>
      </trkpt>
      <trkpt lat="43.37628" lon="6.1237">
        <ele>342.39999389648</ele>
        <time>2013-09-28T14:02:24Z</time>
      </trkpt>
      <trkpt lat="43.37634" lon="6.1235">
        <ele>342</ele>
        <time>2013-09-28T14:02:27Z</time>
      </trkpt>
      <trkpt lat="43.37636" lon="6.12343">
        <ele>341.60000610352</ele>
        <time>2013-09-28T14:02:28Z</time>
      </trkpt>
      <trkpt lat="43.37638" lon="6.12337">
        <ele>341.20001220703</ele>
        <time>2013-09-28T14:02:29Z</time>
      </trkpt>
      <trkpt lat="43.3764" lon="6.1233">
        <ele>340.79998779297</ele>
        <time>2013-09-28T14:02:30Z</time>
      </trkpt>
      <trkpt lat="43.37644" lon="6.12317">
        <ele>340.39999389648</ele>
        <time>2013-09-28T14:02:32Z</time>
      </trkpt>
      <trkpt lat="43.37654" lon="6.12303">
        <ele>339.39999389648</ele>
        <time>2013-09-28T14:02:34Z</time>
      </trkpt>
      <trkpt lat="43.37661" lon="6.12298">
        <ele>339</ele>
        <time>2013-09-28T14:02:35Z</time>
      </trkpt>
      <trkpt lat="43.37666" lon="6.12292">
        <ele>338.39999389648</ele>
        <time>2013-09-28T14:02:36Z</time>
      </trkpt>
      <trkpt lat="43.3767" lon="6.12285">
        <ele>337.79998779297</ele>
        <time>2013-09-28T14:02:37Z</time>
      </trkpt>
      <trkpt lat="43.37673" lon="6.1228">
        <ele>336.60000610352</ele>
        <time>2013-09-28T14:02:38Z</time>
      </trkpt>
      <trkpt lat="43.37677" lon="6.12276">
        <ele>335.79998779297</ele>
        <time>2013-09-28T14:02:39Z</time>
      </trkpt>
      <trkpt lat="43.37689" lon="6.12275">
        <ele>334.60000610352</ele>
        <time>2013-09-28T14:02:41Z</time>
      </trkpt>
      <trkpt lat="43.37695" lon="6.12276">
        <ele>333.79998779297</ele>
        <time>2013-09-28T14:02:42Z</time>
      </trkpt>
      <trkpt lat="43.37705" lon="6.12284">
        <ele>332.60000610352</ele>
        <time>2013-09-28T14:02:44Z</time>
      </trkpt>
      <trkpt lat="43.37708" lon="6.12289">
        <ele>332</ele>
        <time>2013-09-28T14:02:45Z</time>
      </trkpt>
      <trkpt lat="43.37711" lon="6.12295">
        <ele>331.39999389648</ele>
        <time>2013-09-28T14:02:46Z</time>
      </trkpt>
      <trkpt lat="43.37709" lon="6.12317">
        <ele>331.39999389648</ele>
        <time>2013-09-28T14:02:50Z</time>
      </trkpt>
      <trkpt lat="43.37707" lon="6.12333">
        <ele>331.39999389648</ele>
        <time>2013-09-28T14:02:53Z</time>
      </trkpt>
      <trkpt lat="43.37709" lon="6.12337">
        <ele>331.39999389648</ele>
        <time>2013-09-28T14:02:54Z</time>
      </trkpt>
      <trkpt lat="43.37711" lon="6.1234">
        <ele>331</ele>
        <time>2013-09-28T14:02:55Z</time>
      </trkpt>
      <trkpt lat="43.37716" lon="6.1234">
        <ele>330.39999389648</ele>
        <time>2013-09-28T14:02:56Z</time>
      </trkpt>
      <trkpt lat="43.3772" lon="6.12338">
        <ele>329.79998779297</ele>
        <time>2013-09-28T14:02:57Z</time>
      </trkpt>
      <trkpt lat="43.37727" lon="6.12334">
        <ele>328.79998779297</ele>
        <time>2013-09-28T14:02:59Z</time>
      </trkpt>
      <trkpt lat="43.37735" lon="6.1234">
        <ele>328.79998779297</ele>
        <time>2013-09-28T14:03:02Z</time>
      </trkpt>
      <trkpt lat="43.37736" lon="6.12342">
        <ele>328.79998779297</ele>
        <time>2013-09-28T14:03:03Z</time>
      </trkpt>
      <trkpt lat="43.37736" lon="6.12349">
        <ele>328.79998779297</ele>
        <time>2013-09-28T14:03:06Z</time>
      </trkpt>
      <trkpt lat="43.37736" lon="6.1235">
        <ele>328.79998779297</ele>
        <time>2013-09-28T14:03:08Z</time>
      </trkpt>
      <trkpt lat="43.37736" lon="6.1235">
        <ele>328.79998779297</ele>
        <time>2013-09-28T14:03:39Z</time>
      </trkpt>
      <trkpt lat="43.37736" lon="6.1235">
        <ele>328.79998779297</ele>
        <time>2013-09-28T14:03:54Z</time>
      </trkpt>
      <trkpt lat="43.37736" lon="6.12352">
        <ele>328.79998779297</ele>
        <time>2013-09-28T14:03:57Z</time>
      </trkpt>
      <trkpt lat="43.37735" lon="6.12354">
        <ele>328.79998779297</ele>
        <time>2013-09-28T14:03:58Z</time>
      </trkpt>
      <trkpt lat="43.37733" lon="6.1236">
        <ele>328.79998779297</ele>
        <time>2013-09-28T14:04:01Z</time>
      </trkpt>
      <trkpt lat="43.3773" lon="6.1237">
        <ele>328.79998779297</ele>
        <time>2013-09-28T14:04:05Z</time>
      </trkpt>
      <trkpt lat="43.37729" lon="6.12393">
        <ele>328.79998779297</ele>
        <time>2013-09-28T14:04:13Z</time>
      </trkpt>
      <trkpt lat="43.37728" lon="6.12413">
        <ele>328.79998779297</ele>
        <time>2013-09-28T14:04:20Z</time>
      </trkpt>
      <trkpt lat="43.37726" lon="6.12429">
        <ele>330</ele>
        <time>2013-09-28T14:04:27Z</time>
      </trkpt>
      <trkpt lat="43.37725" lon="6.12435">
        <ele>330.79998779297</ele>
        <time>2013-09-28T14:04:30Z</time>
      </trkpt>
      <trkpt lat="43.37725" lon="6.12447">
        <ele>330.79998779297</ele>
        <time>2013-09-28T14:04:35Z</time>
      </trkpt>
      <trkpt lat="43.37721" lon="6.12465">
        <ele>331.79998779297</ele>
        <time>2013-09-28T14:04:42Z</time>
      </trkpt>
      <trkpt lat="43.3772" lon="6.12473">
        <ele>333</ele>
        <time>2013-09-28T14:04:45Z</time>
      </trkpt>
      <trkpt lat="43.37715" lon="6.12492">
        <ele>333</ele>
        <time>2013-09-28T14:04:53Z</time>
      </trkpt>
      <trkpt lat="43.37712" lon="6.1251">
        <ele>333</ele>
        <time>2013-09-28T14:05:00Z</time>
      </trkpt>
      <trkpt lat="43.37707" lon="6.12555">
        <ele>335</ele>
        <time>2013-09-28T14:05:16Z</time>
      </trkpt>
      <trkpt lat="43.37708" lon="6.12577">
        <ele>335</ele>
        <time>2013-09-28T14:05:23Z</time>
      </trkpt>
      <trkpt lat="43.37706" lon="6.12595">
        <ele>335</ele>
        <time>2013-09-28T14:05:30Z</time>
      </trkpt>
      <trkpt lat="43.37707" lon="6.12617">
        <ele>335</ele>
        <time>2013-09-28T14:05:37Z</time>
      </trkpt>
      <trkpt lat="43.37707" lon="6.12633">
        <ele>335</ele>
        <time>2013-09-28T14:05:43Z</time>
      </trkpt>
      <trkpt lat="43.37706" lon="6.12648">
        <ele>335.79998779297</ele>
        <time>2013-09-28T14:05:48Z</time>
      </trkpt>
      <trkpt lat="43.37706" lon="6.12656">
        <ele>337.20001220703</ele>
        <time>2013-09-28T14:05:51Z</time>
      </trkpt>
      <trkpt lat="43.37702" lon="6.1269">
        <ele>337.20001220703</ele>
        <time>2013-09-28T14:06:03Z</time>
      </trkpt>
      <trkpt lat="43.37701" lon="6.12712">
        <ele>337.20001220703</ele>
        <time>2013-09-28T14:06:11Z</time>
      </trkpt>
      <trkpt lat="43.37702" lon="6.12727">
        <ele>337.20001220703</ele>
        <time>2013-09-28T14:06:17Z</time>
      </trkpt>
      <trkpt lat="43.37702" lon="6.12747">
        <ele>337.20001220703</ele>
        <time>2013-09-28T14:06:25Z</time>
      </trkpt>
      <trkpt lat="43.37702" lon="6.12763">
        <ele>337.60000610352</ele>
        <time>2013-09-28T14:06:31Z</time>
      </trkpt>
      <trkpt lat="43.37703" lon="6.12771">
        <ele>339.20001220703</ele>
        <time>2013-09-28T14:06:35Z</time>
      </trkpt>
      <trkpt lat="43.37704" lon="6.12777">
        <ele>339.20001220703</ele>
        <time>2013-09-28T14:06:38Z</time>
      </trkpt>
      <trkpt lat="43.37705" lon="6.12789">
        <ele>339.20001220703</ele>
        <time>2013-09-28T14:06:44Z</time>
      </trkpt>
      <trkpt lat="43.37707" lon="6.1281">
        <ele>341.39999389648</ele>
        <time>2013-09-28T14:06:53Z</time>
      </trkpt>
      <trkpt lat="43.37706" lon="6.1282">
        <ele>341.39999389648</ele>
        <time>2013-09-28T14:06:57Z</time>
      </trkpt>
      <trkpt lat="43.37707" lon="6.12837">
        <ele>341.39999389648</ele>
        <time>2013-09-28T14:07:04Z</time>
      </trkpt>
      <trkpt lat="43.37707" lon="6.12845">
        <ele>341.79998779297</ele>
        <time>2013-09-28T14:07:07Z</time>
      </trkpt>
      <trkpt lat="43.37706" lon="6.12851">
        <ele>343</ele>
        <time>2013-09-28T14:07:10Z</time>
      </trkpt>
      <trkpt lat="43.37701" lon="6.12889">
        <ele>343.39999389648</ele>
        <time>2013-09-28T14:07:24Z</time>
      </trkpt>
      <trkpt lat="43.37699" lon="6.12899">
        <ele>343.39999389648</ele>
        <time>2013-09-28T14:07:28Z</time>
      </trkpt>
      <trkpt lat="43.37698" lon="6.12905">
        <ele>343.39999389648</ele>
        <time>2013-09-28T14:07:30Z</time>
      </trkpt>
      <trkpt lat="43.37694" lon="6.12921">
        <ele>343.39999389648</ele>
        <time>2013-09-28T14:07:36Z</time>
      </trkpt>
      <trkpt lat="43.37686" lon="6.12941">
        <ele>343.39999389648</ele>
        <time>2013-09-28T14:07:43Z</time>
      </trkpt>
      <trkpt lat="43.37679" lon="6.12955">
        <ele>343.39999389648</ele>
        <time>2013-09-28T14:07:49Z</time>
      </trkpt>
      <trkpt lat="43.37679" lon="6.12971">
        <ele>343.39999389648</ele>
        <time>2013-09-28T14:07:54Z</time>
      </trkpt>
      <trkpt lat="43.37679" lon="6.12982">
        <ele>343.39999389648</ele>
        <time>2013-09-28T14:07:59Z</time>
      </trkpt>
      <trkpt lat="43.37678" lon="6.12985">
        <ele>343.39999389648</ele>
        <time>2013-09-28T14:08:01Z</time>
      </trkpt>
      <trkpt lat="43.37673" lon="6.12985">
        <ele>343.39999389648</ele>
        <time>2013-09-28T14:08:06Z</time>
      </trkpt>
      <trkpt lat="43.37671" lon="6.12984">
        <ele>343.39999389648</ele>
        <time>2013-09-28T14:08:07Z</time>
      </trkpt>
      <trkpt lat="43.37667" lon="6.12984">
        <ele>343.39999389648</ele>
        <time>2013-09-28T14:08:10Z</time>
      </trkpt>
      <trkpt lat="43.37666" lon="6.12986">
        <ele>343.39999389648</ele>
        <time>2013-09-28T14:08:11Z</time>
      </trkpt>
      <trkpt lat="43.37667" lon="6.12997">
        <ele>344.79998779297</ele>
        <time>2013-09-28T14:08:17Z</time>
      </trkpt>
      <trkpt lat="43.37668" lon="6.13001">
        <ele>345.79998779297</ele>
        <time>2013-09-28T14:08:19Z</time>
      </trkpt>
      <trkpt lat="43.37668" lon="6.13014">
        <ele>345.79998779297</ele>
        <time>2013-09-28T14:08:24Z</time>
      </trkpt>
      <trkpt lat="43.37667" lon="6.13031">
        <ele>345.79998779297</ele>
        <time>2013-09-28T14:08:30Z</time>
      </trkpt>
      <trkpt lat="43.37658" lon="6.1305">
        <ele>345.79998779297</ele>
        <time>2013-09-28T14:08:38Z</time>
      </trkpt>
      <trkpt lat="43.37647" lon="6.13064">
        <ele>345.79998779297</ele>
        <time>2013-09-28T14:08:46Z</time>
      </trkpt>
      <trkpt lat="43.3764" lon="6.13074">
        <ele>346.20001220703</ele>
        <time>2013-09-28T14:08:52Z</time>
      </trkpt>
      <trkpt lat="43.37637" lon="6.1308">
        <ele>347.39999389648</ele>
        <time>2013-09-28T14:08:55Z</time>
      </trkpt>
      <trkpt lat="43.37618" lon="6.13109">
        <ele>347.79998779297</ele>
        <time>2013-09-28T14:09:10Z</time>
      </trkpt>
      <trkpt lat="43.3761" lon="6.13121">
        <ele>348.60000610352</ele>
        <time>2013-09-28T14:09:16Z</time>
      </trkpt>
      <trkpt lat="43.37609" lon="6.13123">
        <ele>349</ele>
        <time>2013-09-28T14:09:17Z</time>
      </trkpt>
      <trkpt lat="43.37594" lon="6.13153">
        <ele>349.79998779297</ele>
        <time>2013-09-28T14:09:31Z</time>
      </trkpt>
      <trkpt lat="43.37587" lon="6.1317">
        <ele>349.79998779297</ele>
        <time>2013-09-28T14:09:38Z</time>
      </trkpt>
      <trkpt lat="43.37583" lon="6.13183">
        <ele>351.79998779297</ele>
        <time>2013-09-28T14:09:43Z</time>
      </trkpt>
      <trkpt lat="43.37581" lon="6.13189">
        <ele>351.79998779297</ele>
        <time>2013-09-28T14:09:45Z</time>
      </trkpt>
      <trkpt lat="43.37576" lon="6.13206">
        <ele>351.79998779297</ele>
        <time>2013-09-28T14:09:51Z</time>
      </trkpt>
      <trkpt lat="43.37576" lon="6.13209">
        <ele>351.79998779297</ele>
        <time>2013-09-28T14:09:52Z</time>
      </trkpt>
      <trkpt lat="43.37572" lon="6.13226">
        <ele>352.60000610352</ele>
        <time>2013-09-28T14:09:59Z</time>
      </trkpt>
      <trkpt lat="43.37572" lon="6.13232">
        <ele>353.39999389648</ele>
        <time>2013-09-28T14:10:01Z</time>
      </trkpt>
      <trkpt lat="43.37571" lon="6.13245">
        <ele>353.79998779297</ele>
        <time>2013-09-28T14:10:06Z</time>
      </trkpt>
      <trkpt lat="43.37569" lon="6.13281">
        <ele>355</ele>
        <time>2013-09-28T14:10:20Z</time>
      </trkpt>
      <trkpt lat="43.37569" lon="6.13286">
        <ele>355.79998779297</ele>
        <time>2013-09-28T14:10:22Z</time>
      </trkpt>
      <trkpt lat="43.37568" lon="6.13298">
        <ele>355.79998779297</ele>
        <time>2013-09-28T14:10:27Z</time>
      </trkpt>
      <trkpt lat="43.37567" lon="6.13315">
        <ele>355.79998779297</ele>
        <time>2013-09-28T14:10:33Z</time>
      </trkpt>
      <trkpt lat="43.37568" lon="6.13322">
        <ele>355.79998779297</ele>
        <time>2013-09-28T14:10:35Z</time>
      </trkpt>
      <trkpt lat="43.37568" lon="6.13327">
        <ele>355.79998779297</ele>
        <time>2013-09-28T14:10:37Z</time>
      </trkpt>
      <trkpt lat="43.37567" lon="6.13331">
        <ele>356.20001220703</ele>
        <time>2013-09-28T14:10:39Z</time>
      </trkpt>
      <trkpt lat="43.37565" lon="6.13334">
        <ele>357.20001220703</ele>
        <time>2013-09-28T14:10:41Z</time>
      </trkpt>
      <trkpt lat="43.37564" lon="6.13336">
        <ele>358</ele>
        <time>2013-09-28T14:10:43Z</time>
      </trkpt>
      <trkpt lat="43.37563" lon="6.13339">
        <ele>358</ele>
        <time>2013-09-28T14:10:46Z</time>
      </trkpt>
      <trkpt lat="43.37563" lon="6.13339">
        <ele>358</ele>
        <time>2013-09-28T14:10:54Z</time>
      </trkpt>
      <trkpt lat="43.37563" lon="6.13339">
        <ele>358</ele>
        <time>2013-09-28T14:10:57Z</time>
      </trkpt>
      <trkpt lat="43.37563" lon="6.13339">
        <ele>358</ele>
        <time>2013-09-28T14:11:11Z</time>
      </trkpt>
      <trkpt lat="43.37563" lon="6.13339">
        <ele>358</ele>
        <time>2013-09-28T14:11:41Z</time>
      </trkpt>
      <trkpt lat="43.37563" lon="6.13339">
        <ele>358</ele>
        <time>2013-09-28T14:11:55Z</time>
      </trkpt>
      <trkpt lat="43.37563" lon="6.13339">
        <ele>358</ele>
        <time>2013-09-28T14:12:13Z</time>
      </trkpt>
      <trkpt lat="43.37563" lon="6.13339">
        <ele>358</ele>
        <time>2013-09-28T14:12:17Z</time>
      </trkpt>
      <trkpt lat="43.37563" lon="6.13339">
        <ele>358</ele>
        <time>2013-09-28T14:12:39Z</time>
      </trkpt>
      <trkpt lat="43.37563" lon="6.13339">
        <ele>358</ele>
        <time>2013-09-28T14:13:01Z</time>
      </trkpt>
      <trkpt lat="43.37563" lon="6.13339">
        <ele>358</ele>
        <time>2013-09-28T14:13:17Z</time>
      </trkpt>
      <trkpt lat="43.37561" lon="6.13341">
        <ele>358</ele>
        <time>2013-09-28T14:13:27Z</time>
      </trkpt>
      <trkpt lat="43.37556" lon="6.13344">
        <ele>358</ele>
        <time>2013-09-28T14:13:30Z</time>
      </trkpt>
      <trkpt lat="43.37551" lon="6.13348">
        <ele>358</ele>
        <time>2013-09-28T14:13:33Z</time>
      </trkpt>
      <trkpt lat="43.37545" lon="6.1336">
        <ele>358</ele>
        <time>2013-09-28T14:13:38Z</time>
      </trkpt>
      <trkpt lat="43.37538" lon="6.1337">
        <ele>358</ele>
        <time>2013-09-28T14:13:43Z</time>
      </trkpt>
      <trkpt lat="43.37536" lon="6.13374">
        <ele>358</ele>
        <time>2013-09-28T14:13:45Z</time>
      </trkpt>
      <trkpt lat="43.37532" lon="6.1339">
        <ele>358</ele>
        <time>2013-09-28T14:13:51Z</time>
      </trkpt>
      <trkpt lat="43.3753" lon="6.134">
        <ele>358</ele>
        <time>2013-09-28T14:13:54Z</time>
      </trkpt>
      <trkpt lat="43.37528" lon="6.13406">
        <ele>358</ele>
        <time>2013-09-28T14:13:56Z</time>
      </trkpt>
      <trkpt lat="43.37525" lon="6.13415">
        <ele>358.39999389648</ele>
        <time>2013-09-28T14:13:59Z</time>
      </trkpt>
      <trkpt lat="43.37523" lon="6.13421">
        <ele>359.60000610352</ele>
        <time>2013-09-28T14:14:02Z</time>
      </trkpt>
      <trkpt lat="43.37519" lon="6.13433">
        <ele>360</ele>
        <time>2013-09-28T14:14:07Z</time>
      </trkpt>
      <trkpt lat="43.37517" lon="6.13438">
        <ele>360</ele>
        <time>2013-09-28T14:14:10Z</time>
      </trkpt>
      <trkpt lat="43.37518" lon="6.13454">
        <ele>360</ele>
        <time>2013-09-28T14:14:17Z</time>
      </trkpt>
      <trkpt lat="43.37523" lon="6.13467">
        <ele>360.39999389648</ele>
        <time>2013-09-28T14:14:23Z</time>
      </trkpt>
      <trkpt lat="43.37523" lon="6.13469">
        <ele>360.79998779297</ele>
        <time>2013-09-28T14:14:24Z</time>
      </trkpt>
      <trkpt lat="43.37523" lon="6.13478">
        <ele>362.20001220703</ele>
        <time>2013-09-28T14:14:29Z</time>
      </trkpt>
      <trkpt lat="43.37523" lon="6.13487">
        <ele>362.20001220703</ele>
        <time>2013-09-28T14:14:34Z</time>
      </trkpt>
      <trkpt lat="43.37524" lon="6.13491">
        <ele>362.20001220703</ele>
        <time>2013-09-28T14:14:36Z</time>
      </trkpt>
      <trkpt lat="43.37526" lon="6.13503">
        <ele>362.20001220703</ele>
        <time>2013-09-28T14:14:42Z</time>
      </trkpt>
      <trkpt lat="43.37529" lon="6.13526">
        <ele>362.60000610352</ele>
        <time>2013-09-28T14:14:52Z</time>
      </trkpt>
      <trkpt lat="43.37529" lon="6.1353">
        <ele>363.39999389648</ele>
        <time>2013-09-28T14:14:54Z</time>
      </trkpt>
      <trkpt lat="43.37528" lon="6.13545">
        <ele>364.20001220703</ele>
        <time>2013-09-28T14:15:00Z</time>
      </trkpt>
      <trkpt lat="43.37529" lon="6.13559">
        <ele>364.20001220703</ele>
        <time>2013-09-28T14:15:06Z</time>
      </trkpt>
      <trkpt lat="43.37531" lon="6.13565">
        <ele>364.20001220703</ele>
        <time>2013-09-28T14:15:08Z</time>
      </trkpt>
      <trkpt lat="43.37538" lon="6.13585">
        <ele>364.20001220703</ele>
        <time>2013-09-28T14:15:16Z</time>
      </trkpt>
      <trkpt lat="43.37542" lon="6.13602">
        <ele>366.39999389648</ele>
        <time>2013-09-28T14:15:23Z</time>
      </trkpt>
      <trkpt lat="43.37552" lon="6.13635">
        <ele>366.39999389648</ele>
        <time>2013-09-28T14:15:37Z</time>
      </trkpt>
      <trkpt lat="43.37553" lon="6.13642">
        <ele>367.60000610352</ele>
        <time>2013-09-28T14:15:40Z</time>
      </trkpt>
      <trkpt lat="43.37555" lon="6.13673">
        <ele>368.60000610352</ele>
        <time>2013-09-28T14:15:51Z</time>
      </trkpt>
      <trkpt lat="43.37555" lon="6.13693">
        <ele>368.60000610352</ele>
        <time>2013-09-28T14:15:58Z</time>
      </trkpt>
      <trkpt lat="43.37558" lon="6.1371">
        <ele>368.60000610352</ele>
        <time>2013-09-28T14:16:05Z</time>
      </trkpt>
      <trkpt lat="43.37562" lon="6.13726">
        <ele>370.60000610352</ele>
        <time>2013-09-28T14:16:12Z</time>
      </trkpt>
      <trkpt lat="43.37565" lon="6.13748">
        <ele>371</ele>
        <time>2013-09-28T14:16:22Z</time>
      </trkpt>
      <trkpt lat="43.37567" lon="6.13767">
        <ele>372.79998779297</ele>
        <time>2013-09-28T14:16:31Z</time>
      </trkpt>
      <trkpt lat="43.37568" lon="6.13783">
        <ele>372.79998779297</ele>
        <time>2013-09-28T14:16:39Z</time>
      </trkpt>
      <trkpt lat="43.37569" lon="6.13799">
        <ele>372.79998779297</ele>
        <time>2013-09-28T14:16:46Z</time>
      </trkpt>
      <trkpt lat="43.37568" lon="6.1382">
        <ele>374.39999389648</ele>
        <time>2013-09-28T14:16:54Z</time>
      </trkpt>
      <trkpt lat="43.37564" lon="6.13852">
        <ele>374.79998779297</ele>
        <time>2013-09-28T14:17:06Z</time>
      </trkpt>
      <trkpt lat="43.37562" lon="6.13883">
        <ele>374.79998779297</ele>
        <time>2013-09-28T14:17:17Z</time>
      </trkpt>
      <trkpt lat="43.3756" lon="6.13896">
        <ele>374.79998779297</ele>
        <time>2013-09-28T14:17:22Z</time>
      </trkpt>
      <trkpt lat="43.37556" lon="6.13911">
        <ele>374.79998779297</ele>
        <time>2013-09-28T14:17:28Z</time>
      </trkpt>
      <trkpt lat="43.37551" lon="6.13928">
        <ele>374.79998779297</ele>
        <time>2013-09-28T14:17:34Z</time>
      </trkpt>
      <trkpt lat="43.37546" lon="6.13949">
        <ele>374.79998779297</ele>
        <time>2013-09-28T14:17:43Z</time>
      </trkpt>
      <trkpt lat="43.37543" lon="6.13959">
        <ele>376</ele>
        <time>2013-09-28T14:17:48Z</time>
      </trkpt>
      <trkpt lat="43.37542" lon="6.13963">
        <ele>376.79998779297</ele>
        <time>2013-09-28T14:17:50Z</time>
      </trkpt>
      <trkpt lat="43.37538" lon="6.13974">
        <ele>376.79998779297</ele>
        <time>2013-09-28T14:17:55Z</time>
      </trkpt>
      <trkpt lat="43.37537" lon="6.13985">
        <ele>376.79998779297</ele>
        <time>2013-09-28T14:18:00Z</time>
      </trkpt>
      <trkpt lat="43.37535" lon="6.14007">
        <ele>376.79998779297</ele>
        <time>2013-09-28T14:18:09Z</time>
      </trkpt>
      <trkpt lat="43.37532" lon="6.14018">
        <ele>379.20001220703</ele>
        <time>2013-09-28T14:18:14Z</time>
      </trkpt>
      <trkpt lat="43.37531" lon="6.14024">
        <ele>379.20001220703</ele>
        <time>2013-09-28T14:18:17Z</time>
      </trkpt>
      <trkpt lat="43.37527" lon="6.14033">
        <ele>379.20001220703</ele>
        <time>2013-09-28T14:18:21Z</time>
      </trkpt>
      <trkpt lat="43.37519" lon="6.1405">
        <ele>379.20001220703</ele>
        <time>2013-09-28T14:18:29Z</time>
      </trkpt>
      <trkpt lat="43.37515" lon="6.14063">
        <ele>379.20001220703</ele>
        <time>2013-09-28T14:18:35Z</time>
      </trkpt>
      <trkpt lat="43.37515" lon="6.1408">
        <ele>381.20001220703</ele>
        <time>2013-09-28T14:18:42Z</time>
      </trkpt>
      <trkpt lat="43.37515" lon="6.14093">
        <ele>381.20001220703</ele>
        <time>2013-09-28T14:18:47Z</time>
      </trkpt>
      <trkpt lat="43.37514" lon="6.14095">
        <ele>381.20001220703</ele>
        <time>2013-09-28T14:18:48Z</time>
      </trkpt>
      <trkpt lat="43.37508" lon="6.1411">
        <ele>381.60000610352</ele>
        <time>2013-09-28T14:18:56Z</time>
      </trkpt>
      <trkpt lat="43.37506" lon="6.14112">
        <ele>382</ele>
        <time>2013-09-28T14:18:57Z</time>
      </trkpt>
      <trkpt lat="43.37495" lon="6.14131">
        <ele>383.20001220703</ele>
        <time>2013-09-28T14:19:07Z</time>
      </trkpt>
      <trkpt lat="43.37487" lon="6.14138">
        <ele>385.20001220703</ele>
        <time>2013-09-28T14:19:12Z</time>
      </trkpt>
      <trkpt lat="43.37476" lon="6.14154">
        <ele>385.60000610352</ele>
        <time>2013-09-28T14:19:21Z</time>
      </trkpt>
      <trkpt lat="43.37473" lon="6.14157">
        <ele>386.39999389648</ele>
        <time>2013-09-28T14:19:23Z</time>
      </trkpt>
      <trkpt lat="43.37463" lon="6.14159">
        <ele>387.39999389648</ele>
        <time>2013-09-28T14:19:29Z</time>
      </trkpt>
      <trkpt lat="43.37453" lon="6.14164">
        <ele>387.79998779297</ele>
        <time>2013-09-28T14:19:35Z</time>
      </trkpt>
      <trkpt lat="43.37445" lon="6.14171">
        <ele>389.39999389648</ele>
        <time>2013-09-28T14:19:41Z</time>
      </trkpt>
      <trkpt lat="43.37436" lon="6.14175">
        <ele>389.39999389648</ele>
        <time>2013-09-28T14:19:47Z</time>
      </trkpt>
      <trkpt lat="43.37432" lon="6.14178">
        <ele>390</ele>
        <time>2013-09-28T14:19:50Z</time>
      </trkpt>
      <trkpt lat="43.3743" lon="6.14178">
        <ele>390.39999389648</ele>
        <time>2013-09-28T14:19:51Z</time>
      </trkpt>
      <trkpt lat="43.37429" lon="6.14178">
        <ele>390.79998779297</ele>
        <time>2013-09-28T14:19:52Z</time>
      </trkpt>
      <trkpt lat="43.37428" lon="6.14179">
        <ele>391.20001220703</ele>
        <time>2013-09-28T14:19:53Z</time>
      </trkpt>
      <trkpt lat="43.37426" lon="6.14179">
        <ele>391.79998779297</ele>
        <time>2013-09-28T14:19:54Z</time>
      </trkpt>
      <trkpt lat="43.37425" lon="6.14182">
        <ele>391.79998779297</ele>
        <time>2013-09-28T14:19:57Z</time>
      </trkpt>
      <trkpt lat="43.37424" lon="6.14182">
        <ele>393</ele>
        <time>2013-09-28T14:19:59Z</time>
      </trkpt>
      <trkpt lat="43.37424" lon="6.14182">
        <ele>393.79998779297</ele>
        <time>2013-09-28T14:20:01Z</time>
      </trkpt>
      <trkpt lat="43.37424" lon="6.14182">
        <ele>393.79998779297</ele>
        <time>2013-09-28T14:20:05Z</time>
      </trkpt>
      <trkpt lat="43.37424" lon="6.14182">
        <ele>393.79998779297</ele>
        <time>2013-09-28T14:20:07Z</time>
      </trkpt>
      <trkpt lat="43.37423" lon="6.14182">
        <ele>393.79998779297</ele>
        <time>2013-09-28T14:20:12Z</time>
      </trkpt>
      <trkpt lat="43.37423" lon="6.14182">
        <ele>393.79998779297</ele>
        <time>2013-09-28T14:20:20Z</time>
      </trkpt>
      <trkpt lat="43.37423" lon="6.14182">
        <ele>393.79998779297</ele>
        <time>2013-09-28T14:20:28Z</time>
      </trkpt>
      <trkpt lat="43.37421" lon="6.14183">
        <ele>393.79998779297</ele>
        <time>2013-09-28T14:20:32Z</time>
      </trkpt>
      <trkpt lat="43.3742" lon="6.14183">
        <ele>393.79998779297</ele>
        <time>2013-09-28T14:20:33Z</time>
      </trkpt>
      <trkpt lat="43.37418" lon="6.14185">
        <ele>393.79998779297</ele>
        <time>2013-09-28T14:20:35Z</time>
      </trkpt>
      <trkpt lat="43.37417" lon="6.14186">
        <ele>393.79998779297</ele>
        <time>2013-09-28T14:20:36Z</time>
      </trkpt>
      <trkpt lat="43.37411" lon="6.14187">
        <ele>394.20001220703</ele>
        <time>2013-09-28T14:20:40Z</time>
      </trkpt>
      <trkpt lat="43.37408" lon="6.14187">
        <ele>395</ele>
        <time>2013-09-28T14:20:42Z</time>
      </trkpt>
      <trkpt lat="43.37407" lon="6.14187">
        <ele>395.39999389648</ele>
        <time>2013-09-28T14:20:43Z</time>
      </trkpt>
      <trkpt lat="43.37406" lon="6.14188">
        <ele>395.79998779297</ele>
        <time>2013-09-28T14:20:44Z</time>
      </trkpt>
      <trkpt lat="43.37402" lon="6.14192">
        <ele>395.79998779297</ele>
        <time>2013-09-28T14:20:47Z</time>
      </trkpt>
      <trkpt lat="43.37399" lon="6.14193">
        <ele>395.79998779297</ele>
        <time>2013-09-28T14:20:49Z</time>
      </trkpt>
      <trkpt lat="43.37392" lon="6.14193">
        <ele>396.20001220703</ele>
        <time>2013-09-28T14:20:53Z</time>
      </trkpt>
      <trkpt lat="43.3739" lon="6.14193">
        <ele>397</ele>
        <time>2013-09-28T14:20:55Z</time>
      </trkpt>
      <trkpt lat="43.37382" lon="6.14191">
        <ele>397.79998779297</ele>
        <time>2013-09-28T14:21:01Z</time>
      </trkpt>
      <trkpt lat="43.37379" lon="6.14192">
        <ele>397.79998779297</ele>
        <time>2013-09-28T14:21:03Z</time>
      </trkpt>
      <trkpt lat="43.37376" lon="6.14194">
        <ele>397.79998779297</ele>
        <time>2013-09-28T14:21:06Z</time>
      </trkpt>
      <trkpt lat="43.37372" lon="6.14197">
        <ele>397.79998779297</ele>
        <time>2013-09-28T14:21:10Z</time>
      </trkpt>
      <trkpt lat="43.3737" lon="6.14199">
        <ele>397.79998779297</ele>
        <time>2013-09-28T14:21:12Z</time>
      </trkpt>
      <trkpt lat="43.37364" lon="6.14211">
        <ele>399.39999389648</ele>
        <time>2013-09-28T14:21:20Z</time>
      </trkpt>
      <trkpt lat="43.37362" lon="6.14219">
        <ele>399.79998779297</ele>
        <time>2013-09-28T14:21:25Z</time>
      </trkpt>
      <trkpt lat="43.37358" lon="6.14227">
        <ele>399.79998779297</ele>
        <time>2013-09-28T14:21:30Z</time>
      </trkpt>
      <trkpt lat="43.37356" lon="6.14231">
        <ele>399.79998779297</ele>
        <time>2013-09-28T14:21:33Z</time>
      </trkpt>
      <trkpt lat="43.37354" lon="6.14235">
        <ele>399.79998779297</ele>
        <time>2013-09-28T14:21:36Z</time>
      </trkpt>
      <trkpt lat="43.37352" lon="6.14236">
        <ele>399.79998779297</ele>
        <time>2013-09-28T14:21:39Z</time>
      </trkpt>
      <trkpt lat="43.37352" lon="6.14236">
        <ele>399.79998779297</ele>
        <time>2013-09-28T14:21:55Z</time>
      </trkpt>
      <trkpt lat="43.37352" lon="6.14236">
        <ele>399.79998779297</ele>
        <time>2013-09-28T14:22:36Z</time>
      </trkpt>
      <trkpt lat="43.37352" lon="6.14237">
        <ele>402</ele>
        <time>2013-09-28T14:23:04Z</time>
      </trkpt>
      <trkpt lat="43.37352" lon="6.14237">
        <ele>402</ele>
        <time>2013-09-28T14:23:15Z</time>
      </trkpt>
      <trkpt lat="43.37352" lon="6.14238">
        <ele>402</ele>
        <time>2013-09-28T14:23:24Z</time>
      </trkpt>
      <trkpt lat="43.37352" lon="6.14239">
        <ele>402</ele>
        <time>2013-09-28T14:23:25Z</time>
      </trkpt>
      <trkpt lat="43.37345" lon="6.14247">
        <ele>402</ele>
        <time>2013-09-28T14:23:31Z</time>
      </trkpt>
      <trkpt lat="43.37344" lon="6.14248">
        <ele>402</ele>
        <time>2013-09-28T14:23:32Z</time>
      </trkpt>
      <trkpt lat="43.37337" lon="6.14255">
        <ele>402</ele>
        <time>2013-09-28T14:23:36Z</time>
      </trkpt>
      <trkpt lat="43.37335" lon="6.14257">
        <ele>402</ele>
        <time>2013-09-28T14:23:37Z</time>
      </trkpt>
      <trkpt lat="43.37329" lon="6.14263">
        <ele>400.60000610352</ele>
        <time>2013-09-28T14:23:40Z</time>
      </trkpt>
      <trkpt lat="43.37323" lon="6.14271">
        <ele>399.60000610352</ele>
        <time>2013-09-28T14:23:42Z</time>
      </trkpt>
      <trkpt lat="43.3732" lon="6.14275">
        <ele>399</ele>
        <time>2013-09-28T14:23:43Z</time>
      </trkpt>
      <trkpt lat="43.37316" lon="6.1428">
        <ele>398</ele>
        <time>2013-09-28T14:23:45Z</time>
      </trkpt>
      <trkpt lat="43.37314" lon="6.14283">
        <ele>397.39999389648</ele>
        <time>2013-09-28T14:23:46Z</time>
      </trkpt>
      <trkpt lat="43.3731" lon="6.14285">
        <ele>396.79998779297</ele>
        <time>2013-09-28T14:23:47Z</time>
      </trkpt>
      <trkpt lat="43.37305" lon="6.14287">
        <ele>396.39999389648</ele>
        <time>2013-09-28T14:23:48Z</time>
      </trkpt>
      <trkpt lat="43.373" lon="6.14289">
        <ele>395.79998779297</ele>
        <time>2013-09-28T14:23:49Z</time>
      </trkpt>
      <trkpt lat="43.37295" lon="6.1429">
        <ele>395.39999389648</ele>
        <time>2013-09-28T14:23:50Z</time>
      </trkpt>
      <trkpt lat="43.37291" lon="6.14293">
        <ele>394.60000610352</ele>
        <time>2013-09-28T14:23:51Z</time>
      </trkpt>
      <trkpt lat="43.37286" lon="6.14297">
        <ele>394</ele>
        <time>2013-09-28T14:23:52Z</time>
      </trkpt>
      <trkpt lat="43.37276" lon="6.14307">
        <ele>392.79998779297</ele>
        <time>2013-09-28T14:23:54Z</time>
      </trkpt>
      <trkpt lat="43.3727" lon="6.14312">
        <ele>392.20001220703</ele>
        <time>2013-09-28T14:23:55Z</time>
      </trkpt>
      <trkpt lat="43.37264" lon="6.14316">
        <ele>391.39999389648</ele>
        <time>2013-09-28T14:23:56Z</time>
      </trkpt>
      <trkpt lat="43.3726" lon="6.14319">
        <ele>390.79998779297</ele>
        <time>2013-09-28T14:23:57Z</time>
      </trkpt>
      <trkpt lat="43.37257" lon="6.14321">
        <ele>390.20001220703</ele>
        <time>2013-09-28T14:23:58Z</time>
      </trkpt>
      <trkpt lat="43.37255" lon="6.14321">
        <ele>389.39999389648</ele>
        <time>2013-09-28T14:23:59Z</time>
      </trkpt>
      <trkpt lat="43.37255" lon="6.14321">
        <ele>388.60000610352</ele>
        <time>2013-09-28T14:24:00Z</time>
      </trkpt>
      <trkpt lat="43.37255" lon="6.14321">
        <ele>388</ele>
        <time>2013-09-28T14:24:01Z</time>
      </trkpt>
      <trkpt lat="43.37254" lon="6.14322">
        <ele>387.20001220703</ele>
        <time>2013-09-28T14:24:02Z</time>
      </trkpt>
      <trkpt lat="43.37254" lon="6.14322">
        <ele>387.20001220703</ele>
        <time>2013-09-28T14:24:08Z</time>
      </trkpt>
      <trkpt lat="43.37254" lon="6.14321">
        <ele>387.20001220703</ele>
        <time>2013-09-28T14:24:11Z</time>
      </trkpt>
      <trkpt lat="43.3725" lon="6.14317">
        <ele>387.20001220703</ele>
        <time>2013-09-28T14:24:13Z</time>
      </trkpt>
      <trkpt lat="43.37235" lon="6.14318">
        <ele>386.79998779297</ele>
        <time>2013-09-28T14:24:18Z</time>
      </trkpt>
      <trkpt lat="43.37229" lon="6.1432">
        <ele>386</ele>
        <time>2013-09-28T14:24:20Z</time>
      </trkpt>
      <trkpt lat="43.37226" lon="6.14322">
        <ele>385.60000610352</ele>
        <time>2013-09-28T14:24:21Z</time>
      </trkpt>
      <trkpt lat="43.3722" lon="6.14326">
        <ele>385</ele>
        <time>2013-09-28T14:24:23Z</time>
      </trkpt>
      <trkpt lat="43.37205" lon="6.14338">
        <ele>385</ele>
        <time>2013-09-28T14:24:29Z</time>
      </trkpt>
      <trkpt lat="43.37193" lon="6.14341">
        <ele>384.20001220703</ele>
        <time>2013-09-28T14:24:33Z</time>
      </trkpt>
      <trkpt lat="43.3719" lon="6.14343">
        <ele>383.79998779297</ele>
        <time>2013-09-28T14:24:34Z</time>
      </trkpt>
      <trkpt lat="43.37187" lon="6.14345">
        <ele>383.39999389648</ele>
        <time>2013-09-28T14:24:35Z</time>
      </trkpt>
      <trkpt lat="43.37183" lon="6.14356">
        <ele>383</ele>
        <time>2013-09-28T14:24:38Z</time>
      </trkpt>
      <trkpt lat="43.37173" lon="6.14372">
        <ele>383</ele>
        <time>2013-09-28T14:24:44Z</time>
      </trkpt>
      <trkpt lat="43.37162" lon="6.1437">
        <ele>383</ele>
        <time>2013-09-28T14:24:48Z</time>
      </trkpt>
      <trkpt lat="43.37149" lon="6.14367">
        <ele>383</ele>
        <time>2013-09-28T14:24:53Z</time>
      </trkpt>
      <trkpt lat="43.37132" lon="6.14368">
        <ele>383</ele>
        <time>2013-09-28T14:25:00Z</time>
      </trkpt>
      <trkpt lat="43.37112" lon="6.14359">
        <ele>383</ele>
        <time>2013-09-28T14:25:07Z</time>
      </trkpt>
      <trkpt lat="43.37096" lon="6.14347">
        <ele>383</ele>
        <time>2013-09-28T14:25:12Z</time>
      </trkpt>
      <trkpt lat="43.37091" lon="6.1434">
        <ele>383</ele>
        <time>2013-09-28T14:25:14Z</time>
      </trkpt>
      <trkpt lat="43.37086" lon="6.1432">
        <ele>382.20001220703</ele>
        <time>2013-09-28T14:25:18Z</time>
      </trkpt>
      <trkpt lat="43.37083" lon="6.14311">
        <ele>381.20001220703</ele>
        <time>2013-09-28T14:25:20Z</time>
      </trkpt>
      <trkpt lat="43.37082" lon="6.14306">
        <ele>380.79998779297</ele>
        <time>2013-09-28T14:25:21Z</time>
      </trkpt>
      <trkpt lat="43.37075" lon="6.14289">
        <ele>380.39999389648</ele>
        <time>2013-09-28T14:25:24Z</time>
      </trkpt>
      <trkpt lat="43.37072" lon="6.14279">
        <ele>379.60000610352</ele>
        <time>2013-09-28T14:25:26Z</time>
      </trkpt>
      <trkpt lat="43.3707" lon="6.14275">
        <ele>379.20001220703</ele>
        <time>2013-09-28T14:25:27Z</time>
      </trkpt>
      <trkpt lat="43.37069" lon="6.14266">
        <ele>378.79998779297</ele>
        <time>2013-09-28T14:25:29Z</time>
      </trkpt>
      <trkpt lat="43.37066" lon="6.14238">
        <ele>378.79998779297</ele>
        <time>2013-09-28T14:25:36Z</time>
      </trkpt>
      <trkpt lat="43.37063" lon="6.14221">
        <ele>378.79998779297</ele>
        <time>2013-09-28T14:25:40Z</time>
      </trkpt>
      <trkpt lat="43.37063" lon="6.14217">
        <ele>378.79998779297</ele>
        <time>2013-09-28T14:25:41Z</time>
      </trkpt>
      <trkpt lat="43.37056" lon="6.142">
        <ele>378.79998779297</ele>
        <time>2013-09-28T14:25:46Z</time>
      </trkpt>
      <trkpt lat="43.37046" lon="6.14182">
        <ele>378.79998779297</ele>
        <time>2013-09-28T14:25:52Z</time>
      </trkpt>
      <trkpt lat="43.37036" lon="6.14166">
        <ele>378.39999389648</ele>
        <time>2013-09-28T14:25:56Z</time>
      </trkpt>
      <trkpt lat="43.3703" lon="6.14155">
        <ele>377.39999389648</ele>
        <time>2013-09-28T14:25:58Z</time>
      </trkpt>
      <trkpt lat="43.37025" lon="6.14143">
        <ele>376.60000610352</ele>
        <time>2013-09-28T14:26:00Z</time>
      </trkpt>
      <trkpt lat="43.3702" lon="6.14132">
        <ele>376.60000610352</ele>
        <time>2013-09-28T14:26:02Z</time>
      </trkpt>
      <trkpt lat="43.37017" lon="6.14127">
        <ele>376.60000610352</ele>
        <time>2013-09-28T14:26:03Z</time>
      </trkpt>
      <trkpt lat="43.3701" lon="6.14117">
        <ele>376.60000610352</ele>
        <time>2013-09-28T14:26:05Z</time>
      </trkpt>
      <trkpt lat="43.37006" lon="6.14112">
        <ele>376.20001220703</ele>
        <time>2013-09-28T14:26:06Z</time>
      </trkpt>
      <trkpt lat="43.37002" lon="6.14108">
        <ele>375.60000610352</ele>
        <time>2013-09-28T14:26:07Z</time>
      </trkpt>
      <trkpt lat="43.36993" lon="6.141">
        <ele>374.39999389648</ele>
        <time>2013-09-28T14:26:09Z</time>
      </trkpt>
      <trkpt lat="43.36988" lon="6.14097">
        <ele>374.39999389648</ele>
        <time>2013-09-28T14:26:10Z</time>
      </trkpt>
      <trkpt lat="43.36979" lon="6.14095">
        <ele>374.39999389648</ele>
        <time>2013-09-28T14:26:12Z</time>
      </trkpt>
      <trkpt lat="43.36971" lon="6.14095">
        <ele>374.39999389648</ele>
        <time>2013-09-28T14:26:14Z</time>
      </trkpt>
      <trkpt lat="43.36964" lon="6.14098">
        <ele>374.39999389648</ele>
        <time>2013-09-28T14:26:16Z</time>
      </trkpt>
      <trkpt lat="43.36949" lon="6.14105">
        <ele>374.39999389648</ele>
        <time>2013-09-28T14:26:20Z</time>
      </trkpt>
      <trkpt lat="43.36947" lon="6.14106">
        <ele>374.39999389648</ele>
        <time>2013-09-28T14:26:21Z</time>
      </trkpt>
      <trkpt lat="43.36943" lon="6.1411">
        <ele>374.39999389648</ele>
        <time>2013-09-28T14:26:23Z</time>
      </trkpt>
      <trkpt lat="43.36935" lon="6.14117">
        <ele>374.39999389648</ele>
        <time>2013-09-28T14:26:26Z</time>
      </trkpt>
      <trkpt lat="43.36932" lon="6.14117">
        <ele>374.39999389648</ele>
        <time>2013-09-28T14:26:27Z</time>
      </trkpt>
      <trkpt lat="43.36929" lon="6.14116">
        <ele>374.39999389648</ele>
        <time>2013-09-28T14:26:28Z</time>
      </trkpt>
      <trkpt lat="43.36923" lon="6.14113">
        <ele>374.79998779297</ele>
        <time>2013-09-28T14:26:31Z</time>
      </trkpt>
      <trkpt lat="43.36917" lon="6.1411">
        <ele>376.39999389648</ele>
        <time>2013-09-28T14:26:34Z</time>
      </trkpt>
      <trkpt lat="43.3691" lon="6.14111">
        <ele>376.39999389648</ele>
        <time>2013-09-28T14:26:38Z</time>
      </trkpt>
      <trkpt lat="43.36901" lon="6.14119">
        <ele>376.39999389648</ele>
        <time>2013-09-28T14:26:41Z</time>
      </trkpt>
      <trkpt lat="43.36898" lon="6.1412">
        <ele>376.39999389648</ele>
        <time>2013-09-28T14:26:42Z</time>
      </trkpt>
      <trkpt lat="43.36895" lon="6.14119">
        <ele>376.39999389648</ele>
        <time>2013-09-28T14:26:43Z</time>
      </trkpt>
      <trkpt lat="43.36889" lon="6.14113">
        <ele>376.39999389648</ele>
        <time>2013-09-28T14:26:46Z</time>
      </trkpt>
      <trkpt lat="43.36883" lon="6.14099">
        <ele>376.39999389648</ele>
        <time>2013-09-28T14:26:49Z</time>
      </trkpt>
      <trkpt lat="43.3688" lon="6.14087">
        <ele>375.60000610352</ele>
        <time>2013-09-28T14:26:51Z</time>
      </trkpt>
      <trkpt lat="43.36875" lon="6.14062">
        <ele>374.20001220703</ele>
        <time>2013-09-28T14:26:55Z</time>
      </trkpt>
      <trkpt lat="43.36874" lon="6.14056">
        <ele>373.79998779297</ele>
        <time>2013-09-28T14:26:56Z</time>
      </trkpt>
      <trkpt lat="43.36873" lon="6.1405">
        <ele>373.39999389648</ele>
        <time>2013-09-28T14:26:57Z</time>
      </trkpt>
      <trkpt lat="43.36871" lon="6.14045">
        <ele>372.60000610352</ele>
        <time>2013-09-28T14:26:58Z</time>
      </trkpt>
      <trkpt lat="43.36869" lon="6.14039">
        <ele>372</ele>
        <time>2013-09-28T14:26:59Z</time>
      </trkpt>
      <trkpt lat="43.36867" lon="6.14032">
        <ele>371.60000610352</ele>
        <time>2013-09-28T14:27:00Z</time>
      </trkpt>
      <trkpt lat="43.36866" lon="6.14027">
        <ele>371</ele>
        <time>2013-09-28T14:27:01Z</time>
      </trkpt>
      <trkpt lat="43.36864" lon="6.14021">
        <ele>370.39999389648</ele>
        <time>2013-09-28T14:27:02Z</time>
      </trkpt>
      <trkpt lat="43.36863" lon="6.14008">
        <ele>369.20001220703</ele>
        <time>2013-09-28T14:27:04Z</time>
      </trkpt>
      <trkpt lat="43.36863" lon="6.13994">
        <ele>368</ele>
        <time>2013-09-28T14:27:06Z</time>
      </trkpt>
      <trkpt lat="43.36863" lon="6.13989">
        <ele>367.39999389648</ele>
        <time>2013-09-28T14:27:07Z</time>
      </trkpt>
      <trkpt lat="43.36862" lon="6.13986">
        <ele>366.79998779297</ele>
        <time>2013-09-28T14:27:08Z</time>
      </trkpt>
      <trkpt lat="43.3686" lon="6.13984">
        <ele>365.79998779297</ele>
        <time>2013-09-28T14:27:10Z</time>
      </trkpt>
      <trkpt lat="43.3686" lon="6.13984">
        <ele>365.20001220703</ele>
        <time>2013-09-28T14:27:11Z</time>
      </trkpt>
      <trkpt lat="43.36858" lon="6.13982">
        <ele>365.20001220703</ele>
        <time>2013-09-28T14:27:13Z</time>
      </trkpt>
      <trkpt lat="43.36857" lon="6.1398">
        <ele>365.20001220703</ele>
        <time>2013-09-28T14:27:14Z</time>
      </trkpt>
      <trkpt lat="43.36845" lon="6.13969">
        <ele>365.20001220703</ele>
        <time>2013-09-28T14:27:20Z</time>
      </trkpt>
      <trkpt lat="43.36837" lon="6.13958">
        <ele>365.20001220703</ele>
        <time>2013-09-28T14:27:24Z</time>
      </trkpt>
      <trkpt lat="43.36833" lon="6.13956">
        <ele>365.20001220703</ele>
        <time>2013-09-28T14:27:26Z</time>
      </trkpt>
      <trkpt lat="43.36827" lon="6.1396">
        <ele>365.20001220703</ele>
        <time>2013-09-28T14:27:29Z</time>
      </trkpt>
      <trkpt lat="43.36826" lon="6.13962">
        <ele>365.20001220703</ele>
        <time>2013-09-28T14:27:30Z</time>
      </trkpt>
      <trkpt lat="43.36823" lon="6.13973">
        <ele>365.20001220703</ele>
        <time>2013-09-28T14:27:34Z</time>
      </trkpt>
      <trkpt lat="43.3682" lon="6.13978">
        <ele>365.20001220703</ele>
        <time>2013-09-28T14:27:36Z</time>
      </trkpt>
      <trkpt lat="43.36814" lon="6.13981">
        <ele>365.20001220703</ele>
        <time>2013-09-28T14:27:39Z</time>
      </trkpt>
      <trkpt lat="43.36809" lon="6.13982">
        <ele>365.20001220703</ele>
        <time>2013-09-28T14:27:41Z</time>
      </trkpt>
      <trkpt lat="43.36801" lon="6.13987">
        <ele>367</ele>
        <time>2013-09-28T14:27:45Z</time>
      </trkpt>
      <trkpt lat="43.368" lon="6.13988">
        <ele>367.39999389648</ele>
        <time>2013-09-28T14:27:46Z</time>
      </trkpt>
      <trkpt lat="43.36793" lon="6.13993">
        <ele>367.39999389648</ele>
        <time>2013-09-28T14:27:50Z</time>
      </trkpt>
      <trkpt lat="43.36783" lon="6.14">
        <ele>367.39999389648</ele>
        <time>2013-09-28T14:27:56Z</time>
      </trkpt>
      <trkpt lat="43.36776" lon="6.14008">
        <ele>367.39999389648</ele>
        <time>2013-09-28T14:28:00Z</time>
      </trkpt>
      <trkpt lat="43.36771" lon="6.14014">
        <ele>367.39999389648</ele>
        <time>2013-09-28T14:28:03Z</time>
      </trkpt>
      <trkpt lat="43.36768" lon="6.14017">
        <ele>368.39999389648</ele>
        <time>2013-09-28T14:28:05Z</time>
      </trkpt>
      <trkpt lat="43.36763" lon="6.14018">
        <ele>370</ele>
        <time>2013-09-28T14:28:08Z</time>
      </trkpt>
      <trkpt lat="43.36758" lon="6.14018">
        <ele>370</ele>
        <time>2013-09-28T14:28:12Z</time>
      </trkpt>
      <trkpt lat="43.36755" lon="6.14018">
        <ele>371.20001220703</ele>
        <time>2013-09-28T14:28:15Z</time>
      </trkpt>
      <trkpt lat="43.36745" lon="6.14013">
        <ele>372</ele>
        <time>2013-09-28T14:28:23Z</time>
      </trkpt>
      <trkpt lat="43.36739" lon="6.14008">
        <ele>372</ele>
        <time>2013-09-28T14:28:29Z</time>
      </trkpt>
      <trkpt lat="43.36731" lon="6.14002">
        <ele>372</ele>
        <time>2013-09-28T14:28:36Z</time>
      </trkpt>
      <trkpt lat="43.36728" lon="6.14001">
        <ele>372</ele>
        <time>2013-09-28T14:28:39Z</time>
      </trkpt>
      <trkpt lat="43.36725" lon="6.14">
        <ele>372</ele>
        <time>2013-09-28T14:28:42Z</time>
      </trkpt>
      <trkpt lat="43.36716" lon="6.14001">
        <ele>372</ele>
        <time>2013-09-28T14:28:50Z</time>
      </trkpt>
      <trkpt lat="43.36712" lon="6.14002">
        <ele>372</ele>
        <time>2013-09-28T14:28:52Z</time>
      </trkpt>
      <trkpt lat="43.36707" lon="6.14011">
        <ele>372</ele>
        <time>2013-09-28T14:28:58Z</time>
      </trkpt>
      <trkpt lat="43.36701" lon="6.1402">
        <ele>372</ele>
        <time>2013-09-28T14:29:05Z</time>
      </trkpt>
      <trkpt lat="43.36694" lon="6.14029">
        <ele>372</ele>
        <time>2013-09-28T14:29:11Z</time>
      </trkpt>
      <trkpt lat="43.36681" lon="6.14041">
        <ele>372</ele>
        <time>2013-09-28T14:29:18Z</time>
      </trkpt>
      <trkpt lat="43.36673" lon="6.14059">
        <ele>372</ele>
        <time>2013-09-28T14:29:25Z</time>
      </trkpt>
      <trkpt lat="43.36667" lon="6.14077">
        <ele>372</ele>
        <time>2013-09-28T14:29:32Z</time>
      </trkpt>
      <trkpt lat="43.36666" lon="6.14086">
        <ele>372</ele>
        <time>2013-09-28T14:29:35Z</time>
      </trkpt>
      <trkpt lat="43.36665" lon="6.14092">
        <ele>372</ele>
        <time>2013-09-28T14:29:37Z</time>
      </trkpt>
      <trkpt lat="43.36665" lon="6.141">
        <ele>372.79998779297</ele>
        <time>2013-09-28T14:29:40Z</time>
      </trkpt>
      <trkpt lat="43.36665" lon="6.14103">
        <ele>373.20001220703</ele>
        <time>2013-09-28T14:29:41Z</time>
      </trkpt>
      <trkpt lat="43.36665" lon="6.14107">
        <ele>374</ele>
        <time>2013-09-28T14:29:42Z</time>
      </trkpt>
      <trkpt lat="43.36665" lon="6.1411">
        <ele>374</ele>
        <time>2013-09-28T14:29:44Z</time>
      </trkpt>
      <trkpt lat="43.36665" lon="6.14125">
        <ele>374</ele>
        <time>2013-09-28T14:29:50Z</time>
      </trkpt>
      <trkpt lat="43.36665" lon="6.14142">
        <ele>374</ele>
        <time>2013-09-28T14:29:57Z</time>
      </trkpt>
      <trkpt lat="43.36666" lon="6.14151">
        <ele>374.39999389648</ele>
        <time>2013-09-28T14:30:01Z</time>
      </trkpt>
      <trkpt lat="43.36667" lon="6.14154">
        <ele>374.79998779297</ele>
        <time>2013-09-28T14:30:02Z</time>
      </trkpt>
      <trkpt lat="43.36668" lon="6.14158">
        <ele>375.79998779297</ele>
        <time>2013-09-28T14:30:04Z</time>
      </trkpt>
      <trkpt lat="43.36668" lon="6.1416">
        <ele>376.20001220703</ele>
        <time>2013-09-28T14:30:05Z</time>
      </trkpt>
      <trkpt lat="43.3667" lon="6.14166">
        <ele>376.20001220703</ele>
        <time>2013-09-28T14:30:08Z</time>
      </trkpt>
      <trkpt lat="43.3667" lon="6.14167">
        <ele>376.20001220703</ele>
        <time>2013-09-28T14:30:11Z</time>
      </trkpt>
      <trkpt lat="43.3667" lon="6.14168">
        <ele>376.20001220703</ele>
        <time>2013-09-28T14:30:12Z</time>
      </trkpt>
      <trkpt lat="43.3667" lon="6.14169">
        <ele>376.20001220703</ele>
        <time>2013-09-28T14:30:18Z</time>
      </trkpt>
      <trkpt lat="43.36671" lon="6.14174">
        <ele>376.20001220703</ele>
        <time>2013-09-28T14:30:23Z</time>
      </trkpt>
      <trkpt lat="43.36671" lon="6.14175">
        <ele>376.20001220703</ele>
        <time>2013-09-28T14:30:24Z</time>
      </trkpt>
      <trkpt lat="43.36674" lon="6.1418">
        <ele>376.20001220703</ele>
        <time>2013-09-28T14:30:29Z</time>
      </trkpt>
      <trkpt lat="43.36674" lon="6.14184">
        <ele>376.20001220703</ele>
        <time>2013-09-28T14:30:33Z</time>
      </trkpt>
      <trkpt lat="43.36676" lon="6.14192">
        <ele>377.79998779297</ele>
        <time>2013-09-28T14:30:37Z</time>
      </trkpt>
      <trkpt lat="43.36676" lon="6.14194">
        <ele>378.20001220703</ele>
        <time>2013-09-28T14:30:38Z</time>
      </trkpt>
      <trkpt lat="43.36676" lon="6.14197">
        <ele>378.20001220703</ele>
        <time>2013-09-28T14:30:40Z</time>
      </trkpt>
      <trkpt lat="43.36677" lon="6.14202">
        <ele>378.20001220703</ele>
        <time>2013-09-28T14:30:43Z</time>
      </trkpt>
      <trkpt lat="43.36678" lon="6.14223">
        <ele>378.20001220703</ele>
        <time>2013-09-28T14:30:53Z</time>
      </trkpt>
      <trkpt lat="43.36679" lon="6.14234">
        <ele>378.20001220703</ele>
        <time>2013-09-28T14:30:57Z</time>
      </trkpt>
      <trkpt lat="43.3668" lon="6.1424">
        <ele>378.20001220703</ele>
        <time>2013-09-28T14:31:00Z</time>
      </trkpt>
      <trkpt lat="43.3668" lon="6.14253">
        <ele>379</ele>
        <time>2013-09-28T14:31:07Z</time>
      </trkpt>
      <trkpt lat="43.3668" lon="6.14258">
        <ele>379.79998779297</ele>
        <time>2013-09-28T14:31:09Z</time>
      </trkpt>
      <trkpt lat="43.36678" lon="6.14271">
        <ele>380.20001220703</ele>
        <time>2013-09-28T14:31:15Z</time>
      </trkpt>
      <trkpt lat="43.36678" lon="6.14284">
        <ele>380.20001220703</ele>
        <time>2013-09-28T14:31:21Z</time>
      </trkpt>
      <trkpt lat="43.36677" lon="6.14301">
        <ele>381.39999389648</ele>
        <time>2013-09-28T14:31:28Z</time>
      </trkpt>
      <trkpt lat="43.36676" lon="6.1431">
        <ele>382.39999389648</ele>
        <time>2013-09-28T14:31:31Z</time>
      </trkpt>
      <trkpt lat="43.36671" lon="6.14331">
        <ele>382.39999389648</ele>
        <time>2013-09-28T14:31:39Z</time>
      </trkpt>
      <trkpt lat="43.3667" lon="6.14333">
        <ele>382.39999389648</ele>
        <time>2013-09-28T14:31:40Z</time>
      </trkpt>
      <trkpt lat="43.36665" lon="6.14345">
        <ele>382.39999389648</ele>
        <time>2013-09-28T14:31:45Z</time>
      </trkpt>
      <trkpt lat="43.36655" lon="6.14363">
        <ele>383.60000610352</ele>
        <time>2013-09-28T14:31:54Z</time>
      </trkpt>
      <trkpt lat="43.36654" lon="6.14365">
        <ele>384</ele>
        <time>2013-09-28T14:31:55Z</time>
      </trkpt>
      <trkpt lat="43.36647" lon="6.14375">
        <ele>384.39999389648</ele>
        <time>2013-09-28T14:32:00Z</time>
      </trkpt>
      <trkpt lat="43.36628" lon="6.14393">
        <ele>384.39999389648</ele>
        <time>2013-09-28T14:32:14Z</time>
      </trkpt>
      <trkpt lat="43.36619" lon="6.14406">
        <ele>385.20001220703</ele>
        <time>2013-09-28T14:32:22Z</time>
      </trkpt>
      <trkpt lat="43.36617" lon="6.1441">
        <ele>386</ele>
        <time>2013-09-28T14:32:24Z</time>
      </trkpt>
      <trkpt lat="43.3661" lon="6.14421">
        <ele>386.39999389648</ele>
        <time>2013-09-28T14:32:30Z</time>
      </trkpt>
      <trkpt lat="43.36601" lon="6.14446">
        <ele>388.39999389648</ele>
        <time>2013-09-28T14:32:43Z</time>
      </trkpt>
      <trkpt lat="43.36601" lon="6.14448">
        <ele>388.39999389648</ele>
        <time>2013-09-28T14:32:44Z</time>
      </trkpt>
      <trkpt lat="43.36595" lon="6.14458">
        <ele>388.39999389648</ele>
        <time>2013-09-28T14:32:51Z</time>
      </trkpt>
      <trkpt lat="43.36587" lon="6.14458">
        <ele>388.39999389648</ele>
        <time>2013-09-28T14:32:56Z</time>
      </trkpt>
      <trkpt lat="43.36584" lon="6.14451">
        <ele>388.39999389648</ele>
        <time>2013-09-28T14:33:00Z</time>
      </trkpt>
      <trkpt lat="43.36584" lon="6.14449">
        <ele>388.39999389648</ele>
        <time>2013-09-28T14:33:01Z</time>
      </trkpt>
      <trkpt lat="43.36583" lon="6.14437">
        <ele>388.39999389648</ele>
        <time>2013-09-28T14:33:08Z</time>
      </trkpt>
      <trkpt lat="43.36581" lon="6.14424">
        <ele>388.39999389648</ele>
        <time>2013-09-28T14:33:14Z</time>
      </trkpt>
      <trkpt lat="43.3658" lon="6.14412">
        <ele>388.39999389648</ele>
        <time>2013-09-28T14:33:19Z</time>
      </trkpt>
      <trkpt lat="43.36581" lon="6.14404">
        <ele>389.79998779297</ele>
        <time>2013-09-28T14:33:22Z</time>
      </trkpt>
      <trkpt lat="43.3658" lon="6.14402">
        <ele>390.20001220703</ele>
        <time>2013-09-28T14:33:23Z</time>
      </trkpt>
      <trkpt lat="43.36578" lon="6.144">
        <ele>390.79998779297</ele>
        <time>2013-09-28T14:33:24Z</time>
      </trkpt>
      <trkpt lat="43.36575" lon="6.14396">
        <ele>390.79998779297</ele>
        <time>2013-09-28T14:33:26Z</time>
      </trkpt>
      <trkpt lat="43.36572" lon="6.14393">
        <ele>391.20001220703</ele>
        <time>2013-09-28T14:33:28Z</time>
      </trkpt>
      <trkpt lat="43.3657" lon="6.14392">
        <ele>392</ele>
        <time>2013-09-28T14:33:30Z</time>
      </trkpt>
      <trkpt lat="43.36564" lon="6.1439">
        <ele>392.79998779297</ele>
        <time>2013-09-28T14:33:34Z</time>
      </trkpt>
      <trkpt lat="43.36557" lon="6.14385">
        <ele>394.79998779297</ele>
        <time>2013-09-28T14:33:40Z</time>
      </trkpt>
      <trkpt lat="43.36547" lon="6.14384">
        <ele>395.20001220703</ele>
        <time>2013-09-28T14:33:47Z</time>
      </trkpt>
      <trkpt lat="43.36544" lon="6.14384">
        <ele>396.20001220703</ele>
        <time>2013-09-28T14:33:49Z</time>
      </trkpt>
      <trkpt lat="43.3654" lon="6.14382">
        <ele>397.39999389648</ele>
        <time>2013-09-28T14:33:53Z</time>
      </trkpt>
      <trkpt lat="43.36539" lon="6.14382">
        <ele>397.79998779297</ele>
        <time>2013-09-28T14:33:54Z</time>
      </trkpt>
      <trkpt lat="43.36536" lon="6.14381">
        <ele>398.60000610352</ele>
        <time>2013-09-28T14:33:56Z</time>
      </trkpt>
      <trkpt lat="43.36535" lon="6.14378">
        <ele>399</ele>
        <time>2013-09-28T14:33:58Z</time>
      </trkpt>
      <trkpt lat="43.36531" lon="6.14377">
        <ele>399.79998779297</ele>
        <time>2013-09-28T14:34:03Z</time>
      </trkpt>
      <trkpt lat="43.3653" lon="6.14377">
        <ele>400.60000610352</ele>
        <time>2013-09-28T14:34:05Z</time>
      </trkpt>
      <trkpt lat="43.3653" lon="6.14377">
        <ele>401</ele>
        <time>2013-09-28T14:34:06Z</time>
      </trkpt>
      <trkpt lat="43.3653" lon="6.14377">
        <ele>401</ele>
        <time>2013-09-28T14:34:26Z</time>
      </trkpt>
      <trkpt lat="43.3653" lon="6.14377">
        <ele>401</ele>
        <time>2013-09-28T14:34:44Z</time>
      </trkpt>
      <trkpt lat="43.3653" lon="6.14377">
        <ele>401</ele>
        <time>2013-09-28T14:34:47Z</time>
      </trkpt>
      <trkpt lat="43.3653" lon="6.14376">
        <ele>401</ele>
        <time>2013-09-28T14:34:54Z</time>
      </trkpt>
      <trkpt lat="43.3653" lon="6.14376">
        <ele>401</ele>
        <time>2013-09-28T14:35:17Z</time>
      </trkpt>
      <trkpt lat="43.3653" lon="6.14376">
        <ele>401</ele>
        <time>2013-09-28T14:35:48Z</time>
      </trkpt>
      <trkpt lat="43.3653" lon="6.14376">
        <ele>401</ele>
        <time>2013-09-28T14:36:01Z</time>
      </trkpt>
      <trkpt lat="43.3653" lon="6.14375">
        <ele>401</ele>
        <time>2013-09-28T14:36:10Z</time>
      </trkpt>
      <trkpt lat="43.36526" lon="6.14365">
        <ele>401</ele>
        <time>2013-09-28T14:36:14Z</time>
      </trkpt>
      <trkpt lat="43.36525" lon="6.14362">
        <ele>401</ele>
        <time>2013-09-28T14:36:15Z</time>
      </trkpt>
      <trkpt lat="43.36522" lon="6.14344">
        <ele>401</ele>
        <time>2013-09-28T14:36:19Z</time>
      </trkpt>
      <trkpt lat="43.36522" lon="6.14339">
        <ele>401</ele>
        <time>2013-09-28T14:36:20Z</time>
      </trkpt>
      <trkpt lat="43.36523" lon="6.14328">
        <ele>401</ele>
        <time>2013-09-28T14:36:22Z</time>
      </trkpt>
      <trkpt lat="43.36522" lon="6.14313">
        <ele>401</ele>
        <time>2013-09-28T14:36:25Z</time>
      </trkpt>
      <trkpt lat="43.36525" lon="6.14307">
        <ele>401</ele>
        <time>2013-09-28T14:36:28Z</time>
      </trkpt>
      <trkpt lat="43.36526" lon="6.14304">
        <ele>401</ele>
        <time>2013-09-28T14:36:29Z</time>
      </trkpt>
      <trkpt lat="43.36528" lon="6.14301">
        <ele>401</ele>
        <time>2013-09-28T14:36:31Z</time>
      </trkpt>
      <trkpt lat="43.36528" lon="6.14301">
        <ele>401</ele>
        <time>2013-09-28T14:36:33Z</time>
      </trkpt>
      <trkpt lat="43.36529" lon="6.14299">
        <ele>401</ele>
        <time>2013-09-28T14:36:43Z</time>
      </trkpt>
      <trkpt lat="43.3653" lon="6.14297">
        <ele>401</ele>
        <time>2013-09-28T14:36:44Z</time>
      </trkpt>
      <trkpt lat="43.36532" lon="6.14282">
        <ele>401</ele>
        <time>2013-09-28T14:36:49Z</time>
      </trkpt>
      <trkpt lat="43.36533" lon="6.14278">
        <ele>401</ele>
        <time>2013-09-28T14:36:50Z</time>
      </trkpt>
      <trkpt lat="43.36536" lon="6.14255">
        <ele>401</ele>
        <time>2013-09-28T14:36:55Z</time>
      </trkpt>
      <trkpt lat="43.36537" lon="6.14252">
        <ele>401</ele>
        <time>2013-09-28T14:36:56Z</time>
      </trkpt>
      <trkpt lat="43.36539" lon="6.14238">
        <ele>400.60000610352</ele>
        <time>2013-09-28T14:36:59Z</time>
      </trkpt>
      <trkpt lat="43.36539" lon="6.14232">
        <ele>400.20001220703</ele>
        <time>2013-09-28T14:37:00Z</time>
      </trkpt>
      <trkpt lat="43.36541" lon="6.14218">
        <ele>399</ele>
        <time>2013-09-28T14:37:03Z</time>
      </trkpt>
      <trkpt lat="43.36542" lon="6.14205">
        <ele>399</ele>
        <time>2013-09-28T14:37:06Z</time>
      </trkpt>
      <trkpt lat="43.36541" lon="6.14186">
        <ele>399</ele>
        <time>2013-09-28T14:37:10Z</time>
      </trkpt>
      <trkpt lat="43.3654" lon="6.14178">
        <ele>399</ele>
        <time>2013-09-28T14:37:12Z</time>
      </trkpt>
      <trkpt lat="43.36538" lon="6.14161">
        <ele>397</ele>
        <time>2013-09-28T14:37:16Z</time>
      </trkpt>
      <trkpt lat="43.36535" lon="6.14148">
        <ele>397</ele>
        <time>2013-09-28T14:37:19Z</time>
      </trkpt>
      <trkpt lat="43.36533" lon="6.14131">
        <ele>397</ele>
        <time>2013-09-28T14:37:23Z</time>
      </trkpt>
      <trkpt lat="43.36531" lon="6.14117">
        <ele>397</ele>
        <time>2013-09-28T14:37:26Z</time>
      </trkpt>
      <trkpt lat="43.3653" lon="6.14112">
        <ele>396.60000610352</ele>
        <time>2013-09-28T14:37:27Z</time>
      </trkpt>
      <trkpt lat="43.36528" lon="6.14107">
        <ele>396.20001220703</ele>
        <time>2013-09-28T14:37:28Z</time>
      </trkpt>
      <trkpt lat="43.36524" lon="6.14098">
        <ele>395.20001220703</ele>
        <time>2013-09-28T14:37:30Z</time>
      </trkpt>
      <trkpt lat="43.36524" lon="6.14092">
        <ele>394.79998779297</ele>
        <time>2013-09-28T14:37:31Z</time>
      </trkpt>
      <trkpt lat="43.36523" lon="6.14074">
        <ele>394.39999389648</ele>
        <time>2013-09-28T14:37:35Z</time>
      </trkpt>
      <trkpt lat="43.36523" lon="6.1407">
        <ele>394</ele>
        <time>2013-09-28T14:37:36Z</time>
      </trkpt>
      <trkpt lat="43.36522" lon="6.14062">
        <ele>393</ele>
        <time>2013-09-28T14:37:38Z</time>
      </trkpt>
      <trkpt lat="43.36523" lon="6.14048">
        <ele>392.60000610352</ele>
        <time>2013-09-28T14:37:41Z</time>
      </trkpt>
      <trkpt lat="43.36524" lon="6.14039">
        <ele>392.20001220703</ele>
        <time>2013-09-28T14:37:43Z</time>
      </trkpt>
      <trkpt lat="43.36525" lon="6.14035">
        <ele>391.79998779297</ele>
        <time>2013-09-28T14:37:44Z</time>
      </trkpt>
      <trkpt lat="43.3653" lon="6.14009">
        <ele>390.60000610352</ele>
        <time>2013-09-28T14:37:53Z</time>
      </trkpt>
      <trkpt lat="43.3653" lon="6.13992">
        <ele>390.60000610352</ele>
        <time>2013-09-28T14:37:59Z</time>
      </trkpt>
      <trkpt lat="43.36526" lon="6.13965">
        <ele>390.60000610352</ele>
        <time>2013-09-28T14:38:05Z</time>
      </trkpt>
      <trkpt lat="43.36525" lon="6.13942">
        <ele>388.79998779297</ele>
        <time>2013-09-28T14:38:09Z</time>
      </trkpt>
      <trkpt lat="43.36524" lon="6.13936">
        <ele>388.39999389648</ele>
        <time>2013-09-28T14:38:10Z</time>
      </trkpt>
      <trkpt lat="43.36525" lon="6.13918">
        <ele>388.39999389648</ele>
        <time>2013-09-28T14:38:13Z</time>
      </trkpt>
      <trkpt lat="43.36528" lon="6.13905">
        <ele>388.39999389648</ele>
        <time>2013-09-28T14:38:15Z</time>
      </trkpt>
      <trkpt lat="43.36531" lon="6.13886">
        <ele>387.60000610352</ele>
        <time>2013-09-28T14:38:18Z</time>
      </trkpt>
      <trkpt lat="43.36533" lon="6.13872">
        <ele>386.79998779297</ele>
        <time>2013-09-28T14:38:20Z</time>
      </trkpt>
      <trkpt lat="43.36534" lon="6.13865">
        <ele>386.39999389648</ele>
        <time>2013-09-28T14:38:21Z</time>
      </trkpt>
      <trkpt lat="43.36535" lon="6.13851">
        <ele>386.39999389648</ele>
        <time>2013-09-28T14:38:23Z</time>
      </trkpt>
      <trkpt lat="43.36538" lon="6.13821">
        <ele>386</ele>
        <time>2013-09-28T14:38:27Z</time>
      </trkpt>
      <trkpt lat="43.3654" lon="6.13807">
        <ele>385.20001220703</ele>
        <time>2013-09-28T14:38:29Z</time>
      </trkpt>
      <trkpt lat="43.36541" lon="6.13801">
        <ele>384.39999389648</ele>
        <time>2013-09-28T14:38:30Z</time>
      </trkpt>
      <trkpt lat="43.36543" lon="6.13795">
        <ele>384.39999389648</ele>
        <time>2013-09-28T14:38:31Z</time>
      </trkpt>
      <trkpt lat="43.36544" lon="6.13786">
        <ele>384.39999389648</ele>
        <time>2013-09-28T14:38:33Z</time>
      </trkpt>
      <trkpt lat="43.36546" lon="6.13773">
        <ele>384</ele>
        <time>2013-09-28T14:38:36Z</time>
      </trkpt>
      <trkpt lat="43.36547" lon="6.1376">
        <ele>382.20001220703</ele>
        <time>2013-09-28T14:38:40Z</time>
      </trkpt>
      <trkpt lat="43.36547" lon="6.1375">
        <ele>382.20001220703</ele>
        <time>2013-09-28T14:38:44Z</time>
      </trkpt>
      <trkpt lat="43.36547" lon="6.13747">
        <ele>382.20001220703</ele>
        <time>2013-09-28T14:38:45Z</time>
      </trkpt>
      <trkpt lat="43.36548" lon="6.13736">
        <ele>381.79998779297</ele>
        <time>2013-09-28T14:38:50Z</time>
      </trkpt>
      <trkpt lat="43.36548" lon="6.13734">
        <ele>381.39999389648</ele>
        <time>2013-09-28T14:38:51Z</time>
      </trkpt>
      <trkpt lat="43.36549" lon="6.13732">
        <ele>381</ele>
        <time>2013-09-28T14:38:52Z</time>
      </trkpt>
      <trkpt lat="43.36549" lon="6.13726">
        <ele>380.20001220703</ele>
        <time>2013-09-28T14:38:54Z</time>
      </trkpt>
      <trkpt lat="43.36555" lon="6.13692">
        <ele>379.79998779297</ele>
        <time>2013-09-28T14:39:03Z</time>
      </trkpt>
      <trkpt lat="43.36556" lon="6.13687">
        <ele>379.39999389648</ele>
        <time>2013-09-28T14:39:04Z</time>
      </trkpt>
      <trkpt lat="43.36557" lon="6.13682">
        <ele>379</ele>
        <time>2013-09-28T14:39:05Z</time>
      </trkpt>
      <trkpt lat="43.3656" lon="6.1367">
        <ele>378.20001220703</ele>
        <time>2013-09-28T14:39:07Z</time>
      </trkpt>
      <trkpt lat="43.36563" lon="6.13648">
        <ele>377.60000610352</ele>
        <time>2013-09-28T14:39:10Z</time>
      </trkpt>
      <trkpt lat="43.36567" lon="6.13633">
        <ele>376.79998779297</ele>
        <time>2013-09-28T14:39:12Z</time>
      </trkpt>
      <trkpt lat="43.36568" lon="6.13626">
        <ele>376.39999389648</ele>
        <time>2013-09-28T14:39:13Z</time>
      </trkpt>
      <trkpt lat="43.3657" lon="6.13618">
        <ele>376</ele>
        <time>2013-09-28T14:39:14Z</time>
      </trkpt>
      <trkpt lat="43.36574" lon="6.13602">
        <ele>376</ele>
        <time>2013-09-28T14:39:16Z</time>
      </trkpt>
      <trkpt lat="43.36579" lon="6.13589">
        <ele>375</ele>
        <time>2013-09-28T14:39:18Z</time>
      </trkpt>
      <trkpt lat="43.36596" lon="6.13523">
        <ele>371.39999389648</ele>
        <time>2013-09-28T14:39:27Z</time>
      </trkpt>
      <trkpt lat="43.36605" lon="6.13473">
        <ele>369.39999389648</ele>
        <time>2013-09-28T14:39:33Z</time>
      </trkpt>
      <trkpt lat="43.36605" lon="6.13465">
        <ele>369</ele>
        <time>2013-09-28T14:39:34Z</time>
      </trkpt>
      <trkpt lat="43.36607" lon="6.13457">
        <ele>369</ele>
        <time>2013-09-28T14:39:35Z</time>
      </trkpt>
      <trkpt lat="43.36626" lon="6.13393">
        <ele>367.39999389648</ele>
        <time>2013-09-28T14:39:43Z</time>
      </trkpt>
      <trkpt lat="43.36634" lon="6.13363">
        <ele>367</ele>
        <time>2013-09-28T14:39:47Z</time>
      </trkpt>
      <trkpt lat="43.36641" lon="6.13333">
        <ele>366.60000610352</ele>
        <time>2013-09-28T14:39:51Z</time>
      </trkpt>
      <trkpt lat="43.36643" lon="6.13325">
        <ele>366.20001220703</ele>
        <time>2013-09-28T14:39:52Z</time>
      </trkpt>
      <trkpt lat="43.36647" lon="6.13308">
        <ele>365.20001220703</ele>
        <time>2013-09-28T14:39:54Z</time>
      </trkpt>
      <trkpt lat="43.36655" lon="6.13274">
        <ele>364.79998779297</ele>
        <time>2013-09-28T14:39:58Z</time>
      </trkpt>
      <trkpt lat="43.36657" lon="6.13266">
        <ele>364.39999389648</ele>
        <time>2013-09-28T14:39:59Z</time>
      </trkpt>
      <trkpt lat="43.36658" lon="6.13258">
        <ele>364</ele>
        <time>2013-09-28T14:40:00Z</time>
      </trkpt>
      <trkpt lat="43.36658" lon="6.13248">
        <ele>363.60000610352</ele>
        <time>2013-09-28T14:40:01Z</time>
      </trkpt>
      <trkpt lat="43.36659" lon="6.13239">
        <ele>363.20001220703</ele>
        <time>2013-09-28T14:40:02Z</time>
      </trkpt>
      <trkpt lat="43.3666" lon="6.1323">
        <ele>362.60000610352</ele>
        <time>2013-09-28T14:40:03Z</time>
      </trkpt>
      <trkpt lat="43.3666" lon="6.13221">
        <ele>362.20001220703</ele>
        <time>2013-09-28T14:40:04Z</time>
      </trkpt>
      <trkpt lat="43.36663" lon="6.13202">
        <ele>361.39999389648</ele>
        <time>2013-09-28T14:40:06Z</time>
      </trkpt>
      <trkpt lat="43.36665" lon="6.13165">
        <ele>359.39999389648</ele>
        <time>2013-09-28T14:40:11Z</time>
      </trkpt>
      <trkpt lat="43.36666" lon="6.1316">
        <ele>359</ele>
        <time>2013-09-28T14:40:12Z</time>
      </trkpt>
      <trkpt lat="43.36669" lon="6.13156">
        <ele>358.60000610352</ele>
        <time>2013-09-28T14:40:13Z</time>
      </trkpt>
      <trkpt lat="43.36675" lon="6.1315">
        <ele>358.20001220703</ele>
        <time>2013-09-28T14:40:15Z</time>
      </trkpt>
      <trkpt lat="43.36679" lon="6.13148">
        <ele>357.79998779297</ele>
        <time>2013-09-28T14:40:16Z</time>
      </trkpt>
      <trkpt lat="43.36684" lon="6.13147">
        <ele>357.39999389648</ele>
        <time>2013-09-28T14:40:17Z</time>
      </trkpt>
      <trkpt lat="43.36688" lon="6.13145">
        <ele>356.79998779297</ele>
        <time>2013-09-28T14:40:18Z</time>
      </trkpt>
      <trkpt lat="43.36696" lon="6.13136">
        <ele>356.39999389648</ele>
        <time>2013-09-28T14:40:20Z</time>
      </trkpt>
      <trkpt lat="43.36703" lon="6.1312">
        <ele>356</ele>
        <time>2013-09-28T14:40:22Z</time>
      </trkpt>
      <trkpt lat="43.36707" lon="6.13111">
        <ele>355.60000610352</ele>
        <time>2013-09-28T14:40:23Z</time>
      </trkpt>
      <trkpt lat="43.36714" lon="6.13083">
        <ele>354</ele>
        <time>2013-09-28T14:40:26Z</time>
      </trkpt>
      <trkpt lat="43.36717" lon="6.13074">
        <ele>353.60000610352</ele>
        <time>2013-09-28T14:40:27Z</time>
      </trkpt>
      <trkpt lat="43.3672" lon="6.13066">
        <ele>353</ele>
        <time>2013-09-28T14:40:28Z</time>
      </trkpt>
      <trkpt lat="43.36724" lon="6.13059">
        <ele>352.39999389648</ele>
        <time>2013-09-28T14:40:29Z</time>
      </trkpt>
      <trkpt lat="43.36728" lon="6.13052">
        <ele>352</ele>
        <time>2013-09-28T14:40:30Z</time>
      </trkpt>
      <trkpt lat="43.36742" lon="6.13029">
        <ele>351.39999389648</ele>
        <time>2013-09-28T14:40:33Z</time>
      </trkpt>
      <trkpt lat="43.3675" lon="6.13013">
        <ele>350.20001220703</ele>
        <time>2013-09-28T14:40:35Z</time>
      </trkpt>
      <trkpt lat="43.36763" lon="6.12994">
        <ele>349.20001220703</ele>
        <time>2013-09-28T14:40:38Z</time>
      </trkpt>
      <trkpt lat="43.36766" lon="6.12989">
        <ele>348.79998779297</ele>
        <time>2013-09-28T14:40:39Z</time>
      </trkpt>
      <trkpt lat="43.36777" lon="6.12977">
        <ele>347.20001220703</ele>
        <time>2013-09-28T14:40:42Z</time>
      </trkpt>
      <trkpt lat="43.36786" lon="6.12968">
        <ele>347.20001220703</ele>
        <time>2013-09-28T14:40:44Z</time>
      </trkpt>
      <trkpt lat="43.3679" lon="6.12964">
        <ele>346.60000610352</ele>
        <time>2013-09-28T14:40:45Z</time>
      </trkpt>
      <trkpt lat="43.36795" lon="6.12959">
        <ele>346.20001220703</ele>
        <time>2013-09-28T14:40:46Z</time>
      </trkpt>
      <trkpt lat="43.368" lon="6.12954">
        <ele>345.79998779297</ele>
        <time>2013-09-28T14:40:47Z</time>
      </trkpt>
      <trkpt lat="43.36804" lon="6.12949">
        <ele>345.39999389648</ele>
        <time>2013-09-28T14:40:48Z</time>
      </trkpt>
      <trkpt lat="43.36814" lon="6.12937">
        <ele>344.79998779297</ele>
        <time>2013-09-28T14:40:50Z</time>
      </trkpt>
      <trkpt lat="43.36834" lon="6.12916">
        <ele>344.39999389648</ele>
        <time>2013-09-28T14:40:54Z</time>
      </trkpt>
      <trkpt lat="43.3684" lon="6.1291">
        <ele>344</ele>
        <time>2013-09-28T14:40:55Z</time>
      </trkpt>
      <trkpt lat="43.36846" lon="6.12905">
        <ele>343.60000610352</ele>
        <time>2013-09-28T14:40:56Z</time>
      </trkpt>
      <trkpt lat="43.36852" lon="6.12899">
        <ele>343.20001220703</ele>
        <time>2013-09-28T14:40:57Z</time>
      </trkpt>
      <trkpt lat="43.36858" lon="6.12892">
        <ele>342.20001220703</ele>
        <time>2013-09-28T14:40:58Z</time>
      </trkpt>
      <trkpt lat="43.36864" lon="6.12886">
        <ele>341.60000610352</ele>
        <time>2013-09-28T14:40:59Z</time>
      </trkpt>
      <trkpt lat="43.36871" lon="6.1288">
        <ele>341</ele>
        <time>2013-09-28T14:41:00Z</time>
      </trkpt>
      <trkpt lat="43.36884" lon="6.12868">
        <ele>340</ele>
        <time>2013-09-28T14:41:02Z</time>
      </trkpt>
      <trkpt lat="43.3689" lon="6.12863">
        <ele>340</ele>
        <time>2013-09-28T14:41:03Z</time>
      </trkpt>
      <trkpt lat="43.369" lon="6.12852">
        <ele>339.20001220703</ele>
        <time>2013-09-28T14:41:05Z</time>
      </trkpt>
      <trkpt lat="43.36904" lon="6.12847">
        <ele>338.79998779297</ele>
        <time>2013-09-28T14:41:06Z</time>
      </trkpt>
      <trkpt lat="43.36906" lon="6.12844">
        <ele>338.39999389648</ele>
        <time>2013-09-28T14:41:07Z</time>
      </trkpt>
      <trkpt lat="43.36908" lon="6.12839">
        <ele>338</ele>
        <time>2013-09-28T14:41:08Z</time>
      </trkpt>
      <trkpt lat="43.3691" lon="6.12834">
        <ele>338</ele>
        <time>2013-09-28T14:41:09Z</time>
      </trkpt>
      <trkpt lat="43.36915" lon="6.12823">
        <ele>337.39999389648</ele>
        <time>2013-09-28T14:41:11Z</time>
      </trkpt>
      <trkpt lat="43.36918" lon="6.12818">
        <ele>337</ele>
        <time>2013-09-28T14:41:12Z</time>
      </trkpt>
      <trkpt lat="43.36921" lon="6.12812">
        <ele>336.60000610352</ele>
        <time>2013-09-28T14:41:13Z</time>
      </trkpt>
      <trkpt lat="43.36925" lon="6.12806">
        <ele>336</ele>
        <time>2013-09-28T14:41:14Z</time>
      </trkpt>
      <trkpt lat="43.36928" lon="6.128">
        <ele>335.60000610352</ele>
        <time>2013-09-28T14:41:15Z</time>
      </trkpt>
      <trkpt lat="43.36934" lon="6.12787">
        <ele>335.60000610352</ele>
        <time>2013-09-28T14:41:17Z</time>
      </trkpt>
      <trkpt lat="43.36946" lon="6.12761">
        <ele>335.20001220703</ele>
        <time>2013-09-28T14:41:21Z</time>
      </trkpt>
      <trkpt lat="43.36954" lon="6.12748">
        <ele>333.79998779297</ele>
        <time>2013-09-28T14:41:23Z</time>
      </trkpt>
      <trkpt lat="43.36957" lon="6.12743">
        <ele>333.39999389648</ele>
        <time>2013-09-28T14:41:24Z</time>
      </trkpt>
      <trkpt lat="43.36976" lon="6.12701">
        <ele>333.39999389648</ele>
        <time>2013-09-28T14:41:31Z</time>
      </trkpt>
      <trkpt lat="43.36987" lon="6.12677">
        <ele>333.39999389648</ele>
        <time>2013-09-28T14:41:35Z</time>
      </trkpt>
      <trkpt lat="43.37011" lon="6.12627">
        <ele>333.39999389648</ele>
        <time>2013-09-28T14:41:43Z</time>
      </trkpt>
      <trkpt lat="43.3702" lon="6.12607">
        <ele>333</ele>
        <time>2013-09-28T14:41:46Z</time>
      </trkpt>
      <trkpt lat="43.37029" lon="6.12589">
        <ele>331.20001220703</ele>
        <time>2013-09-28T14:41:49Z</time>
      </trkpt>
      <trkpt lat="43.37036" lon="6.12578">
        <ele>331.20001220703</ele>
        <time>2013-09-28T14:41:51Z</time>
      </trkpt>
      <trkpt lat="43.37047" lon="6.12562">
        <ele>331.20001220703</ele>
        <time>2013-09-28T14:41:54Z</time>
      </trkpt>
      <trkpt lat="43.37063" lon="6.12546">
        <ele>330.79998779297</ele>
        <time>2013-09-28T14:41:58Z</time>
      </trkpt>
      <trkpt lat="43.37077" lon="6.12535">
        <ele>329.60000610352</ele>
        <time>2013-09-28T14:42:01Z</time>
      </trkpt>
      <trkpt lat="43.37082" lon="6.12531">
        <ele>329.20001220703</ele>
        <time>2013-09-28T14:42:02Z</time>
      </trkpt>
      <trkpt lat="43.37106" lon="6.12505">
        <ele>329.20001220703</ele>
        <time>2013-09-28T14:42:08Z</time>
      </trkpt>
      <trkpt lat="43.3713" lon="6.12458">
        <ele>329.20001220703</ele>
        <time>2013-09-28T14:42:17Z</time>
      </trkpt>
      <trkpt lat="43.3715" lon="6.12413">
        <ele>329.20001220703</ele>
        <time>2013-09-28T14:42:26Z</time>
      </trkpt>
      <trkpt lat="43.37158" lon="6.124">
        <ele>329.20001220703</ele>
        <time>2013-09-28T14:42:29Z</time>
      </trkpt>
      <trkpt lat="43.37168" lon="6.12384">
        <ele>329.20001220703</ele>
        <time>2013-09-28T14:42:33Z</time>
      </trkpt>
      <trkpt lat="43.37191" lon="6.12355">
        <ele>329.20001220703</ele>
        <time>2013-09-28T14:42:42Z</time>
      </trkpt>
      <trkpt lat="43.37196" lon="6.12349">
        <ele>329.20001220703</ele>
        <time>2013-09-28T14:42:44Z</time>
      </trkpt>
      <trkpt lat="43.3721" lon="6.12322">
        <ele>329.20001220703</ele>
        <time>2013-09-28T14:42:52Z</time>
      </trkpt>
      <trkpt lat="43.37215" lon="6.12312">
        <ele>329.20001220703</ele>
        <time>2013-09-28T14:42:55Z</time>
      </trkpt>
      <trkpt lat="43.37221" lon="6.123">
        <ele>330.20001220703</ele>
        <time>2013-09-28T14:42:59Z</time>
      </trkpt>
      <trkpt lat="43.37227" lon="6.12282">
        <ele>331.39999389648</ele>
        <time>2013-09-28T14:43:04Z</time>
      </trkpt>
      <trkpt lat="43.37231" lon="6.12268">
        <ele>331.79998779297</ele>
        <time>2013-09-28T14:43:08Z</time>
      </trkpt>
      <trkpt lat="43.37234" lon="6.1226">
        <ele>332.79998779297</ele>
        <time>2013-09-28T14:43:10Z</time>
      </trkpt>
      <trkpt lat="43.37243" lon="6.12237">
        <ele>333.60000610352</ele>
        <time>2013-09-28T14:43:18Z</time>
      </trkpt>
      <trkpt lat="43.37248" lon="6.12223">
        <ele>334.79998779297</ele>
        <time>2013-09-28T14:43:23Z</time>
      </trkpt>
      <trkpt lat="43.37251" lon="6.12217">
        <ele>335.60000610352</ele>
        <time>2013-09-28T14:43:25Z</time>
      </trkpt>
      <trkpt lat="43.37262" lon="6.12194">
        <ele>336.79998779297</ele>
        <time>2013-09-28T14:43:34Z</time>
      </trkpt>
      <trkpt lat="43.37277" lon="6.12165">
        <ele>339</ele>
        <time>2013-09-28T14:43:46Z</time>
      </trkpt>
      <trkpt lat="43.37283" lon="6.12158">
        <ele>339.79998779297</ele>
        <time>2013-09-28T14:43:50Z</time>
      </trkpt>
      <trkpt lat="43.37288" lon="6.12152">
        <ele>340.60000610352</ele>
        <time>2013-09-28T14:43:54Z</time>
      </trkpt>
      <trkpt lat="43.37293" lon="6.12148">
        <ele>341.79998779297</ele>
        <time>2013-09-28T14:43:57Z</time>
      </trkpt>
      <trkpt lat="43.373" lon="6.12141">
        <ele>341.79998779297</ele>
        <time>2013-09-28T14:44:03Z</time>
      </trkpt>
      <trkpt lat="43.37302" lon="6.12139">
        <ele>342.79998779297</ele>
        <time>2013-09-28T14:44:05Z</time>
      </trkpt>
      <trkpt lat="43.37304" lon="6.12138">
        <ele>343.20001220703</ele>
        <time>2013-09-28T14:44:06Z</time>
      </trkpt>
      <trkpt lat="43.37305" lon="6.12137">
        <ele>343.60000610352</ele>
        <time>2013-09-28T14:44:07Z</time>
      </trkpt>
      <trkpt lat="43.37316" lon="6.12131">
        <ele>346.20001220703</ele>
        <time>2013-09-28T14:44:17Z</time>
      </trkpt>
      <trkpt lat="43.3732" lon="6.12128">
        <ele>346.20001220703</ele>
        <time>2013-09-28T14:44:21Z</time>
      </trkpt>
      <trkpt lat="43.37326" lon="6.12123">
        <ele>346.20001220703</ele>
        <time>2013-09-28T14:44:28Z</time>
      </trkpt>
      <trkpt lat="43.37329" lon="6.12119">
        <ele>346.20001220703</ele>
        <time>2013-09-28T14:44:32Z</time>
      </trkpt>
      <trkpt lat="43.37334" lon="6.12117">
        <ele>347.39999389648</ele>
        <time>2013-09-28T14:44:37Z</time>
      </trkpt>
      <trkpt lat="43.37341" lon="6.12115">
        <ele>348.20001220703</ele>
        <time>2013-09-28T14:44:43Z</time>
      </trkpt>
      <trkpt lat="43.37345" lon="6.12111">
        <ele>348.20001220703</ele>
        <time>2013-09-28T14:44:49Z</time>
      </trkpt>
      <trkpt lat="43.37352" lon="6.12108">
        <ele>349</ele>
        <time>2013-09-28T14:44:57Z</time>
      </trkpt>
      <trkpt lat="43.37353" lon="6.12108">
        <ele>349.39999389648</ele>
        <time>2013-09-28T14:44:58Z</time>
      </trkpt>
      <trkpt lat="43.3736" lon="6.12102">
        <ele>350.20001220703</ele>
        <time>2013-09-28T14:45:07Z</time>
      </trkpt>
      <trkpt lat="43.37366" lon="6.12099">
        <ele>350.20001220703</ele>
        <time>2013-09-28T14:45:14Z</time>
      </trkpt>
      <trkpt lat="43.37371" lon="6.12094">
        <ele>350.20001220703</ele>
        <time>2013-09-28T14:45:20Z</time>
      </trkpt>
      <trkpt lat="43.37373" lon="6.12093">
        <ele>350.60000610352</ele>
        <time>2013-09-28T14:45:22Z</time>
      </trkpt>
      <trkpt lat="43.37375" lon="6.12093">
        <ele>351.39999389648</ele>
        <time>2013-09-28T14:45:24Z</time>
      </trkpt>
      <trkpt lat="43.37376" lon="6.12093">
        <ele>351.79998779297</ele>
        <time>2013-09-28T14:45:25Z</time>
      </trkpt>
      <trkpt lat="43.37377" lon="6.12093">
        <ele>352.20001220703</ele>
        <time>2013-09-28T14:45:26Z</time>
      </trkpt>
      <trkpt lat="43.3738" lon="6.12091">
        <ele>352.20001220703</ele>
        <time>2013-09-28T14:45:30Z</time>
      </trkpt>
      <trkpt lat="43.3738" lon="6.12091">
        <ele>352.20001220703</ele>
        <time>2013-09-28T14:45:31Z</time>
      </trkpt>
      <trkpt lat="43.37379" lon="6.12093">
        <ele>352.20001220703</ele>
        <time>2013-09-28T14:45:37Z</time>
      </trkpt>
      <trkpt lat="43.37379" lon="6.12093">
        <ele>352.20001220703</ele>
        <time>2013-09-28T14:45:42Z</time>
      </trkpt>
      <trkpt lat="43.37379" lon="6.12093">
        <ele>352.20001220703</ele>
        <time>2013-09-28T14:45:54Z</time>
      </trkpt>
      <trkpt lat="43.37379" lon="6.12093">
        <ele>352.20001220703</ele>
        <time>2013-09-28T14:46:07Z</time>
      </trkpt>
      <trkpt lat="43.3738" lon="6.12092">
        <ele>352.20001220703</ele>
        <time>2013-09-28T14:46:15Z</time>
      </trkpt>
      <trkpt lat="43.3738" lon="6.12092">
        <ele>352.20001220703</ele>
        <time>2013-09-28T14:46:19Z</time>
      </trkpt>
      <trkpt lat="43.37379" lon="6.12092">
        <ele>352.20001220703</ele>
        <time>2013-09-28T14:46:26Z</time>
      </trkpt>
      <trkpt lat="43.37383" lon="6.1209">
        <ele>352.20001220703</ele>
        <time>2013-09-28T14:46:33Z</time>
      </trkpt>
      <trkpt lat="43.37386" lon="6.12091">
        <ele>352.20001220703</ele>
        <time>2013-09-28T14:46:35Z</time>
      </trkpt>
      <trkpt lat="43.37392" lon="6.1209">
        <ele>352.20001220703</ele>
        <time>2013-09-28T14:46:38Z</time>
      </trkpt>
      <trkpt lat="43.37402" lon="6.12089">
        <ele>352.20001220703</ele>
        <time>2013-09-28T14:46:44Z</time>
      </trkpt>
      <trkpt lat="43.37416" lon="6.12088">
        <ele>353.60000610352</ele>
        <time>2013-09-28T14:46:53Z</time>
      </trkpt>
      <trkpt lat="43.37425" lon="6.12088">
        <ele>354.39999389648</ele>
        <time>2013-09-28T14:46:58Z</time>
      </trkpt>
      <trkpt lat="43.37428" lon="6.12088">
        <ele>354.39999389648</ele>
        <time>2013-09-28T14:46:59Z</time>
      </trkpt>
      <trkpt lat="43.37435" lon="6.12087">
        <ele>354.39999389648</ele>
        <time>2013-09-28T14:47:05Z</time>
      </trkpt>
      <trkpt lat="43.37436" lon="6.12087">
        <ele>354.39999389648</ele>
        <time>2013-09-28T14:47:06Z</time>
      </trkpt>
      <trkpt lat="43.37447" lon="6.12089">
        <ele>354.39999389648</ele>
        <time>2013-09-28T14:47:10Z</time>
      </trkpt>
      <trkpt lat="43.37458" lon="6.12085">
        <ele>354.39999389648</ele>
        <time>2013-09-28T14:47:13Z</time>
      </trkpt>
      <trkpt lat="43.37472" lon="6.12077">
        <ele>354</ele>
        <time>2013-09-28T14:47:17Z</time>
      </trkpt>
      <trkpt lat="43.37478" lon="6.12072">
        <ele>353</ele>
        <time>2013-09-28T14:47:19Z</time>
      </trkpt>
      <trkpt lat="43.37485" lon="6.12066">
        <ele>352.20001220703</ele>
        <time>2013-09-28T14:47:21Z</time>
      </trkpt>
      <trkpt lat="43.37493" lon="6.12055">
        <ele>351.20001220703</ele>
        <time>2013-09-28T14:47:23Z</time>
      </trkpt>
      <trkpt lat="43.37502" lon="6.12048">
        <ele>349.79998779297</ele>
        <time>2013-09-28T14:47:25Z</time>
      </trkpt>
      <trkpt lat="43.37513" lon="6.1204">
        <ele>348.60000610352</ele>
        <time>2013-09-28T14:47:27Z</time>
      </trkpt>
      <trkpt lat="43.37517" lon="6.12035">
        <ele>348</ele>
        <time>2013-09-28T14:47:28Z</time>
      </trkpt>
      <trkpt lat="43.37522" lon="6.1203">
        <ele>347.20001220703</ele>
        <time>2013-09-28T14:47:29Z</time>
      </trkpt>
      <trkpt lat="43.37527" lon="6.12024">
        <ele>346.39999389648</ele>
        <time>2013-09-28T14:47:30Z</time>
      </trkpt>
      <trkpt lat="43.37533" lon="6.12018">
        <ele>345.79998779297</ele>
        <time>2013-09-28T14:47:31Z</time>
      </trkpt>
      <trkpt lat="43.37538" lon="6.12011">
        <ele>345</ele>
        <time>2013-09-28T14:47:32Z</time>
      </trkpt>
      <trkpt lat="43.3755" lon="6.11999">
        <ele>342.39999389648</ele>
        <time>2013-09-28T14:47:34Z</time>
      </trkpt>
      <trkpt lat="43.37561" lon="6.11986">
        <ele>340.60000610352</ele>
        <time>2013-09-28T14:47:36Z</time>
      </trkpt>
      <trkpt lat="43.37567" lon="6.1198">
        <ele>339.60000610352</ele>
        <time>2013-09-28T14:47:37Z</time>
      </trkpt>
      <trkpt lat="43.37585" lon="6.11966">
        <ele>337.20001220703</ele>
        <time>2013-09-28T14:47:40Z</time>
      </trkpt>
      <trkpt lat="43.37592" lon="6.1196">
        <ele>336.39999389648</ele>
        <time>2013-09-28T14:47:41Z</time>
      </trkpt>
      <trkpt lat="43.37597" lon="6.11953">
        <ele>335.79998779297</ele>
        <time>2013-09-28T14:47:42Z</time>
      </trkpt>
      <trkpt lat="43.37602" lon="6.11947">
        <ele>335</ele>
        <time>2013-09-28T14:47:43Z</time>
      </trkpt>
      <trkpt lat="43.37606" lon="6.11939">
        <ele>334.20001220703</ele>
        <time>2013-09-28T14:47:44Z</time>
      </trkpt>
      <trkpt lat="43.37611" lon="6.11932">
        <ele>333.39999389648</ele>
        <time>2013-09-28T14:47:45Z</time>
      </trkpt>
      <trkpt lat="43.37617" lon="6.11924">
        <ele>332.60000610352</ele>
        <time>2013-09-28T14:47:46Z</time>
      </trkpt>
      <trkpt lat="43.37622" lon="6.11915">
        <ele>331.79998779297</ele>
        <time>2013-09-28T14:47:47Z</time>
      </trkpt>
      <trkpt lat="43.37628" lon="6.11907">
        <ele>330.79998779297</ele>
        <time>2013-09-28T14:47:48Z</time>
      </trkpt>
      <trkpt lat="43.37634" lon="6.11899">
        <ele>329.79998779297</ele>
        <time>2013-09-28T14:47:49Z</time>
      </trkpt>
      <trkpt lat="43.37639" lon="6.1189">
        <ele>328.79998779297</ele>
        <time>2013-09-28T14:47:50Z</time>
      </trkpt>
      <trkpt lat="43.37645" lon="6.11882">
        <ele>327.79998779297</ele>
        <time>2013-09-28T14:47:51Z</time>
      </trkpt>
      <trkpt lat="43.3765" lon="6.11873">
        <ele>326.79998779297</ele>
        <time>2013-09-28T14:47:52Z</time>
      </trkpt>
      <trkpt lat="43.37655" lon="6.11865">
        <ele>325.79998779297</ele>
        <time>2013-09-28T14:47:53Z</time>
      </trkpt>
      <trkpt lat="43.37659" lon="6.1186">
        <ele>325</ele>
        <time>2013-09-28T14:47:54Z</time>
      </trkpt>
      <trkpt lat="43.37662" lon="6.11856">
        <ele>324</ele>
        <time>2013-09-28T14:47:55Z</time>
      </trkpt>
      <trkpt lat="43.3767" lon="6.11847">
        <ele>321.79998779297</ele>
        <time>2013-09-28T14:47:58Z</time>
      </trkpt>
      <trkpt lat="43.37672" lon="6.11845">
        <ele>321.39999389648</ele>
        <time>2013-09-28T14:47:59Z</time>
      </trkpt>
      <trkpt lat="43.37672" lon="6.11844">
        <ele>321</ele>
        <time>2013-09-28T14:48:00Z</time>
      </trkpt>
      <trkpt lat="43.37673" lon="6.11843">
        <ele>320.60000610352</ele>
        <time>2013-09-28T14:48:01Z</time>
      </trkpt>
      <trkpt lat="43.37673" lon="6.11843">
        <ele>320.20001220703</ele>
        <time>2013-09-28T14:48:02Z</time>
      </trkpt>
      <trkpt lat="43.37672" lon="6.11843">
        <ele>320.20001220703</ele>
        <time>2013-09-28T14:48:03Z</time>
      </trkpt>
      <trkpt lat="43.37673" lon="6.11843">
        <ele>320.20001220703</ele>
        <time>2013-09-28T14:48:10Z</time>
      </trkpt>
      <trkpt lat="43.37673" lon="6.11843">
        <ele>320.20001220703</ele>
        <time>2013-09-28T14:48:24Z</time>
      </trkpt>
      <trkpt lat="43.37673" lon="6.11841">
        <ele>320.20001220703</ele>
        <time>2013-09-28T14:48:53Z</time>
      </trkpt>
      <trkpt lat="43.37673" lon="6.11841">
        <ele>320.20001220703</ele>
        <time>2013-09-28T14:49:08Z</time>
      </trkpt>
      <trkpt lat="43.37673" lon="6.11841">
        <ele>320.20001220703</ele>
        <time>2013-09-28T14:49:21Z</time>
      </trkpt>
      <trkpt lat="43.37673" lon="6.11841">
        <ele>320.20001220703</ele>
        <time>2013-09-28T14:49:24Z</time>
      </trkpt>
      <trkpt lat="43.37673" lon="6.11841">
        <ele>320.20001220703</ele>
        <time>2013-09-28T14:49:40Z</time>
      </trkpt>
      <trkpt lat="43.37672" lon="6.11841">
        <ele>320.20001220703</ele>
        <time>2013-09-28T14:50:02Z</time>
      </trkpt>
      <trkpt lat="43.37672" lon="6.11841">
        <ele>320.20001220703</ele>
        <time>2013-09-28T14:50:26Z</time>
      </trkpt>
      <trkpt lat="43.37672" lon="6.1184">
        <ele>320.20001220703</ele>
        <time>2013-09-28T14:50:55Z</time>
      </trkpt>
      <trkpt lat="43.37673" lon="6.1184">
        <ele>320.20001220703</ele>
        <time>2013-09-28T14:51:24Z</time>
      </trkpt>
      <trkpt lat="43.37673" lon="6.1184">
        <ele>320.20001220703</ele>
        <time>2013-09-28T14:51:38Z</time>
      </trkpt>
      <trkpt lat="43.37673" lon="6.1184">
        <ele>320.20001220703</ele>
        <time>2013-09-28T14:52:02Z</time>
      </trkpt>
      <trkpt lat="43.37673" lon="6.1184">
        <ele>320.20001220703</ele>
        <time>2013-09-28T14:52:29Z</time>
      </trkpt>
      <trkpt lat="43.37673" lon="6.1184">
        <ele>320.20001220703</ele>
        <time>2013-09-28T14:52:36Z</time>
      </trkpt>
      <trkpt lat="43.37673" lon="6.11839">
        <ele>320.20001220703</ele>
        <time>2013-09-28T14:52:43Z</time>
      </trkpt>
      <trkpt lat="43.37673" lon="6.11839">
        <ele>320.20001220703</ele>
        <time>2013-09-28T14:53:04Z</time>
      </trkpt>
      <trkpt lat="43.37674" lon="6.11839">
        <ele>320.20001220703</ele>
        <time>2013-09-28T14:53:25Z</time>
      </trkpt>
      <trkpt lat="43.37674" lon="6.11839">
        <ele>320.20001220703</ele>
        <time>2013-09-28T14:53:57Z</time>
      </trkpt>
      <trkpt lat="43.37674" lon="6.11838">
        <ele>320.20001220703</ele>
        <time>2013-09-28T14:54:46Z</time>
      </trkpt>
      <trkpt lat="43.37674" lon="6.11838">
        <ele>320.20001220703</ele>
        <time>2013-09-28T14:55:06Z</time>
      </trkpt>
      <trkpt lat="43.37674" lon="6.11838">
        <ele>320.20001220703</ele>
        <time>2013-09-28T14:55:19Z</time>
      </trkpt>
      <trkpt lat="43.37674" lon="6.11838">
        <ele>320.20001220703</ele>
        <time>2013-09-28T14:55:21Z</time>
      </trkpt>
      <trkpt lat="43.37674" lon="6.11838">
        <ele>320.20001220703</ele>
        <time>2013-09-28T14:55:42Z</time>
      </trkpt>
      <trkpt lat="43.37674" lon="6.11838">
        <ele>320.20001220703</ele>
        <time>2013-09-28T14:56:08Z</time>
      </trkpt>
      <trkpt lat="43.37674" lon="6.11838">
        <ele>320.20001220703</ele>
        <time>2013-09-28T14:56:34Z</time>
      </trkpt>
      <trkpt lat="43.37674" lon="6.11838">
        <ele>320.20001220703</ele>
        <time>2013-09-28T14:57:10Z</time>
      </trkpt>
      <trkpt lat="43.37674" lon="6.11838">
        <ele>320.20001220703</ele>
        <time>2013-09-28T14:57:29Z</time>
      </trkpt>
      <trkpt lat="43.37674" lon="6.11838">
        <ele>320.20001220703</ele>
        <time>2013-09-28T14:57:36Z</time>
      </trkpt>
      <trkpt lat="43.37676" lon="6.11833">
        <ele>320.20001220703</ele>
        <time>2013-09-28T14:57:43Z</time>
      </trkpt>
      <trkpt lat="43.3768" lon="6.11822">
        <ele>320.20001220703</ele>
        <time>2013-09-28T14:57:46Z</time>
      </trkpt>
      <trkpt lat="43.37682" lon="6.11816">
        <ele>319.79998779297</ele>
        <time>2013-09-28T14:57:47Z</time>
      </trkpt>
      <trkpt lat="43.37684" lon="6.1181">
        <ele>319</ele>
        <time>2013-09-28T14:57:48Z</time>
      </trkpt>
      <trkpt lat="43.3769" lon="6.11796">
        <ele>318.20001220703</ele>
        <time>2013-09-28T14:57:50Z</time>
      </trkpt>
      <trkpt lat="43.37692" lon="6.11789">
        <ele>317.60000610352</ele>
        <time>2013-09-28T14:57:51Z</time>
      </trkpt>
      <trkpt lat="43.37695" lon="6.11783">
        <ele>317</ele>
        <time>2013-09-28T14:57:52Z</time>
      </trkpt>
      <trkpt lat="43.37699" lon="6.11776">
        <ele>316.60000610352</ele>
        <time>2013-09-28T14:57:53Z</time>
      </trkpt>
      <trkpt lat="43.37702" lon="6.11769">
        <ele>316</ele>
        <time>2013-09-28T14:57:54Z</time>
      </trkpt>
      <trkpt lat="43.37717" lon="6.11741">
        <ele>315.60000610352</ele>
        <time>2013-09-28T14:57:58Z</time>
      </trkpt>
      <trkpt lat="43.37721" lon="6.11734">
        <ele>315.20001220703</ele>
        <time>2013-09-28T14:57:59Z</time>
      </trkpt>
      <trkpt lat="43.37725" lon="6.11726">
        <ele>314.60000610352</ele>
        <time>2013-09-28T14:58:00Z</time>
      </trkpt>
      <trkpt lat="43.37732" lon="6.1171">
        <ele>313.79998779297</ele>
        <time>2013-09-28T14:58:02Z</time>
      </trkpt>
      <trkpt lat="43.37741" lon="6.11694">
        <ele>313</ele>
        <time>2013-09-28T14:58:04Z</time>
      </trkpt>
      <trkpt lat="43.37749" lon="6.11679">
        <ele>312.20001220703</ele>
        <time>2013-09-28T14:58:06Z</time>
      </trkpt>
      <trkpt lat="43.37759" lon="6.11657">
        <ele>311.79998779297</ele>
        <time>2013-09-28T14:58:09Z</time>
      </trkpt>
      <trkpt lat="43.37765" lon="6.11642">
        <ele>311.39999389648</ele>
        <time>2013-09-28T14:58:11Z</time>
      </trkpt>
      <trkpt lat="43.37785" lon="6.11613">
        <ele>309.20001220703</ele>
        <time>2013-09-28T14:58:15Z</time>
      </trkpt>
      <trkpt lat="43.37807" lon="6.11586">
        <ele>307.39999389648</ele>
        <time>2013-09-28T14:58:19Z</time>
      </trkpt>
      <trkpt lat="43.37823" lon="6.11567">
        <ele>307.39999389648</ele>
        <time>2013-09-28T14:58:22Z</time>
      </trkpt>
      <trkpt lat="43.37833" lon="6.11546">
        <ele>306.60000610352</ele>
        <time>2013-09-28T14:58:25Z</time>
      </trkpt>
      <trkpt lat="43.37839" lon="6.11529">
        <ele>305.79998779297</ele>
        <time>2013-09-28T14:58:27Z</time>
      </trkpt>
      <trkpt lat="43.37851" lon="6.11497">
        <ele>305</ele>
        <time>2013-09-28T14:58:31Z</time>
      </trkpt>
      <trkpt lat="43.37855" lon="6.1149">
        <ele>304.60000610352</ele>
        <time>2013-09-28T14:58:32Z</time>
      </trkpt>
      <trkpt lat="43.3786" lon="6.11484">
        <ele>304.20001220703</ele>
        <time>2013-09-28T14:58:33Z</time>
      </trkpt>
      <trkpt lat="43.37865" lon="6.1148">
        <ele>303.79998779297</ele>
        <time>2013-09-28T14:58:34Z</time>
      </trkpt>
      <trkpt lat="43.37872" lon="6.11478">
        <ele>303.20001220703</ele>
        <time>2013-09-28T14:58:35Z</time>
      </trkpt>
      <trkpt lat="43.37882" lon="6.11474">
        <ele>302</ele>
        <time>2013-09-28T14:58:37Z</time>
      </trkpt>
      <trkpt lat="43.37892" lon="6.11469">
        <ele>301.20001220703</ele>
        <time>2013-09-28T14:58:39Z</time>
      </trkpt>
      <trkpt lat="43.37897" lon="6.11466">
        <ele>301.20001220703</ele>
        <time>2013-09-28T14:58:40Z</time>
      </trkpt>
      <trkpt lat="43.37915" lon="6.11449">
        <ele>301.20001220703</ele>
        <time>2013-09-28T14:58:45Z</time>
      </trkpt>
      <trkpt lat="43.37926" lon="6.11436">
        <ele>301.20001220703</ele>
        <time>2013-09-28T14:58:49Z</time>
      </trkpt>
      <trkpt lat="43.37936" lon="6.11426">
        <ele>301.20001220703</ele>
        <time>2013-09-28T14:58:53Z</time>
      </trkpt>
      <trkpt lat="43.37948" lon="6.11407">
        <ele>301.20001220703</ele>
        <time>2013-09-28T14:58:58Z</time>
      </trkpt>
      <trkpt lat="43.37968" lon="6.11383">
        <ele>301.20001220703</ele>
        <time>2013-09-28T14:59:04Z</time>
      </trkpt>
      <trkpt lat="43.37985" lon="6.11363">
        <ele>301.20001220703</ele>
        <time>2013-09-28T14:59:09Z</time>
      </trkpt>
      <trkpt lat="43.37998" lon="6.11341">
        <ele>301.20001220703</ele>
        <time>2013-09-28T14:59:14Z</time>
      </trkpt>
      <trkpt lat="43.38007" lon="6.11322">
        <ele>301.20001220703</ele>
        <time>2013-09-28T14:59:18Z</time>
      </trkpt>
      <trkpt lat="43.38012" lon="6.11311">
        <ele>301.20001220703</ele>
        <time>2013-09-28T14:59:20Z</time>
      </trkpt>
      <trkpt lat="43.38018" lon="6.113">
        <ele>301.20001220703</ele>
        <time>2013-09-28T14:59:22Z</time>
      </trkpt>
      <trkpt lat="43.38026" lon="6.11282">
        <ele>301.20001220703</ele>
        <time>2013-09-28T14:59:25Z</time>
      </trkpt>
      <trkpt lat="43.38034" lon="6.11266">
        <ele>301.20001220703</ele>
        <time>2013-09-28T14:59:28Z</time>
      </trkpt>
      <trkpt lat="43.38036" lon="6.1126">
        <ele>301.20001220703</ele>
        <time>2013-09-28T14:59:29Z</time>
      </trkpt>
      <trkpt lat="43.38052" lon="6.11227">
        <ele>301.20001220703</ele>
        <time>2013-09-28T14:59:36Z</time>
      </trkpt>
      <trkpt lat="43.38064" lon="6.11209">
        <ele>301.20001220703</ele>
        <time>2013-09-28T14:59:41Z</time>
      </trkpt>
      <trkpt lat="43.38079" lon="6.1119">
        <ele>301.20001220703</ele>
        <time>2013-09-28T14:59:47Z</time>
      </trkpt>
      <trkpt lat="43.38084" lon="6.11182">
        <ele>301.20001220703</ele>
        <time>2013-09-28T14:59:49Z</time>
      </trkpt>
      <trkpt lat="43.38105" lon="6.11159">
        <ele>300.79998779297</ele>
        <time>2013-09-28T14:59:55Z</time>
      </trkpt>
      <trkpt lat="43.38116" lon="6.11147">
        <ele>299.60000610352</ele>
        <time>2013-09-28T14:59:58Z</time>
      </trkpt>
      <trkpt lat="43.38124" lon="6.1114">
        <ele>299.20001220703</ele>
        <time>2013-09-28T15:00:00Z</time>
      </trkpt>
      <trkpt lat="43.38134" lon="6.11128">
        <ele>297.79998779297</ele>
        <time>2013-09-28T15:00:03Z</time>
      </trkpt>
      <trkpt lat="43.38148" lon="6.11111">
        <ele>297</ele>
        <time>2013-09-28T15:00:07Z</time>
      </trkpt>
      <trkpt lat="43.38153" lon="6.111">
        <ele>297</ele>
        <time>2013-09-28T15:00:09Z</time>
      </trkpt>
      <trkpt lat="43.38167" lon="6.1106">
        <ele>295.39999389648</ele>
        <time>2013-09-28T15:00:16Z</time>
      </trkpt>
      <trkpt lat="43.38168" lon="6.11054">
        <ele>295</ele>
        <time>2013-09-28T15:00:17Z</time>
      </trkpt>
      <trkpt lat="43.38181" lon="6.10987">
        <ele>294.20001220703</ele>
        <time>2013-09-28T15:00:27Z</time>
      </trkpt>
      <trkpt lat="43.38183" lon="6.10974">
        <ele>293.20001220703</ele>
        <time>2013-09-28T15:00:29Z</time>
      </trkpt>
      <trkpt lat="43.38186" lon="6.10962">
        <ele>292.79998779297</ele>
        <time>2013-09-28T15:00:31Z</time>
      </trkpt>
      <trkpt lat="43.38194" lon="6.10923">
        <ele>292.39999389648</ele>
        <time>2013-09-28T15:00:37Z</time>
      </trkpt>
      <trkpt lat="43.38195" lon="6.10918">
        <ele>292</ele>
        <time>2013-09-28T15:00:38Z</time>
      </trkpt>
      <trkpt lat="43.382" lon="6.10869">
        <ele>290.79998779297</ele>
        <time>2013-09-28T15:00:46Z</time>
      </trkpt>
      <trkpt lat="43.38202" lon="6.10851">
        <ele>290.79998779297</ele>
        <time>2013-09-28T15:00:49Z</time>
      </trkpt>
      <trkpt lat="43.38213" lon="6.108">
        <ele>290.79998779297</ele>
        <time>2013-09-28T15:00:58Z</time>
      </trkpt>
      <trkpt lat="43.38221" lon="6.10777">
        <ele>289.20001220703</ele>
        <time>2013-09-28T15:01:02Z</time>
      </trkpt>
      <trkpt lat="43.38226" lon="6.10762">
        <ele>288.79998779297</ele>
        <time>2013-09-28T15:01:05Z</time>
      </trkpt>
      <trkpt lat="43.38238" lon="6.10723">
        <ele>288.79998779297</ele>
        <time>2013-09-28T15:01:13Z</time>
      </trkpt>
      <trkpt lat="43.38257" lon="6.10682">
        <ele>288.79998779297</ele>
        <time>2013-09-28T15:01:22Z</time>
      </trkpt>
      <trkpt lat="43.3828" lon="6.10634">
        <ele>286.60000610352</ele>
        <time>2013-09-28T15:01:32Z</time>
      </trkpt>
      <trkpt lat="43.38295" lon="6.10604">
        <ele>286.60000610352</ele>
        <time>2013-09-28T15:01:38Z</time>
      </trkpt>
      <trkpt lat="43.383" lon="6.10593">
        <ele>285.79998779297</ele>
        <time>2013-09-28T15:01:40Z</time>
      </trkpt>
      <trkpt lat="43.38311" lon="6.10563">
        <ele>284.60000610352</ele>
        <time>2013-09-28T15:01:46Z</time>
      </trkpt>
      <trkpt lat="43.38327" lon="6.10522">
        <ele>284.60000610352</ele>
        <time>2013-09-28T15:01:54Z</time>
      </trkpt>
      <trkpt lat="43.38335" lon="6.105">
        <ele>284.60000610352</ele>
        <time>2013-09-28T15:01:58Z</time>
      </trkpt>
      <trkpt lat="43.38338" lon="6.10495">
        <ele>284.20001220703</ele>
        <time>2013-09-28T15:01:59Z</time>
      </trkpt>
      <trkpt lat="43.38341" lon="6.1049">
        <ele>283.79998779297</ele>
        <time>2013-09-28T15:02:00Z</time>
      </trkpt>
      <trkpt lat="43.38348" lon="6.10485">
        <ele>283</ele>
        <time>2013-09-28T15:02:02Z</time>
      </trkpt>
      <trkpt lat="43.38353" lon="6.10484">
        <ele>282.60000610352</ele>
        <time>2013-09-28T15:02:03Z</time>
      </trkpt>
      <trkpt lat="43.38364" lon="6.10482">
        <ele>282.60000610352</ele>
        <time>2013-09-28T15:02:06Z</time>
      </trkpt>
      <trkpt lat="43.38402" lon="6.10478">
        <ele>282.60000610352</ele>
        <time>2013-09-28T15:02:17Z</time>
      </trkpt>
      <trkpt lat="43.38419" lon="6.10476">
        <ele>282.60000610352</ele>
        <time>2013-09-28T15:02:23Z</time>
      </trkpt>
      <trkpt lat="43.38436" lon="6.1047">
        <ele>282.60000610352</ele>
        <time>2013-09-28T15:02:30Z</time>
      </trkpt>
      <trkpt lat="43.38441" lon="6.10465">
        <ele>283.39999389648</ele>
        <time>2013-09-28T15:02:33Z</time>
      </trkpt>
      <trkpt lat="43.38456" lon="6.10454">
        <ele>284.60000610352</ele>
        <time>2013-09-28T15:02:42Z</time>
      </trkpt>
      <trkpt lat="43.38462" lon="6.10449">
        <ele>286</ele>
        <time>2013-09-28T15:02:46Z</time>
      </trkpt>
      <trkpt lat="43.38467" lon="6.10444">
        <ele>286.79998779297</ele>
        <time>2013-09-28T15:02:50Z</time>
      </trkpt>
      <trkpt lat="43.38473" lon="6.10439">
        <ele>287.79998779297</ele>
        <time>2013-09-28T15:02:54Z</time>
      </trkpt>
      <trkpt lat="43.38477" lon="6.10435">
        <ele>289</ele>
        <time>2013-09-28T15:02:57Z</time>
      </trkpt>
      <trkpt lat="43.38482" lon="6.10429">
        <ele>290</ele>
        <time>2013-09-28T15:03:01Z</time>
      </trkpt>
      <trkpt lat="43.38485" lon="6.10423">
        <ele>291.20001220703</ele>
        <time>2013-09-28T15:03:04Z</time>
      </trkpt>
      <trkpt lat="43.3849" lon="6.10416">
        <ele>291.60000610352</ele>
        <time>2013-09-28T15:03:08Z</time>
      </trkpt>
      <trkpt lat="43.38493" lon="6.10413">
        <ele>292.39999389648</ele>
        <time>2013-09-28T15:03:10Z</time>
      </trkpt>
      <trkpt lat="43.385" lon="6.104">
        <ele>293.60000610352</ele>
        <time>2013-09-28T15:03:18Z</time>
      </trkpt>
      <trkpt lat="43.38502" lon="6.10396">
        <ele>294.39999389648</ele>
        <time>2013-09-28T15:03:20Z</time>
      </trkpt>
      <trkpt lat="43.38504" lon="6.10393">
        <ele>295.20001220703</ele>
        <time>2013-09-28T15:03:22Z</time>
      </trkpt>
      <trkpt lat="43.38517" lon="6.10379">
        <ele>296.20001220703</ele>
        <time>2013-09-28T15:03:33Z</time>
      </trkpt>
      <trkpt lat="43.3852" lon="6.10376">
        <ele>297</ele>
        <time>2013-09-28T15:03:35Z</time>
      </trkpt>
      <trkpt lat="43.38521" lon="6.10375">
        <ele>297.39999389648</ele>
        <time>2013-09-28T15:03:36Z</time>
      </trkpt>
      <trkpt lat="43.38529" lon="6.10367">
        <ele>297.39999389648</ele>
        <time>2013-09-28T15:03:42Z</time>
      </trkpt>
      <trkpt lat="43.3853" lon="6.10367">
        <ele>297.39999389648</ele>
        <time>2013-09-28T15:03:47Z</time>
      </trkpt>
      <trkpt lat="43.3853" lon="6.10367">
        <ele>297.39999389648</ele>
        <time>2013-09-28T15:04:01Z</time>
      </trkpt>
      <trkpt lat="43.3853" lon="6.10367">
        <ele>299.39999389648</ele>
        <time>2013-09-28T15:04:20Z</time>
      </trkpt>
      <trkpt lat="43.3853" lon="6.10366">
        <ele>299.39999389648</ele>
        <time>2013-09-28T15:04:24Z</time>
      </trkpt>
      <trkpt lat="43.3853" lon="6.10366">
        <ele>299.39999389648</ele>
        <time>2013-09-28T15:04:29Z</time>
      </trkpt>
      <trkpt lat="43.3853" lon="6.10366">
        <ele>299.39999389648</ele>
        <time>2013-09-28T15:04:34Z</time>
      </trkpt>
      <trkpt lat="43.38531" lon="6.10365">
        <ele>299.39999389648</ele>
        <time>2013-09-28T15:04:36Z</time>
      </trkpt>
      <trkpt lat="43.38534" lon="6.10364">
        <ele>299.39999389648</ele>
        <time>2013-09-28T15:04:42Z</time>
      </trkpt>
      <trkpt lat="43.38539" lon="6.1036">
        <ele>299.39999389648</ele>
        <time>2013-09-28T15:04:50Z</time>
      </trkpt>
      <trkpt lat="43.38544" lon="6.10356">
        <ele>299.39999389648</ele>
        <time>2013-09-28T15:04:53Z</time>
      </trkpt>
      <trkpt lat="43.38549" lon="6.10352">
        <ele>299.39999389648</ele>
        <time>2013-09-28T15:04:56Z</time>
      </trkpt>
      <trkpt lat="43.38556" lon="6.10348">
        <ele>299.39999389648</ele>
        <time>2013-09-28T15:05:00Z</time>
      </trkpt>
      <trkpt lat="43.38562" lon="6.10344">
        <ele>300.20001220703</ele>
        <time>2013-09-28T15:05:03Z</time>
      </trkpt>
      <trkpt lat="43.38574" lon="6.10334">
        <ele>301.60000610352</ele>
        <time>2013-09-28T15:05:09Z</time>
      </trkpt>
      <trkpt lat="43.38586" lon="6.10325">
        <ele>301.60000610352</ele>
        <time>2013-09-28T15:05:15Z</time>
      </trkpt>
      <trkpt lat="43.38605" lon="6.10318">
        <ele>301.60000610352</ele>
        <time>2013-09-28T15:05:22Z</time>
      </trkpt>
      <trkpt lat="43.38621" lon="6.10317">
        <ele>301.60000610352</ele>
        <time>2013-09-28T15:05:27Z</time>
      </trkpt>
      <trkpt lat="43.38636" lon="6.10315">
        <ele>301.60000610352</ele>
        <time>2013-09-28T15:05:32Z</time>
      </trkpt>
      <trkpt lat="43.38649" lon="6.10315">
        <ele>301.60000610352</ele>
        <time>2013-09-28T15:05:37Z</time>
      </trkpt>
      <trkpt lat="43.38658" lon="6.1031">
        <ele>302</ele>
        <time>2013-09-28T15:05:41Z</time>
      </trkpt>
      <trkpt lat="43.38666" lon="6.10305">
        <ele>303.20001220703</ele>
        <time>2013-09-28T15:05:44Z</time>
      </trkpt>
      <trkpt lat="43.38673" lon="6.10296">
        <ele>303.60000610352</ele>
        <time>2013-09-28T15:05:47Z</time>
      </trkpt>
      <trkpt lat="43.3868" lon="6.10274">
        <ele>303.60000610352</ele>
        <time>2013-09-28T15:05:53Z</time>
      </trkpt>
      <trkpt lat="43.38683" lon="6.10249">
        <ele>303.60000610352</ele>
        <time>2013-09-28T15:06:00Z</time>
      </trkpt>
      <trkpt lat="43.38684" lon="6.10227">
        <ele>303.60000610352</ele>
        <time>2013-09-28T15:06:06Z</time>
      </trkpt>
      <trkpt lat="43.38692" lon="6.10217">
        <ele>303.60000610352</ele>
        <time>2013-09-28T15:06:10Z</time>
      </trkpt>
      <trkpt lat="43.38702" lon="6.10213">
        <ele>304</ele>
        <time>2013-09-28T15:06:14Z</time>
      </trkpt>
      <trkpt lat="43.38721" lon="6.10205">
        <ele>305.60000610352</ele>
        <time>2013-09-28T15:06:21Z</time>
      </trkpt>
      <trkpt lat="43.38731" lon="6.10201">
        <ele>305.60000610352</ele>
        <time>2013-09-28T15:06:25Z</time>
      </trkpt>
      <trkpt lat="43.3874" lon="6.10198">
        <ele>306.79998779297</ele>
        <time>2013-09-28T15:06:28Z</time>
      </trkpt>
      <trkpt lat="43.38755" lon="6.10191">
        <ele>307.60000610352</ele>
        <time>2013-09-28T15:06:33Z</time>
      </trkpt>
      <trkpt lat="43.38773" lon="6.10184">
        <ele>307.60000610352</ele>
        <time>2013-09-28T15:06:39Z</time>
      </trkpt>
      <trkpt lat="43.388" lon="6.10175">
        <ele>309.60000610352</ele>
        <time>2013-09-28T15:06:48Z</time>
      </trkpt>
      <trkpt lat="43.38811" lon="6.1017">
        <ele>310</ele>
        <time>2013-09-28T15:06:52Z</time>
      </trkpt>
      <trkpt lat="43.38814" lon="6.10169">
        <ele>310.39999389648</ele>
        <time>2013-09-28T15:06:53Z</time>
      </trkpt>
      <trkpt lat="43.38816" lon="6.10168">
        <ele>310.79998779297</ele>
        <time>2013-09-28T15:06:54Z</time>
      </trkpt>
      <trkpt lat="43.38819" lon="6.10168">
        <ele>311.39999389648</ele>
        <time>2013-09-28T15:06:55Z</time>
      </trkpt>
      <trkpt lat="43.38822" lon="6.1017">
        <ele>311.79998779297</ele>
        <time>2013-09-28T15:06:56Z</time>
      </trkpt>
      <trkpt lat="43.38825" lon="6.10178">
        <ele>311.79998779297</ele>
        <time>2013-09-28T15:06:58Z</time>
      </trkpt>
      <trkpt lat="43.38828" lon="6.10202">
        <ele>311.79998779297</ele>
        <time>2013-09-28T15:07:03Z</time>
      </trkpt>
      <trkpt lat="43.38829" lon="6.10214">
        <ele>311.79998779297</ele>
        <time>2013-09-28T15:07:05Z</time>
      </trkpt>
      <trkpt lat="43.38832" lon="6.10245">
        <ele>311.79998779297</ele>
        <time>2013-09-28T15:07:10Z</time>
      </trkpt>
      <trkpt lat="43.38835" lon="6.10273">
        <ele>311.39999389648</ele>
        <time>2013-09-28T15:07:14Z</time>
      </trkpt>
      <trkpt lat="43.38837" lon="6.10296">
        <ele>310</ele>
        <time>2013-09-28T15:07:17Z</time>
      </trkpt>
      <trkpt lat="43.38839" lon="6.10336">
        <ele>308.39999389648</ele>
        <time>2013-09-28T15:07:22Z</time>
      </trkpt>
      <trkpt lat="43.38841" lon="6.10353">
        <ele>307.60000610352</ele>
        <time>2013-09-28T15:07:24Z</time>
      </trkpt>
      <trkpt lat="43.38843" lon="6.10371">
        <ele>307.20001220703</ele>
        <time>2013-09-28T15:07:26Z</time>
      </trkpt>
      <trkpt lat="43.38844" lon="6.10381">
        <ele>306.79998779297</ele>
        <time>2013-09-28T15:07:27Z</time>
      </trkpt>
      <trkpt lat="43.38845" lon="6.10391">
        <ele>306.39999389648</ele>
        <time>2013-09-28T15:07:28Z</time>
      </trkpt>
      <trkpt lat="43.38845" lon="6.10401">
        <ele>306</ele>
        <time>2013-09-28T15:07:29Z</time>
      </trkpt>
      <trkpt lat="43.38846" lon="6.10412">
        <ele>305.60000610352</ele>
        <time>2013-09-28T15:07:30Z</time>
      </trkpt>
      <trkpt lat="43.38845" lon="6.10432">
        <ele>305</ele>
        <time>2013-09-28T15:07:32Z</time>
      </trkpt>
      <trkpt lat="43.38844" lon="6.10442">
        <ele>304.39999389648</ele>
        <time>2013-09-28T15:07:33Z</time>
      </trkpt>
      <trkpt lat="43.3884" lon="6.10463">
        <ele>303.20001220703</ele>
        <time>2013-09-28T15:07:35Z</time>
      </trkpt>
      <trkpt lat="43.38838" lon="6.10472">
        <ele>302.79998779297</ele>
        <time>2013-09-28T15:07:36Z</time>
      </trkpt>
      <trkpt lat="43.38835" lon="6.10491">
        <ele>302.20001220703</ele>
        <time>2013-09-28T15:07:38Z</time>
      </trkpt>
      <trkpt lat="43.38832" lon="6.10509">
        <ele>300.60000610352</ele>
        <time>2013-09-28T15:07:40Z</time>
      </trkpt>
      <trkpt lat="43.3883" lon="6.10527">
        <ele>300.20001220703</ele>
        <time>2013-09-28T15:07:42Z</time>
      </trkpt>
      <trkpt lat="43.38819" lon="6.10577">
        <ele>300.20001220703</ele>
        <time>2013-09-28T15:07:48Z</time>
      </trkpt>
      <trkpt lat="43.38806" lon="6.10625">
        <ele>299</ele>
        <time>2013-09-28T15:07:55Z</time>
      </trkpt>
      <trkpt lat="43.38802" lon="6.10638">
        <ele>298</ele>
        <time>2013-09-28T15:07:57Z</time>
      </trkpt>
      <trkpt lat="43.38798" lon="6.10652">
        <ele>298</ele>
        <time>2013-09-28T15:07:59Z</time>
      </trkpt>
      <trkpt lat="43.38794" lon="6.10665">
        <ele>298</ele>
        <time>2013-09-28T15:08:01Z</time>
      </trkpt>
      <trkpt lat="43.38781" lon="6.10712">
        <ele>298</ele>
        <time>2013-09-28T15:08:08Z</time>
      </trkpt>
      <trkpt lat="43.38774" lon="6.10745">
        <ele>298</ele>
        <time>2013-09-28T15:08:13Z</time>
      </trkpt>
      <trkpt lat="43.38775" lon="6.10751">
        <ele>298</ele>
        <time>2013-09-28T15:08:14Z</time>
      </trkpt>
      <trkpt lat="43.38782" lon="6.10759">
        <ele>297.60000610352</ele>
        <time>2013-09-28T15:08:16Z</time>
      </trkpt>
      <trkpt lat="43.38787" lon="6.1076">
        <ele>297.20001220703</ele>
        <time>2013-09-28T15:08:17Z</time>
      </trkpt>
      <trkpt lat="43.38817" lon="6.10757">
        <ele>295</ele>
        <time>2013-09-28T15:08:22Z</time>
      </trkpt>
      <trkpt lat="43.38829" lon="6.10757">
        <ele>294</ele>
        <time>2013-09-28T15:08:24Z</time>
      </trkpt>
      <trkpt lat="43.38834" lon="6.10757">
        <ele>293.60000610352</ele>
        <time>2013-09-28T15:08:25Z</time>
      </trkpt>
      <trkpt lat="43.38875" lon="6.10757">
        <ele>293.60000610352</ele>
        <time>2013-09-28T15:08:33Z</time>
      </trkpt>
      <trkpt lat="43.38879" lon="6.10758">
        <ele>293.20001220703</ele>
        <time>2013-09-28T15:08:34Z</time>
      </trkpt>
      <trkpt lat="43.38893" lon="6.10762">
        <ele>292</ele>
        <time>2013-09-28T15:08:37Z</time>
      </trkpt>
      <trkpt lat="43.38898" lon="6.10763">
        <ele>291.60000610352</ele>
        <time>2013-09-28T15:08:38Z</time>
      </trkpt>
      <trkpt lat="43.38907" lon="6.10768">
        <ele>291.60000610352</ele>
        <time>2013-09-28T15:08:40Z</time>
      </trkpt>
      <trkpt lat="43.38917" lon="6.10785">
        <ele>291.60000610352</ele>
        <time>2013-09-28T15:08:43Z</time>
      </trkpt>
      <trkpt lat="43.38924" lon="6.1081">
        <ele>291.60000610352</ele>
        <time>2013-09-28T15:08:47Z</time>
      </trkpt>
      <trkpt lat="43.38939" lon="6.10827">
        <ele>291.60000610352</ele>
        <time>2013-09-28T15:08:51Z</time>
      </trkpt>
      <trkpt lat="43.38951" lon="6.10834">
        <ele>291.60000610352</ele>
        <time>2013-09-28T15:08:54Z</time>
      </trkpt>
      <trkpt lat="43.38961" lon="6.10837">
        <ele>291.60000610352</ele>
        <time>2013-09-28T15:08:56Z</time>
      </trkpt>
      <trkpt lat="43.38984" lon="6.10846">
        <ele>291.60000610352</ele>
        <time>2013-09-28T15:09:02Z</time>
      </trkpt>
      <trkpt lat="43.38993" lon="6.10847">
        <ele>291.60000610352</ele>
        <time>2013-09-28T15:09:04Z</time>
      </trkpt>
      <trkpt lat="43.39002" lon="6.10843">
        <ele>291.60000610352</ele>
        <time>2013-09-28T15:09:06Z</time>
      </trkpt>
      <trkpt lat="43.39021" lon="6.10836">
        <ele>291.20001220703</ele>
        <time>2013-09-28T15:09:10Z</time>
      </trkpt>
      <trkpt lat="43.39025" lon="6.10835">
        <ele>290.79998779297</ele>
        <time>2013-09-28T15:09:11Z</time>
      </trkpt>
      <trkpt lat="43.39036" lon="6.10832">
        <ele>289.79998779297</ele>
        <time>2013-09-28T15:09:13Z</time>
      </trkpt>
      <trkpt lat="43.39066" lon="6.10823">
        <ele>289.39999389648</ele>
        <time>2013-09-28T15:09:19Z</time>
      </trkpt>
      <trkpt lat="43.39077" lon="6.10813">
        <ele>289.39999389648</ele>
        <time>2013-09-28T15:09:22Z</time>
      </trkpt>
      <trkpt lat="43.39101" lon="6.10787">
        <ele>289.39999389648</ele>
        <time>2013-09-28T15:09:28Z</time>
      </trkpt>
      <trkpt lat="43.39133" lon="6.10766">
        <ele>289</ele>
        <time>2013-09-28T15:09:34Z</time>
      </trkpt>
      <trkpt lat="43.39144" lon="6.1076">
        <ele>288.20001220703</ele>
        <time>2013-09-28T15:09:36Z</time>
      </trkpt>
      <trkpt lat="43.39149" lon="6.10755">
        <ele>287.79998779297</ele>
        <time>2013-09-28T15:09:37Z</time>
      </trkpt>
      <trkpt lat="43.39161" lon="6.10743">
        <ele>287.39999389648</ele>
        <time>2013-09-28T15:09:39Z</time>
      </trkpt>
      <trkpt lat="43.39173" lon="6.10721">
        <ele>287.39999389648</ele>
        <time>2013-09-28T15:09:42Z</time>
      </trkpt>
      <trkpt lat="43.39176" lon="6.10713">
        <ele>287</ele>
        <time>2013-09-28T15:09:43Z</time>
      </trkpt>
      <trkpt lat="43.39178" lon="6.10705">
        <ele>286.60000610352</ele>
        <time>2013-09-28T15:09:44Z</time>
      </trkpt>
      <trkpt lat="43.39183" lon="6.10688">
        <ele>285.79998779297</ele>
        <time>2013-09-28T15:09:46Z</time>
      </trkpt>
      <trkpt lat="43.39186" lon="6.1068">
        <ele>285.39999389648</ele>
        <time>2013-09-28T15:09:47Z</time>
      </trkpt>
      <trkpt lat="43.39192" lon="6.10667">
        <ele>285.39999389648</ele>
        <time>2013-09-28T15:09:49Z</time>
      </trkpt>
      <trkpt lat="43.392" lon="6.10656">
        <ele>285.39999389648</ele>
        <time>2013-09-28T15:09:51Z</time>
      </trkpt>
      <trkpt lat="43.39215" lon="6.10636">
        <ele>285.39999389648</ele>
        <time>2013-09-28T15:09:55Z</time>
      </trkpt>
      <trkpt lat="43.39227" lon="6.10622">
        <ele>285.39999389648</ele>
        <time>2013-09-28T15:09:58Z</time>
      </trkpt>
      <trkpt lat="43.39245" lon="6.10602">
        <ele>285.39999389648</ele>
        <time>2013-09-28T15:10:04Z</time>
      </trkpt>
      <trkpt lat="43.39252" lon="6.10597">
        <ele>285.39999389648</ele>
        <time>2013-09-28T15:10:06Z</time>
      </trkpt>
      <trkpt lat="43.39259" lon="6.10588">
        <ele>285.39999389648</ele>
        <time>2013-09-28T15:10:08Z</time>
      </trkpt>
      <trkpt lat="43.39267" lon="6.10573">
        <ele>285.39999389648</ele>
        <time>2013-09-28T15:10:11Z</time>
      </trkpt>
      <trkpt lat="43.39269" lon="6.10567">
        <ele>285.39999389648</ele>
        <time>2013-09-28T15:10:12Z</time>
      </trkpt>
      <trkpt lat="43.39273" lon="6.10554">
        <ele>285.39999389648</ele>
        <time>2013-09-28T15:10:14Z</time>
      </trkpt>
      <trkpt lat="43.39291" lon="6.10506">
        <ele>285.39999389648</ele>
        <time>2013-09-28T15:10:22Z</time>
      </trkpt>
      <trkpt lat="43.39296" lon="6.10492">
        <ele>285.39999389648</ele>
        <time>2013-09-28T15:10:24Z</time>
      </trkpt>
      <trkpt lat="43.39299" lon="6.10485">
        <ele>285.39999389648</ele>
        <time>2013-09-28T15:10:25Z</time>
      </trkpt>
      <trkpt lat="43.39306" lon="6.10472">
        <ele>285</ele>
        <time>2013-09-28T15:10:27Z</time>
      </trkpt>
      <trkpt lat="43.3931" lon="6.10464">
        <ele>284.39999389648</ele>
        <time>2013-09-28T15:10:28Z</time>
      </trkpt>
      <trkpt lat="43.39313" lon="6.10457">
        <ele>284</ele>
        <time>2013-09-28T15:10:29Z</time>
      </trkpt>
      <trkpt lat="43.39316" lon="6.10449">
        <ele>283.60000610352</ele>
        <time>2013-09-28T15:10:30Z</time>
      </trkpt>
      <trkpt lat="43.3932" lon="6.10442">
        <ele>283.20001220703</ele>
        <time>2013-09-28T15:10:31Z</time>
      </trkpt>
      <trkpt lat="43.39334" lon="6.10424">
        <ele>283.20001220703</ele>
        <time>2013-09-28T15:10:34Z</time>
      </trkpt>
      <trkpt lat="43.39339" lon="6.1042">
        <ele>282.79998779297</ele>
        <time>2013-09-28T15:10:35Z</time>
      </trkpt>
      <trkpt lat="43.39344" lon="6.10418">
        <ele>282.39999389648</ele>
        <time>2013-09-28T15:10:36Z</time>
      </trkpt>
      <trkpt lat="43.39354" lon="6.10421">
        <ele>281.39999389648</ele>
        <time>2013-09-28T15:10:38Z</time>
      </trkpt>
      <trkpt lat="43.39359" lon="6.1042">
        <ele>281</ele>
        <time>2013-09-28T15:10:39Z</time>
      </trkpt>
      <trkpt lat="43.39368" lon="6.10406">
        <ele>281</ele>
        <time>2013-09-28T15:10:42Z</time>
      </trkpt>
      <trkpt lat="43.39372" lon="6.10388">
        <ele>280.60000610352</ele>
        <time>2013-09-28T15:10:45Z</time>
      </trkpt>
      <trkpt lat="43.39374" lon="6.10382">
        <ele>280.20001220703</ele>
        <time>2013-09-28T15:10:46Z</time>
      </trkpt>
      <trkpt lat="43.39378" lon="6.10376">
        <ele>279.79998779297</ele>
        <time>2013-09-28T15:10:47Z</time>
      </trkpt>
      <trkpt lat="43.39397" lon="6.10342">
        <ele>278.79998779297</ele>
        <time>2013-09-28T15:10:53Z</time>
      </trkpt>
      <trkpt lat="43.39401" lon="6.10336">
        <ele>278.79998779297</ele>
        <time>2013-09-28T15:10:54Z</time>
      </trkpt>
      <trkpt lat="43.39405" lon="6.10331">
        <ele>278.79998779297</ele>
        <time>2013-09-28T15:10:55Z</time>
      </trkpt>
      <trkpt lat="43.39423" lon="6.10307">
        <ele>278.79998779297</ele>
        <time>2013-09-28T15:11:00Z</time>
      </trkpt>
      <trkpt lat="43.39455" lon="6.10279">
        <ele>278.39999389648</ele>
        <time>2013-09-28T15:11:07Z</time>
      </trkpt>
      <trkpt lat="43.39459" lon="6.10274">
        <ele>278</ele>
        <time>2013-09-28T15:11:08Z</time>
      </trkpt>
      <trkpt lat="43.39478" lon="6.10254">
        <ele>276.79998779297</ele>
        <time>2013-09-28T15:11:12Z</time>
      </trkpt>
      <trkpt lat="43.3949" lon="6.10236">
        <ele>276.20001220703</ele>
        <time>2013-09-28T15:11:15Z</time>
      </trkpt>
      <trkpt lat="43.39493" lon="6.10228">
        <ele>275.79998779297</ele>
        <time>2013-09-28T15:11:16Z</time>
      </trkpt>
      <trkpt lat="43.39495" lon="6.10221">
        <ele>275.39999389648</ele>
        <time>2013-09-28T15:11:17Z</time>
      </trkpt>
      <trkpt lat="43.39508" lon="6.10175">
        <ele>274.39999389648</ele>
        <time>2013-09-28T15:11:23Z</time>
      </trkpt>
      <trkpt lat="43.39515" lon="6.10151">
        <ele>273.60000610352</ele>
        <time>2013-09-28T15:11:26Z</time>
      </trkpt>
      <trkpt lat="43.39518" lon="6.10134">
        <ele>272.79998779297</ele>
        <time>2013-09-28T15:11:28Z</time>
      </trkpt>
      <trkpt lat="43.39521" lon="6.10126">
        <ele>272.20001220703</ele>
        <time>2013-09-28T15:11:29Z</time>
      </trkpt>
      <trkpt lat="43.39524" lon="6.10119">
        <ele>272.20001220703</ele>
        <time>2013-09-28T15:11:30Z</time>
      </trkpt>
      <trkpt lat="43.39529" lon="6.10104">
        <ele>271.79998779297</ele>
        <time>2013-09-28T15:11:32Z</time>
      </trkpt>
      <trkpt lat="43.39537" lon="6.10091">
        <ele>271</ele>
        <time>2013-09-28T15:11:34Z</time>
      </trkpt>
      <trkpt lat="43.39542" lon="6.10078">
        <ele>270.20001220703</ele>
        <time>2013-09-28T15:11:36Z</time>
      </trkpt>
      <trkpt lat="43.39547" lon="6.10063">
        <ele>270.20001220703</ele>
        <time>2013-09-28T15:11:38Z</time>
      </trkpt>
      <trkpt lat="43.39554" lon="6.10034">
        <ele>270.20001220703</ele>
        <time>2013-09-28T15:11:43Z</time>
      </trkpt>
      <trkpt lat="43.39555" lon="6.1002">
        <ele>270.20001220703</ele>
        <time>2013-09-28T15:11:45Z</time>
      </trkpt>
      <trkpt lat="43.39552" lon="6.10002">
        <ele>270.20001220703</ele>
        <time>2013-09-28T15:11:48Z</time>
      </trkpt>
      <trkpt lat="43.39552" lon="6.09996">
        <ele>270.20001220703</ele>
        <time>2013-09-28T15:11:49Z</time>
      </trkpt>
      <trkpt lat="43.39554" lon="6.0997">
        <ele>270.20001220703</ele>
        <time>2013-09-28T15:11:54Z</time>
      </trkpt>
      <trkpt lat="43.39553" lon="6.09956">
        <ele>270.20001220703</ele>
        <time>2013-09-28T15:11:57Z</time>
      </trkpt>
      <trkpt lat="43.39555" lon="6.09949">
        <ele>270.20001220703</ele>
        <time>2013-09-28T15:11:59Z</time>
      </trkpt>
      <trkpt lat="43.39554" lon="6.09944">
        <ele>270.20001220703</ele>
        <time>2013-09-28T15:12:01Z</time>
      </trkpt>
      <trkpt lat="43.39552" lon="6.09938">
        <ele>270.20001220703</ele>
        <time>2013-09-28T15:12:03Z</time>
      </trkpt>
      <trkpt lat="43.39551" lon="6.09936">
        <ele>270.20001220703</ele>
        <time>2013-09-28T15:12:04Z</time>
      </trkpt>
      <trkpt lat="43.3955" lon="6.09933">
        <ele>270.20001220703</ele>
        <time>2013-09-28T15:12:05Z</time>
      </trkpt>
      <trkpt lat="43.39545" lon="6.09921">
        <ele>270.20001220703</ele>
        <time>2013-09-28T15:12:09Z</time>
      </trkpt>
      <trkpt lat="43.39544" lon="6.09912">
        <ele>270.60000610352</ele>
        <time>2013-09-28T15:12:12Z</time>
      </trkpt>
      <trkpt lat="43.39545" lon="6.09906">
        <ele>271.60000610352</ele>
        <time>2013-09-28T15:12:14Z</time>
      </trkpt>
      <trkpt lat="43.39547" lon="6.099">
        <ele>272.39999389648</ele>
        <time>2013-09-28T15:12:16Z</time>
      </trkpt>
      <trkpt lat="43.39552" lon="6.09888">
        <ele>272.39999389648</ele>
        <time>2013-09-28T15:12:20Z</time>
      </trkpt>
      <trkpt lat="43.39557" lon="6.09862">
        <ele>272.39999389648</ele>
        <time>2013-09-28T15:12:26Z</time>
      </trkpt>
      <trkpt lat="43.3956" lon="6.09835">
        <ele>272.39999389648</ele>
        <time>2013-09-28T15:12:31Z</time>
      </trkpt>
      <trkpt lat="43.39562" lon="6.09824">
        <ele>272.39999389648</ele>
        <time>2013-09-28T15:12:33Z</time>
      </trkpt>
      <trkpt lat="43.39565" lon="6.09807">
        <ele>272.39999389648</ele>
        <time>2013-09-28T15:12:36Z</time>
      </trkpt>
      <trkpt lat="43.39568" lon="6.0979">
        <ele>272.39999389648</ele>
        <time>2013-09-28T15:12:39Z</time>
      </trkpt>
      <trkpt lat="43.39581" lon="6.09751">
        <ele>272.39999389648</ele>
        <time>2013-09-28T15:12:46Z</time>
      </trkpt>
      <trkpt lat="43.39591" lon="6.0971">
        <ele>272.39999389648</ele>
        <time>2013-09-28T15:12:53Z</time>
      </trkpt>
      <trkpt lat="43.39594" lon="6.09697">
        <ele>272.39999389648</ele>
        <time>2013-09-28T15:12:55Z</time>
      </trkpt>
      <trkpt lat="43.39599" lon="6.09666">
        <ele>272.39999389648</ele>
        <time>2013-09-28T15:13:00Z</time>
      </trkpt>
      <trkpt lat="43.39609" lon="6.09621">
        <ele>272.39999389648</ele>
        <time>2013-09-28T15:13:08Z</time>
      </trkpt>
      <trkpt lat="43.39617" lon="6.09588">
        <ele>272.39999389648</ele>
        <time>2013-09-28T15:13:14Z</time>
      </trkpt>
      <trkpt lat="43.39626" lon="6.09561">
        <ele>272.39999389648</ele>
        <time>2013-09-28T15:13:19Z</time>
      </trkpt>
      <trkpt lat="43.39632" lon="6.09548">
        <ele>272.39999389648</ele>
        <time>2013-09-28T15:13:21Z</time>
      </trkpt>
      <trkpt lat="43.39647" lon="6.09528">
        <ele>271</ele>
        <time>2013-09-28T15:13:25Z</time>
      </trkpt>
      <trkpt lat="43.39651" lon="6.09523">
        <ele>270.39999389648</ele>
        <time>2013-09-28T15:13:26Z</time>
      </trkpt>
      <trkpt lat="43.39655" lon="6.09516">
        <ele>270</ele>
        <time>2013-09-28T15:13:27Z</time>
      </trkpt>
      <trkpt lat="43.39663" lon="6.09501">
        <ele>269</ele>
        <time>2013-09-28T15:13:29Z</time>
      </trkpt>
      <trkpt lat="43.39673" lon="6.09474">
        <ele>267.20001220703</ele>
        <time>2013-09-28T15:13:32Z</time>
      </trkpt>
      <trkpt lat="43.39678" lon="6.09457">
        <ele>265.79998779297</ele>
        <time>2013-09-28T15:13:34Z</time>
      </trkpt>
      <trkpt lat="43.39681" lon="6.09449">
        <ele>265.20001220703</ele>
        <time>2013-09-28T15:13:35Z</time>
      </trkpt>
      <trkpt lat="43.39685" lon="6.09442">
        <ele>264.60000610352</ele>
        <time>2013-09-28T15:13:36Z</time>
      </trkpt>
      <trkpt lat="43.3969" lon="6.09435">
        <ele>264</ele>
        <time>2013-09-28T15:13:37Z</time>
      </trkpt>
      <trkpt lat="43.39695" lon="6.0943">
        <ele>263.20001220703</ele>
        <time>2013-09-28T15:13:38Z</time>
      </trkpt>
      <trkpt lat="43.39701" lon="6.09426">
        <ele>262.60000610352</ele>
        <time>2013-09-28T15:13:39Z</time>
      </trkpt>
      <trkpt lat="43.39714" lon="6.09421">
        <ele>261</ele>
        <time>2013-09-28T15:13:41Z</time>
      </trkpt>
      <trkpt lat="43.39726" lon="6.09412">
        <ele>259.39999389648</ele>
        <time>2013-09-28T15:13:43Z</time>
      </trkpt>
      <trkpt lat="43.39739" lon="6.09393">
        <ele>257.20001220703</ele>
        <time>2013-09-28T15:13:46Z</time>
      </trkpt>
      <trkpt lat="43.39752" lon="6.09367">
        <ele>255.80000305176</ele>
        <time>2013-09-28T15:13:50Z</time>
      </trkpt>
      <trkpt lat="43.39759" lon="6.09355">
        <ele>255.80000305176</ele>
        <time>2013-09-28T15:13:52Z</time>
      </trkpt>
      <trkpt lat="43.39769" lon="6.09335">
        <ele>255.80000305176</ele>
        <time>2013-09-28T15:13:55Z</time>
      </trkpt>
      <trkpt lat="43.39787" lon="6.09285">
        <ele>255.80000305176</ele>
        <time>2013-09-28T15:14:02Z</time>
      </trkpt>
      <trkpt lat="43.39795" lon="6.09243">
        <ele>255.80000305176</ele>
        <time>2013-09-28T15:14:08Z</time>
      </trkpt>
      <trkpt lat="43.39799" lon="6.09203">
        <ele>255.80000305176</ele>
        <time>2013-09-28T15:14:14Z</time>
      </trkpt>
      <trkpt lat="43.39796" lon="6.09167">
        <ele>255.80000305176</ele>
        <time>2013-09-28T15:14:20Z</time>
      </trkpt>
      <trkpt lat="43.39799" lon="6.09148">
        <ele>255.80000305176</ele>
        <time>2013-09-28T15:14:24Z</time>
      </trkpt>
      <trkpt lat="43.39801" lon="6.09133">
        <ele>257</ele>
        <time>2013-09-28T15:14:27Z</time>
      </trkpt>
      <trkpt lat="43.39802" lon="6.09123">
        <ele>257.79998779297</ele>
        <time>2013-09-28T15:14:29Z</time>
      </trkpt>
      <trkpt lat="43.39806" lon="6.0911">
        <ele>257.79998779297</ele>
        <time>2013-09-28T15:14:32Z</time>
      </trkpt>
      <trkpt lat="43.39812" lon="6.09092">
        <ele>257.79998779297</ele>
        <time>2013-09-28T15:14:37Z</time>
      </trkpt>
      <trkpt lat="43.3982" lon="6.09067">
        <ele>257.79998779297</ele>
        <time>2013-09-28T15:14:43Z</time>
      </trkpt>
      <trkpt lat="43.39825" lon="6.09057">
        <ele>257.79998779297</ele>
        <time>2013-09-28T15:14:45Z</time>
      </trkpt>
      <trkpt lat="43.39836" lon="6.09042">
        <ele>257.79998779297</ele>
        <time>2013-09-28T15:14:48Z</time>
      </trkpt>
      <trkpt lat="43.39845" lon="6.09033">
        <ele>257.79998779297</ele>
        <time>2013-09-28T15:14:50Z</time>
      </trkpt>
      <trkpt lat="43.39859" lon="6.09017">
        <ele>257.39999389648</ele>
        <time>2013-09-28T15:14:53Z</time>
      </trkpt>
      <trkpt lat="43.39868" lon="6.09007">
        <ele>256.60000610352</ele>
        <time>2013-09-28T15:14:55Z</time>
      </trkpt>
      <trkpt lat="43.39883" lon="6.08995">
        <ele>255.80000305176</ele>
        <time>2013-09-28T15:14:58Z</time>
      </trkpt>
      <trkpt lat="43.39888" lon="6.08992">
        <ele>255.80000305176</ele>
        <time>2013-09-28T15:14:59Z</time>
      </trkpt>
      <trkpt lat="43.39911" lon="6.08989">
        <ele>255.80000305176</ele>
        <time>2013-09-28T15:15:03Z</time>
      </trkpt>
      <trkpt lat="43.39925" lon="6.08986">
        <ele>254.80000305176</ele>
        <time>2013-09-28T15:15:05Z</time>
      </trkpt>
      <trkpt lat="43.39939" lon="6.08984">
        <ele>254</ele>
        <time>2013-09-28T15:15:07Z</time>
      </trkpt>
      <trkpt lat="43.39954" lon="6.0898">
        <ele>253</ele>
        <time>2013-09-28T15:15:09Z</time>
      </trkpt>
      <trkpt lat="43.39962" lon="6.08979">
        <ele>252.39999389648</ele>
        <time>2013-09-28T15:15:10Z</time>
      </trkpt>
      <trkpt lat="43.39969" lon="6.08978">
        <ele>252</ele>
        <time>2013-09-28T15:15:11Z</time>
      </trkpt>
      <trkpt lat="43.39976" lon="6.08976">
        <ele>251.39999389648</ele>
        <time>2013-09-28T15:15:12Z</time>
      </trkpt>
      <trkpt lat="43.39983" lon="6.08975">
        <ele>251</ele>
        <time>2013-09-28T15:15:13Z</time>
      </trkpt>
      <trkpt lat="43.39989" lon="6.08974">
        <ele>251</ele>
        <time>2013-09-28T15:15:14Z</time>
      </trkpt>
      <trkpt lat="43.40009" lon="6.08968">
        <ele>251</ele>
        <time>2013-09-28T15:15:17Z</time>
      </trkpt>
      <trkpt lat="43.4002" lon="6.08961">
        <ele>251</ele>
        <time>2013-09-28T15:15:19Z</time>
      </trkpt>
      <trkpt lat="43.40031" lon="6.08942">
        <ele>251</ele>
        <time>2013-09-28T15:15:22Z</time>
      </trkpt>
      <trkpt lat="43.40038" lon="6.08921">
        <ele>251</ele>
        <time>2013-09-28T15:15:25Z</time>
      </trkpt>
      <trkpt lat="43.4004" lon="6.08915">
        <ele>251</ele>
        <time>2013-09-28T15:15:26Z</time>
      </trkpt>
      <trkpt lat="43.4005" lon="6.08876">
        <ele>251</ele>
        <time>2013-09-28T15:15:32Z</time>
      </trkpt>
      <trkpt lat="43.40051" lon="6.08869">
        <ele>251</ele>
        <time>2013-09-28T15:15:33Z</time>
      </trkpt>
      <trkpt lat="43.40058" lon="6.08844">
        <ele>251</ele>
        <time>2013-09-28T15:15:37Z</time>
      </trkpt>
      <trkpt lat="43.40075" lon="6.08798">
        <ele>251</ele>
        <time>2013-09-28T15:15:45Z</time>
      </trkpt>
      <trkpt lat="43.40085" lon="6.08771">
        <ele>251</ele>
        <time>2013-09-28T15:15:50Z</time>
      </trkpt>
      <trkpt lat="43.40098" lon="6.08728">
        <ele>250.60000610352</ele>
        <time>2013-09-28T15:15:57Z</time>
      </trkpt>
      <trkpt lat="43.401" lon="6.08714">
        <ele>249.80000305176</ele>
        <time>2013-09-28T15:15:59Z</time>
      </trkpt>
      <trkpt lat="43.40104" lon="6.08688">
        <ele>248.80000305176</ele>
        <time>2013-09-28T15:16:03Z</time>
      </trkpt>
      <trkpt lat="43.40102" lon="6.08681">
        <ele>248.80000305176</ele>
        <time>2013-09-28T15:16:04Z</time>
      </trkpt>
      <trkpt lat="43.40098" lon="6.08659">
        <ele>248.39999389648</ele>
        <time>2013-09-28T15:16:07Z</time>
      </trkpt>
      <trkpt lat="43.40097" lon="6.08651">
        <ele>248</ele>
        <time>2013-09-28T15:16:08Z</time>
      </trkpt>
      <trkpt lat="43.40099" lon="6.08643">
        <ele>247.60000610352</ele>
        <time>2013-09-28T15:16:09Z</time>
      </trkpt>
      <trkpt lat="43.40102" lon="6.08635">
        <ele>247.19999694824</ele>
        <time>2013-09-28T15:16:10Z</time>
      </trkpt>
      <trkpt lat="43.40105" lon="6.0863">
        <ele>246.80000305176</ele>
        <time>2013-09-28T15:16:11Z</time>
      </trkpt>
      <trkpt lat="43.4012" lon="6.08617">
        <ele>246.39999389648</ele>
        <time>2013-09-28T15:16:14Z</time>
      </trkpt>
      <trkpt lat="43.40129" lon="6.08609">
        <ele>245.39999389648</ele>
        <time>2013-09-28T15:16:16Z</time>
      </trkpt>
      <trkpt lat="43.40138" lon="6.08599">
        <ele>244.60000610352</ele>
        <time>2013-09-28T15:16:18Z</time>
      </trkpt>
      <trkpt lat="43.40161" lon="6.08587">
        <ele>244.60000610352</ele>
        <time>2013-09-28T15:16:23Z</time>
      </trkpt>
      <trkpt lat="43.40167" lon="6.08577">
        <ele>244.60000610352</ele>
        <time>2013-09-28T15:16:25Z</time>
      </trkpt>
      <trkpt lat="43.40169" lon="6.08562">
        <ele>244.60000610352</ele>
        <time>2013-09-28T15:16:28Z</time>
      </trkpt>
      <trkpt lat="43.40169" lon="6.08551">
        <ele>244.60000610352</ele>
        <time>2013-09-28T15:16:30Z</time>
      </trkpt>
      <trkpt lat="43.40167" lon="6.08529">
        <ele>244.60000610352</ele>
        <time>2013-09-28T15:16:34Z</time>
      </trkpt>
      <trkpt lat="43.4017" lon="6.08499">
        <ele>244.60000610352</ele>
        <time>2013-09-28T15:16:40Z</time>
      </trkpt>
      <trkpt lat="43.40174" lon="6.08465">
        <ele>244.60000610352</ele>
        <time>2013-09-28T15:16:47Z</time>
      </trkpt>
      <trkpt lat="43.40177" lon="6.08445">
        <ele>244.60000610352</ele>
        <time>2013-09-28T15:16:51Z</time>
      </trkpt>
      <trkpt lat="43.40178" lon="6.08435">
        <ele>244.60000610352</ele>
        <time>2013-09-28T15:16:53Z</time>
      </trkpt>
      <trkpt lat="43.40179" lon="6.08399">
        <ele>244.60000610352</ele>
        <time>2013-09-28T15:16:59Z</time>
      </trkpt>
      <trkpt lat="43.4018" lon="6.08358">
        <ele>244.60000610352</ele>
        <time>2013-09-28T15:17:05Z</time>
      </trkpt>
      <trkpt lat="43.40181" lon="6.08313">
        <ele>244.60000610352</ele>
        <time>2013-09-28T15:17:12Z</time>
      </trkpt>
      <trkpt lat="43.40181" lon="6.08307">
        <ele>244.60000610352</ele>
        <time>2013-09-28T15:17:13Z</time>
      </trkpt>
      <trkpt lat="43.40185" lon="6.08281">
        <ele>244.60000610352</ele>
        <time>2013-09-28T15:17:18Z</time>
      </trkpt>
      <trkpt lat="43.40186" lon="6.08267">
        <ele>244.60000610352</ele>
        <time>2013-09-28T15:17:22Z</time>
      </trkpt>
      <trkpt lat="43.40187" lon="6.08265">
        <ele>244.60000610352</ele>
        <time>2013-09-28T15:17:23Z</time>
      </trkpt>
      <trkpt lat="43.40189" lon="6.08261">
        <ele>244.60000610352</ele>
        <time>2013-09-28T15:17:26Z</time>
      </trkpt>
      <trkpt lat="43.40197" lon="6.08246">
        <ele>244.60000610352</ele>
        <time>2013-09-28T15:17:30Z</time>
      </trkpt>
      <trkpt lat="43.40205" lon="6.08236">
        <ele>243.19999694824</ele>
        <time>2013-09-28T15:17:32Z</time>
      </trkpt>
      <trkpt lat="43.40209" lon="6.0823">
        <ele>242.80000305176</ele>
        <time>2013-09-28T15:17:33Z</time>
      </trkpt>
      <trkpt lat="43.40214" lon="6.08224">
        <ele>242.19999694824</ele>
        <time>2013-09-28T15:17:34Z</time>
      </trkpt>
      <trkpt lat="43.40224" lon="6.08211">
        <ele>241.80000305176</ele>
        <time>2013-09-28T15:17:36Z</time>
      </trkpt>
      <trkpt lat="43.4023" lon="6.08204">
        <ele>241.39999389648</ele>
        <time>2013-09-28T15:17:37Z</time>
      </trkpt>
      <trkpt lat="43.40236" lon="6.08196">
        <ele>241</ele>
        <time>2013-09-28T15:17:38Z</time>
      </trkpt>
      <trkpt lat="43.40242" lon="6.08189">
        <ele>240.60000610352</ele>
        <time>2013-09-28T15:17:39Z</time>
      </trkpt>
      <trkpt lat="43.40249" lon="6.08182">
        <ele>240.19999694824</ele>
        <time>2013-09-28T15:17:40Z</time>
      </trkpt>
      <trkpt lat="43.40264" lon="6.08168">
        <ele>239.60000610352</ele>
        <time>2013-09-28T15:17:42Z</time>
      </trkpt>
      <trkpt lat="43.40272" lon="6.08162">
        <ele>239.19999694824</ele>
        <time>2013-09-28T15:17:43Z</time>
      </trkpt>
      <trkpt lat="43.4028" lon="6.08156">
        <ele>238.60000610352</ele>
        <time>2013-09-28T15:17:44Z</time>
      </trkpt>
      <trkpt lat="43.40288" lon="6.0815">
        <ele>238</ele>
        <time>2013-09-28T15:17:45Z</time>
      </trkpt>
      <trkpt lat="43.40297" lon="6.08146">
        <ele>237.39999389648</ele>
        <time>2013-09-28T15:17:46Z</time>
      </trkpt>
      <trkpt lat="43.40306" lon="6.08142">
        <ele>236.80000305176</ele>
        <time>2013-09-28T15:17:47Z</time>
      </trkpt>
      <trkpt lat="43.40324" lon="6.08135">
        <ele>235.60000610352</ele>
        <time>2013-09-28T15:17:49Z</time>
      </trkpt>
      <trkpt lat="43.40334" lon="6.08133">
        <ele>235</ele>
        <time>2013-09-28T15:17:50Z</time>
      </trkpt>
      <trkpt lat="43.40361" lon="6.08131">
        <ele>234.60000610352</ele>
        <time>2013-09-28T15:17:53Z</time>
      </trkpt>
      <trkpt lat="43.40379" lon="6.08133">
        <ele>233.80000305176</ele>
        <time>2013-09-28T15:17:55Z</time>
      </trkpt>
      <trkpt lat="43.40405" lon="6.08138">
        <ele>232.60000610352</ele>
        <time>2013-09-28T15:17:58Z</time>
      </trkpt>
      <trkpt lat="43.40413" lon="6.08139">
        <ele>232.19999694824</ele>
        <time>2013-09-28T15:17:59Z</time>
      </trkpt>
      <trkpt lat="43.40422" lon="6.0814">
        <ele>231.39999389648</ele>
        <time>2013-09-28T15:18:00Z</time>
      </trkpt>
      <trkpt lat="43.4043" lon="6.08142">
        <ele>230.80000305176</ele>
        <time>2013-09-28T15:18:01Z</time>
      </trkpt>
      <trkpt lat="43.40439" lon="6.08143">
        <ele>230</ele>
        <time>2013-09-28T15:18:02Z</time>
      </trkpt>
      <trkpt lat="43.40448" lon="6.08143">
        <ele>229.39999389648</ele>
        <time>2013-09-28T15:18:03Z</time>
      </trkpt>
      <trkpt lat="43.40458" lon="6.08144">
        <ele>228.60000610352</ele>
        <time>2013-09-28T15:18:04Z</time>
      </trkpt>
      <trkpt lat="43.40467" lon="6.08144">
        <ele>228.19999694824</ele>
        <time>2013-09-28T15:18:05Z</time>
      </trkpt>
      <trkpt lat="43.40477" lon="6.08145">
        <ele>227.80000305176</ele>
        <time>2013-09-28T15:18:06Z</time>
      </trkpt>
      <trkpt lat="43.40486" lon="6.08147">
        <ele>227.19999694824</ele>
        <time>2013-09-28T15:18:07Z</time>
      </trkpt>
      <trkpt lat="43.40494" lon="6.08149">
        <ele>226.80000305176</ele>
        <time>2013-09-28T15:18:08Z</time>
      </trkpt>
      <trkpt lat="43.405" lon="6.08152">
        <ele>226.19999694824</ele>
        <time>2013-09-28T15:18:09Z</time>
      </trkpt>
      <trkpt lat="43.40503" lon="6.08155">
        <ele>225.80000305176</ele>
        <time>2013-09-28T15:18:10Z</time>
      </trkpt>
      <trkpt lat="43.40504" lon="6.08158">
        <ele>225.19999694824</ele>
        <time>2013-09-28T15:18:11Z</time>
      </trkpt>
      <trkpt lat="43.40505" lon="6.08159">
        <ele>224.80000305176</ele>
        <time>2013-09-28T15:18:12Z</time>
      </trkpt>
      <trkpt lat="43.40506" lon="6.0816">
        <ele>224.19999694824</ele>
        <time>2013-09-28T15:18:13Z</time>
      </trkpt>
      <trkpt lat="43.40511" lon="6.08171">
        <ele>224.19999694824</ele>
        <time>2013-09-28T15:18:18Z</time>
      </trkpt>
      <trkpt lat="43.40517" lon="6.08178">
        <ele>224.19999694824</ele>
        <time>2013-09-28T15:18:20Z</time>
      </trkpt>
      <trkpt lat="43.40525" lon="6.08181">
        <ele>224.19999694824</ele>
        <time>2013-09-28T15:18:22Z</time>
      </trkpt>
      <trkpt lat="43.40541" lon="6.08179">
        <ele>224.19999694824</ele>
        <time>2013-09-28T15:18:25Z</time>
      </trkpt>
      <trkpt lat="43.40547" lon="6.08176">
        <ele>224.19999694824</ele>
        <time>2013-09-28T15:18:26Z</time>
      </trkpt>
      <trkpt lat="43.40556" lon="6.08168">
        <ele>224.19999694824</ele>
        <time>2013-09-28T15:18:28Z</time>
      </trkpt>
      <trkpt lat="43.40562" lon="6.08166">
        <ele>224.19999694824</ele>
        <time>2013-09-28T15:18:29Z</time>
      </trkpt>
      <trkpt lat="43.40567" lon="6.08166">
        <ele>224.19999694824</ele>
        <time>2013-09-28T15:18:30Z</time>
      </trkpt>
      <trkpt lat="43.40573" lon="6.08167">
        <ele>224.19999694824</ele>
        <time>2013-09-28T15:18:31Z</time>
      </trkpt>
      <trkpt lat="43.40585" lon="6.08171">
        <ele>224.19999694824</ele>
        <time>2013-09-28T15:18:33Z</time>
      </trkpt>
      <trkpt lat="43.40591" lon="6.08173">
        <ele>224.19999694824</ele>
        <time>2013-09-28T15:18:34Z</time>
      </trkpt>
      <trkpt lat="43.40615" lon="6.0818">
        <ele>224.19999694824</ele>
        <time>2013-09-28T15:18:38Z</time>
      </trkpt>
      <trkpt lat="43.40648" lon="6.08189">
        <ele>224.19999694824</ele>
        <time>2013-09-28T15:18:43Z</time>
      </trkpt>
      <trkpt lat="43.40674" lon="6.08193">
        <ele>224.19999694824</ele>
        <time>2013-09-28T15:18:47Z</time>
      </trkpt>
      <trkpt lat="43.40687" lon="6.08194">
        <ele>224.19999694824</ele>
        <time>2013-09-28T15:18:49Z</time>
      </trkpt>
      <trkpt lat="43.40708" lon="6.08194">
        <ele>223.39999389648</ele>
        <time>2013-09-28T15:18:52Z</time>
      </trkpt>
      <trkpt lat="43.40744" lon="6.08189">
        <ele>222.19999694824</ele>
        <time>2013-09-28T15:18:57Z</time>
      </trkpt>
      <trkpt lat="43.40801" lon="6.08168">
        <ele>222.19999694824</ele>
        <time>2013-09-28T15:19:05Z</time>
      </trkpt>
      <trkpt lat="43.40816" lon="6.0816">
        <ele>221.39999389648</ele>
        <time>2013-09-28T15:19:07Z</time>
      </trkpt>
      <trkpt lat="43.40838" lon="6.08148">
        <ele>220.19999694824</ele>
        <time>2013-09-28T15:19:10Z</time>
      </trkpt>
      <trkpt lat="43.40867" lon="6.08132">
        <ele>220.19999694824</ele>
        <time>2013-09-28T15:19:14Z</time>
      </trkpt>
      <trkpt lat="43.40904" lon="6.0811">
        <ele>219.80000305176</ele>
        <time>2013-09-28T15:19:19Z</time>
      </trkpt>
      <trkpt lat="43.40932" lon="6.08095">
        <ele>218.19999694824</ele>
        <time>2013-09-28T15:19:23Z</time>
      </trkpt>
      <trkpt lat="43.40987" lon="6.0806">
        <ele>218.19999694824</ele>
        <time>2013-09-28T15:19:31Z</time>
      </trkpt>
      <trkpt lat="43.41033" lon="6.08025">
        <ele>218.19999694824</ele>
        <time>2013-09-28T15:19:38Z</time>
      </trkpt>
      <trkpt lat="43.41079" lon="6.07981">
        <ele>218.19999694824</ele>
        <time>2013-09-28T15:19:46Z</time>
      </trkpt>
      <trkpt lat="43.41121" lon="6.07935">
        <ele>218.19999694824</ele>
        <time>2013-09-28T15:19:54Z</time>
      </trkpt>
      <trkpt lat="43.41143" lon="6.07908">
        <ele>218.19999694824</ele>
        <time>2013-09-28T15:19:59Z</time>
      </trkpt>
      <trkpt lat="43.41147" lon="6.07903">
        <ele>218.19999694824</ele>
        <time>2013-09-28T15:20:00Z</time>
      </trkpt>
      <trkpt lat="43.41151" lon="6.07897">
        <ele>218.19999694824</ele>
        <time>2013-09-28T15:20:01Z</time>
      </trkpt>
      <trkpt lat="43.41159" lon="6.07886">
        <ele>218.19999694824</ele>
        <time>2013-09-28T15:20:03Z</time>
      </trkpt>
      <trkpt lat="43.41167" lon="6.07874">
        <ele>218.19999694824</ele>
        <time>2013-09-28T15:20:05Z</time>
      </trkpt>
      <trkpt lat="43.41191" lon="6.07836">
        <ele>218.19999694824</ele>
        <time>2013-09-28T15:20:11Z</time>
      </trkpt>
      <trkpt lat="43.41219" lon="6.07788">
        <ele>218.19999694824</ele>
        <time>2013-09-28T15:20:18Z</time>
      </trkpt>
      <trkpt lat="43.41222" lon="6.07781">
        <ele>218.19999694824</ele>
        <time>2013-09-28T15:20:19Z</time>
      </trkpt>
      <trkpt lat="43.4124" lon="6.07743">
        <ele>218.19999694824</ele>
        <time>2013-09-28T15:20:24Z</time>
      </trkpt>
      <trkpt lat="43.41254" lon="6.07713">
        <ele>218.19999694824</ele>
        <time>2013-09-28T15:20:28Z</time>
      </trkpt>
      <trkpt lat="43.4126" lon="6.07698">
        <ele>218.19999694824</ele>
        <time>2013-09-28T15:20:30Z</time>
      </trkpt>
      <trkpt lat="43.41282" lon="6.07646">
        <ele>216.19999694824</ele>
        <time>2013-09-28T15:20:37Z</time>
      </trkpt>
      <trkpt lat="43.41302" lon="6.07585">
        <ele>216.19999694824</ele>
        <time>2013-09-28T15:20:45Z</time>
      </trkpt>
      <trkpt lat="43.4132" lon="6.07524">
        <ele>216.19999694824</ele>
        <time>2013-09-28T15:20:53Z</time>
      </trkpt>
      <trkpt lat="43.41333" lon="6.0746">
        <ele>216.19999694824</ele>
        <time>2013-09-28T15:21:01Z</time>
      </trkpt>
      <trkpt lat="43.41343" lon="6.07402">
        <ele>216.19999694824</ele>
        <time>2013-09-28T15:21:08Z</time>
      </trkpt>
      <trkpt lat="43.41346" lon="6.07392">
        <ele>216.19999694824</ele>
        <time>2013-09-28T15:21:09Z</time>
      </trkpt>
      <trkpt lat="43.41361" lon="6.07312">
        <ele>216.19999694824</ele>
        <time>2013-09-28T15:21:19Z</time>
      </trkpt>
      <trkpt lat="43.41368" lon="6.0728">
        <ele>216.19999694824</ele>
        <time>2013-09-28T15:21:23Z</time>
      </trkpt>
      <trkpt lat="43.41372" lon="6.07257">
        <ele>216.19999694824</ele>
        <time>2013-09-28T15:21:26Z</time>
      </trkpt>
      <trkpt lat="43.41383" lon="6.07203">
        <ele>218.19999694824</ele>
        <time>2013-09-28T15:21:33Z</time>
      </trkpt>
      <trkpt lat="43.41392" lon="6.07157">
        <ele>218.19999694824</ele>
        <time>2013-09-28T15:21:39Z</time>
      </trkpt>
      <trkpt lat="43.4142" lon="6.07028">
        <ele>218.19999694824</ele>
        <time>2013-09-28T15:21:56Z</time>
      </trkpt>
      <trkpt lat="43.4143" lon="6.06974">
        <ele>218.60000610352</ele>
        <time>2013-09-28T15:22:03Z</time>
      </trkpt>
      <trkpt lat="43.41433" lon="6.06958">
        <ele>219.39999389648</ele>
        <time>2013-09-28T15:22:05Z</time>
      </trkpt>
      <trkpt lat="43.41443" lon="6.0693">
        <ele>220.19999694824</ele>
        <time>2013-09-28T15:22:09Z</time>
      </trkpt>
      <trkpt lat="43.41466" lon="6.06907">
        <ele>220.19999694824</ele>
        <time>2013-09-28T15:22:14Z</time>
      </trkpt>
      <trkpt lat="43.41475" lon="6.06898">
        <ele>220.19999694824</ele>
        <time>2013-09-28T15:22:16Z</time>
      </trkpt>
      <trkpt lat="43.41487" lon="6.06897">
        <ele>220.19999694824</ele>
        <time>2013-09-28T15:22:18Z</time>
      </trkpt>
      <trkpt lat="43.41499" lon="6.069">
        <ele>220.19999694824</ele>
        <time>2013-09-28T15:22:20Z</time>
      </trkpt>
      <trkpt lat="43.4151" lon="6.06902">
        <ele>220.19999694824</ele>
        <time>2013-09-28T15:22:22Z</time>
      </trkpt>
      <trkpt lat="43.41541" lon="6.06916">
        <ele>220.19999694824</ele>
        <time>2013-09-28T15:22:28Z</time>
      </trkpt>
      <trkpt lat="43.41583" lon="6.06935">
        <ele>220.60000610352</ele>
        <time>2013-09-28T15:22:37Z</time>
      </trkpt>
      <trkpt lat="43.41598" lon="6.06944">
        <ele>222.39999389648</ele>
        <time>2013-09-28T15:22:41Z</time>
      </trkpt>
      <trkpt lat="43.4161" lon="6.06951">
        <ele>222.39999389648</ele>
        <time>2013-09-28T15:22:44Z</time>
      </trkpt>
      <trkpt lat="43.41624" lon="6.06958">
        <ele>222.39999389648</ele>
        <time>2013-09-28T15:22:48Z</time>
      </trkpt>
      <trkpt lat="43.41631" lon="6.06962">
        <ele>222.80000305176</ele>
        <time>2013-09-28T15:22:50Z</time>
      </trkpt>
      <trkpt lat="43.41643" lon="6.06965">
        <ele>224</ele>
        <time>2013-09-28T15:22:53Z</time>
      </trkpt>
      <trkpt lat="43.41653" lon="6.06971">
        <ele>224.39999389648</ele>
        <time>2013-09-28T15:22:56Z</time>
      </trkpt>
      <trkpt lat="43.41673" lon="6.06981">
        <ele>224.39999389648</ele>
        <time>2013-09-28T15:23:02Z</time>
      </trkpt>
      <trkpt lat="43.41683" lon="6.06984">
        <ele>225</ele>
        <time>2013-09-28T15:23:05Z</time>
      </trkpt>
      <trkpt lat="43.41689" lon="6.06987">
        <ele>225.80000305176</ele>
        <time>2013-09-28T15:23:07Z</time>
      </trkpt>
      <trkpt lat="43.41691" lon="6.06993">
        <ele>226.60000610352</ele>
        <time>2013-09-28T15:23:09Z</time>
      </trkpt>
      <trkpt lat="43.41694" lon="6.07006">
        <ele>226.60000610352</ele>
        <time>2013-09-28T15:23:12Z</time>
      </trkpt>
      <trkpt lat="43.41699" lon="6.07025">
        <ele>226.60000610352</ele>
        <time>2013-09-28T15:23:16Z</time>
      </trkpt>
      <trkpt lat="43.41702" lon="6.07039">
        <ele>226.60000610352</ele>
        <time>2013-09-28T15:23:19Z</time>
      </trkpt>
      <trkpt lat="43.41706" lon="6.07058">
        <ele>226.60000610352</ele>
        <time>2013-09-28T15:23:23Z</time>
      </trkpt>
      <trkpt lat="43.41708" lon="6.07063">
        <ele>226.60000610352</ele>
        <time>2013-09-28T15:23:24Z</time>
      </trkpt>
      <trkpt lat="43.41715" lon="6.07078">
        <ele>226.60000610352</ele>
        <time>2013-09-28T15:23:27Z</time>
      </trkpt>
      <trkpt lat="43.41724" lon="6.0709">
        <ele>226.60000610352</ele>
        <time>2013-09-28T15:23:30Z</time>
      </trkpt>
      <trkpt lat="43.41737" lon="6.07094">
        <ele>226.60000610352</ele>
        <time>2013-09-28T15:23:33Z</time>
      </trkpt>
      <trkpt lat="43.41745" lon="6.07094">
        <ele>226.60000610352</ele>
        <time>2013-09-28T15:23:35Z</time>
      </trkpt>
      <trkpt lat="43.41755" lon="6.07096">
        <ele>226.60000610352</ele>
        <time>2013-09-28T15:23:37Z</time>
      </trkpt>
      <trkpt lat="43.41767" lon="6.071">
        <ele>226.60000610352</ele>
        <time>2013-09-28T15:23:40Z</time>
      </trkpt>
      <trkpt lat="43.41791" lon="6.07102">
        <ele>226.60000610352</ele>
        <time>2013-09-28T15:23:47Z</time>
      </trkpt>
      <trkpt lat="43.41814" lon="6.07113">
        <ele>226.60000610352</ele>
        <time>2013-09-28T15:23:54Z</time>
      </trkpt>
      <trkpt lat="43.41841" lon="6.07133">
        <ele>226.60000610352</ele>
        <time>2013-09-28T15:24:03Z</time>
      </trkpt>
      <trkpt lat="43.41863" lon="6.07147">
        <ele>226.60000610352</ele>
        <time>2013-09-28T15:24:11Z</time>
      </trkpt>
      <trkpt lat="43.41884" lon="6.07152">
        <ele>226.60000610352</ele>
        <time>2013-09-28T15:24:18Z</time>
      </trkpt>
      <trkpt lat="43.41889" lon="6.07151">
        <ele>227</ele>
        <time>2013-09-28T15:24:20Z</time>
      </trkpt>
      <trkpt lat="43.41903" lon="6.07149">
        <ele>228.80000305176</ele>
        <time>2013-09-28T15:24:26Z</time>
      </trkpt>
      <trkpt lat="43.41908" lon="6.07156">
        <ele>228.80000305176</ele>
        <time>2013-09-28T15:24:30Z</time>
      </trkpt>
      <trkpt lat="43.41911" lon="6.07165">
        <ele>229.39999389648</ele>
        <time>2013-09-28T15:24:34Z</time>
      </trkpt>
      <trkpt lat="43.41912" lon="6.07167">
        <ele>229.80000305176</ele>
        <time>2013-09-28T15:24:35Z</time>
      </trkpt>
      <trkpt lat="43.41913" lon="6.07169">
        <ele>230.19999694824</ele>
        <time>2013-09-28T15:24:36Z</time>
      </trkpt>
      <trkpt lat="43.41914" lon="6.07174">
        <ele>231</ele>
        <time>2013-09-28T15:24:38Z</time>
      </trkpt>
      <trkpt lat="43.41912" lon="6.07183">
        <ele>231.39999389648</ele>
        <time>2013-09-28T15:24:42Z</time>
      </trkpt>
      <trkpt lat="43.41911" lon="6.07185">
        <ele>231.80000305176</ele>
        <time>2013-09-28T15:24:43Z</time>
      </trkpt>
      <trkpt lat="43.41908" lon="6.07187">
        <ele>232.60000610352</ele>
        <time>2013-09-28T15:24:45Z</time>
      </trkpt>
      <trkpt lat="43.41906" lon="6.0719">
        <ele>233</ele>
        <time>2013-09-28T15:24:46Z</time>
      </trkpt>
      <trkpt lat="43.41899" lon="6.07201">
        <ele>233</ele>
        <time>2013-09-28T15:24:52Z</time>
      </trkpt>
      <trkpt lat="43.41886" lon="6.07207">
        <ele>233</ele>
        <time>2013-09-28T15:24:57Z</time>
      </trkpt>
      <trkpt lat="43.41877" lon="6.07212">
        <ele>233</ele>
        <time>2013-09-28T15:25:00Z</time>
      </trkpt>
      <trkpt lat="43.41869" lon="6.07215">
        <ele>233</ele>
        <time>2013-09-28T15:25:02Z</time>
      </trkpt>
      <trkpt lat="43.41865" lon="6.07229">
        <ele>233</ele>
        <time>2013-09-28T15:25:05Z</time>
      </trkpt>
      <trkpt lat="43.41864" lon="6.07233">
        <ele>233</ele>
        <time>2013-09-28T15:25:06Z</time>
      </trkpt>
      <trkpt lat="43.41864" lon="6.0726">
        <ele>233</ele>
        <time>2013-09-28T15:25:13Z</time>
      </trkpt>
      <trkpt lat="43.41864" lon="6.07267">
        <ele>233</ele>
        <time>2013-09-28T15:25:16Z</time>
      </trkpt>
      <trkpt lat="43.41863" lon="6.07268">
        <ele>233</ele>
        <time>2013-09-28T15:25:18Z</time>
      </trkpt>
      <trkpt lat="43.41862" lon="6.07268">
        <ele>233</ele>
        <time>2013-09-28T15:25:25Z</time>
      </trkpt>
      <trkpt lat="43.41861" lon="6.07269">
        <ele>233</ele>
        <time>2013-09-28T15:25:32Z</time>
      </trkpt>
      <trkpt lat="43.41861" lon="6.07269">
        <ele>233</ele>
        <time>2013-09-28T15:25:37Z</time>
      </trkpt>
      <trkpt lat="43.41861" lon="6.0727">
        <ele>233</ele>
        <time>2013-09-28T15:25:40Z</time>
      </trkpt>
    </trkseg>
  </trk>
</gpx>